<?xml version="1.0" encoding="UTF-8" standalone="no" ?>
<gpx xmlns="http://www.topografix.com/GPX/1/1" xmlns:xsi="http://www.w3.org/2001/XMLSchema-instance" xsi:schemaLocation="http://www.topografix.com/GPX/1/1 http://www.topografix.com/GPX/1/1/gpx.xsd" version="1.1" creator="VisuGPX - https://www.visugpx.com">
  <metadata>
    <name>SE-N-St Aignan Le Bignon Chateau Thébaud Vertou Basse Goulaine St Sebastien Pirmil</name>
    <desc><![CDATA[SE-N-St Aignan Le Bignon Chateau Thébaud Vertou Basse Goulaine St Sebastien Pirmil]]></desc>
  </metadata>
  <trk>
    <name><![CDATA[2021-02-13 13:34 +01:00]]></name>
    <trkseg>
      <trkpt lat="47.16782" lon="-1.62652">
        <ele>78</ele>
        <time>2021-02-13T12:34:01.000Z</time>
      </trkpt>
      <trkpt lat="47.1678" lon="-1.6267">
        <ele>77</ele>
        <time>2021-02-13T12:36:20.000Z</time>
      </trkpt>
      <trkpt lat="47.16774" lon="-1.62681">
        <ele>76</ele>
        <time>2021-02-13T12:36:22.000Z</time>
      </trkpt>
      <trkpt lat="47.16762" lon="-1.62678">
        <ele>76</ele>
        <time>2021-02-13T12:36:24.000Z</time>
      </trkpt>
      <trkpt lat="47.16752" lon="-1.62673">
        <ele>74</ele>
        <time>2021-02-13T12:36:26.000Z</time>
      </trkpt>
      <trkpt lat="47.16742" lon="-1.6268">
        <ele>74</ele>
        <time>2021-02-13T12:36:28.000Z</time>
      </trkpt>
      <trkpt lat="47.16731" lon="-1.62686">
        <ele>74</ele>
        <time>2021-02-13T12:36:30.000Z</time>
      </trkpt>
      <trkpt lat="47.16722" lon="-1.62693">
        <ele>74</ele>
        <time>2021-02-13T12:36:32.000Z</time>
      </trkpt>
      <trkpt lat="47.16708" lon="-1.62689">
        <ele>74</ele>
        <time>2021-02-13T12:36:35.000Z</time>
      </trkpt>
      <trkpt lat="47.16702" lon="-1.62672">
        <ele>74</ele>
        <time>2021-02-13T12:36:37.000Z</time>
      </trkpt>
      <trkpt lat="47.16698" lon="-1.62654">
        <ele>73</ele>
        <time>2021-02-13T12:36:39.000Z</time>
      </trkpt>
      <trkpt lat="47.16696" lon="-1.62637">
        <ele>73</ele>
        <time>2021-02-13T12:36:41.000Z</time>
      </trkpt>
      <trkpt lat="47.16695" lon="-1.62619">
        <ele>73</ele>
        <time>2021-02-13T12:36:43.000Z</time>
      </trkpt>
      <trkpt lat="47.16695" lon="-1.626">
        <ele>73</ele>
        <time>2021-02-13T12:36:45.000Z</time>
      </trkpt>
      <trkpt lat="47.16695" lon="-1.62582">
        <ele>72</ele>
        <time>2021-02-13T12:36:47.000Z</time>
      </trkpt>
      <trkpt lat="47.16697" lon="-1.62564">
        <ele>72</ele>
        <time>2021-02-13T12:36:49.000Z</time>
      </trkpt>
      <trkpt lat="47.16698" lon="-1.62545">
        <ele>71</ele>
        <time>2021-02-13T12:36:51.000Z</time>
      </trkpt>
      <trkpt lat="47.16701" lon="-1.62526">
        <ele>71</ele>
        <time>2021-02-13T12:36:53.000Z</time>
      </trkpt>
      <trkpt lat="47.16703" lon="-1.62508">
        <ele>71</ele>
        <time>2021-02-13T12:36:55.000Z</time>
      </trkpt>
      <trkpt lat="47.16707" lon="-1.62489">
        <ele>70</ele>
        <time>2021-02-13T12:36:57.000Z</time>
      </trkpt>
      <trkpt lat="47.1671" lon="-1.62472">
        <ele>70</ele>
        <time>2021-02-13T12:36:59.000Z</time>
      </trkpt>
      <trkpt lat="47.16712" lon="-1.62455">
        <ele>71</ele>
        <time>2021-02-13T12:37:01.000Z</time>
      </trkpt>
      <trkpt lat="47.16714" lon="-1.62438">
        <ele>71</ele>
        <time>2021-02-13T12:37:03.000Z</time>
      </trkpt>
      <trkpt lat="47.16718" lon="-1.62423">
        <ele>71</ele>
        <time>2021-02-13T12:37:05.000Z</time>
      </trkpt>
      <trkpt lat="47.16725" lon="-1.6241">
        <ele>71</ele>
        <time>2021-02-13T12:37:07.000Z</time>
      </trkpt>
      <trkpt lat="47.16717" lon="-1.62396">
        <ele>70</ele>
        <time>2021-02-13T12:37:10.000Z</time>
      </trkpt>
      <trkpt lat="47.16707" lon="-1.62389">
        <ele>70</ele>
        <time>2021-02-13T12:37:12.000Z</time>
      </trkpt>
      <trkpt lat="47.16699" lon="-1.62377">
        <ele>70</ele>
        <time>2021-02-13T12:37:14.000Z</time>
      </trkpt>
      <trkpt lat="47.16688" lon="-1.62367">
        <ele>70</ele>
        <time>2021-02-13T12:37:16.000Z</time>
      </trkpt>
      <trkpt lat="47.16676" lon="-1.62362">
        <ele>71</ele>
        <time>2021-02-13T12:37:18.000Z</time>
      </trkpt>
      <trkpt lat="47.16665" lon="-1.6236">
        <ele>70</ele>
        <time>2021-02-13T12:37:20.000Z</time>
      </trkpt>
      <trkpt lat="47.16654" lon="-1.62362">
        <ele>70</ele>
        <time>2021-02-13T12:37:22.000Z</time>
      </trkpt>
      <trkpt lat="47.16644" lon="-1.6237">
        <ele>70</ele>
        <time>2021-02-13T12:37:24.000Z</time>
      </trkpt>
      <trkpt lat="47.16635" lon="-1.6238">
        <ele>70</ele>
        <time>2021-02-13T12:37:26.000Z</time>
      </trkpt>
      <trkpt lat="47.16626" lon="-1.62392">
        <ele>70</ele>
        <time>2021-02-13T12:37:28.000Z</time>
      </trkpt>
      <trkpt lat="47.16618" lon="-1.62408">
        <ele>72</ele>
        <time>2021-02-13T12:37:30.000Z</time>
      </trkpt>
      <trkpt lat="47.1661" lon="-1.62423">
        <ele>73</ele>
        <time>2021-02-13T12:37:32.000Z</time>
      </trkpt>
      <trkpt lat="47.16603" lon="-1.62438">
        <ele>74</ele>
        <time>2021-02-13T12:37:34.000Z</time>
      </trkpt>
      <trkpt lat="47.16597" lon="-1.62452">
        <ele>74</ele>
        <time>2021-02-13T12:37:36.000Z</time>
      </trkpt>
      <trkpt lat="47.16591" lon="-1.62468">
        <ele>74</ele>
        <time>2021-02-13T12:37:38.000Z</time>
      </trkpt>
      <trkpt lat="47.16585" lon="-1.62482">
        <ele>74</ele>
        <time>2021-02-13T12:37:40.000Z</time>
      </trkpt>
      <trkpt lat="47.16579" lon="-1.62496">
        <ele>74</ele>
        <time>2021-02-13T12:37:42.000Z</time>
      </trkpt>
      <trkpt lat="47.16574" lon="-1.62511">
        <ele>75</ele>
        <time>2021-02-13T12:37:44.000Z</time>
      </trkpt>
      <trkpt lat="47.16567" lon="-1.62525">
        <ele>75</ele>
        <time>2021-02-13T12:37:46.000Z</time>
      </trkpt>
      <trkpt lat="47.1656" lon="-1.62538">
        <ele>76</ele>
        <time>2021-02-13T12:37:48.000Z</time>
      </trkpt>
      <trkpt lat="47.16551" lon="-1.62549">
        <ele>77</ele>
        <time>2021-02-13T12:37:50.000Z</time>
      </trkpt>
      <trkpt lat="47.16543" lon="-1.6256">
        <ele>78</ele>
        <time>2021-02-13T12:37:52.000Z</time>
      </trkpt>
      <trkpt lat="47.16531" lon="-1.62566">
        <ele>79</ele>
        <time>2021-02-13T12:37:54.000Z</time>
      </trkpt>
      <trkpt lat="47.16519" lon="-1.62565">
        <ele>79</ele>
        <time>2021-02-13T12:37:56.000Z</time>
      </trkpt>
      <trkpt lat="47.16507" lon="-1.62561">
        <ele>79</ele>
        <time>2021-02-13T12:37:58.000Z</time>
      </trkpt>
      <trkpt lat="47.16496" lon="-1.62557">
        <ele>79</ele>
        <time>2021-02-13T12:38:00.000Z</time>
      </trkpt>
      <trkpt lat="47.16484" lon="-1.62553">
        <ele>79</ele>
        <time>2021-02-13T12:38:02.000Z</time>
      </trkpt>
      <trkpt lat="47.16473" lon="-1.6255">
        <ele>79</ele>
        <time>2021-02-13T12:38:04.000Z</time>
      </trkpt>
      <trkpt lat="47.16462" lon="-1.62546">
        <ele>79</ele>
        <time>2021-02-13T12:38:06.000Z</time>
      </trkpt>
      <trkpt lat="47.16451" lon="-1.62542">
        <ele>80</ele>
        <time>2021-02-13T12:38:08.000Z</time>
      </trkpt>
      <trkpt lat="47.16439" lon="-1.6254">
        <ele>79</ele>
        <time>2021-02-13T12:38:10.000Z</time>
      </trkpt>
      <trkpt lat="47.16428" lon="-1.62544">
        <ele>79</ele>
        <time>2021-02-13T12:38:12.000Z</time>
      </trkpt>
      <trkpt lat="47.16419" lon="-1.62554">
        <ele>79</ele>
        <time>2021-02-13T12:38:14.000Z</time>
      </trkpt>
      <trkpt lat="47.16409" lon="-1.62564">
        <ele>79</ele>
        <time>2021-02-13T12:38:16.000Z</time>
      </trkpt>
      <trkpt lat="47.16399" lon="-1.62574">
        <ele>79</ele>
        <time>2021-02-13T12:38:18.000Z</time>
      </trkpt>
      <trkpt lat="47.16387" lon="-1.62581">
        <ele>79</ele>
        <time>2021-02-13T12:38:20.000Z</time>
      </trkpt>
      <trkpt lat="47.16374" lon="-1.62585">
        <ele>78</ele>
        <time>2021-02-13T12:38:22.000Z</time>
      </trkpt>
      <trkpt lat="47.16361" lon="-1.62582">
        <ele>78</ele>
        <time>2021-02-13T12:38:24.000Z</time>
      </trkpt>
      <trkpt lat="47.16348" lon="-1.6258">
        <ele>77</ele>
        <time>2021-02-13T12:38:26.000Z</time>
      </trkpt>
      <trkpt lat="47.16336" lon="-1.62576">
        <ele>77</ele>
        <time>2021-02-13T12:38:28.000Z</time>
      </trkpt>
      <trkpt lat="47.16323" lon="-1.62571">
        <ele>77</ele>
        <time>2021-02-13T12:38:30.000Z</time>
      </trkpt>
      <trkpt lat="47.16311" lon="-1.6257">
        <ele>77</ele>
        <time>2021-02-13T12:38:32.000Z</time>
      </trkpt>
      <trkpt lat="47.163" lon="-1.62577">
        <ele>77</ele>
        <time>2021-02-13T12:38:34.000Z</time>
      </trkpt>
      <trkpt lat="47.16291" lon="-1.62591">
        <ele>77</ele>
        <time>2021-02-13T12:38:36.000Z</time>
      </trkpt>
      <trkpt lat="47.16287" lon="-1.62607">
        <ele>77</ele>
        <time>2021-02-13T12:38:38.000Z</time>
      </trkpt>
      <trkpt lat="47.16283" lon="-1.62625">
        <ele>77</ele>
        <time>2021-02-13T12:38:40.000Z</time>
      </trkpt>
      <trkpt lat="47.1628" lon="-1.62642">
        <ele>77</ele>
        <time>2021-02-13T12:38:42.000Z</time>
      </trkpt>
      <trkpt lat="47.16278" lon="-1.6266">
        <ele>77</ele>
        <time>2021-02-13T12:38:44.000Z</time>
      </trkpt>
      <trkpt lat="47.16277" lon="-1.62677">
        <ele>77</ele>
        <time>2021-02-13T12:38:46.000Z</time>
      </trkpt>
      <trkpt lat="47.16278" lon="-1.62693">
        <ele>77</ele>
        <time>2021-02-13T12:38:49.000Z</time>
      </trkpt>
      <trkpt lat="47.16279" lon="-1.62707">
        <ele>78</ele>
        <time>2021-02-13T12:39:00.000Z</time>
      </trkpt>
      <trkpt lat="47.16282" lon="-1.62722">
        <ele>78</ele>
        <time>2021-02-13T12:39:03.000Z</time>
      </trkpt>
      <trkpt lat="47.16276" lon="-1.62736">
        <ele>77</ele>
        <time>2021-02-13T12:39:06.000Z</time>
      </trkpt>
      <trkpt lat="47.16266" lon="-1.62737">
        <ele>77</ele>
        <time>2021-02-13T12:39:08.000Z</time>
      </trkpt>
      <trkpt lat="47.16254" lon="-1.62744">
        <ele>76</ele>
        <time>2021-02-13T12:39:10.000Z</time>
      </trkpt>
      <trkpt lat="47.16242" lon="-1.62751">
        <ele>76</ele>
        <time>2021-02-13T12:39:12.000Z</time>
      </trkpt>
      <trkpt lat="47.16229" lon="-1.62757">
        <ele>76</ele>
        <time>2021-02-13T12:39:14.000Z</time>
      </trkpt>
      <trkpt lat="47.16215" lon="-1.62765">
        <ele>75</ele>
        <time>2021-02-13T12:39:16.000Z</time>
      </trkpt>
      <trkpt lat="47.16202" lon="-1.62775">
        <ele>75</ele>
        <time>2021-02-13T12:39:18.000Z</time>
      </trkpt>
      <trkpt lat="47.16188" lon="-1.62787">
        <ele>74</ele>
        <time>2021-02-13T12:39:20.000Z</time>
      </trkpt>
      <trkpt lat="47.16174" lon="-1.62799">
        <ele>73</ele>
        <time>2021-02-13T12:39:22.000Z</time>
      </trkpt>
      <trkpt lat="47.1616" lon="-1.62811">
        <ele>73</ele>
        <time>2021-02-13T12:39:24.000Z</time>
      </trkpt>
      <trkpt lat="47.16145" lon="-1.62823">
        <ele>72</ele>
        <time>2021-02-13T12:39:26.000Z</time>
      </trkpt>
      <trkpt lat="47.16132" lon="-1.62836">
        <ele>72</ele>
        <time>2021-02-13T12:39:28.000Z</time>
      </trkpt>
      <trkpt lat="47.16118" lon="-1.62849">
        <ele>71</ele>
        <time>2021-02-13T12:39:30.000Z</time>
      </trkpt>
      <trkpt lat="47.16105" lon="-1.62861">
        <ele>71</ele>
        <time>2021-02-13T12:39:32.000Z</time>
      </trkpt>
      <trkpt lat="47.16091" lon="-1.62873">
        <ele>71</ele>
        <time>2021-02-13T12:39:34.000Z</time>
      </trkpt>
      <trkpt lat="47.16078" lon="-1.62886">
        <ele>70</ele>
        <time>2021-02-13T12:39:36.000Z</time>
      </trkpt>
      <trkpt lat="47.16063" lon="-1.62898">
        <ele>70</ele>
        <time>2021-02-13T12:39:38.000Z</time>
      </trkpt>
      <trkpt lat="47.1605" lon="-1.62909">
        <ele>69</ele>
        <time>2021-02-13T12:39:40.000Z</time>
      </trkpt>
      <trkpt lat="47.16036" lon="-1.62921">
        <ele>69</ele>
        <time>2021-02-13T12:39:42.000Z</time>
      </trkpt>
      <trkpt lat="47.16021" lon="-1.62934">
        <ele>68</ele>
        <time>2021-02-13T12:39:44.000Z</time>
      </trkpt>
      <trkpt lat="47.16006" lon="-1.62946">
        <ele>68</ele>
        <time>2021-02-13T12:39:46.000Z</time>
      </trkpt>
      <trkpt lat="47.15992" lon="-1.62958">
        <ele>67</ele>
        <time>2021-02-13T12:39:48.000Z</time>
      </trkpt>
      <trkpt lat="47.15978" lon="-1.6297">
        <ele>67</ele>
        <time>2021-02-13T12:39:50.000Z</time>
      </trkpt>
      <trkpt lat="47.15963" lon="-1.62983">
        <ele>66</ele>
        <time>2021-02-13T12:39:52.000Z</time>
      </trkpt>
      <trkpt lat="47.15949" lon="-1.62997">
        <ele>65</ele>
        <time>2021-02-13T12:39:54.000Z</time>
      </trkpt>
      <trkpt lat="47.15935" lon="-1.6301">
        <ele>65</ele>
        <time>2021-02-13T12:39:56.000Z</time>
      </trkpt>
      <trkpt lat="47.1592" lon="-1.63022">
        <ele>64</ele>
        <time>2021-02-13T12:39:58.000Z</time>
      </trkpt>
      <trkpt lat="47.15906" lon="-1.63034">
        <ele>64</ele>
        <time>2021-02-13T12:40:00.000Z</time>
      </trkpt>
      <trkpt lat="47.15892" lon="-1.63047">
        <ele>63</ele>
        <time>2021-02-13T12:40:02.000Z</time>
      </trkpt>
      <trkpt lat="47.15879" lon="-1.63059">
        <ele>64</ele>
        <time>2021-02-13T12:40:04.000Z</time>
      </trkpt>
      <trkpt lat="47.15866" lon="-1.6307">
        <ele>65</ele>
        <time>2021-02-13T12:40:06.000Z</time>
      </trkpt>
      <trkpt lat="47.15853" lon="-1.63081">
        <ele>65</ele>
        <time>2021-02-13T12:40:08.000Z</time>
      </trkpt>
      <trkpt lat="47.15841" lon="-1.63092">
        <ele>66</ele>
        <time>2021-02-13T12:40:10.000Z</time>
      </trkpt>
      <trkpt lat="47.15829" lon="-1.63103">
        <ele>67</ele>
        <time>2021-02-13T12:40:12.000Z</time>
      </trkpt>
      <trkpt lat="47.15818" lon="-1.63113">
        <ele>67</ele>
        <time>2021-02-13T12:40:14.000Z</time>
      </trkpt>
      <trkpt lat="47.15806" lon="-1.63124">
        <ele>68</ele>
        <time>2021-02-13T12:40:16.000Z</time>
      </trkpt>
      <trkpt lat="47.15794" lon="-1.63134">
        <ele>68</ele>
        <time>2021-02-13T12:40:18.000Z</time>
      </trkpt>
      <trkpt lat="47.15783" lon="-1.63146">
        <ele>68</ele>
        <time>2021-02-13T12:40:20.000Z</time>
      </trkpt>
      <trkpt lat="47.15771" lon="-1.63156">
        <ele>69</ele>
        <time>2021-02-13T12:40:22.000Z</time>
      </trkpt>
      <trkpt lat="47.15759" lon="-1.63167">
        <ele>69</ele>
        <time>2021-02-13T12:40:24.000Z</time>
      </trkpt>
      <trkpt lat="47.15746" lon="-1.63179">
        <ele>69</ele>
        <time>2021-02-13T12:40:26.000Z</time>
      </trkpt>
      <trkpt lat="47.15733" lon="-1.63189">
        <ele>69</ele>
        <time>2021-02-13T12:40:28.000Z</time>
      </trkpt>
      <trkpt lat="47.1572" lon="-1.63201">
        <ele>69</ele>
        <time>2021-02-13T12:40:30.000Z</time>
      </trkpt>
      <trkpt lat="47.15707" lon="-1.63212">
        <ele>69</ele>
        <time>2021-02-13T12:40:32.000Z</time>
      </trkpt>
      <trkpt lat="47.15694" lon="-1.63222">
        <ele>69</ele>
        <time>2021-02-13T12:40:34.000Z</time>
      </trkpt>
      <trkpt lat="47.1568" lon="-1.63233">
        <ele>69</ele>
        <time>2021-02-13T12:40:36.000Z</time>
      </trkpt>
      <trkpt lat="47.15668" lon="-1.63245">
        <ele>69</ele>
        <time>2021-02-13T12:40:38.000Z</time>
      </trkpt>
      <trkpt lat="47.15654" lon="-1.63256">
        <ele>69</ele>
        <time>2021-02-13T12:40:40.000Z</time>
      </trkpt>
      <trkpt lat="47.15641" lon="-1.63268">
        <ele>69</ele>
        <time>2021-02-13T12:40:42.000Z</time>
      </trkpt>
      <trkpt lat="47.15628" lon="-1.6328">
        <ele>69</ele>
        <time>2021-02-13T12:40:44.000Z</time>
      </trkpt>
      <trkpt lat="47.15615" lon="-1.63291">
        <ele>69</ele>
        <time>2021-02-13T12:40:46.000Z</time>
      </trkpt>
      <trkpt lat="47.15603" lon="-1.63302">
        <ele>69</ele>
        <time>2021-02-13T12:40:48.000Z</time>
      </trkpt>
      <trkpt lat="47.1559" lon="-1.63313">
        <ele>69</ele>
        <time>2021-02-13T12:40:50.000Z</time>
      </trkpt>
      <trkpt lat="47.15578" lon="-1.63324">
        <ele>70</ele>
        <time>2021-02-13T12:40:52.000Z</time>
      </trkpt>
      <trkpt lat="47.15567" lon="-1.63334">
        <ele>70</ele>
        <time>2021-02-13T12:40:54.000Z</time>
      </trkpt>
      <trkpt lat="47.15555" lon="-1.63345">
        <ele>70</ele>
        <time>2021-02-13T12:40:56.000Z</time>
      </trkpt>
      <trkpt lat="47.15544" lon="-1.63355">
        <ele>71</ele>
        <time>2021-02-13T12:40:58.000Z</time>
      </trkpt>
      <trkpt lat="47.15533" lon="-1.63365">
        <ele>72</ele>
        <time>2021-02-13T12:41:00.000Z</time>
      </trkpt>
      <trkpt lat="47.15521" lon="-1.63375">
        <ele>72</ele>
        <time>2021-02-13T12:41:02.000Z</time>
      </trkpt>
      <trkpt lat="47.1551" lon="-1.63386">
        <ele>73</ele>
        <time>2021-02-13T12:41:04.000Z</time>
      </trkpt>
      <trkpt lat="47.15498" lon="-1.63396">
        <ele>74</ele>
        <time>2021-02-13T12:41:06.000Z</time>
      </trkpt>
      <trkpt lat="47.15486" lon="-1.63407">
        <ele>74</ele>
        <time>2021-02-13T12:41:08.000Z</time>
      </trkpt>
      <trkpt lat="47.15475" lon="-1.63418">
        <ele>75</ele>
        <time>2021-02-13T12:41:10.000Z</time>
      </trkpt>
      <trkpt lat="47.15463" lon="-1.63429">
        <ele>75</ele>
        <time>2021-02-13T12:41:12.000Z</time>
      </trkpt>
      <trkpt lat="47.15451" lon="-1.6344">
        <ele>75</ele>
        <time>2021-02-13T12:41:14.000Z</time>
      </trkpt>
      <trkpt lat="47.15439" lon="-1.6345">
        <ele>75</ele>
        <time>2021-02-13T12:41:16.000Z</time>
      </trkpt>
      <trkpt lat="47.15428" lon="-1.63461">
        <ele>75</ele>
        <time>2021-02-13T12:41:18.000Z</time>
      </trkpt>
      <trkpt lat="47.15417" lon="-1.63472">
        <ele>76</ele>
        <time>2021-02-13T12:41:20.000Z</time>
      </trkpt>
      <trkpt lat="47.15407" lon="-1.63483">
        <ele>76</ele>
        <time>2021-02-13T12:41:22.000Z</time>
      </trkpt>
      <trkpt lat="47.15397" lon="-1.63497">
        <ele>76</ele>
        <time>2021-02-13T12:41:24.000Z</time>
      </trkpt>
      <trkpt lat="47.15388" lon="-1.63508">
        <ele>76</ele>
        <time>2021-02-13T12:41:26.000Z</time>
      </trkpt>
      <trkpt lat="47.15375" lon="-1.63513">
        <ele>76</ele>
        <time>2021-02-13T12:41:28.000Z</time>
      </trkpt>
      <trkpt lat="47.15364" lon="-1.6352">
        <ele>76</ele>
        <time>2021-02-13T12:41:30.000Z</time>
      </trkpt>
      <trkpt lat="47.15353" lon="-1.63532">
        <ele>77</ele>
        <time>2021-02-13T12:41:32.000Z</time>
      </trkpt>
      <trkpt lat="47.15342" lon="-1.63542">
        <ele>77</ele>
        <time>2021-02-13T12:41:34.000Z</time>
      </trkpt>
      <trkpt lat="47.1533" lon="-1.63552">
        <ele>77</ele>
        <time>2021-02-13T12:41:36.000Z</time>
      </trkpt>
      <trkpt lat="47.15319" lon="-1.6356">
        <ele>77</ele>
        <time>2021-02-13T12:41:38.000Z</time>
      </trkpt>
      <trkpt lat="47.15307" lon="-1.63568">
        <ele>77</ele>
        <time>2021-02-13T12:41:40.000Z</time>
      </trkpt>
      <trkpt lat="47.15295" lon="-1.63579">
        <ele>77</ele>
        <time>2021-02-13T12:41:42.000Z</time>
      </trkpt>
      <trkpt lat="47.15283" lon="-1.6359">
        <ele>77</ele>
        <time>2021-02-13T12:41:44.000Z</time>
      </trkpt>
      <trkpt lat="47.15272" lon="-1.63601">
        <ele>76</ele>
        <time>2021-02-13T12:41:46.000Z</time>
      </trkpt>
      <trkpt lat="47.15259" lon="-1.63611">
        <ele>75</ele>
        <time>2021-02-13T12:41:48.000Z</time>
      </trkpt>
      <trkpt lat="47.15247" lon="-1.63623">
        <ele>75</ele>
        <time>2021-02-13T12:41:50.000Z</time>
      </trkpt>
      <trkpt lat="47.15235" lon="-1.63633">
        <ele>75</ele>
        <time>2021-02-13T12:41:52.000Z</time>
      </trkpt>
      <trkpt lat="47.15222" lon="-1.63643">
        <ele>75</ele>
        <time>2021-02-13T12:41:54.000Z</time>
      </trkpt>
      <trkpt lat="47.1521" lon="-1.63653">
        <ele>75</ele>
        <time>2021-02-13T12:41:56.000Z</time>
      </trkpt>
      <trkpt lat="47.15197" lon="-1.63664">
        <ele>75</ele>
        <time>2021-02-13T12:41:58.000Z</time>
      </trkpt>
      <trkpt lat="47.15185" lon="-1.63674">
        <ele>75</ele>
        <time>2021-02-13T12:42:00.000Z</time>
      </trkpt>
      <trkpt lat="47.15174" lon="-1.63685">
        <ele>76</ele>
        <time>2021-02-13T12:42:02.000Z</time>
      </trkpt>
      <trkpt lat="47.15162" lon="-1.63696">
        <ele>76</ele>
        <time>2021-02-13T12:42:04.000Z</time>
      </trkpt>
      <trkpt lat="47.1515" lon="-1.63706">
        <ele>76</ele>
        <time>2021-02-13T12:42:06.000Z</time>
      </trkpt>
      <trkpt lat="47.15138" lon="-1.63718">
        <ele>76</ele>
        <time>2021-02-13T12:42:08.000Z</time>
      </trkpt>
      <trkpt lat="47.15126" lon="-1.63729">
        <ele>76</ele>
        <time>2021-02-13T12:42:10.000Z</time>
      </trkpt>
      <trkpt lat="47.15114" lon="-1.63741">
        <ele>76</ele>
        <time>2021-02-13T12:42:12.000Z</time>
      </trkpt>
      <trkpt lat="47.15103" lon="-1.63754">
        <ele>76</ele>
        <time>2021-02-13T12:42:14.000Z</time>
      </trkpt>
      <trkpt lat="47.15091" lon="-1.63767">
        <ele>75</ele>
        <time>2021-02-13T12:42:16.000Z</time>
      </trkpt>
      <trkpt lat="47.1508" lon="-1.63779">
        <ele>75</ele>
        <time>2021-02-13T12:42:18.000Z</time>
      </trkpt>
      <trkpt lat="47.1507" lon="-1.63792">
        <ele>75</ele>
        <time>2021-02-13T12:42:20.000Z</time>
      </trkpt>
      <trkpt lat="47.1506" lon="-1.63805">
        <ele>75</ele>
        <time>2021-02-13T12:42:22.000Z</time>
      </trkpt>
      <trkpt lat="47.15049" lon="-1.63819">
        <ele>75</ele>
        <time>2021-02-13T12:42:24.000Z</time>
      </trkpt>
      <trkpt lat="47.1504" lon="-1.63833">
        <ele>76</ele>
        <time>2021-02-13T12:42:26.000Z</time>
      </trkpt>
      <trkpt lat="47.1503" lon="-1.63847">
        <ele>76</ele>
        <time>2021-02-13T12:42:28.000Z</time>
      </trkpt>
      <trkpt lat="47.1502" lon="-1.63861">
        <ele>76</ele>
        <time>2021-02-13T12:42:30.000Z</time>
      </trkpt>
      <trkpt lat="47.15011" lon="-1.63876">
        <ele>76</ele>
        <time>2021-02-13T12:42:32.000Z</time>
      </trkpt>
      <trkpt lat="47.15001" lon="-1.6389">
        <ele>76</ele>
        <time>2021-02-13T12:42:34.000Z</time>
      </trkpt>
      <trkpt lat="47.14992" lon="-1.63904">
        <ele>75</ele>
        <time>2021-02-13T12:42:36.000Z</time>
      </trkpt>
      <trkpt lat="47.14983" lon="-1.63919">
        <ele>75</ele>
        <time>2021-02-13T12:42:38.000Z</time>
      </trkpt>
      <trkpt lat="47.14974" lon="-1.63934">
        <ele>75</ele>
        <time>2021-02-13T12:42:40.000Z</time>
      </trkpt>
      <trkpt lat="47.14965" lon="-1.63949">
        <ele>76</ele>
        <time>2021-02-13T12:42:42.000Z</time>
      </trkpt>
      <trkpt lat="47.14956" lon="-1.63964">
        <ele>76</ele>
        <time>2021-02-13T12:42:44.000Z</time>
      </trkpt>
      <trkpt lat="47.14946" lon="-1.63978">
        <ele>76</ele>
        <time>2021-02-13T12:42:46.000Z</time>
      </trkpt>
      <trkpt lat="47.14936" lon="-1.63992">
        <ele>76</ele>
        <time>2021-02-13T12:42:48.000Z</time>
      </trkpt>
      <trkpt lat="47.14926" lon="-1.64006">
        <ele>76</ele>
        <time>2021-02-13T12:42:50.000Z</time>
      </trkpt>
      <trkpt lat="47.14918" lon="-1.6402">
        <ele>76</ele>
        <time>2021-02-13T12:42:52.000Z</time>
      </trkpt>
      <trkpt lat="47.14911" lon="-1.64035">
        <ele>76</ele>
        <time>2021-02-13T12:42:54.000Z</time>
      </trkpt>
      <trkpt lat="47.14905" lon="-1.64048">
        <ele>76</ele>
        <time>2021-02-13T12:42:56.000Z</time>
      </trkpt>
      <trkpt lat="47.14898" lon="-1.64057">
        <ele>76</ele>
        <time>2021-02-13T12:42:58.000Z</time>
      </trkpt>
      <trkpt lat="47.14888" lon="-1.64048">
        <ele>76</ele>
        <time>2021-02-13T12:43:00.000Z</time>
      </trkpt>
      <trkpt lat="47.14881" lon="-1.64032">
        <ele>76</ele>
        <time>2021-02-13T12:43:02.000Z</time>
      </trkpt>
      <trkpt lat="47.14872" lon="-1.64017">
        <ele>75</ele>
        <time>2021-02-13T12:43:04.000Z</time>
      </trkpt>
      <trkpt lat="47.14863" lon="-1.64002">
        <ele>76</ele>
        <time>2021-02-13T12:43:06.000Z</time>
      </trkpt>
      <trkpt lat="47.14853" lon="-1.63989">
        <ele>76</ele>
        <time>2021-02-13T12:43:08.000Z</time>
      </trkpt>
      <trkpt lat="47.1484" lon="-1.63984">
        <ele>75</ele>
        <time>2021-02-13T12:43:10.000Z</time>
      </trkpt>
      <trkpt lat="47.14827" lon="-1.63986">
        <ele>74</ele>
        <time>2021-02-13T12:43:12.000Z</time>
      </trkpt>
      <trkpt lat="47.14816" lon="-1.63997">
        <ele>74</ele>
        <time>2021-02-13T12:43:14.000Z</time>
      </trkpt>
      <trkpt lat="47.14805" lon="-1.6401">
        <ele>74</ele>
        <time>2021-02-13T12:43:16.000Z</time>
      </trkpt>
      <trkpt lat="47.14794" lon="-1.64021">
        <ele>74</ele>
        <time>2021-02-13T12:43:18.000Z</time>
      </trkpt>
      <trkpt lat="47.14782" lon="-1.64033">
        <ele>74</ele>
        <time>2021-02-13T12:43:20.000Z</time>
      </trkpt>
      <trkpt lat="47.1477" lon="-1.64043">
        <ele>75</ele>
        <time>2021-02-13T12:43:22.000Z</time>
      </trkpt>
      <trkpt lat="47.14758" lon="-1.6405">
        <ele>75</ele>
        <time>2021-02-13T12:43:24.000Z</time>
      </trkpt>
      <trkpt lat="47.14744" lon="-1.64056">
        <ele>75</ele>
        <time>2021-02-13T12:43:26.000Z</time>
      </trkpt>
      <trkpt lat="47.1473" lon="-1.64062">
        <ele>75</ele>
        <time>2021-02-13T12:43:28.000Z</time>
      </trkpt>
      <trkpt lat="47.14717" lon="-1.64068">
        <ele>76</ele>
        <time>2021-02-13T12:43:30.000Z</time>
      </trkpt>
      <trkpt lat="47.14704" lon="-1.64073">
        <ele>76</ele>
        <time>2021-02-13T12:43:32.000Z</time>
      </trkpt>
      <trkpt lat="47.1469" lon="-1.64078">
        <ele>75</ele>
        <time>2021-02-13T12:43:34.000Z</time>
      </trkpt>
      <trkpt lat="47.14677" lon="-1.64084">
        <ele>76</ele>
        <time>2021-02-13T12:43:36.000Z</time>
      </trkpt>
      <trkpt lat="47.14664" lon="-1.64091">
        <ele>76</ele>
        <time>2021-02-13T12:43:38.000Z</time>
      </trkpt>
      <trkpt lat="47.1465" lon="-1.64099">
        <ele>75</ele>
        <time>2021-02-13T12:43:40.000Z</time>
      </trkpt>
      <trkpt lat="47.14635" lon="-1.64108">
        <ele>74</ele>
        <time>2021-02-13T12:43:42.000Z</time>
      </trkpt>
      <trkpt lat="47.14621" lon="-1.64115">
        <ele>74</ele>
        <time>2021-02-13T12:43:44.000Z</time>
      </trkpt>
      <trkpt lat="47.14606" lon="-1.64123">
        <ele>74</ele>
        <time>2021-02-13T12:43:46.000Z</time>
      </trkpt>
      <trkpt lat="47.1459" lon="-1.64131">
        <ele>73</ele>
        <time>2021-02-13T12:43:48.000Z</time>
      </trkpt>
      <trkpt lat="47.14575" lon="-1.64139">
        <ele>73</ele>
        <time>2021-02-13T12:43:50.000Z</time>
      </trkpt>
      <trkpt lat="47.14561" lon="-1.64146">
        <ele>72</ele>
        <time>2021-02-13T12:43:52.000Z</time>
      </trkpt>
      <trkpt lat="47.14547" lon="-1.64155">
        <ele>72</ele>
        <time>2021-02-13T12:43:54.000Z</time>
      </trkpt>
      <trkpt lat="47.14533" lon="-1.64164">
        <ele>72</ele>
        <time>2021-02-13T12:43:56.000Z</time>
      </trkpt>
      <trkpt lat="47.1452" lon="-1.64174">
        <ele>73</ele>
        <time>2021-02-13T12:43:58.000Z</time>
      </trkpt>
      <trkpt lat="47.14506" lon="-1.64184">
        <ele>72</ele>
        <time>2021-02-13T12:44:00.000Z</time>
      </trkpt>
      <trkpt lat="47.14491" lon="-1.64193">
        <ele>72</ele>
        <time>2021-02-13T12:44:02.000Z</time>
      </trkpt>
      <trkpt lat="47.14476" lon="-1.64202">
        <ele>71</ele>
        <time>2021-02-13T12:44:04.000Z</time>
      </trkpt>
      <trkpt lat="47.14461" lon="-1.6421">
        <ele>71</ele>
        <time>2021-02-13T12:44:06.000Z</time>
      </trkpt>
      <trkpt lat="47.14447" lon="-1.64216">
        <ele>71</ele>
        <time>2021-02-13T12:44:08.000Z</time>
      </trkpt>
      <trkpt lat="47.14433" lon="-1.6422">
        <ele>71</ele>
        <time>2021-02-13T12:44:10.000Z</time>
      </trkpt>
      <trkpt lat="47.14418" lon="-1.64223">
        <ele>71</ele>
        <time>2021-02-13T12:44:12.000Z</time>
      </trkpt>
      <trkpt lat="47.14404" lon="-1.64226">
        <ele>71</ele>
        <time>2021-02-13T12:44:14.000Z</time>
      </trkpt>
      <trkpt lat="47.14389" lon="-1.64228">
        <ele>72</ele>
        <time>2021-02-13T12:44:16.000Z</time>
      </trkpt>
      <trkpt lat="47.14373" lon="-1.64231">
        <ele>72</ele>
        <time>2021-02-13T12:44:18.000Z</time>
      </trkpt>
      <trkpt lat="47.14358" lon="-1.64232">
        <ele>72</ele>
        <time>2021-02-13T12:44:20.000Z</time>
      </trkpt>
      <trkpt lat="47.14343" lon="-1.64234">
        <ele>73</ele>
        <time>2021-02-13T12:44:22.000Z</time>
      </trkpt>
      <trkpt lat="47.14327" lon="-1.64235">
        <ele>72</ele>
        <time>2021-02-13T12:44:24.000Z</time>
      </trkpt>
      <trkpt lat="47.14311" lon="-1.64238">
        <ele>72</ele>
        <time>2021-02-13T12:44:26.000Z</time>
      </trkpt>
      <trkpt lat="47.14295" lon="-1.64242">
        <ele>72</ele>
        <time>2021-02-13T12:44:28.000Z</time>
      </trkpt>
      <trkpt lat="47.14279" lon="-1.64247">
        <ele>71</ele>
        <time>2021-02-13T12:44:30.000Z</time>
      </trkpt>
      <trkpt lat="47.14265" lon="-1.64255">
        <ele>71</ele>
        <time>2021-02-13T12:44:32.000Z</time>
      </trkpt>
      <trkpt lat="47.1425" lon="-1.64266">
        <ele>70</ele>
        <time>2021-02-13T12:44:34.000Z</time>
      </trkpt>
      <trkpt lat="47.14238" lon="-1.64278">
        <ele>70</ele>
        <time>2021-02-13T12:44:36.000Z</time>
      </trkpt>
      <trkpt lat="47.14225" lon="-1.6429">
        <ele>69</ele>
        <time>2021-02-13T12:44:38.000Z</time>
      </trkpt>
      <trkpt lat="47.14212" lon="-1.64304">
        <ele>68</ele>
        <time>2021-02-13T12:44:40.000Z</time>
      </trkpt>
      <trkpt lat="47.14199" lon="-1.64318">
        <ele>68</ele>
        <time>2021-02-13T12:44:42.000Z</time>
      </trkpt>
      <trkpt lat="47.14188" lon="-1.64332">
        <ele>67</ele>
        <time>2021-02-13T12:44:44.000Z</time>
      </trkpt>
      <trkpt lat="47.14177" lon="-1.64346">
        <ele>68</ele>
        <time>2021-02-13T12:44:46.000Z</time>
      </trkpt>
      <trkpt lat="47.14164" lon="-1.6436">
        <ele>67</ele>
        <time>2021-02-13T12:44:48.000Z</time>
      </trkpt>
      <trkpt lat="47.14151" lon="-1.64371">
        <ele>67</ele>
        <time>2021-02-13T12:44:50.000Z</time>
      </trkpt>
      <trkpt lat="47.14137" lon="-1.64381">
        <ele>66</ele>
        <time>2021-02-13T12:44:52.000Z</time>
      </trkpt>
      <trkpt lat="47.14122" lon="-1.64391">
        <ele>66</ele>
        <time>2021-02-13T12:44:54.000Z</time>
      </trkpt>
      <trkpt lat="47.14108" lon="-1.64402">
        <ele>66</ele>
        <time>2021-02-13T12:44:56.000Z</time>
      </trkpt>
      <trkpt lat="47.14094" lon="-1.64413">
        <ele>66</ele>
        <time>2021-02-13T12:44:58.000Z</time>
      </trkpt>
      <trkpt lat="47.1408" lon="-1.64424">
        <ele>65</ele>
        <time>2021-02-13T12:45:00.000Z</time>
      </trkpt>
      <trkpt lat="47.14067" lon="-1.64435">
        <ele>65</ele>
        <time>2021-02-13T12:45:02.000Z</time>
      </trkpt>
      <trkpt lat="47.14053" lon="-1.64445">
        <ele>65</ele>
        <time>2021-02-13T12:45:04.000Z</time>
      </trkpt>
      <trkpt lat="47.14039" lon="-1.64455">
        <ele>64</ele>
        <time>2021-02-13T12:45:06.000Z</time>
      </trkpt>
      <trkpt lat="47.14026" lon="-1.64467">
        <ele>63</ele>
        <time>2021-02-13T12:45:08.000Z</time>
      </trkpt>
      <trkpt lat="47.14012" lon="-1.64478">
        <ele>64</ele>
        <time>2021-02-13T12:45:10.000Z</time>
      </trkpt>
      <trkpt lat="47.14" lon="-1.64489">
        <ele>65</ele>
        <time>2021-02-13T12:45:12.000Z</time>
      </trkpt>
      <trkpt lat="47.13987" lon="-1.64501">
        <ele>65</ele>
        <time>2021-02-13T12:45:14.000Z</time>
      </trkpt>
      <trkpt lat="47.13974" lon="-1.64512">
        <ele>64</ele>
        <time>2021-02-13T12:45:16.000Z</time>
      </trkpt>
      <trkpt lat="47.13961" lon="-1.64525">
        <ele>64</ele>
        <time>2021-02-13T12:45:18.000Z</time>
      </trkpt>
      <trkpt lat="47.13949" lon="-1.64537">
        <ele>63</ele>
        <time>2021-02-13T12:45:20.000Z</time>
      </trkpt>
      <trkpt lat="47.13937" lon="-1.64549">
        <ele>64</ele>
        <time>2021-02-13T12:45:22.000Z</time>
      </trkpt>
      <trkpt lat="47.13925" lon="-1.64562">
        <ele>64</ele>
        <time>2021-02-13T12:45:24.000Z</time>
      </trkpt>
      <trkpt lat="47.13913" lon="-1.64574">
        <ele>64</ele>
        <time>2021-02-13T12:45:26.000Z</time>
      </trkpt>
      <trkpt lat="47.13901" lon="-1.64584">
        <ele>64</ele>
        <time>2021-02-13T12:45:28.000Z</time>
      </trkpt>
      <trkpt lat="47.13888" lon="-1.64592">
        <ele>65</ele>
        <time>2021-02-13T12:45:30.000Z</time>
      </trkpt>
      <trkpt lat="47.13874" lon="-1.64598">
        <ele>64</ele>
        <time>2021-02-13T12:45:32.000Z</time>
      </trkpt>
      <trkpt lat="47.13859" lon="-1.64602">
        <ele>64</ele>
        <time>2021-02-13T12:45:34.000Z</time>
      </trkpt>
      <trkpt lat="47.13846" lon="-1.64603">
        <ele>64</ele>
        <time>2021-02-13T12:45:36.000Z</time>
      </trkpt>
      <trkpt lat="47.13832" lon="-1.64603">
        <ele>64</ele>
        <time>2021-02-13T12:45:38.000Z</time>
      </trkpt>
      <trkpt lat="47.13818" lon="-1.64603">
        <ele>64</ele>
        <time>2021-02-13T12:45:40.000Z</time>
      </trkpt>
      <trkpt lat="47.13805" lon="-1.64602">
        <ele>65</ele>
        <time>2021-02-13T12:45:42.000Z</time>
      </trkpt>
      <trkpt lat="47.13792" lon="-1.64599">
        <ele>64</ele>
        <time>2021-02-13T12:45:44.000Z</time>
      </trkpt>
      <trkpt lat="47.13779" lon="-1.64597">
        <ele>64</ele>
        <time>2021-02-13T12:45:46.000Z</time>
      </trkpt>
      <trkpt lat="47.13766" lon="-1.64593">
        <ele>64</ele>
        <time>2021-02-13T12:45:48.000Z</time>
      </trkpt>
      <trkpt lat="47.13752" lon="-1.64588">
        <ele>63</ele>
        <time>2021-02-13T12:45:50.000Z</time>
      </trkpt>
      <trkpt lat="47.13739" lon="-1.64585">
        <ele>63</ele>
        <time>2021-02-13T12:45:52.000Z</time>
      </trkpt>
      <trkpt lat="47.13726" lon="-1.64582">
        <ele>63</ele>
        <time>2021-02-13T12:45:54.000Z</time>
      </trkpt>
      <trkpt lat="47.13713" lon="-1.6458">
        <ele>63</ele>
        <time>2021-02-13T12:45:56.000Z</time>
      </trkpt>
      <trkpt lat="47.137" lon="-1.64578">
        <ele>63</ele>
        <time>2021-02-13T12:45:58.000Z</time>
      </trkpt>
      <trkpt lat="47.13688" lon="-1.64575">
        <ele>63</ele>
        <time>2021-02-13T12:46:00.000Z</time>
      </trkpt>
      <trkpt lat="47.13675" lon="-1.64573">
        <ele>64</ele>
        <time>2021-02-13T12:46:02.000Z</time>
      </trkpt>
      <trkpt lat="47.13661" lon="-1.64568">
        <ele>64</ele>
        <time>2021-02-13T12:46:04.000Z</time>
      </trkpt>
      <trkpt lat="47.13648" lon="-1.64564">
        <ele>65</ele>
        <time>2021-02-13T12:46:06.000Z</time>
      </trkpt>
      <trkpt lat="47.13636" lon="-1.64562">
        <ele>66</ele>
        <time>2021-02-13T12:46:08.000Z</time>
      </trkpt>
      <trkpt lat="47.13624" lon="-1.6456">
        <ele>66</ele>
        <time>2021-02-13T12:46:10.000Z</time>
      </trkpt>
      <trkpt lat="47.13613" lon="-1.64557">
        <ele>67</ele>
        <time>2021-02-13T12:46:12.000Z</time>
      </trkpt>
      <trkpt lat="47.13602" lon="-1.64556">
        <ele>67</ele>
        <time>2021-02-13T12:46:14.000Z</time>
      </trkpt>
      <trkpt lat="47.1359" lon="-1.64557">
        <ele>67</ele>
        <time>2021-02-13T12:46:16.000Z</time>
      </trkpt>
      <trkpt lat="47.13577" lon="-1.64561">
        <ele>67</ele>
        <time>2021-02-13T12:46:18.000Z</time>
      </trkpt>
      <trkpt lat="47.13565" lon="-1.64568">
        <ele>68</ele>
        <time>2021-02-13T12:46:20.000Z</time>
      </trkpt>
      <trkpt lat="47.13554" lon="-1.64578">
        <ele>68</ele>
        <time>2021-02-13T12:46:22.000Z</time>
      </trkpt>
      <trkpt lat="47.13543" lon="-1.64589">
        <ele>68</ele>
        <time>2021-02-13T12:46:24.000Z</time>
      </trkpt>
      <trkpt lat="47.13533" lon="-1.64599">
        <ele>68</ele>
        <time>2021-02-13T12:46:26.000Z</time>
      </trkpt>
      <trkpt lat="47.13522" lon="-1.64611">
        <ele>68</ele>
        <time>2021-02-13T12:46:28.000Z</time>
      </trkpt>
      <trkpt lat="47.13511" lon="-1.64622">
        <ele>69</ele>
        <time>2021-02-13T12:46:30.000Z</time>
      </trkpt>
      <trkpt lat="47.13501" lon="-1.64633">
        <ele>69</ele>
        <time>2021-02-13T12:46:32.000Z</time>
      </trkpt>
      <trkpt lat="47.13489" lon="-1.64641">
        <ele>69</ele>
        <time>2021-02-13T12:46:34.000Z</time>
      </trkpt>
      <trkpt lat="47.13477" lon="-1.64646">
        <ele>69</ele>
        <time>2021-02-13T12:46:36.000Z</time>
      </trkpt>
      <trkpt lat="47.13464" lon="-1.64646">
        <ele>69</ele>
        <time>2021-02-13T12:46:38.000Z</time>
      </trkpt>
      <trkpt lat="47.13452" lon="-1.64646">
        <ele>70</ele>
        <time>2021-02-13T12:46:40.000Z</time>
      </trkpt>
      <trkpt lat="47.13439" lon="-1.64644">
        <ele>69</ele>
        <time>2021-02-13T12:46:42.000Z</time>
      </trkpt>
      <trkpt lat="47.13428" lon="-1.64642">
        <ele>70</ele>
        <time>2021-02-13T12:46:44.000Z</time>
      </trkpt>
      <trkpt lat="47.13418" lon="-1.64642">
        <ele>70</ele>
        <time>2021-02-13T12:46:46.000Z</time>
      </trkpt>
      <trkpt lat="47.13407" lon="-1.64644">
        <ele>70</ele>
        <time>2021-02-13T12:46:49.000Z</time>
      </trkpt>
      <trkpt lat="47.13398" lon="-1.64637">
        <ele>70</ele>
        <time>2021-02-13T12:46:52.000Z</time>
      </trkpt>
      <trkpt lat="47.13395" lon="-1.6462">
        <ele>71</ele>
        <time>2021-02-13T12:46:54.000Z</time>
      </trkpt>
      <trkpt lat="47.13391" lon="-1.64602">
        <ele>71</ele>
        <time>2021-02-13T12:46:56.000Z</time>
      </trkpt>
      <trkpt lat="47.13388" lon="-1.64584">
        <ele>71</ele>
        <time>2021-02-13T12:46:58.000Z</time>
      </trkpt>
      <trkpt lat="47.13384" lon="-1.64567">
        <ele>71</ele>
        <time>2021-02-13T12:47:00.000Z</time>
      </trkpt>
      <trkpt lat="47.1338" lon="-1.64549">
        <ele>71</ele>
        <time>2021-02-13T12:47:02.000Z</time>
      </trkpt>
      <trkpt lat="47.13376" lon="-1.64532">
        <ele>71</ele>
        <time>2021-02-13T12:47:04.000Z</time>
      </trkpt>
      <trkpt lat="47.13371" lon="-1.64516">
        <ele>71</ele>
        <time>2021-02-13T12:47:06.000Z</time>
      </trkpt>
      <trkpt lat="47.13364" lon="-1.645">
        <ele>70</ele>
        <time>2021-02-13T12:47:08.000Z</time>
      </trkpt>
      <trkpt lat="47.13358" lon="-1.64483">
        <ele>70</ele>
        <time>2021-02-13T12:47:10.000Z</time>
      </trkpt>
      <trkpt lat="47.1335" lon="-1.64468">
        <ele>69</ele>
        <time>2021-02-13T12:47:12.000Z</time>
      </trkpt>
      <trkpt lat="47.13343" lon="-1.64451">
        <ele>69</ele>
        <time>2021-02-13T12:47:14.000Z</time>
      </trkpt>
      <trkpt lat="47.13335" lon="-1.64434">
        <ele>68</ele>
        <time>2021-02-13T12:47:16.000Z</time>
      </trkpt>
      <trkpt lat="47.13327" lon="-1.64416">
        <ele>68</ele>
        <time>2021-02-13T12:47:18.000Z</time>
      </trkpt>
      <trkpt lat="47.13319" lon="-1.64399">
        <ele>67</ele>
        <time>2021-02-13T12:47:20.000Z</time>
      </trkpt>
      <trkpt lat="47.13311" lon="-1.64381">
        <ele>66</ele>
        <time>2021-02-13T12:47:22.000Z</time>
      </trkpt>
      <trkpt lat="47.13302" lon="-1.64363">
        <ele>65</ele>
        <time>2021-02-13T12:47:24.000Z</time>
      </trkpt>
      <trkpt lat="47.13293" lon="-1.64346">
        <ele>64</ele>
        <time>2021-02-13T12:47:26.000Z</time>
      </trkpt>
      <trkpt lat="47.13284" lon="-1.64329">
        <ele>64</ele>
        <time>2021-02-13T12:47:28.000Z</time>
      </trkpt>
      <trkpt lat="47.13275" lon="-1.6431">
        <ele>64</ele>
        <time>2021-02-13T12:47:30.000Z</time>
      </trkpt>
      <trkpt lat="47.13266" lon="-1.64291">
        <ele>63</ele>
        <time>2021-02-13T12:47:32.000Z</time>
      </trkpt>
      <trkpt lat="47.13257" lon="-1.64271">
        <ele>63</ele>
        <time>2021-02-13T12:47:34.000Z</time>
      </trkpt>
      <trkpt lat="47.13248" lon="-1.64251">
        <ele>63</ele>
        <time>2021-02-13T12:47:36.000Z</time>
      </trkpt>
      <trkpt lat="47.13239" lon="-1.64231">
        <ele>62</ele>
        <time>2021-02-13T12:47:38.000Z</time>
      </trkpt>
      <trkpt lat="47.1323" lon="-1.64211">
        <ele>62</ele>
        <time>2021-02-13T12:47:40.000Z</time>
      </trkpt>
      <trkpt lat="47.13221" lon="-1.64193">
        <ele>61</ele>
        <time>2021-02-13T12:47:42.000Z</time>
      </trkpt>
      <trkpt lat="47.13212" lon="-1.64175">
        <ele>61</ele>
        <time>2021-02-13T12:47:44.000Z</time>
      </trkpt>
      <trkpt lat="47.13203" lon="-1.64157">
        <ele>61</ele>
        <time>2021-02-13T12:47:46.000Z</time>
      </trkpt>
      <trkpt lat="47.13195" lon="-1.64138">
        <ele>60</ele>
        <time>2021-02-13T12:47:48.000Z</time>
      </trkpt>
      <trkpt lat="47.13187" lon="-1.6412">
        <ele>60</ele>
        <time>2021-02-13T12:47:50.000Z</time>
      </trkpt>
      <trkpt lat="47.13179" lon="-1.641">
        <ele>60</ele>
        <time>2021-02-13T12:47:52.000Z</time>
      </trkpt>
      <trkpt lat="47.13171" lon="-1.64082">
        <ele>60</ele>
        <time>2021-02-13T12:47:54.000Z</time>
      </trkpt>
      <trkpt lat="47.13163" lon="-1.64064">
        <ele>60</ele>
        <time>2021-02-13T12:47:56.000Z</time>
      </trkpt>
      <trkpt lat="47.13156" lon="-1.64047">
        <ele>60</ele>
        <time>2021-02-13T12:47:58.000Z</time>
      </trkpt>
      <trkpt lat="47.13148" lon="-1.64028">
        <ele>60</ele>
        <time>2021-02-13T12:48:00.000Z</time>
      </trkpt>
      <trkpt lat="47.13141" lon="-1.6401">
        <ele>59</ele>
        <time>2021-02-13T12:48:02.000Z</time>
      </trkpt>
      <trkpt lat="47.13133" lon="-1.63991">
        <ele>60</ele>
        <time>2021-02-13T12:48:04.000Z</time>
      </trkpt>
      <trkpt lat="47.13125" lon="-1.63972">
        <ele>60</ele>
        <time>2021-02-13T12:48:06.000Z</time>
      </trkpt>
      <trkpt lat="47.13119" lon="-1.63952">
        <ele>59</ele>
        <time>2021-02-13T12:48:08.000Z</time>
      </trkpt>
      <trkpt lat="47.13111" lon="-1.63933">
        <ele>59</ele>
        <time>2021-02-13T12:48:10.000Z</time>
      </trkpt>
      <trkpt lat="47.13104" lon="-1.63914">
        <ele>59</ele>
        <time>2021-02-13T12:48:12.000Z</time>
      </trkpt>
      <trkpt lat="47.13097" lon="-1.63895">
        <ele>59</ele>
        <time>2021-02-13T12:48:14.000Z</time>
      </trkpt>
      <trkpt lat="47.1309" lon="-1.63876">
        <ele>60</ele>
        <time>2021-02-13T12:48:16.000Z</time>
      </trkpt>
      <trkpt lat="47.13083" lon="-1.63856">
        <ele>59</ele>
        <time>2021-02-13T12:48:18.000Z</time>
      </trkpt>
      <trkpt lat="47.13076" lon="-1.63838">
        <ele>59</ele>
        <time>2021-02-13T12:48:20.000Z</time>
      </trkpt>
      <trkpt lat="47.13068" lon="-1.6382">
        <ele>58</ele>
        <time>2021-02-13T12:48:22.000Z</time>
      </trkpt>
      <trkpt lat="47.13061" lon="-1.63802">
        <ele>58</ele>
        <time>2021-02-13T12:48:24.000Z</time>
      </trkpt>
      <trkpt lat="47.13054" lon="-1.63784">
        <ele>58</ele>
        <time>2021-02-13T12:48:26.000Z</time>
      </trkpt>
      <trkpt lat="47.13046" lon="-1.63767">
        <ele>57</ele>
        <time>2021-02-13T12:48:28.000Z</time>
      </trkpt>
      <trkpt lat="47.13038" lon="-1.63751">
        <ele>58</ele>
        <time>2021-02-13T12:48:30.000Z</time>
      </trkpt>
      <trkpt lat="47.1303" lon="-1.63735">
        <ele>58</ele>
        <time>2021-02-13T12:48:32.000Z</time>
      </trkpt>
      <trkpt lat="47.13022" lon="-1.63718">
        <ele>58</ele>
        <time>2021-02-13T12:48:34.000Z</time>
      </trkpt>
      <trkpt lat="47.13013" lon="-1.63701">
        <ele>58</ele>
        <time>2021-02-13T12:48:36.000Z</time>
      </trkpt>
      <trkpt lat="47.13006" lon="-1.63685">
        <ele>58</ele>
        <time>2021-02-13T12:48:38.000Z</time>
      </trkpt>
      <trkpt lat="47.12997" lon="-1.63669">
        <ele>58</ele>
        <time>2021-02-13T12:48:40.000Z</time>
      </trkpt>
      <trkpt lat="47.12989" lon="-1.63651">
        <ele>57</ele>
        <time>2021-02-13T12:48:42.000Z</time>
      </trkpt>
      <trkpt lat="47.12985" lon="-1.63631">
        <ele>57</ele>
        <time>2021-02-13T12:48:44.000Z</time>
      </trkpt>
      <trkpt lat="47.12979" lon="-1.63612">
        <ele>57</ele>
        <time>2021-02-13T12:48:46.000Z</time>
      </trkpt>
      <trkpt lat="47.12972" lon="-1.63595">
        <ele>57</ele>
        <time>2021-02-13T12:48:48.000Z</time>
      </trkpt>
      <trkpt lat="47.12965" lon="-1.63578">
        <ele>57</ele>
        <time>2021-02-13T12:48:50.000Z</time>
      </trkpt>
      <trkpt lat="47.12958" lon="-1.63561">
        <ele>57</ele>
        <time>2021-02-13T12:48:52.000Z</time>
      </trkpt>
      <trkpt lat="47.1295" lon="-1.63544">
        <ele>57</ele>
        <time>2021-02-13T12:48:54.000Z</time>
      </trkpt>
      <trkpt lat="47.12944" lon="-1.63526">
        <ele>57</ele>
        <time>2021-02-13T12:48:56.000Z</time>
      </trkpt>
      <trkpt lat="47.12937" lon="-1.63509">
        <ele>57</ele>
        <time>2021-02-13T12:48:58.000Z</time>
      </trkpt>
      <trkpt lat="47.1293" lon="-1.63491">
        <ele>57</ele>
        <time>2021-02-13T12:49:00.000Z</time>
      </trkpt>
      <trkpt lat="47.12924" lon="-1.63472">
        <ele>57</ele>
        <time>2021-02-13T12:49:02.000Z</time>
      </trkpt>
      <trkpt lat="47.12917" lon="-1.63455">
        <ele>57</ele>
        <time>2021-02-13T12:49:04.000Z</time>
      </trkpt>
      <trkpt lat="47.1291" lon="-1.63437">
        <ele>56</ele>
        <time>2021-02-13T12:49:06.000Z</time>
      </trkpt>
      <trkpt lat="47.12903" lon="-1.6342">
        <ele>56</ele>
        <time>2021-02-13T12:49:08.000Z</time>
      </trkpt>
      <trkpt lat="47.12896" lon="-1.63401">
        <ele>56</ele>
        <time>2021-02-13T12:49:10.000Z</time>
      </trkpt>
      <trkpt lat="47.12889" lon="-1.63382">
        <ele>56</ele>
        <time>2021-02-13T12:49:12.000Z</time>
      </trkpt>
      <trkpt lat="47.12883" lon="-1.63364">
        <ele>56</ele>
        <time>2021-02-13T12:49:14.000Z</time>
      </trkpt>
      <trkpt lat="47.12875" lon="-1.63345">
        <ele>56</ele>
        <time>2021-02-13T12:49:16.000Z</time>
      </trkpt>
      <trkpt lat="47.12869" lon="-1.63328">
        <ele>55</ele>
        <time>2021-02-13T12:49:18.000Z</time>
      </trkpt>
      <trkpt lat="47.12862" lon="-1.6331">
        <ele>55</ele>
        <time>2021-02-13T12:49:20.000Z</time>
      </trkpt>
      <trkpt lat="47.12855" lon="-1.63292">
        <ele>55</ele>
        <time>2021-02-13T12:49:22.000Z</time>
      </trkpt>
      <trkpt lat="47.12848" lon="-1.63275">
        <ele>55</ele>
        <time>2021-02-13T12:49:24.000Z</time>
      </trkpt>
      <trkpt lat="47.12841" lon="-1.63258">
        <ele>55</ele>
        <time>2021-02-13T12:49:26.000Z</time>
      </trkpt>
      <trkpt lat="47.12834" lon="-1.6324">
        <ele>55</ele>
        <time>2021-02-13T12:49:28.000Z</time>
      </trkpt>
      <trkpt lat="47.12827" lon="-1.63223">
        <ele>56</ele>
        <time>2021-02-13T12:49:30.000Z</time>
      </trkpt>
      <trkpt lat="47.12821" lon="-1.63207">
        <ele>57</ele>
        <time>2021-02-13T12:49:32.000Z</time>
      </trkpt>
      <trkpt lat="47.12813" lon="-1.6319">
        <ele>56</ele>
        <time>2021-02-13T12:49:34.000Z</time>
      </trkpt>
      <trkpt lat="47.12806" lon="-1.63173">
        <ele>56</ele>
        <time>2021-02-13T12:49:36.000Z</time>
      </trkpt>
      <trkpt lat="47.12799" lon="-1.63156">
        <ele>56</ele>
        <time>2021-02-13T12:49:38.000Z</time>
      </trkpt>
      <trkpt lat="47.12793" lon="-1.63139">
        <ele>56</ele>
        <time>2021-02-13T12:49:40.000Z</time>
      </trkpt>
      <trkpt lat="47.12786" lon="-1.63121">
        <ele>56</ele>
        <time>2021-02-13T12:49:42.000Z</time>
      </trkpt>
      <trkpt lat="47.12779" lon="-1.63104">
        <ele>55</ele>
        <time>2021-02-13T12:49:44.000Z</time>
      </trkpt>
      <trkpt lat="47.12773" lon="-1.63087">
        <ele>55</ele>
        <time>2021-02-13T12:49:46.000Z</time>
      </trkpt>
      <trkpt lat="47.12767" lon="-1.6307">
        <ele>54</ele>
        <time>2021-02-13T12:49:48.000Z</time>
      </trkpt>
      <trkpt lat="47.12761" lon="-1.63054">
        <ele>55</ele>
        <time>2021-02-13T12:49:50.000Z</time>
      </trkpt>
      <trkpt lat="47.12755" lon="-1.63037">
        <ele>55</ele>
        <time>2021-02-13T12:49:52.000Z</time>
      </trkpt>
      <trkpt lat="47.12748" lon="-1.63021">
        <ele>55</ele>
        <time>2021-02-13T12:49:54.000Z</time>
      </trkpt>
      <trkpt lat="47.12741" lon="-1.63005">
        <ele>55</ele>
        <time>2021-02-13T12:49:56.000Z</time>
      </trkpt>
      <trkpt lat="47.12735" lon="-1.62989">
        <ele>55</ele>
        <time>2021-02-13T12:49:58.000Z</time>
      </trkpt>
      <trkpt lat="47.12729" lon="-1.62972">
        <ele>56</ele>
        <time>2021-02-13T12:50:00.000Z</time>
      </trkpt>
      <trkpt lat="47.12722" lon="-1.62955">
        <ele>56</ele>
        <time>2021-02-13T12:50:02.000Z</time>
      </trkpt>
      <trkpt lat="47.12716" lon="-1.62938">
        <ele>56</ele>
        <time>2021-02-13T12:50:04.000Z</time>
      </trkpt>
      <trkpt lat="47.1271" lon="-1.62923">
        <ele>57</ele>
        <time>2021-02-13T12:50:06.000Z</time>
      </trkpt>
      <trkpt lat="47.12704" lon="-1.62906">
        <ele>57</ele>
        <time>2021-02-13T12:50:08.000Z</time>
      </trkpt>
      <trkpt lat="47.12697" lon="-1.6289">
        <ele>57</ele>
        <time>2021-02-13T12:50:10.000Z</time>
      </trkpt>
      <trkpt lat="47.1269" lon="-1.62875">
        <ele>57</ele>
        <time>2021-02-13T12:50:12.000Z</time>
      </trkpt>
      <trkpt lat="47.12683" lon="-1.62859">
        <ele>58</ele>
        <time>2021-02-13T12:50:14.000Z</time>
      </trkpt>
      <trkpt lat="47.12676" lon="-1.62844">
        <ele>58</ele>
        <time>2021-02-13T12:50:16.000Z</time>
      </trkpt>
      <trkpt lat="47.12668" lon="-1.62829">
        <ele>59</ele>
        <time>2021-02-13T12:50:18.000Z</time>
      </trkpt>
      <trkpt lat="47.1266" lon="-1.62815">
        <ele>59</ele>
        <time>2021-02-13T12:50:20.000Z</time>
      </trkpt>
      <trkpt lat="47.12655" lon="-1.62798">
        <ele>59</ele>
        <time>2021-02-13T12:50:22.000Z</time>
      </trkpt>
      <trkpt lat="47.12651" lon="-1.6278">
        <ele>59</ele>
        <time>2021-02-13T12:50:24.000Z</time>
      </trkpt>
      <trkpt lat="47.12643" lon="-1.62764">
        <ele>59</ele>
        <time>2021-02-13T12:50:26.000Z</time>
      </trkpt>
      <trkpt lat="47.12635" lon="-1.62748">
        <ele>58</ele>
        <time>2021-02-13T12:50:28.000Z</time>
      </trkpt>
      <trkpt lat="47.12628" lon="-1.62732">
        <ele>58</ele>
        <time>2021-02-13T12:50:30.000Z</time>
      </trkpt>
      <trkpt lat="47.1262" lon="-1.62716">
        <ele>58</ele>
        <time>2021-02-13T12:50:32.000Z</time>
      </trkpt>
      <trkpt lat="47.12612" lon="-1.627">
        <ele>58</ele>
        <time>2021-02-13T12:50:34.000Z</time>
      </trkpt>
      <trkpt lat="47.12604" lon="-1.62683">
        <ele>57</ele>
        <time>2021-02-13T12:50:36.000Z</time>
      </trkpt>
      <trkpt lat="47.12597" lon="-1.62667">
        <ele>57</ele>
        <time>2021-02-13T12:50:38.000Z</time>
      </trkpt>
      <trkpt lat="47.1259" lon="-1.62651">
        <ele>57</ele>
        <time>2021-02-13T12:50:40.000Z</time>
      </trkpt>
      <trkpt lat="47.12583" lon="-1.62635">
        <ele>57</ele>
        <time>2021-02-13T12:50:42.000Z</time>
      </trkpt>
      <trkpt lat="47.12577" lon="-1.62618">
        <ele>57</ele>
        <time>2021-02-13T12:50:44.000Z</time>
      </trkpt>
      <trkpt lat="47.12571" lon="-1.62601">
        <ele>57</ele>
        <time>2021-02-13T12:50:46.000Z</time>
      </trkpt>
      <trkpt lat="47.12567" lon="-1.62584">
        <ele>56</ele>
        <time>2021-02-13T12:50:48.000Z</time>
      </trkpt>
      <trkpt lat="47.12563" lon="-1.62564">
        <ele>56</ele>
        <time>2021-02-13T12:50:50.000Z</time>
      </trkpt>
      <trkpt lat="47.1256" lon="-1.62545">
        <ele>56</ele>
        <time>2021-02-13T12:50:52.000Z</time>
      </trkpt>
      <trkpt lat="47.12556" lon="-1.62525">
        <ele>56</ele>
        <time>2021-02-13T12:50:54.000Z</time>
      </trkpt>
      <trkpt lat="47.12552" lon="-1.62506">
        <ele>56</ele>
        <time>2021-02-13T12:50:56.000Z</time>
      </trkpt>
      <trkpt lat="47.12549" lon="-1.62487">
        <ele>56</ele>
        <time>2021-02-13T12:50:58.000Z</time>
      </trkpt>
      <trkpt lat="47.12545" lon="-1.62468">
        <ele>56</ele>
        <time>2021-02-13T12:51:00.000Z</time>
      </trkpt>
      <trkpt lat="47.1254" lon="-1.62449">
        <ele>55</ele>
        <time>2021-02-13T12:51:02.000Z</time>
      </trkpt>
      <trkpt lat="47.12535" lon="-1.6243">
        <ele>55</ele>
        <time>2021-02-13T12:51:04.000Z</time>
      </trkpt>
      <trkpt lat="47.12529" lon="-1.62412">
        <ele>55</ele>
        <time>2021-02-13T12:51:06.000Z</time>
      </trkpt>
      <trkpt lat="47.12523" lon="-1.62395">
        <ele>55</ele>
        <time>2021-02-13T12:51:08.000Z</time>
      </trkpt>
      <trkpt lat="47.12517" lon="-1.62378">
        <ele>56</ele>
        <time>2021-02-13T12:51:10.000Z</time>
      </trkpt>
      <trkpt lat="47.1251" lon="-1.62362">
        <ele>55</ele>
        <time>2021-02-13T12:51:12.000Z</time>
      </trkpt>
      <trkpt lat="47.12502" lon="-1.62347">
        <ele>55</ele>
        <time>2021-02-13T12:51:14.000Z</time>
      </trkpt>
      <trkpt lat="47.12495" lon="-1.62333">
        <ele>54</ele>
        <time>2021-02-13T12:51:16.000Z</time>
      </trkpt>
      <trkpt lat="47.12487" lon="-1.62319">
        <ele>54</ele>
        <time>2021-02-13T12:51:18.000Z</time>
      </trkpt>
      <trkpt lat="47.12478" lon="-1.62305">
        <ele>54</ele>
        <time>2021-02-13T12:51:20.000Z</time>
      </trkpt>
      <trkpt lat="47.12465" lon="-1.62284">
        <ele>54</ele>
        <time>2021-02-13T12:51:23.000Z</time>
      </trkpt>
      <trkpt lat="47.12457" lon="-1.6227">
        <ele>53</ele>
        <time>2021-02-13T12:51:25.000Z</time>
      </trkpt>
      <trkpt lat="47.12448" lon="-1.62257">
        <ele>54</ele>
        <time>2021-02-13T12:51:27.000Z</time>
      </trkpt>
      <trkpt lat="47.12439" lon="-1.62243">
        <ele>54</ele>
        <time>2021-02-13T12:51:29.000Z</time>
      </trkpt>
      <trkpt lat="47.1243" lon="-1.6223">
        <ele>54</ele>
        <time>2021-02-13T12:51:31.000Z</time>
      </trkpt>
      <trkpt lat="47.12422" lon="-1.62216">
        <ele>54</ele>
        <time>2021-02-13T12:51:33.000Z</time>
      </trkpt>
      <trkpt lat="47.12414" lon="-1.62202">
        <ele>55</ele>
        <time>2021-02-13T12:51:35.000Z</time>
      </trkpt>
      <trkpt lat="47.12406" lon="-1.62187">
        <ele>55</ele>
        <time>2021-02-13T12:51:37.000Z</time>
      </trkpt>
      <trkpt lat="47.124" lon="-1.62172">
        <ele>55</ele>
        <time>2021-02-13T12:51:39.000Z</time>
      </trkpt>
      <trkpt lat="47.12394" lon="-1.62155">
        <ele>55</ele>
        <time>2021-02-13T12:51:41.000Z</time>
      </trkpt>
      <trkpt lat="47.12389" lon="-1.62139">
        <ele>55</ele>
        <time>2021-02-13T12:51:43.000Z</time>
      </trkpt>
      <trkpt lat="47.12385" lon="-1.62121">
        <ele>56</ele>
        <time>2021-02-13T12:51:45.000Z</time>
      </trkpt>
      <trkpt lat="47.12382" lon="-1.62104">
        <ele>56</ele>
        <time>2021-02-13T12:51:47.000Z</time>
      </trkpt>
      <trkpt lat="47.12381" lon="-1.62085">
        <ele>56</ele>
        <time>2021-02-13T12:51:49.000Z</time>
      </trkpt>
      <trkpt lat="47.12381" lon="-1.62057">
        <ele>56</ele>
        <time>2021-02-13T12:51:52.000Z</time>
      </trkpt>
      <trkpt lat="47.12382" lon="-1.6203">
        <ele>57</ele>
        <time>2021-02-13T12:51:55.000Z</time>
      </trkpt>
      <trkpt lat="47.12385" lon="-1.6201">
        <ele>57</ele>
        <time>2021-02-13T12:51:57.000Z</time>
      </trkpt>
      <trkpt lat="47.12389" lon="-1.61993">
        <ele>57</ele>
        <time>2021-02-13T12:51:59.000Z</time>
      </trkpt>
      <trkpt lat="47.12394" lon="-1.61975">
        <ele>57</ele>
        <time>2021-02-13T12:52:01.000Z</time>
      </trkpt>
      <trkpt lat="47.12399" lon="-1.61958">
        <ele>57</ele>
        <time>2021-02-13T12:52:03.000Z</time>
      </trkpt>
      <trkpt lat="47.12405" lon="-1.61932">
        <ele>57</ele>
        <time>2021-02-13T12:52:06.000Z</time>
      </trkpt>
      <trkpt lat="47.1241" lon="-1.61916">
        <ele>57</ele>
        <time>2021-02-13T12:52:08.000Z</time>
      </trkpt>
      <trkpt lat="47.12413" lon="-1.61899">
        <ele>57</ele>
        <time>2021-02-13T12:52:10.000Z</time>
      </trkpt>
      <trkpt lat="47.12417" lon="-1.61882">
        <ele>57</ele>
        <time>2021-02-13T12:52:12.000Z</time>
      </trkpt>
      <trkpt lat="47.12424" lon="-1.61868">
        <ele>57</ele>
        <time>2021-02-13T12:52:14.000Z</time>
      </trkpt>
      <trkpt lat="47.12429" lon="-1.61853">
        <ele>58</ele>
        <time>2021-02-13T12:52:16.000Z</time>
      </trkpt>
      <trkpt lat="47.12432" lon="-1.61835">
        <ele>58</ele>
        <time>2021-02-13T12:52:18.000Z</time>
      </trkpt>
      <trkpt lat="47.12435" lon="-1.61817">
        <ele>58</ele>
        <time>2021-02-13T12:52:20.000Z</time>
      </trkpt>
      <trkpt lat="47.12439" lon="-1.618">
        <ele>58</ele>
        <time>2021-02-13T12:52:22.000Z</time>
      </trkpt>
      <trkpt lat="47.12446" lon="-1.61775">
        <ele>58</ele>
        <time>2021-02-13T12:52:25.000Z</time>
      </trkpt>
      <trkpt lat="47.1245" lon="-1.61758">
        <ele>58</ele>
        <time>2021-02-13T12:52:27.000Z</time>
      </trkpt>
      <trkpt lat="47.12455" lon="-1.61741">
        <ele>58</ele>
        <time>2021-02-13T12:52:29.000Z</time>
      </trkpt>
      <trkpt lat="47.12459" lon="-1.61723">
        <ele>58</ele>
        <time>2021-02-13T12:52:31.000Z</time>
      </trkpt>
      <trkpt lat="47.12463" lon="-1.61707">
        <ele>59</ele>
        <time>2021-02-13T12:52:33.000Z</time>
      </trkpt>
      <trkpt lat="47.12467" lon="-1.6169">
        <ele>59</ele>
        <time>2021-02-13T12:52:35.000Z</time>
      </trkpt>
      <trkpt lat="47.1247" lon="-1.61673">
        <ele>59</ele>
        <time>2021-02-13T12:52:37.000Z</time>
      </trkpt>
      <trkpt lat="47.12473" lon="-1.61654">
        <ele>59</ele>
        <time>2021-02-13T12:52:39.000Z</time>
      </trkpt>
      <trkpt lat="47.12475" lon="-1.61636">
        <ele>59</ele>
        <time>2021-02-13T12:52:41.000Z</time>
      </trkpt>
      <trkpt lat="47.12476" lon="-1.61617">
        <ele>58</ele>
        <time>2021-02-13T12:52:43.000Z</time>
      </trkpt>
      <trkpt lat="47.12474" lon="-1.61597">
        <ele>58</ele>
        <time>2021-02-13T12:52:45.000Z</time>
      </trkpt>
      <trkpt lat="47.12472" lon="-1.61578">
        <ele>58</ele>
        <time>2021-02-13T12:52:47.000Z</time>
      </trkpt>
      <trkpt lat="47.1247" lon="-1.6156">
        <ele>58</ele>
        <time>2021-02-13T12:52:49.000Z</time>
      </trkpt>
      <trkpt lat="47.12468" lon="-1.61542">
        <ele>58</ele>
        <time>2021-02-13T12:52:51.000Z</time>
      </trkpt>
      <trkpt lat="47.12467" lon="-1.61523">
        <ele>57</ele>
        <time>2021-02-13T12:52:53.000Z</time>
      </trkpt>
      <trkpt lat="47.12465" lon="-1.61504">
        <ele>58</ele>
        <time>2021-02-13T12:52:55.000Z</time>
      </trkpt>
      <trkpt lat="47.12463" lon="-1.61486">
        <ele>57</ele>
        <time>2021-02-13T12:52:57.000Z</time>
      </trkpt>
      <trkpt lat="47.12461" lon="-1.61468">
        <ele>57</ele>
        <time>2021-02-13T12:52:59.000Z</time>
      </trkpt>
      <trkpt lat="47.12458" lon="-1.61451">
        <ele>58</ele>
        <time>2021-02-13T12:53:01.000Z</time>
      </trkpt>
      <trkpt lat="47.12457" lon="-1.61433">
        <ele>58</ele>
        <time>2021-02-13T12:53:03.000Z</time>
      </trkpt>
      <trkpt lat="47.12455" lon="-1.61415">
        <ele>58</ele>
        <time>2021-02-13T12:53:05.000Z</time>
      </trkpt>
      <trkpt lat="47.12453" lon="-1.61396">
        <ele>58</ele>
        <time>2021-02-13T12:53:07.000Z</time>
      </trkpt>
      <trkpt lat="47.12452" lon="-1.61378">
        <ele>59</ele>
        <time>2021-02-13T12:53:09.000Z</time>
      </trkpt>
      <trkpt lat="47.12453" lon="-1.6136">
        <ele>60</ele>
        <time>2021-02-13T12:53:11.000Z</time>
      </trkpt>
      <trkpt lat="47.12455" lon="-1.61342">
        <ele>60</ele>
        <time>2021-02-13T12:53:13.000Z</time>
      </trkpt>
      <trkpt lat="47.12459" lon="-1.61324">
        <ele>61</ele>
        <time>2021-02-13T12:53:15.000Z</time>
      </trkpt>
      <trkpt lat="47.12465" lon="-1.61306">
        <ele>60</ele>
        <time>2021-02-13T12:53:17.000Z</time>
      </trkpt>
      <trkpt lat="47.12471" lon="-1.61288">
        <ele>61</ele>
        <time>2021-02-13T12:53:19.000Z</time>
      </trkpt>
      <trkpt lat="47.1248" lon="-1.61263">
        <ele>61</ele>
        <time>2021-02-13T12:53:22.000Z</time>
      </trkpt>
      <trkpt lat="47.12486" lon="-1.61246">
        <ele>61</ele>
        <time>2021-02-13T12:53:24.000Z</time>
      </trkpt>
      <trkpt lat="47.1249" lon="-1.61229">
        <ele>61</ele>
        <time>2021-02-13T12:53:26.000Z</time>
      </trkpt>
      <trkpt lat="47.12494" lon="-1.61212">
        <ele>61</ele>
        <time>2021-02-13T12:53:28.000Z</time>
      </trkpt>
      <trkpt lat="47.12497" lon="-1.61195">
        <ele>61</ele>
        <time>2021-02-13T12:53:30.000Z</time>
      </trkpt>
      <trkpt lat="47.125" lon="-1.61177">
        <ele>61</ele>
        <time>2021-02-13T12:53:32.000Z</time>
      </trkpt>
      <trkpt lat="47.12501" lon="-1.61159">
        <ele>61</ele>
        <time>2021-02-13T12:53:34.000Z</time>
      </trkpt>
      <trkpt lat="47.12503" lon="-1.61141">
        <ele>61</ele>
        <time>2021-02-13T12:53:36.000Z</time>
      </trkpt>
      <trkpt lat="47.12505" lon="-1.61123">
        <ele>61</ele>
        <time>2021-02-13T12:53:38.000Z</time>
      </trkpt>
      <trkpt lat="47.12506" lon="-1.61106">
        <ele>61</ele>
        <time>2021-02-13T12:53:40.000Z</time>
      </trkpt>
      <trkpt lat="47.12508" lon="-1.61088">
        <ele>60</ele>
        <time>2021-02-13T12:53:42.000Z</time>
      </trkpt>
      <trkpt lat="47.1251" lon="-1.61069">
        <ele>61</ele>
        <time>2021-02-13T12:53:44.000Z</time>
      </trkpt>
      <trkpt lat="47.12512" lon="-1.61051">
        <ele>61</ele>
        <time>2021-02-13T12:53:46.000Z</time>
      </trkpt>
      <trkpt lat="47.12514" lon="-1.61032">
        <ele>61</ele>
        <time>2021-02-13T12:53:48.000Z</time>
      </trkpt>
      <trkpt lat="47.12516" lon="-1.61005">
        <ele>61</ele>
        <time>2021-02-13T12:53:51.000Z</time>
      </trkpt>
      <trkpt lat="47.12518" lon="-1.60986">
        <ele>60</ele>
        <time>2021-02-13T12:53:53.000Z</time>
      </trkpt>
      <trkpt lat="47.12519" lon="-1.60968">
        <ele>60</ele>
        <time>2021-02-13T12:53:55.000Z</time>
      </trkpt>
      <trkpt lat="47.12521" lon="-1.60949">
        <ele>60</ele>
        <time>2021-02-13T12:53:57.000Z</time>
      </trkpt>
      <trkpt lat="47.12522" lon="-1.60931">
        <ele>60</ele>
        <time>2021-02-13T12:53:59.000Z</time>
      </trkpt>
      <trkpt lat="47.12524" lon="-1.60912">
        <ele>60</ele>
        <time>2021-02-13T12:54:01.000Z</time>
      </trkpt>
      <trkpt lat="47.12526" lon="-1.60893">
        <ele>60</ele>
        <time>2021-02-13T12:54:03.000Z</time>
      </trkpt>
      <trkpt lat="47.12527" lon="-1.60874">
        <ele>60</ele>
        <time>2021-02-13T12:54:05.000Z</time>
      </trkpt>
      <trkpt lat="47.12529" lon="-1.60856">
        <ele>60</ele>
        <time>2021-02-13T12:54:07.000Z</time>
      </trkpt>
      <trkpt lat="47.1253" lon="-1.60838">
        <ele>60</ele>
        <time>2021-02-13T12:54:09.000Z</time>
      </trkpt>
      <trkpt lat="47.12532" lon="-1.60819">
        <ele>60</ele>
        <time>2021-02-13T12:54:11.000Z</time>
      </trkpt>
      <trkpt lat="47.12534" lon="-1.60801">
        <ele>60</ele>
        <time>2021-02-13T12:54:13.000Z</time>
      </trkpt>
      <trkpt lat="47.12536" lon="-1.60782">
        <ele>60</ele>
        <time>2021-02-13T12:54:15.000Z</time>
      </trkpt>
      <trkpt lat="47.12537" lon="-1.60764">
        <ele>59</ele>
        <time>2021-02-13T12:54:17.000Z</time>
      </trkpt>
      <trkpt lat="47.12539" lon="-1.60745">
        <ele>59</ele>
        <time>2021-02-13T12:54:19.000Z</time>
      </trkpt>
      <trkpt lat="47.1254" lon="-1.60726">
        <ele>59</ele>
        <time>2021-02-13T12:54:21.000Z</time>
      </trkpt>
      <trkpt lat="47.1254" lon="-1.60707">
        <ele>59</ele>
        <time>2021-02-13T12:54:23.000Z</time>
      </trkpt>
      <trkpt lat="47.1254" lon="-1.60688">
        <ele>59</ele>
        <time>2021-02-13T12:54:25.000Z</time>
      </trkpt>
      <trkpt lat="47.12539" lon="-1.60669">
        <ele>59</ele>
        <time>2021-02-13T12:54:27.000Z</time>
      </trkpt>
      <trkpt lat="47.12539" lon="-1.6065">
        <ele>59</ele>
        <time>2021-02-13T12:54:29.000Z</time>
      </trkpt>
      <trkpt lat="47.12539" lon="-1.6063">
        <ele>59</ele>
        <time>2021-02-13T12:54:31.000Z</time>
      </trkpt>
      <trkpt lat="47.12538" lon="-1.60611">
        <ele>60</ele>
        <time>2021-02-13T12:54:33.000Z</time>
      </trkpt>
      <trkpt lat="47.12538" lon="-1.60591">
        <ele>60</ele>
        <time>2021-02-13T12:54:35.000Z</time>
      </trkpt>
      <trkpt lat="47.12537" lon="-1.60572">
        <ele>60</ele>
        <time>2021-02-13T12:54:37.000Z</time>
      </trkpt>
      <trkpt lat="47.12537" lon="-1.60553">
        <ele>60</ele>
        <time>2021-02-13T12:54:39.000Z</time>
      </trkpt>
      <trkpt lat="47.12536" lon="-1.60534">
        <ele>61</ele>
        <time>2021-02-13T12:54:41.000Z</time>
      </trkpt>
      <trkpt lat="47.12535" lon="-1.60514">
        <ele>61</ele>
        <time>2021-02-13T12:54:43.000Z</time>
      </trkpt>
      <trkpt lat="47.12533" lon="-1.60495">
        <ele>60</ele>
        <time>2021-02-13T12:54:45.000Z</time>
      </trkpt>
      <trkpt lat="47.12531" lon="-1.60477">
        <ele>60</ele>
        <time>2021-02-13T12:54:47.000Z</time>
      </trkpt>
      <trkpt lat="47.12527" lon="-1.60458">
        <ele>60</ele>
        <time>2021-02-13T12:54:49.000Z</time>
      </trkpt>
      <trkpt lat="47.12524" lon="-1.6044">
        <ele>59</ele>
        <time>2021-02-13T12:54:51.000Z</time>
      </trkpt>
      <trkpt lat="47.1252" lon="-1.60422">
        <ele>60</ele>
        <time>2021-02-13T12:54:53.000Z</time>
      </trkpt>
      <trkpt lat="47.12517" lon="-1.60403">
        <ele>59</ele>
        <time>2021-02-13T12:54:55.000Z</time>
      </trkpt>
      <trkpt lat="47.12513" lon="-1.60384">
        <ele>59</ele>
        <time>2021-02-13T12:54:57.000Z</time>
      </trkpt>
      <trkpt lat="47.1251" lon="-1.60364">
        <ele>58</ele>
        <time>2021-02-13T12:54:59.000Z</time>
      </trkpt>
      <trkpt lat="47.12506" lon="-1.60343">
        <ele>58</ele>
        <time>2021-02-13T12:55:01.000Z</time>
      </trkpt>
      <trkpt lat="47.12502" lon="-1.60323">
        <ele>58</ele>
        <time>2021-02-13T12:55:03.000Z</time>
      </trkpt>
      <trkpt lat="47.12497" lon="-1.60302">
        <ele>58</ele>
        <time>2021-02-13T12:55:05.000Z</time>
      </trkpt>
      <trkpt lat="47.12493" lon="-1.6028">
        <ele>57</ele>
        <time>2021-02-13T12:55:07.000Z</time>
      </trkpt>
      <trkpt lat="47.1249" lon="-1.60259">
        <ele>57</ele>
        <time>2021-02-13T12:55:09.000Z</time>
      </trkpt>
      <trkpt lat="47.12486" lon="-1.60238">
        <ele>57</ele>
        <time>2021-02-13T12:55:11.000Z</time>
      </trkpt>
      <trkpt lat="47.12482" lon="-1.60218">
        <ele>56</ele>
        <time>2021-02-13T12:55:13.000Z</time>
      </trkpt>
      <trkpt lat="47.1248" lon="-1.60198">
        <ele>57</ele>
        <time>2021-02-13T12:55:15.000Z</time>
      </trkpt>
      <trkpt lat="47.12477" lon="-1.60178">
        <ele>57</ele>
        <time>2021-02-13T12:55:17.000Z</time>
      </trkpt>
      <trkpt lat="47.12476" lon="-1.60159">
        <ele>57</ele>
        <time>2021-02-13T12:55:19.000Z</time>
      </trkpt>
      <trkpt lat="47.12475" lon="-1.60139">
        <ele>57</ele>
        <time>2021-02-13T12:55:21.000Z</time>
      </trkpt>
      <trkpt lat="47.12474" lon="-1.60119">
        <ele>57</ele>
        <time>2021-02-13T12:55:23.000Z</time>
      </trkpt>
      <trkpt lat="47.12473" lon="-1.60099">
        <ele>57</ele>
        <time>2021-02-13T12:55:25.000Z</time>
      </trkpt>
      <trkpt lat="47.12472" lon="-1.6008">
        <ele>57</ele>
        <time>2021-02-13T12:55:27.000Z</time>
      </trkpt>
      <trkpt lat="47.12471" lon="-1.60061">
        <ele>57</ele>
        <time>2021-02-13T12:55:29.000Z</time>
      </trkpt>
      <trkpt lat="47.1247" lon="-1.60041">
        <ele>58</ele>
        <time>2021-02-13T12:55:31.000Z</time>
      </trkpt>
      <trkpt lat="47.12469" lon="-1.60022">
        <ele>58</ele>
        <time>2021-02-13T12:55:33.000Z</time>
      </trkpt>
      <trkpt lat="47.12468" lon="-1.60003">
        <ele>58</ele>
        <time>2021-02-13T12:55:35.000Z</time>
      </trkpt>
      <trkpt lat="47.12467" lon="-1.59983">
        <ele>59</ele>
        <time>2021-02-13T12:55:37.000Z</time>
      </trkpt>
      <trkpt lat="47.12466" lon="-1.59964">
        <ele>59</ele>
        <time>2021-02-13T12:55:39.000Z</time>
      </trkpt>
      <trkpt lat="47.12465" lon="-1.59945">
        <ele>59</ele>
        <time>2021-02-13T12:55:41.000Z</time>
      </trkpt>
      <trkpt lat="47.12464" lon="-1.59926">
        <ele>59</ele>
        <time>2021-02-13T12:55:43.000Z</time>
      </trkpt>
      <trkpt lat="47.12462" lon="-1.59907">
        <ele>59</ele>
        <time>2021-02-13T12:55:45.000Z</time>
      </trkpt>
      <trkpt lat="47.12461" lon="-1.59888">
        <ele>60</ele>
        <time>2021-02-13T12:55:47.000Z</time>
      </trkpt>
      <trkpt lat="47.1246" lon="-1.59868">
        <ele>60</ele>
        <time>2021-02-13T12:55:49.000Z</time>
      </trkpt>
      <trkpt lat="47.12459" lon="-1.5985">
        <ele>60</ele>
        <time>2021-02-13T12:55:51.000Z</time>
      </trkpt>
      <trkpt lat="47.12457" lon="-1.59831">
        <ele>61</ele>
        <time>2021-02-13T12:55:53.000Z</time>
      </trkpt>
      <trkpt lat="47.12457" lon="-1.5981">
        <ele>61</ele>
        <time>2021-02-13T12:55:55.000Z</time>
      </trkpt>
      <trkpt lat="47.12456" lon="-1.59791">
        <ele>61</ele>
        <time>2021-02-13T12:55:57.000Z</time>
      </trkpt>
      <trkpt lat="47.12456" lon="-1.59771">
        <ele>61</ele>
        <time>2021-02-13T12:55:59.000Z</time>
      </trkpt>
      <trkpt lat="47.12456" lon="-1.59751">
        <ele>61</ele>
        <time>2021-02-13T12:56:01.000Z</time>
      </trkpt>
      <trkpt lat="47.12454" lon="-1.59731">
        <ele>60</ele>
        <time>2021-02-13T12:56:03.000Z</time>
      </trkpt>
      <trkpt lat="47.12453" lon="-1.59711">
        <ele>60</ele>
        <time>2021-02-13T12:56:05.000Z</time>
      </trkpt>
      <trkpt lat="47.12453" lon="-1.59691">
        <ele>60</ele>
        <time>2021-02-13T12:56:07.000Z</time>
      </trkpt>
      <trkpt lat="47.12452" lon="-1.59672">
        <ele>59</ele>
        <time>2021-02-13T12:56:09.000Z</time>
      </trkpt>
      <trkpt lat="47.12452" lon="-1.59653">
        <ele>59</ele>
        <time>2021-02-13T12:56:11.000Z</time>
      </trkpt>
      <trkpt lat="47.12451" lon="-1.59633">
        <ele>58</ele>
        <time>2021-02-13T12:56:13.000Z</time>
      </trkpt>
      <trkpt lat="47.1245" lon="-1.59614">
        <ele>58</ele>
        <time>2021-02-13T12:56:15.000Z</time>
      </trkpt>
      <trkpt lat="47.12449" lon="-1.59594">
        <ele>59</ele>
        <time>2021-02-13T12:56:17.000Z</time>
      </trkpt>
      <trkpt lat="47.12448" lon="-1.59575">
        <ele>59</ele>
        <time>2021-02-13T12:56:19.000Z</time>
      </trkpt>
      <trkpt lat="47.12447" lon="-1.59556">
        <ele>58</ele>
        <time>2021-02-13T12:56:21.000Z</time>
      </trkpt>
      <trkpt lat="47.12446" lon="-1.59536">
        <ele>58</ele>
        <time>2021-02-13T12:56:23.000Z</time>
      </trkpt>
      <trkpt lat="47.12445" lon="-1.59516">
        <ele>58</ele>
        <time>2021-02-13T12:56:25.000Z</time>
      </trkpt>
      <trkpt lat="47.12444" lon="-1.59497">
        <ele>58</ele>
        <time>2021-02-13T12:56:27.000Z</time>
      </trkpt>
      <trkpt lat="47.12443" lon="-1.59478">
        <ele>58</ele>
        <time>2021-02-13T12:56:29.000Z</time>
      </trkpt>
      <trkpt lat="47.12442" lon="-1.59459">
        <ele>58</ele>
        <time>2021-02-13T12:56:31.000Z</time>
      </trkpt>
      <trkpt lat="47.12441" lon="-1.5944">
        <ele>58</ele>
        <time>2021-02-13T12:56:33.000Z</time>
      </trkpt>
      <trkpt lat="47.1244" lon="-1.59421">
        <ele>58</ele>
        <time>2021-02-13T12:56:35.000Z</time>
      </trkpt>
      <trkpt lat="47.12439" lon="-1.59401">
        <ele>57</ele>
        <time>2021-02-13T12:56:37.000Z</time>
      </trkpt>
      <trkpt lat="47.12438" lon="-1.59382">
        <ele>57</ele>
        <time>2021-02-13T12:56:39.000Z</time>
      </trkpt>
      <trkpt lat="47.12437" lon="-1.59362">
        <ele>56</ele>
        <time>2021-02-13T12:56:41.000Z</time>
      </trkpt>
      <trkpt lat="47.12436" lon="-1.59342">
        <ele>56</ele>
        <time>2021-02-13T12:56:43.000Z</time>
      </trkpt>
      <trkpt lat="47.12435" lon="-1.59323">
        <ele>56</ele>
        <time>2021-02-13T12:56:45.000Z</time>
      </trkpt>
      <trkpt lat="47.12434" lon="-1.59303">
        <ele>56</ele>
        <time>2021-02-13T12:56:47.000Z</time>
      </trkpt>
      <trkpt lat="47.12433" lon="-1.59284">
        <ele>57</ele>
        <time>2021-02-13T12:56:49.000Z</time>
      </trkpt>
      <trkpt lat="47.12432" lon="-1.59266">
        <ele>57</ele>
        <time>2021-02-13T12:56:51.000Z</time>
      </trkpt>
      <trkpt lat="47.12431" lon="-1.59246">
        <ele>57</ele>
        <time>2021-02-13T12:56:53.000Z</time>
      </trkpt>
      <trkpt lat="47.12429" lon="-1.59227">
        <ele>57</ele>
        <time>2021-02-13T12:56:55.000Z</time>
      </trkpt>
      <trkpt lat="47.12425" lon="-1.59209">
        <ele>56</ele>
        <time>2021-02-13T12:56:57.000Z</time>
      </trkpt>
      <trkpt lat="47.12422" lon="-1.59189">
        <ele>55</ele>
        <time>2021-02-13T12:56:59.000Z</time>
      </trkpt>
      <trkpt lat="47.12424" lon="-1.5917">
        <ele>55</ele>
        <time>2021-02-13T12:57:01.000Z</time>
      </trkpt>
      <trkpt lat="47.12425" lon="-1.5915">
        <ele>55</ele>
        <time>2021-02-13T12:57:03.000Z</time>
      </trkpt>
      <trkpt lat="47.12426" lon="-1.5913">
        <ele>55</ele>
        <time>2021-02-13T12:57:05.000Z</time>
      </trkpt>
      <trkpt lat="47.12427" lon="-1.59109">
        <ele>55</ele>
        <time>2021-02-13T12:57:07.000Z</time>
      </trkpt>
      <trkpt lat="47.12425" lon="-1.59089">
        <ele>54</ele>
        <time>2021-02-13T12:57:09.000Z</time>
      </trkpt>
      <trkpt lat="47.12424" lon="-1.59069">
        <ele>55</ele>
        <time>2021-02-13T12:57:11.000Z</time>
      </trkpt>
      <trkpt lat="47.12423" lon="-1.5905">
        <ele>55</ele>
        <time>2021-02-13T12:57:13.000Z</time>
      </trkpt>
      <trkpt lat="47.12423" lon="-1.59032">
        <ele>55</ele>
        <time>2021-02-13T12:57:15.000Z</time>
      </trkpt>
      <trkpt lat="47.12422" lon="-1.59015">
        <ele>55</ele>
        <time>2021-02-13T12:57:17.000Z</time>
      </trkpt>
      <trkpt lat="47.12422" lon="-1.58998">
        <ele>55</ele>
        <time>2021-02-13T12:57:19.000Z</time>
      </trkpt>
      <trkpt lat="47.12421" lon="-1.58982">
        <ele>56</ele>
        <time>2021-02-13T12:57:21.000Z</time>
      </trkpt>
      <trkpt lat="47.12419" lon="-1.58965">
        <ele>56</ele>
        <time>2021-02-13T12:57:23.000Z</time>
      </trkpt>
      <trkpt lat="47.12418" lon="-1.58949">
        <ele>57</ele>
        <time>2021-02-13T12:57:25.000Z</time>
      </trkpt>
      <trkpt lat="47.12417" lon="-1.58933">
        <ele>58</ele>
        <time>2021-02-13T12:57:27.000Z</time>
      </trkpt>
      <trkpt lat="47.12416" lon="-1.58918">
        <ele>58</ele>
        <time>2021-02-13T12:57:29.000Z</time>
      </trkpt>
      <trkpt lat="47.12415" lon="-1.58902">
        <ele>59</ele>
        <time>2021-02-13T12:57:31.000Z</time>
      </trkpt>
      <trkpt lat="47.12413" lon="-1.58886">
        <ele>59</ele>
        <time>2021-02-13T12:57:33.000Z</time>
      </trkpt>
      <trkpt lat="47.12412" lon="-1.58869">
        <ele>60</ele>
        <time>2021-02-13T12:57:35.000Z</time>
      </trkpt>
      <trkpt lat="47.1241" lon="-1.58853">
        <ele>60</ele>
        <time>2021-02-13T12:57:37.000Z</time>
      </trkpt>
      <trkpt lat="47.12408" lon="-1.58835">
        <ele>61</ele>
        <time>2021-02-13T12:57:39.000Z</time>
      </trkpt>
      <trkpt lat="47.12406" lon="-1.58819">
        <ele>61</ele>
        <time>2021-02-13T12:57:41.000Z</time>
      </trkpt>
      <trkpt lat="47.12403" lon="-1.58803">
        <ele>61</ele>
        <time>2021-02-13T12:57:43.000Z</time>
      </trkpt>
      <trkpt lat="47.12401" lon="-1.58786">
        <ele>62</ele>
        <time>2021-02-13T12:57:45.000Z</time>
      </trkpt>
      <trkpt lat="47.12398" lon="-1.5877">
        <ele>61</ele>
        <time>2021-02-13T12:57:47.000Z</time>
      </trkpt>
      <trkpt lat="47.12396" lon="-1.58755">
        <ele>61</ele>
        <time>2021-02-13T12:57:49.000Z</time>
      </trkpt>
      <trkpt lat="47.12392" lon="-1.58739">
        <ele>61</ele>
        <time>2021-02-13T12:57:51.000Z</time>
      </trkpt>
      <trkpt lat="47.12389" lon="-1.58723">
        <ele>60</ele>
        <time>2021-02-13T12:57:53.000Z</time>
      </trkpt>
      <trkpt lat="47.12386" lon="-1.58707">
        <ele>60</ele>
        <time>2021-02-13T12:57:55.000Z</time>
      </trkpt>
      <trkpt lat="47.12382" lon="-1.5869">
        <ele>60</ele>
        <time>2021-02-13T12:57:57.000Z</time>
      </trkpt>
      <trkpt lat="47.12379" lon="-1.58674">
        <ele>60</ele>
        <time>2021-02-13T12:57:59.000Z</time>
      </trkpt>
      <trkpt lat="47.12374" lon="-1.58657">
        <ele>60</ele>
        <time>2021-02-13T12:58:01.000Z</time>
      </trkpt>
      <trkpt lat="47.1237" lon="-1.58639">
        <ele>60</ele>
        <time>2021-02-13T12:58:03.000Z</time>
      </trkpt>
      <trkpt lat="47.12367" lon="-1.58622">
        <ele>59</ele>
        <time>2021-02-13T12:58:05.000Z</time>
      </trkpt>
      <trkpt lat="47.12363" lon="-1.58605">
        <ele>59</ele>
        <time>2021-02-13T12:58:07.000Z</time>
      </trkpt>
      <trkpt lat="47.12359" lon="-1.58586">
        <ele>59</ele>
        <time>2021-02-13T12:58:09.000Z</time>
      </trkpt>
      <trkpt lat="47.12354" lon="-1.58568">
        <ele>59</ele>
        <time>2021-02-13T12:58:11.000Z</time>
      </trkpt>
      <trkpt lat="47.1235" lon="-1.58551">
        <ele>60</ele>
        <time>2021-02-13T12:58:13.000Z</time>
      </trkpt>
      <trkpt lat="47.12346" lon="-1.58534">
        <ele>59</ele>
        <time>2021-02-13T12:58:15.000Z</time>
      </trkpt>
      <trkpt lat="47.12342" lon="-1.58518">
        <ele>59</ele>
        <time>2021-02-13T12:58:17.000Z</time>
      </trkpt>
      <trkpt lat="47.12338" lon="-1.58501">
        <ele>59</ele>
        <time>2021-02-13T12:58:19.000Z</time>
      </trkpt>
      <trkpt lat="47.12335" lon="-1.58484">
        <ele>59</ele>
        <time>2021-02-13T12:58:21.000Z</time>
      </trkpt>
      <trkpt lat="47.12331" lon="-1.58468">
        <ele>59</ele>
        <time>2021-02-13T12:58:23.000Z</time>
      </trkpt>
      <trkpt lat="47.12326" lon="-1.58453">
        <ele>59</ele>
        <time>2021-02-13T12:58:25.000Z</time>
      </trkpt>
      <trkpt lat="47.12319" lon="-1.58441">
        <ele>60</ele>
        <time>2021-02-13T12:58:27.000Z</time>
      </trkpt>
      <trkpt lat="47.12313" lon="-1.58428">
        <ele>60</ele>
        <time>2021-02-13T12:58:29.000Z</time>
      </trkpt>
      <trkpt lat="47.12307" lon="-1.58415">
        <ele>59</ele>
        <time>2021-02-13T12:58:31.000Z</time>
      </trkpt>
      <trkpt lat="47.12301" lon="-1.58404">
        <ele>59</ele>
        <time>2021-02-13T12:58:35.000Z</time>
      </trkpt>
      <trkpt lat="47.12296" lon="-1.58389">
        <ele>59</ele>
        <time>2021-02-13T12:58:41.000Z</time>
      </trkpt>
      <trkpt lat="47.12296" lon="-1.58372">
        <ele>60</ele>
        <time>2021-02-13T12:58:43.000Z</time>
      </trkpt>
      <trkpt lat="47.12295" lon="-1.58355">
        <ele>59</ele>
        <time>2021-02-13T12:58:45.000Z</time>
      </trkpt>
      <trkpt lat="47.12291" lon="-1.5834">
        <ele>58</ele>
        <time>2021-02-13T12:58:47.000Z</time>
      </trkpt>
      <trkpt lat="47.1228" lon="-1.5833">
        <ele>58</ele>
        <time>2021-02-13T12:58:49.000Z</time>
      </trkpt>
      <trkpt lat="47.12264" lon="-1.58323">
        <ele>57</ele>
        <time>2021-02-13T12:58:51.000Z</time>
      </trkpt>
      <trkpt lat="47.12252" lon="-1.5831">
        <ele>57</ele>
        <time>2021-02-13T12:58:53.000Z</time>
      </trkpt>
      <trkpt lat="47.12241" lon="-1.58299">
        <ele>57</ele>
        <time>2021-02-13T12:58:55.000Z</time>
      </trkpt>
      <trkpt lat="47.12231" lon="-1.58287">
        <ele>56</ele>
        <time>2021-02-13T12:58:57.000Z</time>
      </trkpt>
      <trkpt lat="47.12221" lon="-1.58276">
        <ele>56</ele>
        <time>2021-02-13T12:58:59.000Z</time>
      </trkpt>
      <trkpt lat="47.12211" lon="-1.58264">
        <ele>56</ele>
        <time>2021-02-13T12:59:01.000Z</time>
      </trkpt>
      <trkpt lat="47.12202" lon="-1.58255">
        <ele>56</ele>
        <time>2021-02-13T12:59:03.000Z</time>
      </trkpt>
      <trkpt lat="47.12195" lon="-1.58244">
        <ele>57</ele>
        <time>2021-02-13T12:59:05.000Z</time>
      </trkpt>
      <trkpt lat="47.12199" lon="-1.58224">
        <ele>56</ele>
        <time>2021-02-13T12:59:07.000Z</time>
      </trkpt>
      <trkpt lat="47.12203" lon="-1.58205">
        <ele>56</ele>
        <time>2021-02-13T12:59:09.000Z</time>
      </trkpt>
      <trkpt lat="47.12204" lon="-1.58186">
        <ele>55</ele>
        <time>2021-02-13T12:59:11.000Z</time>
      </trkpt>
      <trkpt lat="47.12204" lon="-1.58168">
        <ele>55</ele>
        <time>2021-02-13T12:59:13.000Z</time>
      </trkpt>
      <trkpt lat="47.12207" lon="-1.58152">
        <ele>56</ele>
        <time>2021-02-13T12:59:15.000Z</time>
      </trkpt>
      <trkpt lat="47.12213" lon="-1.58138">
        <ele>57</ele>
        <time>2021-02-13T12:59:17.000Z</time>
      </trkpt>
      <trkpt lat="47.12219" lon="-1.58123">
        <ele>57</ele>
        <time>2021-02-13T12:59:19.000Z</time>
      </trkpt>
      <trkpt lat="47.12225" lon="-1.58108">
        <ele>57</ele>
        <time>2021-02-13T12:59:21.000Z</time>
      </trkpt>
      <trkpt lat="47.12231" lon="-1.58094">
        <ele>57</ele>
        <time>2021-02-13T12:59:23.000Z</time>
      </trkpt>
      <trkpt lat="47.12236" lon="-1.58079">
        <ele>57</ele>
        <time>2021-02-13T12:59:25.000Z</time>
      </trkpt>
      <trkpt lat="47.12241" lon="-1.58064">
        <ele>57</ele>
        <time>2021-02-13T12:59:27.000Z</time>
      </trkpt>
      <trkpt lat="47.12243" lon="-1.58047">
        <ele>58</ele>
        <time>2021-02-13T12:59:29.000Z</time>
      </trkpt>
      <trkpt lat="47.12242" lon="-1.58031">
        <ele>58</ele>
        <time>2021-02-13T12:59:31.000Z</time>
      </trkpt>
      <trkpt lat="47.12238" lon="-1.58018">
        <ele>58</ele>
        <time>2021-02-13T12:59:33.000Z</time>
      </trkpt>
      <trkpt lat="47.12227" lon="-1.58005">
        <ele>58</ele>
        <time>2021-02-13T12:59:35.000Z</time>
      </trkpt>
      <trkpt lat="47.12219" lon="-1.57991">
        <ele>59</ele>
        <time>2021-02-13T12:59:37.000Z</time>
      </trkpt>
      <trkpt lat="47.12212" lon="-1.57979">
        <ele>59</ele>
        <time>2021-02-13T12:59:39.000Z</time>
      </trkpt>
      <trkpt lat="47.12205" lon="-1.57965">
        <ele>58</ele>
        <time>2021-02-13T12:59:41.000Z</time>
      </trkpt>
      <trkpt lat="47.12198" lon="-1.57953">
        <ele>59</ele>
        <time>2021-02-13T12:59:43.000Z</time>
      </trkpt>
      <trkpt lat="47.12191" lon="-1.5794">
        <ele>59</ele>
        <time>2021-02-13T12:59:45.000Z</time>
      </trkpt>
      <trkpt lat="47.12186" lon="-1.57926">
        <ele>59</ele>
        <time>2021-02-13T12:59:47.000Z</time>
      </trkpt>
      <trkpt lat="47.12183" lon="-1.57909">
        <ele>59</ele>
        <time>2021-02-13T12:59:49.000Z</time>
      </trkpt>
      <trkpt lat="47.12181" lon="-1.57893">
        <ele>60</ele>
        <time>2021-02-13T12:59:51.000Z</time>
      </trkpt>
      <trkpt lat="47.12179" lon="-1.57877">
        <ele>60</ele>
        <time>2021-02-13T12:59:53.000Z</time>
      </trkpt>
      <trkpt lat="47.12178" lon="-1.5786">
        <ele>61</ele>
        <time>2021-02-13T12:59:55.000Z</time>
      </trkpt>
      <trkpt lat="47.12177" lon="-1.57843">
        <ele>61</ele>
        <time>2021-02-13T12:59:57.000Z</time>
      </trkpt>
      <trkpt lat="47.12177" lon="-1.57826">
        <ele>61</ele>
        <time>2021-02-13T12:59:59.000Z</time>
      </trkpt>
      <trkpt lat="47.12177" lon="-1.57808">
        <ele>61</ele>
        <time>2021-02-13T13:00:01.000Z</time>
      </trkpt>
      <trkpt lat="47.12177" lon="-1.5779">
        <ele>61</ele>
        <time>2021-02-13T13:00:03.000Z</time>
      </trkpt>
      <trkpt lat="47.12176" lon="-1.57773">
        <ele>62</ele>
        <time>2021-02-13T13:00:05.000Z</time>
      </trkpt>
      <trkpt lat="47.12177" lon="-1.57756">
        <ele>63</ele>
        <time>2021-02-13T13:00:07.000Z</time>
      </trkpt>
      <trkpt lat="47.12176" lon="-1.57738">
        <ele>64</ele>
        <time>2021-02-13T13:00:09.000Z</time>
      </trkpt>
      <trkpt lat="47.12177" lon="-1.57722">
        <ele>63</ele>
        <time>2021-02-13T13:00:11.000Z</time>
      </trkpt>
      <trkpt lat="47.12176" lon="-1.57704">
        <ele>64</ele>
        <time>2021-02-13T13:00:13.000Z</time>
      </trkpt>
      <trkpt lat="47.12177" lon="-1.57688">
        <ele>63</ele>
        <time>2021-02-13T13:00:15.000Z</time>
      </trkpt>
      <trkpt lat="47.12176" lon="-1.57671">
        <ele>63</ele>
        <time>2021-02-13T13:00:17.000Z</time>
      </trkpt>
      <trkpt lat="47.12176" lon="-1.57655">
        <ele>63</ele>
        <time>2021-02-13T13:00:19.000Z</time>
      </trkpt>
      <trkpt lat="47.12176" lon="-1.57638">
        <ele>63</ele>
        <time>2021-02-13T13:00:21.000Z</time>
      </trkpt>
      <trkpt lat="47.12176" lon="-1.57621">
        <ele>63</ele>
        <time>2021-02-13T13:00:23.000Z</time>
      </trkpt>
      <trkpt lat="47.12176" lon="-1.57603">
        <ele>63</ele>
        <time>2021-02-13T13:00:25.000Z</time>
      </trkpt>
      <trkpt lat="47.12175" lon="-1.57586">
        <ele>63</ele>
        <time>2021-02-13T13:00:27.000Z</time>
      </trkpt>
      <trkpt lat="47.12175" lon="-1.57569">
        <ele>63</ele>
        <time>2021-02-13T13:00:29.000Z</time>
      </trkpt>
      <trkpt lat="47.12174" lon="-1.57552">
        <ele>62</ele>
        <time>2021-02-13T13:00:31.000Z</time>
      </trkpt>
      <trkpt lat="47.12173" lon="-1.57534">
        <ele>62</ele>
        <time>2021-02-13T13:00:33.000Z</time>
      </trkpt>
      <trkpt lat="47.12171" lon="-1.57518">
        <ele>62</ele>
        <time>2021-02-13T13:00:35.000Z</time>
      </trkpt>
      <trkpt lat="47.12169" lon="-1.575">
        <ele>62</ele>
        <time>2021-02-13T13:00:37.000Z</time>
      </trkpt>
      <trkpt lat="47.12166" lon="-1.57482">
        <ele>62</ele>
        <time>2021-02-13T13:00:39.000Z</time>
      </trkpt>
      <trkpt lat="47.12163" lon="-1.57465">
        <ele>62</ele>
        <time>2021-02-13T13:00:41.000Z</time>
      </trkpt>
      <trkpt lat="47.1216" lon="-1.57448">
        <ele>61</ele>
        <time>2021-02-13T13:00:43.000Z</time>
      </trkpt>
      <trkpt lat="47.12157" lon="-1.57431">
        <ele>61</ele>
        <time>2021-02-13T13:00:45.000Z</time>
      </trkpt>
      <trkpt lat="47.12154" lon="-1.57414">
        <ele>61</ele>
        <time>2021-02-13T13:00:47.000Z</time>
      </trkpt>
      <trkpt lat="47.12151" lon="-1.57398">
        <ele>62</ele>
        <time>2021-02-13T13:00:49.000Z</time>
      </trkpt>
      <trkpt lat="47.12148" lon="-1.57381">
        <ele>62</ele>
        <time>2021-02-13T13:00:51.000Z</time>
      </trkpt>
      <trkpt lat="47.12145" lon="-1.57364">
        <ele>62</ele>
        <time>2021-02-13T13:00:53.000Z</time>
      </trkpt>
      <trkpt lat="47.12141" lon="-1.57346">
        <ele>62</ele>
        <time>2021-02-13T13:00:55.000Z</time>
      </trkpt>
      <trkpt lat="47.12139" lon="-1.57328">
        <ele>62</ele>
        <time>2021-02-13T13:00:57.000Z</time>
      </trkpt>
      <trkpt lat="47.12136" lon="-1.57311">
        <ele>62</ele>
        <time>2021-02-13T13:00:59.000Z</time>
      </trkpt>
      <trkpt lat="47.12131" lon="-1.57294">
        <ele>62</ele>
        <time>2021-02-13T13:01:01.000Z</time>
      </trkpt>
      <trkpt lat="47.12127" lon="-1.57277">
        <ele>62</ele>
        <time>2021-02-13T13:01:03.000Z</time>
      </trkpt>
      <trkpt lat="47.12123" lon="-1.57258">
        <ele>61</ele>
        <time>2021-02-13T13:01:05.000Z</time>
      </trkpt>
      <trkpt lat="47.1212" lon="-1.57239">
        <ele>60</ele>
        <time>2021-02-13T13:01:07.000Z</time>
      </trkpt>
      <trkpt lat="47.12116" lon="-1.57219">
        <ele>60</ele>
        <time>2021-02-13T13:01:09.000Z</time>
      </trkpt>
      <trkpt lat="47.12113" lon="-1.57199">
        <ele>59</ele>
        <time>2021-02-13T13:01:11.000Z</time>
      </trkpt>
      <trkpt lat="47.12109" lon="-1.57179">
        <ele>59</ele>
        <time>2021-02-13T13:01:13.000Z</time>
      </trkpt>
      <trkpt lat="47.12106" lon="-1.5716">
        <ele>59</ele>
        <time>2021-02-13T13:01:15.000Z</time>
      </trkpt>
      <trkpt lat="47.12102" lon="-1.5714">
        <ele>59</ele>
        <time>2021-02-13T13:01:17.000Z</time>
      </trkpt>
      <trkpt lat="47.12098" lon="-1.57121">
        <ele>58</ele>
        <time>2021-02-13T13:01:19.000Z</time>
      </trkpt>
      <trkpt lat="47.12093" lon="-1.57101">
        <ele>58</ele>
        <time>2021-02-13T13:01:21.000Z</time>
      </trkpt>
      <trkpt lat="47.12089" lon="-1.57081">
        <ele>58</ele>
        <time>2021-02-13T13:01:23.000Z</time>
      </trkpt>
      <trkpt lat="47.12085" lon="-1.57062">
        <ele>58</ele>
        <time>2021-02-13T13:01:25.000Z</time>
      </trkpt>
      <trkpt lat="47.12081" lon="-1.57043">
        <ele>58</ele>
        <time>2021-02-13T13:01:27.000Z</time>
      </trkpt>
      <trkpt lat="47.12078" lon="-1.57023">
        <ele>57</ele>
        <time>2021-02-13T13:01:29.000Z</time>
      </trkpt>
      <trkpt lat="47.12074" lon="-1.57004">
        <ele>58</ele>
        <time>2021-02-13T13:01:31.000Z</time>
      </trkpt>
      <trkpt lat="47.12071" lon="-1.56985">
        <ele>58</ele>
        <time>2021-02-13T13:01:33.000Z</time>
      </trkpt>
      <trkpt lat="47.12068" lon="-1.56967">
        <ele>58</ele>
        <time>2021-02-13T13:01:35.000Z</time>
      </trkpt>
      <trkpt lat="47.12064" lon="-1.5695">
        <ele>58</ele>
        <time>2021-02-13T13:01:37.000Z</time>
      </trkpt>
      <trkpt lat="47.12061" lon="-1.56935">
        <ele>58</ele>
        <time>2021-02-13T13:01:39.000Z</time>
      </trkpt>
      <trkpt lat="47.12057" lon="-1.56921">
        <ele>59</ele>
        <time>2021-02-13T13:01:41.000Z</time>
      </trkpt>
      <trkpt lat="47.12054" lon="-1.56908">
        <ele>59</ele>
        <time>2021-02-13T13:01:43.000Z</time>
      </trkpt>
      <trkpt lat="47.12051" lon="-1.56893">
        <ele>60</ele>
        <time>2021-02-13T13:01:45.000Z</time>
      </trkpt>
      <trkpt lat="47.12048" lon="-1.56878">
        <ele>60</ele>
        <time>2021-02-13T13:01:47.000Z</time>
      </trkpt>
      <trkpt lat="47.12046" lon="-1.56862">
        <ele>60</ele>
        <time>2021-02-13T13:01:49.000Z</time>
      </trkpt>
      <trkpt lat="47.12044" lon="-1.56846">
        <ele>60</ele>
        <time>2021-02-13T13:01:51.000Z</time>
      </trkpt>
      <trkpt lat="47.12041" lon="-1.56831">
        <ele>60</ele>
        <time>2021-02-13T13:01:53.000Z</time>
      </trkpt>
      <trkpt lat="47.12038" lon="-1.56816">
        <ele>60</ele>
        <time>2021-02-13T13:01:55.000Z</time>
      </trkpt>
      <trkpt lat="47.12036" lon="-1.56801">
        <ele>60</ele>
        <time>2021-02-13T13:01:57.000Z</time>
      </trkpt>
      <trkpt lat="47.12034" lon="-1.56787">
        <ele>60</ele>
        <time>2021-02-13T13:01:59.000Z</time>
      </trkpt>
      <trkpt lat="47.12031" lon="-1.56773">
        <ele>61</ele>
        <time>2021-02-13T13:02:01.000Z</time>
      </trkpt>
      <trkpt lat="47.12028" lon="-1.56759">
        <ele>62</ele>
        <time>2021-02-13T13:02:03.000Z</time>
      </trkpt>
      <trkpt lat="47.12025" lon="-1.56745">
        <ele>63</ele>
        <time>2021-02-13T13:02:05.000Z</time>
      </trkpt>
      <trkpt lat="47.12023" lon="-1.5673">
        <ele>63</ele>
        <time>2021-02-13T13:02:07.000Z</time>
      </trkpt>
      <trkpt lat="47.1202" lon="-1.56716">
        <ele>64</ele>
        <time>2021-02-13T13:02:09.000Z</time>
      </trkpt>
      <trkpt lat="47.12017" lon="-1.56701">
        <ele>65</ele>
        <time>2021-02-13T13:02:11.000Z</time>
      </trkpt>
      <trkpt lat="47.12015" lon="-1.56687">
        <ele>65</ele>
        <time>2021-02-13T13:02:13.000Z</time>
      </trkpt>
      <trkpt lat="47.12012" lon="-1.56673">
        <ele>65</ele>
        <time>2021-02-13T13:02:15.000Z</time>
      </trkpt>
      <trkpt lat="47.12009" lon="-1.56658">
        <ele>65</ele>
        <time>2021-02-13T13:02:17.000Z</time>
      </trkpt>
      <trkpt lat="47.12007" lon="-1.56644">
        <ele>65</ele>
        <time>2021-02-13T13:02:19.000Z</time>
      </trkpt>
      <trkpt lat="47.12004" lon="-1.5663">
        <ele>66</ele>
        <time>2021-02-13T13:02:21.000Z</time>
      </trkpt>
      <trkpt lat="47.12001" lon="-1.56616">
        <ele>66</ele>
        <time>2021-02-13T13:02:23.000Z</time>
      </trkpt>
      <trkpt lat="47.11998" lon="-1.56601">
        <ele>66</ele>
        <time>2021-02-13T13:02:25.000Z</time>
      </trkpt>
      <trkpt lat="47.11995" lon="-1.56585">
        <ele>66</ele>
        <time>2021-02-13T13:02:27.000Z</time>
      </trkpt>
      <trkpt lat="47.11991" lon="-1.5657">
        <ele>66</ele>
        <time>2021-02-13T13:02:29.000Z</time>
      </trkpt>
      <trkpt lat="47.11989" lon="-1.56555">
        <ele>66</ele>
        <time>2021-02-13T13:02:31.000Z</time>
      </trkpt>
      <trkpt lat="47.11985" lon="-1.56539">
        <ele>66</ele>
        <time>2021-02-13T13:02:33.000Z</time>
      </trkpt>
      <trkpt lat="47.11982" lon="-1.56523">
        <ele>66</ele>
        <time>2021-02-13T13:02:35.000Z</time>
      </trkpt>
      <trkpt lat="47.11978" lon="-1.56507">
        <ele>66</ele>
        <time>2021-02-13T13:02:37.000Z</time>
      </trkpt>
      <trkpt lat="47.11974" lon="-1.56491">
        <ele>66</ele>
        <time>2021-02-13T13:02:39.000Z</time>
      </trkpt>
      <trkpt lat="47.1197" lon="-1.56475">
        <ele>66</ele>
        <time>2021-02-13T13:02:41.000Z</time>
      </trkpt>
      <trkpt lat="47.11966" lon="-1.56459">
        <ele>66</ele>
        <time>2021-02-13T13:02:43.000Z</time>
      </trkpt>
      <trkpt lat="47.11962" lon="-1.56443">
        <ele>65</ele>
        <time>2021-02-13T13:02:45.000Z</time>
      </trkpt>
      <trkpt lat="47.11958" lon="-1.56427">
        <ele>66</ele>
        <time>2021-02-13T13:02:47.000Z</time>
      </trkpt>
      <trkpt lat="47.11954" lon="-1.5641">
        <ele>66</ele>
        <time>2021-02-13T13:02:49.000Z</time>
      </trkpt>
      <trkpt lat="47.11949" lon="-1.56394">
        <ele>65</ele>
        <time>2021-02-13T13:02:51.000Z</time>
      </trkpt>
      <trkpt lat="47.11945" lon="-1.56378">
        <ele>65</ele>
        <time>2021-02-13T13:02:53.000Z</time>
      </trkpt>
      <trkpt lat="47.11941" lon="-1.56362">
        <ele>66</ele>
        <time>2021-02-13T13:02:55.000Z</time>
      </trkpt>
      <trkpt lat="47.11937" lon="-1.56347">
        <ele>65</ele>
        <time>2021-02-13T13:02:57.000Z</time>
      </trkpt>
      <trkpt lat="47.11933" lon="-1.5633">
        <ele>66</ele>
        <time>2021-02-13T13:02:59.000Z</time>
      </trkpt>
      <trkpt lat="47.11929" lon="-1.56314">
        <ele>66</ele>
        <time>2021-02-13T13:03:01.000Z</time>
      </trkpt>
      <trkpt lat="47.11925" lon="-1.56298">
        <ele>66</ele>
        <time>2021-02-13T13:03:03.000Z</time>
      </trkpt>
      <trkpt lat="47.1192" lon="-1.56282">
        <ele>66</ele>
        <time>2021-02-13T13:03:05.000Z</time>
      </trkpt>
      <trkpt lat="47.11916" lon="-1.56266">
        <ele>66</ele>
        <time>2021-02-13T13:03:07.000Z</time>
      </trkpt>
      <trkpt lat="47.11912" lon="-1.56249">
        <ele>65</ele>
        <time>2021-02-13T13:03:09.000Z</time>
      </trkpt>
      <trkpt lat="47.11908" lon="-1.56233">
        <ele>65</ele>
        <time>2021-02-13T13:03:11.000Z</time>
      </trkpt>
      <trkpt lat="47.11904" lon="-1.56217">
        <ele>65</ele>
        <time>2021-02-13T13:03:13.000Z</time>
      </trkpt>
      <trkpt lat="47.119" lon="-1.56201">
        <ele>64</ele>
        <time>2021-02-13T13:03:15.000Z</time>
      </trkpt>
      <trkpt lat="47.11896" lon="-1.56185">
        <ele>65</ele>
        <time>2021-02-13T13:03:17.000Z</time>
      </trkpt>
      <trkpt lat="47.11892" lon="-1.56169">
        <ele>65</ele>
        <time>2021-02-13T13:03:19.000Z</time>
      </trkpt>
      <trkpt lat="47.11888" lon="-1.56152">
        <ele>64</ele>
        <time>2021-02-13T13:03:21.000Z</time>
      </trkpt>
      <trkpt lat="47.11883" lon="-1.56136">
        <ele>64</ele>
        <time>2021-02-13T13:03:23.000Z</time>
      </trkpt>
      <trkpt lat="47.11879" lon="-1.56121">
        <ele>64</ele>
        <time>2021-02-13T13:03:25.000Z</time>
      </trkpt>
      <trkpt lat="47.11876" lon="-1.56106">
        <ele>64</ele>
        <time>2021-02-13T13:03:27.000Z</time>
      </trkpt>
      <trkpt lat="47.11873" lon="-1.56091">
        <ele>65</ele>
        <time>2021-02-13T13:03:29.000Z</time>
      </trkpt>
      <trkpt lat="47.1187" lon="-1.56076">
        <ele>65</ele>
        <time>2021-02-13T13:03:31.000Z</time>
      </trkpt>
      <trkpt lat="47.11867" lon="-1.5606">
        <ele>65</ele>
        <time>2021-02-13T13:03:33.000Z</time>
      </trkpt>
      <trkpt lat="47.11864" lon="-1.56044">
        <ele>64</ele>
        <time>2021-02-13T13:03:35.000Z</time>
      </trkpt>
      <trkpt lat="47.11862" lon="-1.56027">
        <ele>65</ele>
        <time>2021-02-13T13:03:37.000Z</time>
      </trkpt>
      <trkpt lat="47.1186" lon="-1.56012">
        <ele>65</ele>
        <time>2021-02-13T13:03:39.000Z</time>
      </trkpt>
      <trkpt lat="47.11859" lon="-1.55995">
        <ele>65</ele>
        <time>2021-02-13T13:03:41.000Z</time>
      </trkpt>
      <trkpt lat="47.11857" lon="-1.55979">
        <ele>65</ele>
        <time>2021-02-13T13:03:43.000Z</time>
      </trkpt>
      <trkpt lat="47.11856" lon="-1.55963">
        <ele>65</ele>
        <time>2021-02-13T13:03:45.000Z</time>
      </trkpt>
      <trkpt lat="47.11855" lon="-1.55947">
        <ele>65</ele>
        <time>2021-02-13T13:03:47.000Z</time>
      </trkpt>
      <trkpt lat="47.11853" lon="-1.55931">
        <ele>66</ele>
        <time>2021-02-13T13:03:49.000Z</time>
      </trkpt>
      <trkpt lat="47.11852" lon="-1.55915">
        <ele>65</ele>
        <time>2021-02-13T13:03:51.000Z</time>
      </trkpt>
      <trkpt lat="47.11851" lon="-1.55899">
        <ele>65</ele>
        <time>2021-02-13T13:03:53.000Z</time>
      </trkpt>
      <trkpt lat="47.1185" lon="-1.55883">
        <ele>65</ele>
        <time>2021-02-13T13:03:55.000Z</time>
      </trkpt>
      <trkpt lat="47.11849" lon="-1.55867">
        <ele>65</ele>
        <time>2021-02-13T13:03:57.000Z</time>
      </trkpt>
      <trkpt lat="47.11847" lon="-1.55852">
        <ele>65</ele>
        <time>2021-02-13T13:03:59.000Z</time>
      </trkpt>
      <trkpt lat="47.11846" lon="-1.55836">
        <ele>65</ele>
        <time>2021-02-13T13:04:01.000Z</time>
      </trkpt>
      <trkpt lat="47.11845" lon="-1.55821">
        <ele>65</ele>
        <time>2021-02-13T13:04:03.000Z</time>
      </trkpt>
      <trkpt lat="47.11844" lon="-1.55805">
        <ele>65</ele>
        <time>2021-02-13T13:04:05.000Z</time>
      </trkpt>
      <trkpt lat="47.11843" lon="-1.55789">
        <ele>65</ele>
        <time>2021-02-13T13:04:07.000Z</time>
      </trkpt>
      <trkpt lat="47.11841" lon="-1.55773">
        <ele>65</ele>
        <time>2021-02-13T13:04:09.000Z</time>
      </trkpt>
      <trkpt lat="47.1184" lon="-1.55758">
        <ele>66</ele>
        <time>2021-02-13T13:04:11.000Z</time>
      </trkpt>
      <trkpt lat="47.11839" lon="-1.55742">
        <ele>65</ele>
        <time>2021-02-13T13:04:13.000Z</time>
      </trkpt>
      <trkpt lat="47.11838" lon="-1.55727">
        <ele>65</ele>
        <time>2021-02-13T13:04:15.000Z</time>
      </trkpt>
      <trkpt lat="47.11837" lon="-1.55712">
        <ele>65</ele>
        <time>2021-02-13T13:04:17.000Z</time>
      </trkpt>
      <trkpt lat="47.11836" lon="-1.55697">
        <ele>66</ele>
        <time>2021-02-13T13:04:19.000Z</time>
      </trkpt>
      <trkpt lat="47.11835" lon="-1.55681">
        <ele>66</ele>
        <time>2021-02-13T13:04:21.000Z</time>
      </trkpt>
      <trkpt lat="47.11834" lon="-1.55665">
        <ele>66</ele>
        <time>2021-02-13T13:04:23.000Z</time>
      </trkpt>
      <trkpt lat="47.11832" lon="-1.5565">
        <ele>66</ele>
        <time>2021-02-13T13:04:25.000Z</time>
      </trkpt>
      <trkpt lat="47.11831" lon="-1.55633">
        <ele>66</ele>
        <time>2021-02-13T13:04:27.000Z</time>
      </trkpt>
      <trkpt lat="47.1183" lon="-1.55618">
        <ele>65</ele>
        <time>2021-02-13T13:04:29.000Z</time>
      </trkpt>
      <trkpt lat="47.11829" lon="-1.55602">
        <ele>66</ele>
        <time>2021-02-13T13:04:31.000Z</time>
      </trkpt>
      <trkpt lat="47.11828" lon="-1.55586">
        <ele>66</ele>
        <time>2021-02-13T13:04:33.000Z</time>
      </trkpt>
      <trkpt lat="47.11827" lon="-1.5557">
        <ele>66</ele>
        <time>2021-02-13T13:04:35.000Z</time>
      </trkpt>
      <trkpt lat="47.11825" lon="-1.55554">
        <ele>67</ele>
        <time>2021-02-13T13:04:37.000Z</time>
      </trkpt>
      <trkpt lat="47.11824" lon="-1.55539">
        <ele>67</ele>
        <time>2021-02-13T13:04:39.000Z</time>
      </trkpt>
      <trkpt lat="47.11823" lon="-1.55523">
        <ele>66</ele>
        <time>2021-02-13T13:04:41.000Z</time>
      </trkpt>
      <trkpt lat="47.11822" lon="-1.55506">
        <ele>66</ele>
        <time>2021-02-13T13:04:43.000Z</time>
      </trkpt>
      <trkpt lat="47.11821" lon="-1.5549">
        <ele>66</ele>
        <time>2021-02-13T13:04:45.000Z</time>
      </trkpt>
      <trkpt lat="47.11819" lon="-1.55474">
        <ele>66</ele>
        <time>2021-02-13T13:04:47.000Z</time>
      </trkpt>
      <trkpt lat="47.11818" lon="-1.55458">
        <ele>66</ele>
        <time>2021-02-13T13:04:49.000Z</time>
      </trkpt>
      <trkpt lat="47.11817" lon="-1.55444">
        <ele>66</ele>
        <time>2021-02-13T13:04:51.000Z</time>
      </trkpt>
      <trkpt lat="47.11817" lon="-1.55428">
        <ele>67</ele>
        <time>2021-02-13T13:04:53.000Z</time>
      </trkpt>
      <trkpt lat="47.11816" lon="-1.55413">
        <ele>67</ele>
        <time>2021-02-13T13:04:55.000Z</time>
      </trkpt>
      <trkpt lat="47.11816" lon="-1.55397">
        <ele>67</ele>
        <time>2021-02-13T13:04:57.000Z</time>
      </trkpt>
      <trkpt lat="47.11816" lon="-1.55383">
        <ele>67</ele>
        <time>2021-02-13T13:04:59.000Z</time>
      </trkpt>
      <trkpt lat="47.11816" lon="-1.55367">
        <ele>67</ele>
        <time>2021-02-13T13:05:01.000Z</time>
      </trkpt>
      <trkpt lat="47.11815" lon="-1.55352">
        <ele>67</ele>
        <time>2021-02-13T13:05:03.000Z</time>
      </trkpt>
      <trkpt lat="47.11815" lon="-1.55337">
        <ele>66</ele>
        <time>2021-02-13T13:05:05.000Z</time>
      </trkpt>
      <trkpt lat="47.11815" lon="-1.55322">
        <ele>66</ele>
        <time>2021-02-13T13:05:07.000Z</time>
      </trkpt>
      <trkpt lat="47.11815" lon="-1.55306">
        <ele>66</ele>
        <time>2021-02-13T13:05:09.000Z</time>
      </trkpt>
      <trkpt lat="47.11814" lon="-1.55291">
        <ele>66</ele>
        <time>2021-02-13T13:05:11.000Z</time>
      </trkpt>
      <trkpt lat="47.11814" lon="-1.55276">
        <ele>67</ele>
        <time>2021-02-13T13:05:13.000Z</time>
      </trkpt>
      <trkpt lat="47.11814" lon="-1.5526">
        <ele>66</ele>
        <time>2021-02-13T13:05:15.000Z</time>
      </trkpt>
      <trkpt lat="47.11814" lon="-1.55244">
        <ele>67</ele>
        <time>2021-02-13T13:05:17.000Z</time>
      </trkpt>
      <trkpt lat="47.11813" lon="-1.55229">
        <ele>67</ele>
        <time>2021-02-13T13:05:19.000Z</time>
      </trkpt>
      <trkpt lat="47.11812" lon="-1.55213">
        <ele>67</ele>
        <time>2021-02-13T13:05:21.000Z</time>
      </trkpt>
      <trkpt lat="47.11812" lon="-1.55197">
        <ele>67</ele>
        <time>2021-02-13T13:05:23.000Z</time>
      </trkpt>
      <trkpt lat="47.11811" lon="-1.55181">
        <ele>67</ele>
        <time>2021-02-13T13:05:25.000Z</time>
      </trkpt>
      <trkpt lat="47.11811" lon="-1.55166">
        <ele>67</ele>
        <time>2021-02-13T13:05:27.000Z</time>
      </trkpt>
      <trkpt lat="47.1181" lon="-1.5515">
        <ele>67</ele>
        <time>2021-02-13T13:05:29.000Z</time>
      </trkpt>
      <trkpt lat="47.11809" lon="-1.55135">
        <ele>67</ele>
        <time>2021-02-13T13:05:31.000Z</time>
      </trkpt>
      <trkpt lat="47.11807" lon="-1.55119">
        <ele>67</ele>
        <time>2021-02-13T13:05:33.000Z</time>
      </trkpt>
      <trkpt lat="47.11806" lon="-1.55104">
        <ele>67</ele>
        <time>2021-02-13T13:05:35.000Z</time>
      </trkpt>
      <trkpt lat="47.11804" lon="-1.55088">
        <ele>68</ele>
        <time>2021-02-13T13:05:37.000Z</time>
      </trkpt>
      <trkpt lat="47.11802" lon="-1.55073">
        <ele>68</ele>
        <time>2021-02-13T13:05:39.000Z</time>
      </trkpt>
      <trkpt lat="47.118" lon="-1.55058">
        <ele>68</ele>
        <time>2021-02-13T13:05:41.000Z</time>
      </trkpt>
      <trkpt lat="47.11797" lon="-1.55042">
        <ele>68</ele>
        <time>2021-02-13T13:05:43.000Z</time>
      </trkpt>
      <trkpt lat="47.11794" lon="-1.55026">
        <ele>68</ele>
        <time>2021-02-13T13:05:45.000Z</time>
      </trkpt>
      <trkpt lat="47.11791" lon="-1.55011">
        <ele>68</ele>
        <time>2021-02-13T13:05:47.000Z</time>
      </trkpt>
      <trkpt lat="47.11788" lon="-1.54995">
        <ele>68</ele>
        <time>2021-02-13T13:05:49.000Z</time>
      </trkpt>
      <trkpt lat="47.11784" lon="-1.5498">
        <ele>69</ele>
        <time>2021-02-13T13:05:51.000Z</time>
      </trkpt>
      <trkpt lat="47.11781" lon="-1.54963">
        <ele>69</ele>
        <time>2021-02-13T13:05:53.000Z</time>
      </trkpt>
      <trkpt lat="47.11777" lon="-1.54948">
        <ele>69</ele>
        <time>2021-02-13T13:05:55.000Z</time>
      </trkpt>
      <trkpt lat="47.11773" lon="-1.54932">
        <ele>69</ele>
        <time>2021-02-13T13:05:57.000Z</time>
      </trkpt>
      <trkpt lat="47.11769" lon="-1.54917">
        <ele>69</ele>
        <time>2021-02-13T13:05:59.000Z</time>
      </trkpt>
      <trkpt lat="47.11765" lon="-1.54901">
        <ele>68</ele>
        <time>2021-02-13T13:06:01.000Z</time>
      </trkpt>
      <trkpt lat="47.11761" lon="-1.54886">
        <ele>69</ele>
        <time>2021-02-13T13:06:03.000Z</time>
      </trkpt>
      <trkpt lat="47.11756" lon="-1.54871">
        <ele>69</ele>
        <time>2021-02-13T13:06:05.000Z</time>
      </trkpt>
      <trkpt lat="47.11751" lon="-1.54857">
        <ele>69</ele>
        <time>2021-02-13T13:06:07.000Z</time>
      </trkpt>
      <trkpt lat="47.11747" lon="-1.54842">
        <ele>68</ele>
        <time>2021-02-13T13:06:09.000Z</time>
      </trkpt>
      <trkpt lat="47.11742" lon="-1.54827">
        <ele>69</ele>
        <time>2021-02-13T13:06:11.000Z</time>
      </trkpt>
      <trkpt lat="47.11738" lon="-1.54812">
        <ele>68</ele>
        <time>2021-02-13T13:06:13.000Z</time>
      </trkpt>
      <trkpt lat="47.11734" lon="-1.54798">
        <ele>69</ele>
        <time>2021-02-13T13:06:15.000Z</time>
      </trkpt>
      <trkpt lat="47.11729" lon="-1.54784">
        <ele>69</ele>
        <time>2021-02-13T13:06:17.000Z</time>
      </trkpt>
      <trkpt lat="47.11725" lon="-1.54769">
        <ele>69</ele>
        <time>2021-02-13T13:06:19.000Z</time>
      </trkpt>
      <trkpt lat="47.1172" lon="-1.54754">
        <ele>69</ele>
        <time>2021-02-13T13:06:21.000Z</time>
      </trkpt>
      <trkpt lat="47.11716" lon="-1.5474">
        <ele>69</ele>
        <time>2021-02-13T13:06:23.000Z</time>
      </trkpt>
      <trkpt lat="47.11712" lon="-1.54725">
        <ele>69</ele>
        <time>2021-02-13T13:06:25.000Z</time>
      </trkpt>
      <trkpt lat="47.11707" lon="-1.54711">
        <ele>69</ele>
        <time>2021-02-13T13:06:27.000Z</time>
      </trkpt>
      <trkpt lat="47.11703" lon="-1.54696">
        <ele>69</ele>
        <time>2021-02-13T13:06:29.000Z</time>
      </trkpt>
      <trkpt lat="47.11698" lon="-1.54681">
        <ele>69</ele>
        <time>2021-02-13T13:06:31.000Z</time>
      </trkpt>
      <trkpt lat="47.11694" lon="-1.54667">
        <ele>70</ele>
        <time>2021-02-13T13:06:33.000Z</time>
      </trkpt>
      <trkpt lat="47.11687" lon="-1.54644">
        <ele>70</ele>
        <time>2021-02-13T13:06:36.000Z</time>
      </trkpt>
      <trkpt lat="47.11683" lon="-1.54629">
        <ele>70</ele>
        <time>2021-02-13T13:06:38.000Z</time>
      </trkpt>
      <trkpt lat="47.11678" lon="-1.54614">
        <ele>70</ele>
        <time>2021-02-13T13:06:40.000Z</time>
      </trkpt>
      <trkpt lat="47.11673" lon="-1.54599">
        <ele>70</ele>
        <time>2021-02-13T13:06:42.000Z</time>
      </trkpt>
      <trkpt lat="47.11668" lon="-1.54584">
        <ele>70</ele>
        <time>2021-02-13T13:06:44.000Z</time>
      </trkpt>
      <trkpt lat="47.11663" lon="-1.54569">
        <ele>70</ele>
        <time>2021-02-13T13:06:46.000Z</time>
      </trkpt>
      <trkpt lat="47.11659" lon="-1.54553">
        <ele>70</ele>
        <time>2021-02-13T13:06:48.000Z</time>
      </trkpt>
      <trkpt lat="47.11653" lon="-1.54538">
        <ele>71</ele>
        <time>2021-02-13T13:06:50.000Z</time>
      </trkpt>
      <trkpt lat="47.11648" lon="-1.54523">
        <ele>71</ele>
        <time>2021-02-13T13:06:52.000Z</time>
      </trkpt>
      <trkpt lat="47.11643" lon="-1.54507">
        <ele>71</ele>
        <time>2021-02-13T13:06:54.000Z</time>
      </trkpt>
      <trkpt lat="47.11638" lon="-1.54492">
        <ele>72</ele>
        <time>2021-02-13T13:06:56.000Z</time>
      </trkpt>
      <trkpt lat="47.11633" lon="-1.54476">
        <ele>72</ele>
        <time>2021-02-13T13:06:58.000Z</time>
      </trkpt>
      <trkpt lat="47.11628" lon="-1.54461">
        <ele>71</ele>
        <time>2021-02-13T13:07:00.000Z</time>
      </trkpt>
      <trkpt lat="47.11623" lon="-1.54445">
        <ele>72</ele>
        <time>2021-02-13T13:07:02.000Z</time>
      </trkpt>
      <trkpt lat="47.11618" lon="-1.5443">
        <ele>72</ele>
        <time>2021-02-13T13:07:04.000Z</time>
      </trkpt>
      <trkpt lat="47.11612" lon="-1.54414">
        <ele>72</ele>
        <time>2021-02-13T13:07:06.000Z</time>
      </trkpt>
      <trkpt lat="47.11607" lon="-1.54399">
        <ele>72</ele>
        <time>2021-02-13T13:07:08.000Z</time>
      </trkpt>
      <trkpt lat="47.11602" lon="-1.54384">
        <ele>72</ele>
        <time>2021-02-13T13:07:10.000Z</time>
      </trkpt>
      <trkpt lat="47.11596" lon="-1.54368">
        <ele>71</ele>
        <time>2021-02-13T13:07:12.000Z</time>
      </trkpt>
      <trkpt lat="47.11591" lon="-1.54352">
        <ele>71</ele>
        <time>2021-02-13T13:07:14.000Z</time>
      </trkpt>
      <trkpt lat="47.11586" lon="-1.54336">
        <ele>72</ele>
        <time>2021-02-13T13:07:16.000Z</time>
      </trkpt>
      <trkpt lat="47.1158" lon="-1.54321">
        <ele>72</ele>
        <time>2021-02-13T13:07:18.000Z</time>
      </trkpt>
      <trkpt lat="47.11575" lon="-1.54306">
        <ele>72</ele>
        <time>2021-02-13T13:07:20.000Z</time>
      </trkpt>
      <trkpt lat="47.11569" lon="-1.54291">
        <ele>72</ele>
        <time>2021-02-13T13:07:22.000Z</time>
      </trkpt>
      <trkpt lat="47.11564" lon="-1.54279">
        <ele>72</ele>
        <time>2021-02-13T13:07:24.000Z</time>
      </trkpt>
      <trkpt lat="47.1156" lon="-1.54261">
        <ele>72</ele>
        <time>2021-02-13T13:07:27.000Z</time>
      </trkpt>
      <trkpt lat="47.11568" lon="-1.54251">
        <ele>72</ele>
        <time>2021-02-13T13:07:29.000Z</time>
      </trkpt>
      <trkpt lat="47.11578" lon="-1.54243">
        <ele>72</ele>
        <time>2021-02-13T13:07:31.000Z</time>
      </trkpt>
      <trkpt lat="47.11589" lon="-1.54235">
        <ele>71</ele>
        <time>2021-02-13T13:07:33.000Z</time>
      </trkpt>
      <trkpt lat="47.11599" lon="-1.54227">
        <ele>72</ele>
        <time>2021-02-13T13:07:35.000Z</time>
      </trkpt>
      <trkpt lat="47.1161" lon="-1.5422">
        <ele>72</ele>
        <time>2021-02-13T13:07:37.000Z</time>
      </trkpt>
      <trkpt lat="47.1162" lon="-1.54212">
        <ele>73</ele>
        <time>2021-02-13T13:07:39.000Z</time>
      </trkpt>
      <trkpt lat="47.1163" lon="-1.54204">
        <ele>73</ele>
        <time>2021-02-13T13:07:41.000Z</time>
      </trkpt>
      <trkpt lat="47.11637" lon="-1.54192">
        <ele>73</ele>
        <time>2021-02-13T13:07:43.000Z</time>
      </trkpt>
      <trkpt lat="47.11641" lon="-1.54178">
        <ele>72</ele>
        <time>2021-02-13T13:07:45.000Z</time>
      </trkpt>
      <trkpt lat="47.11645" lon="-1.54163">
        <ele>73</ele>
        <time>2021-02-13T13:07:47.000Z</time>
      </trkpt>
      <trkpt lat="47.11651" lon="-1.54149">
        <ele>72</ele>
        <time>2021-02-13T13:07:49.000Z</time>
      </trkpt>
      <trkpt lat="47.11663" lon="-1.54144">
        <ele>72</ele>
        <time>2021-02-13T13:07:51.000Z</time>
      </trkpt>
      <trkpt lat="47.11674" lon="-1.54137">
        <ele>72</ele>
        <time>2021-02-13T13:07:53.000Z</time>
      </trkpt>
      <trkpt lat="47.11683" lon="-1.54129">
        <ele>72</ele>
        <time>2021-02-13T13:07:55.000Z</time>
      </trkpt>
      <trkpt lat="47.11692" lon="-1.54119">
        <ele>73</ele>
        <time>2021-02-13T13:07:57.000Z</time>
      </trkpt>
      <trkpt lat="47.11699" lon="-1.54105">
        <ele>73</ele>
        <time>2021-02-13T13:07:59.000Z</time>
      </trkpt>
      <trkpt lat="47.11705" lon="-1.54091">
        <ele>73</ele>
        <time>2021-02-13T13:08:01.000Z</time>
      </trkpt>
      <trkpt lat="47.11711" lon="-1.54076">
        <ele>73</ele>
        <time>2021-02-13T13:08:03.000Z</time>
      </trkpt>
      <trkpt lat="47.11717" lon="-1.54062">
        <ele>73</ele>
        <time>2021-02-13T13:08:05.000Z</time>
      </trkpt>
      <trkpt lat="47.11723" lon="-1.54048">
        <ele>74</ele>
        <time>2021-02-13T13:08:07.000Z</time>
      </trkpt>
      <trkpt lat="47.11729" lon="-1.54034">
        <ele>74</ele>
        <time>2021-02-13T13:08:09.000Z</time>
      </trkpt>
      <trkpt lat="47.11734" lon="-1.5402">
        <ele>74</ele>
        <time>2021-02-13T13:08:11.000Z</time>
      </trkpt>
      <trkpt lat="47.1174" lon="-1.54006">
        <ele>75</ele>
        <time>2021-02-13T13:08:13.000Z</time>
      </trkpt>
      <trkpt lat="47.11746" lon="-1.53992">
        <ele>74</ele>
        <time>2021-02-13T13:08:15.000Z</time>
      </trkpt>
      <trkpt lat="47.11752" lon="-1.53977">
        <ele>74</ele>
        <time>2021-02-13T13:08:17.000Z</time>
      </trkpt>
      <trkpt lat="47.11757" lon="-1.53961">
        <ele>73</ele>
        <time>2021-02-13T13:08:19.000Z</time>
      </trkpt>
      <trkpt lat="47.11764" lon="-1.53944">
        <ele>73</ele>
        <time>2021-02-13T13:08:21.000Z</time>
      </trkpt>
      <trkpt lat="47.11771" lon="-1.53928">
        <ele>72</ele>
        <time>2021-02-13T13:08:23.000Z</time>
      </trkpt>
      <trkpt lat="47.11778" lon="-1.53911">
        <ele>73</ele>
        <time>2021-02-13T13:08:25.000Z</time>
      </trkpt>
      <trkpt lat="47.11785" lon="-1.53896">
        <ele>73</ele>
        <time>2021-02-13T13:08:27.000Z</time>
      </trkpt>
      <trkpt lat="47.11794" lon="-1.5388">
        <ele>72</ele>
        <time>2021-02-13T13:08:29.000Z</time>
      </trkpt>
      <trkpt lat="47.11803" lon="-1.53865">
        <ele>72</ele>
        <time>2021-02-13T13:08:31.000Z</time>
      </trkpt>
      <trkpt lat="47.11812" lon="-1.5385">
        <ele>71</ele>
        <time>2021-02-13T13:08:33.000Z</time>
      </trkpt>
      <trkpt lat="47.11821" lon="-1.53835">
        <ele>71</ele>
        <time>2021-02-13T13:08:35.000Z</time>
      </trkpt>
      <trkpt lat="47.1183" lon="-1.53818">
        <ele>71</ele>
        <time>2021-02-13T13:08:37.000Z</time>
      </trkpt>
      <trkpt lat="47.11838" lon="-1.53801">
        <ele>70</ele>
        <time>2021-02-13T13:08:39.000Z</time>
      </trkpt>
      <trkpt lat="47.11846" lon="-1.53784">
        <ele>70</ele>
        <time>2021-02-13T13:08:41.000Z</time>
      </trkpt>
      <trkpt lat="47.11852" lon="-1.53765">
        <ele>69</ele>
        <time>2021-02-13T13:08:43.000Z</time>
      </trkpt>
      <trkpt lat="47.1186" lon="-1.53748">
        <ele>68</ele>
        <time>2021-02-13T13:08:45.000Z</time>
      </trkpt>
      <trkpt lat="47.11866" lon="-1.5373">
        <ele>68</ele>
        <time>2021-02-13T13:08:47.000Z</time>
      </trkpt>
      <trkpt lat="47.11873" lon="-1.53711">
        <ele>68</ele>
        <time>2021-02-13T13:08:49.000Z</time>
      </trkpt>
      <trkpt lat="47.1188" lon="-1.53694">
        <ele>68</ele>
        <time>2021-02-13T13:08:51.000Z</time>
      </trkpt>
      <trkpt lat="47.11889" lon="-1.53677">
        <ele>68</ele>
        <time>2021-02-13T13:08:53.000Z</time>
      </trkpt>
      <trkpt lat="47.11898" lon="-1.53661">
        <ele>68</ele>
        <time>2021-02-13T13:08:55.000Z</time>
      </trkpt>
      <trkpt lat="47.11906" lon="-1.53645">
        <ele>67</ele>
        <time>2021-02-13T13:08:57.000Z</time>
      </trkpt>
      <trkpt lat="47.11914" lon="-1.5363">
        <ele>66</ele>
        <time>2021-02-13T13:08:59.000Z</time>
      </trkpt>
      <trkpt lat="47.11923" lon="-1.53615">
        <ele>66</ele>
        <time>2021-02-13T13:09:01.000Z</time>
      </trkpt>
      <trkpt lat="47.11931" lon="-1.53599">
        <ele>65</ele>
        <time>2021-02-13T13:09:03.000Z</time>
      </trkpt>
      <trkpt lat="47.1194" lon="-1.53583">
        <ele>65</ele>
        <time>2021-02-13T13:09:05.000Z</time>
      </trkpt>
      <trkpt lat="47.11949" lon="-1.53567">
        <ele>65</ele>
        <time>2021-02-13T13:09:07.000Z</time>
      </trkpt>
      <trkpt lat="47.11957" lon="-1.53551">
        <ele>64</ele>
        <time>2021-02-13T13:09:09.000Z</time>
      </trkpt>
      <trkpt lat="47.11965" lon="-1.53535">
        <ele>64</ele>
        <time>2021-02-13T13:09:11.000Z</time>
      </trkpt>
      <trkpt lat="47.11973" lon="-1.5352">
        <ele>62</ele>
        <time>2021-02-13T13:09:13.000Z</time>
      </trkpt>
      <trkpt lat="47.11981" lon="-1.53505">
        <ele>62</ele>
        <time>2021-02-13T13:09:15.000Z</time>
      </trkpt>
      <trkpt lat="47.11989" lon="-1.53489">
        <ele>62</ele>
        <time>2021-02-13T13:09:17.000Z</time>
      </trkpt>
      <trkpt lat="47.11998" lon="-1.53474">
        <ele>62</ele>
        <time>2021-02-13T13:09:19.000Z</time>
      </trkpt>
      <trkpt lat="47.12006" lon="-1.53458">
        <ele>61</ele>
        <time>2021-02-13T13:09:21.000Z</time>
      </trkpt>
      <trkpt lat="47.12015" lon="-1.53443">
        <ele>61</ele>
        <time>2021-02-13T13:09:23.000Z</time>
      </trkpt>
      <trkpt lat="47.12023" lon="-1.53427">
        <ele>61</ele>
        <time>2021-02-13T13:09:25.000Z</time>
      </trkpt>
      <trkpt lat="47.12032" lon="-1.53411">
        <ele>62</ele>
        <time>2021-02-13T13:09:27.000Z</time>
      </trkpt>
      <trkpt lat="47.1204" lon="-1.53395">
        <ele>62</ele>
        <time>2021-02-13T13:09:29.000Z</time>
      </trkpt>
      <trkpt lat="47.12048" lon="-1.53379">
        <ele>62</ele>
        <time>2021-02-13T13:09:31.000Z</time>
      </trkpt>
      <trkpt lat="47.12057" lon="-1.53363">
        <ele>62</ele>
        <time>2021-02-13T13:09:33.000Z</time>
      </trkpt>
      <trkpt lat="47.12066" lon="-1.53347">
        <ele>62</ele>
        <time>2021-02-13T13:09:35.000Z</time>
      </trkpt>
      <trkpt lat="47.12074" lon="-1.53331">
        <ele>62</ele>
        <time>2021-02-13T13:09:37.000Z</time>
      </trkpt>
      <trkpt lat="47.12083" lon="-1.53315">
        <ele>61</ele>
        <time>2021-02-13T13:09:39.000Z</time>
      </trkpt>
      <trkpt lat="47.12091" lon="-1.53298">
        <ele>60</ele>
        <time>2021-02-13T13:09:41.000Z</time>
      </trkpt>
      <trkpt lat="47.121" lon="-1.53283">
        <ele>59</ele>
        <time>2021-02-13T13:09:43.000Z</time>
      </trkpt>
      <trkpt lat="47.12108" lon="-1.53266">
        <ele>59</ele>
        <time>2021-02-13T13:09:45.000Z</time>
      </trkpt>
      <trkpt lat="47.12116" lon="-1.5325">
        <ele>58</ele>
        <time>2021-02-13T13:09:47.000Z</time>
      </trkpt>
      <trkpt lat="47.12125" lon="-1.53234">
        <ele>58</ele>
        <time>2021-02-13T13:09:49.000Z</time>
      </trkpt>
      <trkpt lat="47.12133" lon="-1.53217">
        <ele>58</ele>
        <time>2021-02-13T13:09:51.000Z</time>
      </trkpt>
      <trkpt lat="47.12142" lon="-1.53201">
        <ele>58</ele>
        <time>2021-02-13T13:09:53.000Z</time>
      </trkpt>
      <trkpt lat="47.1215" lon="-1.53185">
        <ele>58</ele>
        <time>2021-02-13T13:09:55.000Z</time>
      </trkpt>
      <trkpt lat="47.12158" lon="-1.5317">
        <ele>59</ele>
        <time>2021-02-13T13:09:57.000Z</time>
      </trkpt>
      <trkpt lat="47.12167" lon="-1.53154">
        <ele>59</ele>
        <time>2021-02-13T13:09:59.000Z</time>
      </trkpt>
      <trkpt lat="47.12175" lon="-1.53139">
        <ele>59</ele>
        <time>2021-02-13T13:10:01.000Z</time>
      </trkpt>
      <trkpt lat="47.12184" lon="-1.53123">
        <ele>59</ele>
        <time>2021-02-13T13:10:03.000Z</time>
      </trkpt>
      <trkpt lat="47.12191" lon="-1.53109">
        <ele>59</ele>
        <time>2021-02-13T13:10:05.000Z</time>
      </trkpt>
      <trkpt lat="47.12199" lon="-1.53094">
        <ele>59</ele>
        <time>2021-02-13T13:10:07.000Z</time>
      </trkpt>
      <trkpt lat="47.12206" lon="-1.5308">
        <ele>58</ele>
        <time>2021-02-13T13:10:09.000Z</time>
      </trkpt>
      <trkpt lat="47.12213" lon="-1.53066">
        <ele>59</ele>
        <time>2021-02-13T13:10:11.000Z</time>
      </trkpt>
      <trkpt lat="47.1222" lon="-1.53053">
        <ele>59</ele>
        <time>2021-02-13T13:10:13.000Z</time>
      </trkpt>
      <trkpt lat="47.12228" lon="-1.53039">
        <ele>59</ele>
        <time>2021-02-13T13:10:15.000Z</time>
      </trkpt>
      <trkpt lat="47.12235" lon="-1.53025">
        <ele>59</ele>
        <time>2021-02-13T13:10:17.000Z</time>
      </trkpt>
      <trkpt lat="47.12243" lon="-1.53011">
        <ele>59</ele>
        <time>2021-02-13T13:10:19.000Z</time>
      </trkpt>
      <trkpt lat="47.1225" lon="-1.52999">
        <ele>59</ele>
        <time>2021-02-13T13:10:21.000Z</time>
      </trkpt>
      <trkpt lat="47.12257" lon="-1.52986">
        <ele>60</ele>
        <time>2021-02-13T13:10:23.000Z</time>
      </trkpt>
      <trkpt lat="47.12264" lon="-1.52973">
        <ele>61</ele>
        <time>2021-02-13T13:10:25.000Z</time>
      </trkpt>
      <trkpt lat="47.12271" lon="-1.52961">
        <ele>61</ele>
        <time>2021-02-13T13:10:27.000Z</time>
      </trkpt>
      <trkpt lat="47.12278" lon="-1.52948">
        <ele>61</ele>
        <time>2021-02-13T13:10:29.000Z</time>
      </trkpt>
      <trkpt lat="47.12285" lon="-1.52936">
        <ele>61</ele>
        <time>2021-02-13T13:10:31.000Z</time>
      </trkpt>
      <trkpt lat="47.12291" lon="-1.52923">
        <ele>62</ele>
        <time>2021-02-13T13:10:33.000Z</time>
      </trkpt>
      <trkpt lat="47.12297" lon="-1.52912">
        <ele>62</ele>
        <time>2021-02-13T13:10:35.000Z</time>
      </trkpt>
      <trkpt lat="47.12303" lon="-1.529">
        <ele>62</ele>
        <time>2021-02-13T13:10:37.000Z</time>
      </trkpt>
      <trkpt lat="47.12309" lon="-1.52889">
        <ele>63</ele>
        <time>2021-02-13T13:10:39.000Z</time>
      </trkpt>
      <trkpt lat="47.12317" lon="-1.52878">
        <ele>63</ele>
        <time>2021-02-13T13:10:41.000Z</time>
      </trkpt>
      <trkpt lat="47.12324" lon="-1.52867">
        <ele>63</ele>
        <time>2021-02-13T13:10:43.000Z</time>
      </trkpt>
      <trkpt lat="47.12331" lon="-1.52856">
        <ele>64</ele>
        <time>2021-02-13T13:10:45.000Z</time>
      </trkpt>
      <trkpt lat="47.12339" lon="-1.52846">
        <ele>64</ele>
        <time>2021-02-13T13:10:47.000Z</time>
      </trkpt>
      <trkpt lat="47.12347" lon="-1.52837">
        <ele>64</ele>
        <time>2021-02-13T13:10:49.000Z</time>
      </trkpt>
      <trkpt lat="47.12355" lon="-1.52828">
        <ele>64</ele>
        <time>2021-02-13T13:10:51.000Z</time>
      </trkpt>
      <trkpt lat="47.12364" lon="-1.5282">
        <ele>64</ele>
        <time>2021-02-13T13:10:53.000Z</time>
      </trkpt>
      <trkpt lat="47.12372" lon="-1.52812">
        <ele>64</ele>
        <time>2021-02-13T13:10:55.000Z</time>
      </trkpt>
      <trkpt lat="47.1238" lon="-1.52804">
        <ele>64</ele>
        <time>2021-02-13T13:10:57.000Z</time>
      </trkpt>
      <trkpt lat="47.12388" lon="-1.52796">
        <ele>65</ele>
        <time>2021-02-13T13:10:59.000Z</time>
      </trkpt>
      <trkpt lat="47.12396" lon="-1.52788">
        <ele>65</ele>
        <time>2021-02-13T13:11:01.000Z</time>
      </trkpt>
      <trkpt lat="47.12404" lon="-1.5278">
        <ele>65</ele>
        <time>2021-02-13T13:11:03.000Z</time>
      </trkpt>
      <trkpt lat="47.12412" lon="-1.52772">
        <ele>65</ele>
        <time>2021-02-13T13:11:05.000Z</time>
      </trkpt>
      <trkpt lat="47.1242" lon="-1.52763">
        <ele>66</ele>
        <time>2021-02-13T13:11:07.000Z</time>
      </trkpt>
      <trkpt lat="47.12428" lon="-1.52755">
        <ele>66</ele>
        <time>2021-02-13T13:11:09.000Z</time>
      </trkpt>
      <trkpt lat="47.12436" lon="-1.52748">
        <ele>66</ele>
        <time>2021-02-13T13:11:11.000Z</time>
      </trkpt>
      <trkpt lat="47.12445" lon="-1.52742">
        <ele>67</ele>
        <time>2021-02-13T13:11:13.000Z</time>
      </trkpt>
      <trkpt lat="47.12453" lon="-1.52737">
        <ele>67</ele>
        <time>2021-02-13T13:11:15.000Z</time>
      </trkpt>
      <trkpt lat="47.12462" lon="-1.52733">
        <ele>68</ele>
        <time>2021-02-13T13:11:17.000Z</time>
      </trkpt>
      <trkpt lat="47.12475" lon="-1.52728">
        <ele>69</ele>
        <time>2021-02-13T13:11:20.000Z</time>
      </trkpt>
      <trkpt lat="47.12487" lon="-1.52725">
        <ele>69</ele>
        <time>2021-02-13T13:11:23.000Z</time>
      </trkpt>
      <trkpt lat="47.12498" lon="-1.52722">
        <ele>70</ele>
        <time>2021-02-13T13:11:26.000Z</time>
      </trkpt>
      <trkpt lat="47.12505" lon="-1.52714">
        <ele>71</ele>
        <time>2021-02-13T13:11:29.000Z</time>
      </trkpt>
      <trkpt lat="47.12497" lon="-1.52701">
        <ele>71</ele>
        <time>2021-02-13T13:11:33.000Z</time>
      </trkpt>
      <trkpt lat="47.12485" lon="-1.52698">
        <ele>72</ele>
        <time>2021-02-13T13:11:36.000Z</time>
      </trkpt>
      <trkpt lat="47.12472" lon="-1.52696">
        <ele>72</ele>
        <time>2021-02-13T13:11:39.000Z</time>
      </trkpt>
      <trkpt lat="47.1246" lon="-1.52693">
        <ele>72</ele>
        <time>2021-02-13T13:11:42.000Z</time>
      </trkpt>
      <trkpt lat="47.12448" lon="-1.52689">
        <ele>73</ele>
        <time>2021-02-13T13:11:45.000Z</time>
      </trkpt>
      <trkpt lat="47.12439" lon="-1.52687">
        <ele>73</ele>
        <time>2021-02-13T13:11:47.000Z</time>
      </trkpt>
      <trkpt lat="47.12429" lon="-1.52686">
        <ele>73</ele>
        <time>2021-02-13T13:11:49.000Z</time>
      </trkpt>
      <trkpt lat="47.1242" lon="-1.52684">
        <ele>73</ele>
        <time>2021-02-13T13:11:51.000Z</time>
      </trkpt>
      <trkpt lat="47.12409" lon="-1.52681">
        <ele>72</ele>
        <time>2021-02-13T13:11:53.000Z</time>
      </trkpt>
      <trkpt lat="47.12397" lon="-1.5268">
        <ele>72</ele>
        <time>2021-02-13T13:11:55.000Z</time>
      </trkpt>
      <trkpt lat="47.12385" lon="-1.52678">
        <ele>72</ele>
        <time>2021-02-13T13:11:57.000Z</time>
      </trkpt>
      <trkpt lat="47.12373" lon="-1.52674">
        <ele>72</ele>
        <time>2021-02-13T13:11:59.000Z</time>
      </trkpt>
      <trkpt lat="47.12359" lon="-1.52671">
        <ele>71</ele>
        <time>2021-02-13T13:12:01.000Z</time>
      </trkpt>
      <trkpt lat="47.12344" lon="-1.52666">
        <ele>70</ele>
        <time>2021-02-13T13:12:03.000Z</time>
      </trkpt>
      <trkpt lat="47.12329" lon="-1.52662">
        <ele>70</ele>
        <time>2021-02-13T13:12:05.000Z</time>
      </trkpt>
      <trkpt lat="47.12315" lon="-1.52656">
        <ele>69</ele>
        <time>2021-02-13T13:12:07.000Z</time>
      </trkpt>
      <trkpt lat="47.123" lon="-1.5265">
        <ele>68</ele>
        <time>2021-02-13T13:12:09.000Z</time>
      </trkpt>
      <trkpt lat="47.12286" lon="-1.52643">
        <ele>68</ele>
        <time>2021-02-13T13:12:11.000Z</time>
      </trkpt>
      <trkpt lat="47.12272" lon="-1.52634">
        <ele>67</ele>
        <time>2021-02-13T13:12:13.000Z</time>
      </trkpt>
      <trkpt lat="47.12258" lon="-1.52627">
        <ele>67</ele>
        <time>2021-02-13T13:12:15.000Z</time>
      </trkpt>
      <trkpt lat="47.12245" lon="-1.5262">
        <ele>66</ele>
        <time>2021-02-13T13:12:17.000Z</time>
      </trkpt>
      <trkpt lat="47.12231" lon="-1.52613">
        <ele>66</ele>
        <time>2021-02-13T13:12:19.000Z</time>
      </trkpt>
      <trkpt lat="47.12218" lon="-1.52607">
        <ele>66</ele>
        <time>2021-02-13T13:12:21.000Z</time>
      </trkpt>
      <trkpt lat="47.12204" lon="-1.52601">
        <ele>66</ele>
        <time>2021-02-13T13:12:23.000Z</time>
      </trkpt>
      <trkpt lat="47.1219" lon="-1.52597">
        <ele>66</ele>
        <time>2021-02-13T13:12:25.000Z</time>
      </trkpt>
      <trkpt lat="47.12177" lon="-1.52594">
        <ele>66</ele>
        <time>2021-02-13T13:12:27.000Z</time>
      </trkpt>
      <trkpt lat="47.12163" lon="-1.52592">
        <ele>65</ele>
        <time>2021-02-13T13:12:29.000Z</time>
      </trkpt>
      <trkpt lat="47.1215" lon="-1.52591">
        <ele>65</ele>
        <time>2021-02-13T13:12:31.000Z</time>
      </trkpt>
      <trkpt lat="47.12136" lon="-1.52591">
        <ele>64</ele>
        <time>2021-02-13T13:12:33.000Z</time>
      </trkpt>
      <trkpt lat="47.12123" lon="-1.52592">
        <ele>65</ele>
        <time>2021-02-13T13:12:35.000Z</time>
      </trkpt>
      <trkpt lat="47.1211" lon="-1.52592">
        <ele>65</ele>
        <time>2021-02-13T13:12:37.000Z</time>
      </trkpt>
      <trkpt lat="47.12095" lon="-1.52592">
        <ele>65</ele>
        <time>2021-02-13T13:12:39.000Z</time>
      </trkpt>
      <trkpt lat="47.12082" lon="-1.52593">
        <ele>65</ele>
        <time>2021-02-13T13:12:41.000Z</time>
      </trkpt>
      <trkpt lat="47.12069" lon="-1.52593">
        <ele>65</ele>
        <time>2021-02-13T13:12:43.000Z</time>
      </trkpt>
      <trkpt lat="47.12056" lon="-1.52593">
        <ele>65</ele>
        <time>2021-02-13T13:12:45.000Z</time>
      </trkpt>
      <trkpt lat="47.12042" lon="-1.52593">
        <ele>65</ele>
        <time>2021-02-13T13:12:47.000Z</time>
      </trkpt>
      <trkpt lat="47.12028" lon="-1.52592">
        <ele>64</ele>
        <time>2021-02-13T13:12:49.000Z</time>
      </trkpt>
      <trkpt lat="47.12015" lon="-1.5259">
        <ele>64</ele>
        <time>2021-02-13T13:12:51.000Z</time>
      </trkpt>
      <trkpt lat="47.12002" lon="-1.52587">
        <ele>63</ele>
        <time>2021-02-13T13:12:53.000Z</time>
      </trkpt>
      <trkpt lat="47.11988" lon="-1.52582">
        <ele>62</ele>
        <time>2021-02-13T13:12:55.000Z</time>
      </trkpt>
      <trkpt lat="47.11975" lon="-1.52576">
        <ele>62</ele>
        <time>2021-02-13T13:12:57.000Z</time>
      </trkpt>
      <trkpt lat="47.11961" lon="-1.5257">
        <ele>62</ele>
        <time>2021-02-13T13:12:59.000Z</time>
      </trkpt>
      <trkpt lat="47.11948" lon="-1.52564">
        <ele>62</ele>
        <time>2021-02-13T13:13:01.000Z</time>
      </trkpt>
      <trkpt lat="47.11937" lon="-1.52557">
        <ele>61</ele>
        <time>2021-02-13T13:13:03.000Z</time>
      </trkpt>
      <trkpt lat="47.11924" lon="-1.52549">
        <ele>61</ele>
        <time>2021-02-13T13:13:05.000Z</time>
      </trkpt>
      <trkpt lat="47.11911" lon="-1.52539">
        <ele>61</ele>
        <time>2021-02-13T13:13:07.000Z</time>
      </trkpt>
      <trkpt lat="47.11898" lon="-1.52527">
        <ele>60</ele>
        <time>2021-02-13T13:13:09.000Z</time>
      </trkpt>
      <trkpt lat="47.11886" lon="-1.52514">
        <ele>59</ele>
        <time>2021-02-13T13:13:11.000Z</time>
      </trkpt>
      <trkpt lat="47.11876" lon="-1.52501">
        <ele>59</ele>
        <time>2021-02-13T13:13:13.000Z</time>
      </trkpt>
      <trkpt lat="47.11867" lon="-1.52489">
        <ele>60</ele>
        <time>2021-02-13T13:13:15.000Z</time>
      </trkpt>
      <trkpt lat="47.11859" lon="-1.52479">
        <ele>60</ele>
        <time>2021-02-13T13:13:17.000Z</time>
      </trkpt>
      <trkpt lat="47.11851" lon="-1.52469">
        <ele>61</ele>
        <time>2021-02-13T13:13:19.000Z</time>
      </trkpt>
      <trkpt lat="47.11842" lon="-1.52458">
        <ele>62</ele>
        <time>2021-02-13T13:13:21.000Z</time>
      </trkpt>
      <trkpt lat="47.11835" lon="-1.52448">
        <ele>62</ele>
        <time>2021-02-13T13:13:23.000Z</time>
      </trkpt>
      <trkpt lat="47.11828" lon="-1.52436">
        <ele>62</ele>
        <time>2021-02-13T13:13:25.000Z</time>
      </trkpt>
      <trkpt lat="47.1182" lon="-1.52426">
        <ele>62</ele>
        <time>2021-02-13T13:13:27.000Z</time>
      </trkpt>
      <trkpt lat="47.11813" lon="-1.52416">
        <ele>62</ele>
        <time>2021-02-13T13:13:29.000Z</time>
      </trkpt>
      <trkpt lat="47.11806" lon="-1.52405">
        <ele>63</ele>
        <time>2021-02-13T13:13:31.000Z</time>
      </trkpt>
      <trkpt lat="47.11799" lon="-1.52395">
        <ele>64</ele>
        <time>2021-02-13T13:13:33.000Z</time>
      </trkpt>
      <trkpt lat="47.11791" lon="-1.52386">
        <ele>64</ele>
        <time>2021-02-13T13:13:35.000Z</time>
      </trkpt>
      <trkpt lat="47.11785" lon="-1.52376">
        <ele>65</ele>
        <time>2021-02-13T13:13:37.000Z</time>
      </trkpt>
      <trkpt lat="47.11777" lon="-1.52366">
        <ele>65</ele>
        <time>2021-02-13T13:13:39.000Z</time>
      </trkpt>
      <trkpt lat="47.1177" lon="-1.52357">
        <ele>65</ele>
        <time>2021-02-13T13:13:41.000Z</time>
      </trkpt>
      <trkpt lat="47.11762" lon="-1.52347">
        <ele>66</ele>
        <time>2021-02-13T13:13:43.000Z</time>
      </trkpt>
      <trkpt lat="47.11754" lon="-1.52338">
        <ele>67</ele>
        <time>2021-02-13T13:13:45.000Z</time>
      </trkpt>
      <trkpt lat="47.11747" lon="-1.52328">
        <ele>67</ele>
        <time>2021-02-13T13:13:47.000Z</time>
      </trkpt>
      <trkpt lat="47.11739" lon="-1.52319">
        <ele>67</ele>
        <time>2021-02-13T13:13:49.000Z</time>
      </trkpt>
      <trkpt lat="47.11732" lon="-1.5231">
        <ele>67</ele>
        <time>2021-02-13T13:13:51.000Z</time>
      </trkpt>
      <trkpt lat="47.11724" lon="-1.523">
        <ele>68</ele>
        <time>2021-02-13T13:13:53.000Z</time>
      </trkpt>
      <trkpt lat="47.11715" lon="-1.52293">
        <ele>68</ele>
        <time>2021-02-13T13:13:55.000Z</time>
      </trkpt>
      <trkpt lat="47.11706" lon="-1.52287">
        <ele>67</ele>
        <time>2021-02-13T13:13:57.000Z</time>
      </trkpt>
      <trkpt lat="47.11695" lon="-1.52281">
        <ele>67</ele>
        <time>2021-02-13T13:13:59.000Z</time>
      </trkpt>
      <trkpt lat="47.11685" lon="-1.52273">
        <ele>67</ele>
        <time>2021-02-13T13:14:01.000Z</time>
      </trkpt>
      <trkpt lat="47.11673" lon="-1.52266">
        <ele>66</ele>
        <time>2021-02-13T13:14:03.000Z</time>
      </trkpt>
      <trkpt lat="47.11661" lon="-1.5226">
        <ele>65</ele>
        <time>2021-02-13T13:14:05.000Z</time>
      </trkpt>
      <trkpt lat="47.11648" lon="-1.52252">
        <ele>65</ele>
        <time>2021-02-13T13:14:07.000Z</time>
      </trkpt>
      <trkpt lat="47.11634" lon="-1.52244">
        <ele>64</ele>
        <time>2021-02-13T13:14:09.000Z</time>
      </trkpt>
      <trkpt lat="47.1162" lon="-1.52236">
        <ele>64</ele>
        <time>2021-02-13T13:14:11.000Z</time>
      </trkpt>
      <trkpt lat="47.11607" lon="-1.52226">
        <ele>64</ele>
        <time>2021-02-13T13:14:13.000Z</time>
      </trkpt>
      <trkpt lat="47.11594" lon="-1.52216">
        <ele>63</ele>
        <time>2021-02-13T13:14:15.000Z</time>
      </trkpt>
      <trkpt lat="47.11582" lon="-1.52203">
        <ele>62</ele>
        <time>2021-02-13T13:14:17.000Z</time>
      </trkpt>
      <trkpt lat="47.11571" lon="-1.52187">
        <ele>62</ele>
        <time>2021-02-13T13:14:19.000Z</time>
      </trkpt>
      <trkpt lat="47.1156" lon="-1.52171">
        <ele>61</ele>
        <time>2021-02-13T13:14:21.000Z</time>
      </trkpt>
      <trkpt lat="47.1155" lon="-1.52154">
        <ele>61</ele>
        <time>2021-02-13T13:14:23.000Z</time>
      </trkpt>
      <trkpt lat="47.1154" lon="-1.52136">
        <ele>61</ele>
        <time>2021-02-13T13:14:25.000Z</time>
      </trkpt>
      <trkpt lat="47.11531" lon="-1.52119">
        <ele>61</ele>
        <time>2021-02-13T13:14:27.000Z</time>
      </trkpt>
      <trkpt lat="47.11521" lon="-1.52105">
        <ele>62</ele>
        <time>2021-02-13T13:14:29.000Z</time>
      </trkpt>
      <trkpt lat="47.11512" lon="-1.5209">
        <ele>62</ele>
        <time>2021-02-13T13:14:31.000Z</time>
      </trkpt>
      <trkpt lat="47.11503" lon="-1.52075">
        <ele>62</ele>
        <time>2021-02-13T13:14:33.000Z</time>
      </trkpt>
      <trkpt lat="47.11495" lon="-1.5206">
        <ele>62</ele>
        <time>2021-02-13T13:14:35.000Z</time>
      </trkpt>
      <trkpt lat="47.11486" lon="-1.52044">
        <ele>61</ele>
        <time>2021-02-13T13:14:37.000Z</time>
      </trkpt>
      <trkpt lat="47.11478" lon="-1.52028">
        <ele>61</ele>
        <time>2021-02-13T13:14:39.000Z</time>
      </trkpt>
      <trkpt lat="47.11469" lon="-1.52012">
        <ele>60</ele>
        <time>2021-02-13T13:14:41.000Z</time>
      </trkpt>
      <trkpt lat="47.11461" lon="-1.51997">
        <ele>61</ele>
        <time>2021-02-13T13:14:43.000Z</time>
      </trkpt>
      <trkpt lat="47.11453" lon="-1.51982">
        <ele>61</ele>
        <time>2021-02-13T13:14:45.000Z</time>
      </trkpt>
      <trkpt lat="47.11445" lon="-1.51968">
        <ele>61</ele>
        <time>2021-02-13T13:14:47.000Z</time>
      </trkpt>
      <trkpt lat="47.11436" lon="-1.51953">
        <ele>62</ele>
        <time>2021-02-13T13:14:49.000Z</time>
      </trkpt>
      <trkpt lat="47.11427" lon="-1.51939">
        <ele>62</ele>
        <time>2021-02-13T13:14:51.000Z</time>
      </trkpt>
      <trkpt lat="47.11419" lon="-1.51923">
        <ele>61</ele>
        <time>2021-02-13T13:14:53.000Z</time>
      </trkpt>
      <trkpt lat="47.11411" lon="-1.51908">
        <ele>61</ele>
        <time>2021-02-13T13:14:55.000Z</time>
      </trkpt>
      <trkpt lat="47.11403" lon="-1.51892">
        <ele>60</ele>
        <time>2021-02-13T13:14:57.000Z</time>
      </trkpt>
      <trkpt lat="47.11394" lon="-1.51877">
        <ele>60</ele>
        <time>2021-02-13T13:14:59.000Z</time>
      </trkpt>
      <trkpt lat="47.11387" lon="-1.51862">
        <ele>60</ele>
        <time>2021-02-13T13:15:01.000Z</time>
      </trkpt>
      <trkpt lat="47.11379" lon="-1.51846">
        <ele>59</ele>
        <time>2021-02-13T13:15:03.000Z</time>
      </trkpt>
      <trkpt lat="47.11371" lon="-1.51832">
        <ele>59</ele>
        <time>2021-02-13T13:15:05.000Z</time>
      </trkpt>
      <trkpt lat="47.11363" lon="-1.51819">
        <ele>59</ele>
        <time>2021-02-13T13:15:07.000Z</time>
      </trkpt>
      <trkpt lat="47.11354" lon="-1.51806">
        <ele>58</ele>
        <time>2021-02-13T13:15:09.000Z</time>
      </trkpt>
      <trkpt lat="47.11345" lon="-1.51794">
        <ele>59</ele>
        <time>2021-02-13T13:15:11.000Z</time>
      </trkpt>
      <trkpt lat="47.11335" lon="-1.51784">
        <ele>59</ele>
        <time>2021-02-13T13:15:13.000Z</time>
      </trkpt>
      <trkpt lat="47.11324" lon="-1.51774">
        <ele>59</ele>
        <time>2021-02-13T13:15:15.000Z</time>
      </trkpt>
      <trkpt lat="47.11314" lon="-1.51766">
        <ele>60</ele>
        <time>2021-02-13T13:15:17.000Z</time>
      </trkpt>
      <trkpt lat="47.11304" lon="-1.51757">
        <ele>60</ele>
        <time>2021-02-13T13:15:19.000Z</time>
      </trkpt>
      <trkpt lat="47.11294" lon="-1.51748">
        <ele>59</ele>
        <time>2021-02-13T13:15:21.000Z</time>
      </trkpt>
      <trkpt lat="47.11283" lon="-1.51739">
        <ele>60</ele>
        <time>2021-02-13T13:15:23.000Z</time>
      </trkpt>
      <trkpt lat="47.11274" lon="-1.5173">
        <ele>60</ele>
        <time>2021-02-13T13:15:25.000Z</time>
      </trkpt>
      <trkpt lat="47.11263" lon="-1.51721">
        <ele>60</ele>
        <time>2021-02-13T13:15:27.000Z</time>
      </trkpt>
      <trkpt lat="47.11252" lon="-1.51712">
        <ele>60</ele>
        <time>2021-02-13T13:15:29.000Z</time>
      </trkpt>
      <trkpt lat="47.11242" lon="-1.51704">
        <ele>60</ele>
        <time>2021-02-13T13:15:31.000Z</time>
      </trkpt>
      <trkpt lat="47.11232" lon="-1.51695">
        <ele>60</ele>
        <time>2021-02-13T13:15:33.000Z</time>
      </trkpt>
      <trkpt lat="47.11223" lon="-1.51686">
        <ele>61</ele>
        <time>2021-02-13T13:15:35.000Z</time>
      </trkpt>
      <trkpt lat="47.11213" lon="-1.51678">
        <ele>61</ele>
        <time>2021-02-13T13:15:37.000Z</time>
      </trkpt>
      <trkpt lat="47.11205" lon="-1.51671">
        <ele>62</ele>
        <time>2021-02-13T13:15:39.000Z</time>
      </trkpt>
      <trkpt lat="47.11196" lon="-1.51662">
        <ele>63</ele>
        <time>2021-02-13T13:15:41.000Z</time>
      </trkpt>
      <trkpt lat="47.11187" lon="-1.51653">
        <ele>63</ele>
        <time>2021-02-13T13:15:43.000Z</time>
      </trkpt>
      <trkpt lat="47.11179" lon="-1.51641">
        <ele>63</ele>
        <time>2021-02-13T13:15:45.000Z</time>
      </trkpt>
      <trkpt lat="47.11172" lon="-1.5163">
        <ele>63</ele>
        <time>2021-02-13T13:15:47.000Z</time>
      </trkpt>
      <trkpt lat="47.11165" lon="-1.5162">
        <ele>63</ele>
        <time>2021-02-13T13:15:49.000Z</time>
      </trkpt>
      <trkpt lat="47.11158" lon="-1.51608">
        <ele>63</ele>
        <time>2021-02-13T13:15:51.000Z</time>
      </trkpt>
      <trkpt lat="47.11151" lon="-1.51597">
        <ele>64</ele>
        <time>2021-02-13T13:15:53.000Z</time>
      </trkpt>
      <trkpt lat="47.11144" lon="-1.51586">
        <ele>64</ele>
        <time>2021-02-13T13:15:55.000Z</time>
      </trkpt>
      <trkpt lat="47.11137" lon="-1.51576">
        <ele>65</ele>
        <time>2021-02-13T13:15:57.000Z</time>
      </trkpt>
      <trkpt lat="47.1113" lon="-1.51565">
        <ele>65</ele>
        <time>2021-02-13T13:15:59.000Z</time>
      </trkpt>
      <trkpt lat="47.11123" lon="-1.51554">
        <ele>66</ele>
        <time>2021-02-13T13:16:01.000Z</time>
      </trkpt>
      <trkpt lat="47.11117" lon="-1.51543">
        <ele>66</ele>
        <time>2021-02-13T13:16:03.000Z</time>
      </trkpt>
      <trkpt lat="47.1111" lon="-1.51532">
        <ele>67</ele>
        <time>2021-02-13T13:16:05.000Z</time>
      </trkpt>
      <trkpt lat="47.11103" lon="-1.51521">
        <ele>67</ele>
        <time>2021-02-13T13:16:07.000Z</time>
      </trkpt>
      <trkpt lat="47.11097" lon="-1.51511">
        <ele>67</ele>
        <time>2021-02-13T13:16:09.000Z</time>
      </trkpt>
      <trkpt lat="47.1109" lon="-1.51501">
        <ele>67</ele>
        <time>2021-02-13T13:16:11.000Z</time>
      </trkpt>
      <trkpt lat="47.11083" lon="-1.51491">
        <ele>68</ele>
        <time>2021-02-13T13:16:13.000Z</time>
      </trkpt>
      <trkpt lat="47.11075" lon="-1.51482">
        <ele>68</ele>
        <time>2021-02-13T13:16:15.000Z</time>
      </trkpt>
      <trkpt lat="47.11068" lon="-1.51474">
        <ele>69</ele>
        <time>2021-02-13T13:16:17.000Z</time>
      </trkpt>
      <trkpt lat="47.1106" lon="-1.51467">
        <ele>69</ele>
        <time>2021-02-13T13:16:19.000Z</time>
      </trkpt>
      <trkpt lat="47.11052" lon="-1.5146">
        <ele>69</ele>
        <time>2021-02-13T13:16:21.000Z</time>
      </trkpt>
      <trkpt lat="47.11044" lon="-1.51452">
        <ele>68</ele>
        <time>2021-02-13T13:16:23.000Z</time>
      </trkpt>
      <trkpt lat="47.11036" lon="-1.51444">
        <ele>69</ele>
        <time>2021-02-13T13:16:25.000Z</time>
      </trkpt>
      <trkpt lat="47.11027" lon="-1.51437">
        <ele>69</ele>
        <time>2021-02-13T13:16:27.000Z</time>
      </trkpt>
      <trkpt lat="47.11019" lon="-1.51429">
        <ele>69</ele>
        <time>2021-02-13T13:16:29.000Z</time>
      </trkpt>
      <trkpt lat="47.1101" lon="-1.51421">
        <ele>69</ele>
        <time>2021-02-13T13:16:31.000Z</time>
      </trkpt>
      <trkpt lat="47.11002" lon="-1.51413">
        <ele>69</ele>
        <time>2021-02-13T13:16:33.000Z</time>
      </trkpt>
      <trkpt lat="47.10994" lon="-1.51405">
        <ele>69</ele>
        <time>2021-02-13T13:16:35.000Z</time>
      </trkpt>
      <trkpt lat="47.10985" lon="-1.51396">
        <ele>69</ele>
        <time>2021-02-13T13:16:37.000Z</time>
      </trkpt>
      <trkpt lat="47.10976" lon="-1.51388">
        <ele>69</ele>
        <time>2021-02-13T13:16:39.000Z</time>
      </trkpt>
      <trkpt lat="47.10967" lon="-1.51379">
        <ele>69</ele>
        <time>2021-02-13T13:16:41.000Z</time>
      </trkpt>
      <trkpt lat="47.10958" lon="-1.51371">
        <ele>69</ele>
        <time>2021-02-13T13:16:43.000Z</time>
      </trkpt>
      <trkpt lat="47.10948" lon="-1.51362">
        <ele>70</ele>
        <time>2021-02-13T13:16:45.000Z</time>
      </trkpt>
      <trkpt lat="47.1094" lon="-1.51354">
        <ele>70</ele>
        <time>2021-02-13T13:16:47.000Z</time>
      </trkpt>
      <trkpt lat="47.10931" lon="-1.51345">
        <ele>70</ele>
        <time>2021-02-13T13:16:49.000Z</time>
      </trkpt>
      <trkpt lat="47.10922" lon="-1.51337">
        <ele>70</ele>
        <time>2021-02-13T13:16:51.000Z</time>
      </trkpt>
      <trkpt lat="47.10913" lon="-1.51328">
        <ele>70</ele>
        <time>2021-02-13T13:16:53.000Z</time>
      </trkpt>
      <trkpt lat="47.10904" lon="-1.5132">
        <ele>70</ele>
        <time>2021-02-13T13:16:55.000Z</time>
      </trkpt>
      <trkpt lat="47.10895" lon="-1.51311">
        <ele>70</ele>
        <time>2021-02-13T13:16:57.000Z</time>
      </trkpt>
      <trkpt lat="47.10886" lon="-1.51303">
        <ele>70</ele>
        <time>2021-02-13T13:16:59.000Z</time>
      </trkpt>
      <trkpt lat="47.10877" lon="-1.51294">
        <ele>70</ele>
        <time>2021-02-13T13:17:01.000Z</time>
      </trkpt>
      <trkpt lat="47.10869" lon="-1.51285">
        <ele>69</ele>
        <time>2021-02-13T13:17:03.000Z</time>
      </trkpt>
      <trkpt lat="47.1086" lon="-1.51277">
        <ele>70</ele>
        <time>2021-02-13T13:17:05.000Z</time>
      </trkpt>
      <trkpt lat="47.10851" lon="-1.51268">
        <ele>70</ele>
        <time>2021-02-13T13:17:07.000Z</time>
      </trkpt>
      <trkpt lat="47.10842" lon="-1.5126">
        <ele>70</ele>
        <time>2021-02-13T13:17:09.000Z</time>
      </trkpt>
      <trkpt lat="47.10833" lon="-1.51252">
        <ele>70</ele>
        <time>2021-02-13T13:17:11.000Z</time>
      </trkpt>
      <trkpt lat="47.10824" lon="-1.51243">
        <ele>70</ele>
        <time>2021-02-13T13:17:13.000Z</time>
      </trkpt>
      <trkpt lat="47.10815" lon="-1.51234">
        <ele>69</ele>
        <time>2021-02-13T13:17:15.000Z</time>
      </trkpt>
      <trkpt lat="47.10806" lon="-1.51225">
        <ele>69</ele>
        <time>2021-02-13T13:17:17.000Z</time>
      </trkpt>
      <trkpt lat="47.10797" lon="-1.51217">
        <ele>69</ele>
        <time>2021-02-13T13:17:19.000Z</time>
      </trkpt>
      <trkpt lat="47.10788" lon="-1.51207">
        <ele>69</ele>
        <time>2021-02-13T13:17:21.000Z</time>
      </trkpt>
      <trkpt lat="47.10778" lon="-1.51198">
        <ele>69</ele>
        <time>2021-02-13T13:17:23.000Z</time>
      </trkpt>
      <trkpt lat="47.10769" lon="-1.5119">
        <ele>69</ele>
        <time>2021-02-13T13:17:25.000Z</time>
      </trkpt>
      <trkpt lat="47.1076" lon="-1.51181">
        <ele>69</ele>
        <time>2021-02-13T13:17:27.000Z</time>
      </trkpt>
      <trkpt lat="47.10751" lon="-1.51172">
        <ele>69</ele>
        <time>2021-02-13T13:17:29.000Z</time>
      </trkpt>
      <trkpt lat="47.10741" lon="-1.51163">
        <ele>69</ele>
        <time>2021-02-13T13:17:31.000Z</time>
      </trkpt>
      <trkpt lat="47.10732" lon="-1.51154">
        <ele>69</ele>
        <time>2021-02-13T13:17:33.000Z</time>
      </trkpt>
      <trkpt lat="47.10722" lon="-1.51144">
        <ele>69</ele>
        <time>2021-02-13T13:17:35.000Z</time>
      </trkpt>
      <trkpt lat="47.10712" lon="-1.51135">
        <ele>69</ele>
        <time>2021-02-13T13:17:37.000Z</time>
      </trkpt>
      <trkpt lat="47.10702" lon="-1.51124">
        <ele>68</ele>
        <time>2021-02-13T13:17:39.000Z</time>
      </trkpt>
      <trkpt lat="47.10692" lon="-1.51113">
        <ele>69</ele>
        <time>2021-02-13T13:17:41.000Z</time>
      </trkpt>
      <trkpt lat="47.10684" lon="-1.51099">
        <ele>68</ele>
        <time>2021-02-13T13:17:43.000Z</time>
      </trkpt>
      <trkpt lat="47.10677" lon="-1.51084">
        <ele>68</ele>
        <time>2021-02-13T13:17:45.000Z</time>
      </trkpt>
      <trkpt lat="47.10671" lon="-1.51068">
        <ele>67</ele>
        <time>2021-02-13T13:17:47.000Z</time>
      </trkpt>
      <trkpt lat="47.10665" lon="-1.5105">
        <ele>67</ele>
        <time>2021-02-13T13:17:49.000Z</time>
      </trkpt>
      <trkpt lat="47.10659" lon="-1.51031">
        <ele>67</ele>
        <time>2021-02-13T13:17:51.000Z</time>
      </trkpt>
      <trkpt lat="47.10652" lon="-1.51013">
        <ele>66</ele>
        <time>2021-02-13T13:17:53.000Z</time>
      </trkpt>
      <trkpt lat="47.10643" lon="-1.50996">
        <ele>66</ele>
        <time>2021-02-13T13:17:55.000Z</time>
      </trkpt>
      <trkpt lat="47.10632" lon="-1.50981">
        <ele>66</ele>
        <time>2021-02-13T13:17:57.000Z</time>
      </trkpt>
      <trkpt lat="47.1062" lon="-1.50968">
        <ele>65</ele>
        <time>2021-02-13T13:17:59.000Z</time>
      </trkpt>
      <trkpt lat="47.10608" lon="-1.50955">
        <ele>64</ele>
        <time>2021-02-13T13:18:01.000Z</time>
      </trkpt>
      <trkpt lat="47.10596" lon="-1.50941">
        <ele>64</ele>
        <time>2021-02-13T13:18:03.000Z</time>
      </trkpt>
      <trkpt lat="47.10584" lon="-1.50928">
        <ele>64</ele>
        <time>2021-02-13T13:18:05.000Z</time>
      </trkpt>
      <trkpt lat="47.10571" lon="-1.50915">
        <ele>64</ele>
        <time>2021-02-13T13:18:07.000Z</time>
      </trkpt>
      <trkpt lat="47.1056" lon="-1.50902">
        <ele>64</ele>
        <time>2021-02-13T13:18:09.000Z</time>
      </trkpt>
      <trkpt lat="47.10548" lon="-1.5089">
        <ele>63</ele>
        <time>2021-02-13T13:18:11.000Z</time>
      </trkpt>
      <trkpt lat="47.10537" lon="-1.50878">
        <ele>63</ele>
        <time>2021-02-13T13:18:13.000Z</time>
      </trkpt>
      <trkpt lat="47.10527" lon="-1.50864">
        <ele>63</ele>
        <time>2021-02-13T13:18:15.000Z</time>
      </trkpt>
      <trkpt lat="47.10518" lon="-1.5085">
        <ele>63</ele>
        <time>2021-02-13T13:18:17.000Z</time>
      </trkpt>
      <trkpt lat="47.10509" lon="-1.50836">
        <ele>63</ele>
        <time>2021-02-13T13:18:19.000Z</time>
      </trkpt>
      <trkpt lat="47.105" lon="-1.5082">
        <ele>62</ele>
        <time>2021-02-13T13:18:21.000Z</time>
      </trkpt>
      <trkpt lat="47.10491" lon="-1.50802">
        <ele>61</ele>
        <time>2021-02-13T13:18:23.000Z</time>
      </trkpt>
      <trkpt lat="47.10482" lon="-1.50786">
        <ele>60</ele>
        <time>2021-02-13T13:18:25.000Z</time>
      </trkpt>
      <trkpt lat="47.10474" lon="-1.50769">
        <ele>60</ele>
        <time>2021-02-13T13:18:27.000Z</time>
      </trkpt>
      <trkpt lat="47.10466" lon="-1.50751">
        <ele>60</ele>
        <time>2021-02-13T13:18:29.000Z</time>
      </trkpt>
      <trkpt lat="47.10461" lon="-1.50733">
        <ele>60</ele>
        <time>2021-02-13T13:18:31.000Z</time>
      </trkpt>
      <trkpt lat="47.10456" lon="-1.50714">
        <ele>60</ele>
        <time>2021-02-13T13:18:33.000Z</time>
      </trkpt>
      <trkpt lat="47.10452" lon="-1.50696">
        <ele>60</ele>
        <time>2021-02-13T13:18:35.000Z</time>
      </trkpt>
      <trkpt lat="47.10447" lon="-1.50678">
        <ele>60</ele>
        <time>2021-02-13T13:18:37.000Z</time>
      </trkpt>
      <trkpt lat="47.10442" lon="-1.50661">
        <ele>60</ele>
        <time>2021-02-13T13:18:39.000Z</time>
      </trkpt>
      <trkpt lat="47.10434" lon="-1.50647">
        <ele>60</ele>
        <time>2021-02-13T13:18:41.000Z</time>
      </trkpt>
      <trkpt lat="47.10426" lon="-1.50635">
        <ele>60</ele>
        <time>2021-02-13T13:18:43.000Z</time>
      </trkpt>
      <trkpt lat="47.10417" lon="-1.50626">
        <ele>60</ele>
        <time>2021-02-13T13:18:45.000Z</time>
      </trkpt>
      <trkpt lat="47.10406" lon="-1.50619">
        <ele>60</ele>
        <time>2021-02-13T13:18:47.000Z</time>
      </trkpt>
      <trkpt lat="47.10395" lon="-1.5061">
        <ele>61</ele>
        <time>2021-02-13T13:18:49.000Z</time>
      </trkpt>
      <trkpt lat="47.10385" lon="-1.506">
        <ele>61</ele>
        <time>2021-02-13T13:18:51.000Z</time>
      </trkpt>
      <trkpt lat="47.10376" lon="-1.50588">
        <ele>61</ele>
        <time>2021-02-13T13:18:53.000Z</time>
      </trkpt>
      <trkpt lat="47.10367" lon="-1.50574">
        <ele>61</ele>
        <time>2021-02-13T13:18:55.000Z</time>
      </trkpt>
      <trkpt lat="47.10359" lon="-1.5056">
        <ele>61</ele>
        <time>2021-02-13T13:18:57.000Z</time>
      </trkpt>
      <trkpt lat="47.10351" lon="-1.50547">
        <ele>61</ele>
        <time>2021-02-13T13:18:59.000Z</time>
      </trkpt>
      <trkpt lat="47.10343" lon="-1.50534">
        <ele>61</ele>
        <time>2021-02-13T13:19:01.000Z</time>
      </trkpt>
      <trkpt lat="47.10335" lon="-1.50522">
        <ele>62</ele>
        <time>2021-02-13T13:19:03.000Z</time>
      </trkpt>
      <trkpt lat="47.10328" lon="-1.50509">
        <ele>61</ele>
        <time>2021-02-13T13:19:05.000Z</time>
      </trkpt>
      <trkpt lat="47.1032" lon="-1.50497">
        <ele>62</ele>
        <time>2021-02-13T13:19:07.000Z</time>
      </trkpt>
      <trkpt lat="47.10312" lon="-1.50485">
        <ele>62</ele>
        <time>2021-02-13T13:19:09.000Z</time>
      </trkpt>
      <trkpt lat="47.10305" lon="-1.50472">
        <ele>62</ele>
        <time>2021-02-13T13:19:11.000Z</time>
      </trkpt>
      <trkpt lat="47.10298" lon="-1.50459">
        <ele>63</ele>
        <time>2021-02-13T13:19:13.000Z</time>
      </trkpt>
      <trkpt lat="47.1029" lon="-1.50448">
        <ele>63</ele>
        <time>2021-02-13T13:19:15.000Z</time>
      </trkpt>
      <trkpt lat="47.10283" lon="-1.50437">
        <ele>64</ele>
        <time>2021-02-13T13:19:17.000Z</time>
      </trkpt>
      <trkpt lat="47.10275" lon="-1.50424">
        <ele>64</ele>
        <time>2021-02-13T13:19:19.000Z</time>
      </trkpt>
      <trkpt lat="47.10267" lon="-1.50412">
        <ele>64</ele>
        <time>2021-02-13T13:19:21.000Z</time>
      </trkpt>
      <trkpt lat="47.10259" lon="-1.50399">
        <ele>64</ele>
        <time>2021-02-13T13:19:23.000Z</time>
      </trkpt>
      <trkpt lat="47.10251" lon="-1.50387">
        <ele>64</ele>
        <time>2021-02-13T13:19:25.000Z</time>
      </trkpt>
      <trkpt lat="47.10244" lon="-1.50374">
        <ele>65</ele>
        <time>2021-02-13T13:19:27.000Z</time>
      </trkpt>
      <trkpt lat="47.10236" lon="-1.50362">
        <ele>65</ele>
        <time>2021-02-13T13:19:29.000Z</time>
      </trkpt>
      <trkpt lat="47.1023" lon="-1.5035">
        <ele>65</ele>
        <time>2021-02-13T13:19:31.000Z</time>
      </trkpt>
      <trkpt lat="47.10223" lon="-1.50338">
        <ele>65</ele>
        <time>2021-02-13T13:19:33.000Z</time>
      </trkpt>
      <trkpt lat="47.10217" lon="-1.50328">
        <ele>65</ele>
        <time>2021-02-13T13:19:35.000Z</time>
      </trkpt>
      <trkpt lat="47.10208" lon="-1.50314">
        <ele>65</ele>
        <time>2021-02-13T13:19:38.000Z</time>
      </trkpt>
      <trkpt lat="47.10197" lon="-1.50302">
        <ele>65</ele>
        <time>2021-02-13T13:19:41.000Z</time>
      </trkpt>
      <trkpt lat="47.10189" lon="-1.50294">
        <ele>65</ele>
        <time>2021-02-13T13:19:43.000Z</time>
      </trkpt>
      <trkpt lat="47.1018" lon="-1.50287">
        <ele>66</ele>
        <time>2021-02-13T13:19:45.000Z</time>
      </trkpt>
      <trkpt lat="47.10172" lon="-1.5028">
        <ele>66</ele>
        <time>2021-02-13T13:19:47.000Z</time>
      </trkpt>
      <trkpt lat="47.10163" lon="-1.50273">
        <ele>67</ele>
        <time>2021-02-13T13:19:49.000Z</time>
      </trkpt>
      <trkpt lat="47.10154" lon="-1.50267">
        <ele>67</ele>
        <time>2021-02-13T13:19:51.000Z</time>
      </trkpt>
      <trkpt lat="47.10145" lon="-1.50261">
        <ele>67</ele>
        <time>2021-02-13T13:19:53.000Z</time>
      </trkpt>
      <trkpt lat="47.10136" lon="-1.50254">
        <ele>67</ele>
        <time>2021-02-13T13:19:55.000Z</time>
      </trkpt>
      <trkpt lat="47.10127" lon="-1.50248">
        <ele>68</ele>
        <time>2021-02-13T13:19:57.000Z</time>
      </trkpt>
      <trkpt lat="47.10118" lon="-1.50241">
        <ele>68</ele>
        <time>2021-02-13T13:19:59.000Z</time>
      </trkpt>
      <trkpt lat="47.1011" lon="-1.50234">
        <ele>68</ele>
        <time>2021-02-13T13:20:01.000Z</time>
      </trkpt>
      <trkpt lat="47.10102" lon="-1.50226">
        <ele>68</ele>
        <time>2021-02-13T13:20:03.000Z</time>
      </trkpt>
      <trkpt lat="47.10095" lon="-1.50218">
        <ele>69</ele>
        <time>2021-02-13T13:20:05.000Z</time>
      </trkpt>
      <trkpt lat="47.10089" lon="-1.50207">
        <ele>69</ele>
        <time>2021-02-13T13:20:07.000Z</time>
      </trkpt>
      <trkpt lat="47.10084" lon="-1.50195">
        <ele>70</ele>
        <time>2021-02-13T13:20:09.000Z</time>
      </trkpt>
      <trkpt lat="47.1008" lon="-1.50182">
        <ele>70</ele>
        <time>2021-02-13T13:20:11.000Z</time>
      </trkpt>
      <trkpt lat="47.10079" lon="-1.50167">
        <ele>70</ele>
        <time>2021-02-13T13:20:13.000Z</time>
      </trkpt>
      <trkpt lat="47.10078" lon="-1.50153">
        <ele>70</ele>
        <time>2021-02-13T13:20:15.000Z</time>
      </trkpt>
      <trkpt lat="47.10078" lon="-1.50138">
        <ele>70</ele>
        <time>2021-02-13T13:20:17.000Z</time>
      </trkpt>
      <trkpt lat="47.10077" lon="-1.50123">
        <ele>70</ele>
        <time>2021-02-13T13:20:19.000Z</time>
      </trkpt>
      <trkpt lat="47.10076" lon="-1.50109">
        <ele>71</ele>
        <time>2021-02-13T13:20:21.000Z</time>
      </trkpt>
      <trkpt lat="47.10076" lon="-1.50094">
        <ele>71</ele>
        <time>2021-02-13T13:20:23.000Z</time>
      </trkpt>
      <trkpt lat="47.10076" lon="-1.5008">
        <ele>71</ele>
        <time>2021-02-13T13:20:25.000Z</time>
      </trkpt>
      <trkpt lat="47.10076" lon="-1.50067">
        <ele>71</ele>
        <time>2021-02-13T13:20:27.000Z</time>
      </trkpt>
      <trkpt lat="47.10075" lon="-1.50052">
        <ele>71</ele>
        <time>2021-02-13T13:20:29.000Z</time>
      </trkpt>
      <trkpt lat="47.10075" lon="-1.50038">
        <ele>71</ele>
        <time>2021-02-13T13:20:31.000Z</time>
      </trkpt>
      <trkpt lat="47.10075" lon="-1.50024">
        <ele>71</ele>
        <time>2021-02-13T13:20:33.000Z</time>
      </trkpt>
      <trkpt lat="47.10074" lon="-1.5001">
        <ele>72</ele>
        <time>2021-02-13T13:20:35.000Z</time>
      </trkpt>
      <trkpt lat="47.10074" lon="-1.49995">
        <ele>72</ele>
        <time>2021-02-13T13:20:37.000Z</time>
      </trkpt>
      <trkpt lat="47.10073" lon="-1.49981">
        <ele>72</ele>
        <time>2021-02-13T13:20:39.000Z</time>
      </trkpt>
      <trkpt lat="47.10072" lon="-1.49966">
        <ele>72</ele>
        <time>2021-02-13T13:20:41.000Z</time>
      </trkpt>
      <trkpt lat="47.10072" lon="-1.49952">
        <ele>72</ele>
        <time>2021-02-13T13:20:43.000Z</time>
      </trkpt>
      <trkpt lat="47.10071" lon="-1.49937">
        <ele>72</ele>
        <time>2021-02-13T13:20:45.000Z</time>
      </trkpt>
      <trkpt lat="47.10069" lon="-1.49922">
        <ele>71</ele>
        <time>2021-02-13T13:20:47.000Z</time>
      </trkpt>
      <trkpt lat="47.10067" lon="-1.49907">
        <ele>71</ele>
        <time>2021-02-13T13:20:49.000Z</time>
      </trkpt>
      <trkpt lat="47.10064" lon="-1.49891">
        <ele>71</ele>
        <time>2021-02-13T13:20:51.000Z</time>
      </trkpt>
      <trkpt lat="47.1006" lon="-1.49876">
        <ele>71</ele>
        <time>2021-02-13T13:20:53.000Z</time>
      </trkpt>
      <trkpt lat="47.10055" lon="-1.49861">
        <ele>71</ele>
        <time>2021-02-13T13:20:55.000Z</time>
      </trkpt>
      <trkpt lat="47.10049" lon="-1.49846">
        <ele>70</ele>
        <time>2021-02-13T13:20:57.000Z</time>
      </trkpt>
      <trkpt lat="47.10042" lon="-1.4983">
        <ele>70</ele>
        <time>2021-02-13T13:20:59.000Z</time>
      </trkpt>
      <trkpt lat="47.10036" lon="-1.49814">
        <ele>70</ele>
        <time>2021-02-13T13:21:01.000Z</time>
      </trkpt>
      <trkpt lat="47.10029" lon="-1.498">
        <ele>70</ele>
        <time>2021-02-13T13:21:03.000Z</time>
      </trkpt>
      <trkpt lat="47.10023" lon="-1.49785">
        <ele>70</ele>
        <time>2021-02-13T13:21:05.000Z</time>
      </trkpt>
      <trkpt lat="47.10016" lon="-1.4977">
        <ele>69</ele>
        <time>2021-02-13T13:21:07.000Z</time>
      </trkpt>
      <trkpt lat="47.1001" lon="-1.49755">
        <ele>69</ele>
        <time>2021-02-13T13:21:09.000Z</time>
      </trkpt>
      <trkpt lat="47.10003" lon="-1.4974">
        <ele>69</ele>
        <time>2021-02-13T13:21:11.000Z</time>
      </trkpt>
      <trkpt lat="47.09997" lon="-1.49725">
        <ele>69</ele>
        <time>2021-02-13T13:21:13.000Z</time>
      </trkpt>
      <trkpt lat="47.0999" lon="-1.4971">
        <ele>69</ele>
        <time>2021-02-13T13:21:15.000Z</time>
      </trkpt>
      <trkpt lat="47.09984" lon="-1.49696">
        <ele>69</ele>
        <time>2021-02-13T13:21:17.000Z</time>
      </trkpt>
      <trkpt lat="47.09977" lon="-1.49681">
        <ele>69</ele>
        <time>2021-02-13T13:21:19.000Z</time>
      </trkpt>
      <trkpt lat="47.09971" lon="-1.49666">
        <ele>69</ele>
        <time>2021-02-13T13:21:21.000Z</time>
      </trkpt>
      <trkpt lat="47.09965" lon="-1.49653">
        <ele>69</ele>
        <time>2021-02-13T13:21:23.000Z</time>
      </trkpt>
      <trkpt lat="47.09958" lon="-1.49637">
        <ele>69</ele>
        <time>2021-02-13T13:21:25.000Z</time>
      </trkpt>
      <trkpt lat="47.09951" lon="-1.49623">
        <ele>68</ele>
        <time>2021-02-13T13:21:27.000Z</time>
      </trkpt>
      <trkpt lat="47.09946" lon="-1.49611">
        <ele>69</ele>
        <time>2021-02-13T13:21:29.000Z</time>
      </trkpt>
      <trkpt lat="47.0994" lon="-1.49598">
        <ele>69</ele>
        <time>2021-02-13T13:21:31.000Z</time>
      </trkpt>
      <trkpt lat="47.09933" lon="-1.49584">
        <ele>69</ele>
        <time>2021-02-13T13:21:33.000Z</time>
      </trkpt>
      <trkpt lat="47.09927" lon="-1.49569">
        <ele>70</ele>
        <time>2021-02-13T13:21:35.000Z</time>
      </trkpt>
      <trkpt lat="47.09921" lon="-1.49554">
        <ele>70</ele>
        <time>2021-02-13T13:21:37.000Z</time>
      </trkpt>
      <trkpt lat="47.09915" lon="-1.4954">
        <ele>70</ele>
        <time>2021-02-13T13:21:39.000Z</time>
      </trkpt>
      <trkpt lat="47.09909" lon="-1.49525">
        <ele>70</ele>
        <time>2021-02-13T13:21:41.000Z</time>
      </trkpt>
      <trkpt lat="47.09902" lon="-1.4951">
        <ele>70</ele>
        <time>2021-02-13T13:21:43.000Z</time>
      </trkpt>
      <trkpt lat="47.09896" lon="-1.49495">
        <ele>70</ele>
        <time>2021-02-13T13:21:45.000Z</time>
      </trkpt>
      <trkpt lat="47.09891" lon="-1.49481">
        <ele>70</ele>
        <time>2021-02-13T13:21:47.000Z</time>
      </trkpt>
      <trkpt lat="47.09886" lon="-1.49466">
        <ele>70</ele>
        <time>2021-02-13T13:21:49.000Z</time>
      </trkpt>
      <trkpt lat="47.09881" lon="-1.49453">
        <ele>71</ele>
        <time>2021-02-13T13:21:51.000Z</time>
      </trkpt>
      <trkpt lat="47.09875" lon="-1.49441">
        <ele>71</ele>
        <time>2021-02-13T13:21:53.000Z</time>
      </trkpt>
      <trkpt lat="47.09873" lon="-1.49425">
        <ele>71</ele>
        <time>2021-02-13T13:21:55.000Z</time>
      </trkpt>
      <trkpt lat="47.09871" lon="-1.49408">
        <ele>71</ele>
        <time>2021-02-13T13:21:57.000Z</time>
      </trkpt>
      <trkpt lat="47.09869" lon="-1.49393">
        <ele>72</ele>
        <time>2021-02-13T13:21:59.000Z</time>
      </trkpt>
      <trkpt lat="47.09867" lon="-1.49377">
        <ele>72</ele>
        <time>2021-02-13T13:22:01.000Z</time>
      </trkpt>
      <trkpt lat="47.09865" lon="-1.49361">
        <ele>72</ele>
        <time>2021-02-13T13:22:03.000Z</time>
      </trkpt>
      <trkpt lat="47.09863" lon="-1.49345">
        <ele>73</ele>
        <time>2021-02-13T13:22:05.000Z</time>
      </trkpt>
      <trkpt lat="47.09861" lon="-1.49329">
        <ele>73</ele>
        <time>2021-02-13T13:22:07.000Z</time>
      </trkpt>
      <trkpt lat="47.09859" lon="-1.49313">
        <ele>73</ele>
        <time>2021-02-13T13:22:09.000Z</time>
      </trkpt>
      <trkpt lat="47.09857" lon="-1.49297">
        <ele>72</ele>
        <time>2021-02-13T13:22:11.000Z</time>
      </trkpt>
      <trkpt lat="47.09856" lon="-1.49282">
        <ele>72</ele>
        <time>2021-02-13T13:22:13.000Z</time>
      </trkpt>
      <trkpt lat="47.09855" lon="-1.49266">
        <ele>72</ele>
        <time>2021-02-13T13:22:15.000Z</time>
      </trkpt>
      <trkpt lat="47.09854" lon="-1.49249">
        <ele>72</ele>
        <time>2021-02-13T13:22:17.000Z</time>
      </trkpt>
      <trkpt lat="47.09854" lon="-1.49232">
        <ele>72</ele>
        <time>2021-02-13T13:22:19.000Z</time>
      </trkpt>
      <trkpt lat="47.09853" lon="-1.49215">
        <ele>72</ele>
        <time>2021-02-13T13:22:21.000Z</time>
      </trkpt>
      <trkpt lat="47.09852" lon="-1.49198">
        <ele>71</ele>
        <time>2021-02-13T13:22:23.000Z</time>
      </trkpt>
      <trkpt lat="47.09852" lon="-1.49181">
        <ele>71</ele>
        <time>2021-02-13T13:22:25.000Z</time>
      </trkpt>
      <trkpt lat="47.09851" lon="-1.49164">
        <ele>72</ele>
        <time>2021-02-13T13:22:27.000Z</time>
      </trkpt>
      <trkpt lat="47.0985" lon="-1.49148">
        <ele>72</ele>
        <time>2021-02-13T13:22:29.000Z</time>
      </trkpt>
      <trkpt lat="47.09849" lon="-1.49131">
        <ele>73</ele>
        <time>2021-02-13T13:22:31.000Z</time>
      </trkpt>
      <trkpt lat="47.09849" lon="-1.49115">
        <ele>73</ele>
        <time>2021-02-13T13:22:33.000Z</time>
      </trkpt>
      <trkpt lat="47.09848" lon="-1.491">
        <ele>73</ele>
        <time>2021-02-13T13:22:36.000Z</time>
      </trkpt>
      <trkpt lat="47.09851" lon="-1.49087">
        <ele>72</ele>
        <time>2021-02-13T13:22:38.000Z</time>
      </trkpt>
      <trkpt lat="47.09851" lon="-1.49072">
        <ele>72</ele>
        <time>2021-02-13T13:22:40.000Z</time>
      </trkpt>
      <trkpt lat="47.09849" lon="-1.49057">
        <ele>72</ele>
        <time>2021-02-13T13:22:42.000Z</time>
      </trkpt>
      <trkpt lat="47.09845" lon="-1.49043">
        <ele>72</ele>
        <time>2021-02-13T13:22:44.000Z</time>
      </trkpt>
      <trkpt lat="47.09838" lon="-1.49029">
        <ele>71</ele>
        <time>2021-02-13T13:22:46.000Z</time>
      </trkpt>
      <trkpt lat="47.09832" lon="-1.49015">
        <ele>71</ele>
        <time>2021-02-13T13:22:48.000Z</time>
      </trkpt>
      <trkpt lat="47.09826" lon="-1.49001">
        <ele>71</ele>
        <time>2021-02-13T13:22:50.000Z</time>
      </trkpt>
      <trkpt lat="47.0982" lon="-1.48987">
        <ele>70</ele>
        <time>2021-02-13T13:22:52.000Z</time>
      </trkpt>
      <trkpt lat="47.09816" lon="-1.48974">
        <ele>70</ele>
        <time>2021-02-13T13:22:54.000Z</time>
      </trkpt>
      <trkpt lat="47.09812" lon="-1.48961">
        <ele>70</ele>
        <time>2021-02-13T13:22:56.000Z</time>
      </trkpt>
      <trkpt lat="47.09802" lon="-1.48963">
        <ele>70</ele>
        <time>2021-02-13T13:22:58.000Z</time>
      </trkpt>
      <trkpt lat="47.09792" lon="-1.48959">
        <ele>70</ele>
        <time>2021-02-13T13:23:01.000Z</time>
      </trkpt>
      <trkpt lat="47.09791" lon="-1.48943">
        <ele>70</ele>
        <time>2021-02-13T13:23:03.000Z</time>
      </trkpt>
      <trkpt lat="47.09794" lon="-1.48926">
        <ele>70</ele>
        <time>2021-02-13T13:23:05.000Z</time>
      </trkpt>
      <trkpt lat="47.09797" lon="-1.48909">
        <ele>70</ele>
        <time>2021-02-13T13:23:07.000Z</time>
      </trkpt>
      <trkpt lat="47.09795" lon="-1.48892">
        <ele>70</ele>
        <time>2021-02-13T13:23:09.000Z</time>
      </trkpt>
      <trkpt lat="47.09789" lon="-1.48877">
        <ele>70</ele>
        <time>2021-02-13T13:23:11.000Z</time>
      </trkpt>
      <trkpt lat="47.09783" lon="-1.4886">
        <ele>70</ele>
        <time>2021-02-13T13:23:13.000Z</time>
      </trkpt>
      <trkpt lat="47.09777" lon="-1.48843">
        <ele>69</ele>
        <time>2021-02-13T13:23:15.000Z</time>
      </trkpt>
      <trkpt lat="47.09772" lon="-1.48828">
        <ele>69</ele>
        <time>2021-02-13T13:23:17.000Z</time>
      </trkpt>
      <trkpt lat="47.09767" lon="-1.48812">
        <ele>69</ele>
        <time>2021-02-13T13:23:19.000Z</time>
      </trkpt>
      <trkpt lat="47.09762" lon="-1.48797">
        <ele>69</ele>
        <time>2021-02-13T13:23:21.000Z</time>
      </trkpt>
      <trkpt lat="47.09759" lon="-1.48783">
        <ele>69</ele>
        <time>2021-02-13T13:23:23.000Z</time>
      </trkpt>
      <trkpt lat="47.09757" lon="-1.48769">
        <ele>70</ele>
        <time>2021-02-13T13:23:27.000Z</time>
      </trkpt>
      <trkpt lat="47.09763" lon="-1.48752">
        <ele>70</ele>
        <time>2021-02-13T13:23:30.000Z</time>
      </trkpt>
      <trkpt lat="47.09771" lon="-1.48741">
        <ele>69</ele>
        <time>2021-02-13T13:23:32.000Z</time>
      </trkpt>
      <trkpt lat="47.09779" lon="-1.48729">
        <ele>69</ele>
        <time>2021-02-13T13:23:34.000Z</time>
      </trkpt>
      <trkpt lat="47.09787" lon="-1.48716">
        <ele>69</ele>
        <time>2021-02-13T13:23:36.000Z</time>
      </trkpt>
      <trkpt lat="47.09795" lon="-1.48703">
        <ele>69</ele>
        <time>2021-02-13T13:23:38.000Z</time>
      </trkpt>
      <trkpt lat="47.09802" lon="-1.48689">
        <ele>68</ele>
        <time>2021-02-13T13:23:40.000Z</time>
      </trkpt>
      <trkpt lat="47.0981" lon="-1.48675">
        <ele>68</ele>
        <time>2021-02-13T13:23:42.000Z</time>
      </trkpt>
      <trkpt lat="47.09817" lon="-1.48662">
        <ele>68</ele>
        <time>2021-02-13T13:23:44.000Z</time>
      </trkpt>
      <trkpt lat="47.09826" lon="-1.4865">
        <ele>68</ele>
        <time>2021-02-13T13:23:46.000Z</time>
      </trkpt>
      <trkpt lat="47.09834" lon="-1.48638">
        <ele>68</ele>
        <time>2021-02-13T13:23:48.000Z</time>
      </trkpt>
      <trkpt lat="47.09841" lon="-1.48624">
        <ele>68</ele>
        <time>2021-02-13T13:23:50.000Z</time>
      </trkpt>
      <trkpt lat="47.09847" lon="-1.48611">
        <ele>68</ele>
        <time>2021-02-13T13:23:52.000Z</time>
      </trkpt>
      <trkpt lat="47.09853" lon="-1.48597">
        <ele>68</ele>
        <time>2021-02-13T13:23:54.000Z</time>
      </trkpt>
      <trkpt lat="47.09857" lon="-1.48583">
        <ele>68</ele>
        <time>2021-02-13T13:23:56.000Z</time>
      </trkpt>
      <trkpt lat="47.09861" lon="-1.48568">
        <ele>68</ele>
        <time>2021-02-13T13:23:58.000Z</time>
      </trkpt>
      <trkpt lat="47.09864" lon="-1.48552">
        <ele>68</ele>
        <time>2021-02-13T13:24:00.000Z</time>
      </trkpt>
      <trkpt lat="47.09865" lon="-1.48536">
        <ele>68</ele>
        <time>2021-02-13T13:24:02.000Z</time>
      </trkpt>
      <trkpt lat="47.09865" lon="-1.48519">
        <ele>68</ele>
        <time>2021-02-13T13:24:04.000Z</time>
      </trkpt>
      <trkpt lat="47.09866" lon="-1.48502">
        <ele>68</ele>
        <time>2021-02-13T13:24:06.000Z</time>
      </trkpt>
      <trkpt lat="47.09865" lon="-1.48485">
        <ele>68</ele>
        <time>2021-02-13T13:24:08.000Z</time>
      </trkpt>
      <trkpt lat="47.09863" lon="-1.48469">
        <ele>68</ele>
        <time>2021-02-13T13:24:10.000Z</time>
      </trkpt>
      <trkpt lat="47.09861" lon="-1.48453">
        <ele>68</ele>
        <time>2021-02-13T13:24:12.000Z</time>
      </trkpt>
      <trkpt lat="47.09858" lon="-1.48436">
        <ele>68</ele>
        <time>2021-02-13T13:24:14.000Z</time>
      </trkpt>
      <trkpt lat="47.09856" lon="-1.48421">
        <ele>68</ele>
        <time>2021-02-13T13:24:16.000Z</time>
      </trkpt>
      <trkpt lat="47.09855" lon="-1.48405">
        <ele>68</ele>
        <time>2021-02-13T13:24:18.000Z</time>
      </trkpt>
      <trkpt lat="47.09853" lon="-1.48389">
        <ele>68</ele>
        <time>2021-02-13T13:24:20.000Z</time>
      </trkpt>
      <trkpt lat="47.09852" lon="-1.48373">
        <ele>68</ele>
        <time>2021-02-13T13:24:22.000Z</time>
      </trkpt>
      <trkpt lat="47.0985" lon="-1.48357">
        <ele>68</ele>
        <time>2021-02-13T13:24:24.000Z</time>
      </trkpt>
      <trkpt lat="47.09849" lon="-1.48341">
        <ele>68</ele>
        <time>2021-02-13T13:24:26.000Z</time>
      </trkpt>
      <trkpt lat="47.09847" lon="-1.48325">
        <ele>69</ele>
        <time>2021-02-13T13:24:28.000Z</time>
      </trkpt>
      <trkpt lat="47.09846" lon="-1.48309">
        <ele>69</ele>
        <time>2021-02-13T13:24:30.000Z</time>
      </trkpt>
      <trkpt lat="47.09845" lon="-1.48292">
        <ele>69</ele>
        <time>2021-02-13T13:24:32.000Z</time>
      </trkpt>
      <trkpt lat="47.09843" lon="-1.48276">
        <ele>69</ele>
        <time>2021-02-13T13:24:34.000Z</time>
      </trkpt>
      <trkpt lat="47.09841" lon="-1.4826">
        <ele>69</ele>
        <time>2021-02-13T13:24:36.000Z</time>
      </trkpt>
      <trkpt lat="47.09839" lon="-1.48244">
        <ele>69</ele>
        <time>2021-02-13T13:24:38.000Z</time>
      </trkpt>
      <trkpt lat="47.09838" lon="-1.48228">
        <ele>69</ele>
        <time>2021-02-13T13:24:40.000Z</time>
      </trkpt>
      <trkpt lat="47.09837" lon="-1.48211">
        <ele>69</ele>
        <time>2021-02-13T13:24:42.000Z</time>
      </trkpt>
      <trkpt lat="47.09837" lon="-1.48194">
        <ele>69</ele>
        <time>2021-02-13T13:24:44.000Z</time>
      </trkpt>
      <trkpt lat="47.09837" lon="-1.48177">
        <ele>69</ele>
        <time>2021-02-13T13:24:46.000Z</time>
      </trkpt>
      <trkpt lat="47.09838" lon="-1.48161">
        <ele>68</ele>
        <time>2021-02-13T13:24:48.000Z</time>
      </trkpt>
      <trkpt lat="47.09839" lon="-1.48144">
        <ele>69</ele>
        <time>2021-02-13T13:24:50.000Z</time>
      </trkpt>
      <trkpt lat="47.0984" lon="-1.48128">
        <ele>68</ele>
        <time>2021-02-13T13:24:52.000Z</time>
      </trkpt>
      <trkpt lat="47.0984" lon="-1.48111">
        <ele>68</ele>
        <time>2021-02-13T13:24:54.000Z</time>
      </trkpt>
      <trkpt lat="47.0984" lon="-1.48095">
        <ele>68</ele>
        <time>2021-02-13T13:24:56.000Z</time>
      </trkpt>
      <trkpt lat="47.09839" lon="-1.48079">
        <ele>68</ele>
        <time>2021-02-13T13:24:58.000Z</time>
      </trkpt>
      <trkpt lat="47.09837" lon="-1.48063">
        <ele>68</ele>
        <time>2021-02-13T13:25:00.000Z</time>
      </trkpt>
      <trkpt lat="47.09836" lon="-1.48047">
        <ele>68</ele>
        <time>2021-02-13T13:25:02.000Z</time>
      </trkpt>
      <trkpt lat="47.09834" lon="-1.48031">
        <ele>69</ele>
        <time>2021-02-13T13:25:04.000Z</time>
      </trkpt>
      <trkpt lat="47.09833" lon="-1.48014">
        <ele>69</ele>
        <time>2021-02-13T13:25:06.000Z</time>
      </trkpt>
      <trkpt lat="47.09831" lon="-1.47997">
        <ele>70</ele>
        <time>2021-02-13T13:25:08.000Z</time>
      </trkpt>
      <trkpt lat="47.0983" lon="-1.47981">
        <ele>70</ele>
        <time>2021-02-13T13:25:10.000Z</time>
      </trkpt>
      <trkpt lat="47.09829" lon="-1.47964">
        <ele>70</ele>
        <time>2021-02-13T13:25:12.000Z</time>
      </trkpt>
      <trkpt lat="47.09828" lon="-1.47948">
        <ele>70</ele>
        <time>2021-02-13T13:25:14.000Z</time>
      </trkpt>
      <trkpt lat="47.09826" lon="-1.47931">
        <ele>71</ele>
        <time>2021-02-13T13:25:16.000Z</time>
      </trkpt>
      <trkpt lat="47.09825" lon="-1.47914">
        <ele>71</ele>
        <time>2021-02-13T13:25:18.000Z</time>
      </trkpt>
      <trkpt lat="47.09824" lon="-1.47898">
        <ele>70</ele>
        <time>2021-02-13T13:25:20.000Z</time>
      </trkpt>
      <trkpt lat="47.09823" lon="-1.47883">
        <ele>71</ele>
        <time>2021-02-13T13:25:22.000Z</time>
      </trkpt>
      <trkpt lat="47.09822" lon="-1.47869">
        <ele>71</ele>
        <time>2021-02-13T13:25:24.000Z</time>
      </trkpt>
      <trkpt lat="47.09821" lon="-1.47854">
        <ele>71</ele>
        <time>2021-02-13T13:25:26.000Z</time>
      </trkpt>
      <trkpt lat="47.0982" lon="-1.4784">
        <ele>72</ele>
        <time>2021-02-13T13:25:28.000Z</time>
      </trkpt>
      <trkpt lat="47.09819" lon="-1.47825">
        <ele>72</ele>
        <time>2021-02-13T13:25:30.000Z</time>
      </trkpt>
      <trkpt lat="47.09818" lon="-1.47811">
        <ele>73</ele>
        <time>2021-02-13T13:25:32.000Z</time>
      </trkpt>
      <trkpt lat="47.09817" lon="-1.47797">
        <ele>73</ele>
        <time>2021-02-13T13:25:34.000Z</time>
      </trkpt>
      <trkpt lat="47.09816" lon="-1.47782">
        <ele>73</ele>
        <time>2021-02-13T13:25:36.000Z</time>
      </trkpt>
      <trkpt lat="47.09815" lon="-1.47767">
        <ele>72</ele>
        <time>2021-02-13T13:25:38.000Z</time>
      </trkpt>
      <trkpt lat="47.09814" lon="-1.47753">
        <ele>72</ele>
        <time>2021-02-13T13:25:40.000Z</time>
      </trkpt>
      <trkpt lat="47.09813" lon="-1.47739">
        <ele>73</ele>
        <time>2021-02-13T13:25:42.000Z</time>
      </trkpt>
      <trkpt lat="47.09813" lon="-1.47725">
        <ele>73</ele>
        <time>2021-02-13T13:25:44.000Z</time>
      </trkpt>
      <trkpt lat="47.09813" lon="-1.47709">
        <ele>73</ele>
        <time>2021-02-13T13:25:46.000Z</time>
      </trkpt>
      <trkpt lat="47.09814" lon="-1.47694">
        <ele>73</ele>
        <time>2021-02-13T13:25:48.000Z</time>
      </trkpt>
      <trkpt lat="47.09815" lon="-1.4768">
        <ele>73</ele>
        <time>2021-02-13T13:25:50.000Z</time>
      </trkpt>
      <trkpt lat="47.09816" lon="-1.47664">
        <ele>73</ele>
        <time>2021-02-13T13:25:52.000Z</time>
      </trkpt>
      <trkpt lat="47.09818" lon="-1.4765">
        <ele>73</ele>
        <time>2021-02-13T13:25:54.000Z</time>
      </trkpt>
      <trkpt lat="47.0982" lon="-1.47637">
        <ele>73</ele>
        <time>2021-02-13T13:25:56.000Z</time>
      </trkpt>
      <trkpt lat="47.09823" lon="-1.47623">
        <ele>73</ele>
        <time>2021-02-13T13:25:58.000Z</time>
      </trkpt>
      <trkpt lat="47.09826" lon="-1.4761">
        <ele>74</ele>
        <time>2021-02-13T13:26:00.000Z</time>
      </trkpt>
      <trkpt lat="47.09831" lon="-1.47591">
        <ele>74</ele>
        <time>2021-02-13T13:26:03.000Z</time>
      </trkpt>
      <trkpt lat="47.09834" lon="-1.47579">
        <ele>74</ele>
        <time>2021-02-13T13:26:05.000Z</time>
      </trkpt>
      <trkpt lat="47.0984" lon="-1.47562">
        <ele>75</ele>
        <time>2021-02-13T13:26:08.000Z</time>
      </trkpt>
      <trkpt lat="47.09846" lon="-1.47545">
        <ele>76</ele>
        <time>2021-02-13T13:26:11.000Z</time>
      </trkpt>
      <trkpt lat="47.09853" lon="-1.47529">
        <ele>77</ele>
        <time>2021-02-13T13:26:14.000Z</time>
      </trkpt>
      <trkpt lat="47.0986" lon="-1.47515">
        <ele>78</ele>
        <time>2021-02-13T13:26:17.000Z</time>
      </trkpt>
      <trkpt lat="47.09868" lon="-1.475">
        <ele>78</ele>
        <time>2021-02-13T13:26:20.000Z</time>
      </trkpt>
      <trkpt lat="47.09875" lon="-1.47486">
        <ele>79</ele>
        <time>2021-02-13T13:26:23.000Z</time>
      </trkpt>
      <trkpt lat="47.09882" lon="-1.47471">
        <ele>80</ele>
        <time>2021-02-13T13:26:26.000Z</time>
      </trkpt>
      <trkpt lat="47.09889" lon="-1.47457">
        <ele>80</ele>
        <time>2021-02-13T13:26:29.000Z</time>
      </trkpt>
      <trkpt lat="47.09897" lon="-1.47442">
        <ele>81</ele>
        <time>2021-02-13T13:26:32.000Z</time>
      </trkpt>
      <trkpt lat="47.09905" lon="-1.47428">
        <ele>81</ele>
        <time>2021-02-13T13:26:35.000Z</time>
      </trkpt>
      <trkpt lat="47.09913" lon="-1.47414">
        <ele>82</ele>
        <time>2021-02-13T13:26:38.000Z</time>
      </trkpt>
      <trkpt lat="47.09921" lon="-1.47399">
        <ele>82</ele>
        <time>2021-02-13T13:26:41.000Z</time>
      </trkpt>
      <trkpt lat="47.09929" lon="-1.47384">
        <ele>83</ele>
        <time>2021-02-13T13:26:44.000Z</time>
      </trkpt>
      <trkpt lat="47.09937" lon="-1.47369">
        <ele>83</ele>
        <time>2021-02-13T13:26:47.000Z</time>
      </trkpt>
      <trkpt lat="47.09943" lon="-1.47359">
        <ele>83</ele>
        <time>2021-02-13T13:26:49.000Z</time>
      </trkpt>
      <trkpt lat="47.09951" lon="-1.47344">
        <ele>84</ele>
        <time>2021-02-13T13:26:52.000Z</time>
      </trkpt>
      <trkpt lat="47.09957" lon="-1.47333">
        <ele>83</ele>
        <time>2021-02-13T13:26:54.000Z</time>
      </trkpt>
      <trkpt lat="47.09966" lon="-1.47318">
        <ele>84</ele>
        <time>2021-02-13T13:26:57.000Z</time>
      </trkpt>
      <trkpt lat="47.09974" lon="-1.47303">
        <ele>84</ele>
        <time>2021-02-13T13:27:00.000Z</time>
      </trkpt>
      <trkpt lat="47.09982" lon="-1.47289">
        <ele>85</ele>
        <time>2021-02-13T13:27:03.000Z</time>
      </trkpt>
      <trkpt lat="47.09987" lon="-1.47278">
        <ele>85</ele>
        <time>2021-02-13T13:27:05.000Z</time>
      </trkpt>
      <trkpt lat="47.09996" lon="-1.47263">
        <ele>85</ele>
        <time>2021-02-13T13:27:08.000Z</time>
      </trkpt>
      <trkpt lat="47.10002" lon="-1.47253">
        <ele>85</ele>
        <time>2021-02-13T13:27:10.000Z</time>
      </trkpt>
      <trkpt lat="47.10007" lon="-1.47241">
        <ele>85</ele>
        <time>2021-02-13T13:27:12.000Z</time>
      </trkpt>
      <trkpt lat="47.10013" lon="-1.47229">
        <ele>85</ele>
        <time>2021-02-13T13:27:14.000Z</time>
      </trkpt>
      <trkpt lat="47.1002" lon="-1.47218">
        <ele>84</ele>
        <time>2021-02-13T13:27:16.000Z</time>
      </trkpt>
      <trkpt lat="47.10025" lon="-1.47205">
        <ele>84</ele>
        <time>2021-02-13T13:27:18.000Z</time>
      </trkpt>
      <trkpt lat="47.10031" lon="-1.47193">
        <ele>84</ele>
        <time>2021-02-13T13:27:20.000Z</time>
      </trkpt>
      <trkpt lat="47.10038" lon="-1.47181">
        <ele>84</ele>
        <time>2021-02-13T13:27:22.000Z</time>
      </trkpt>
      <trkpt lat="47.10044" lon="-1.47168">
        <ele>84</ele>
        <time>2021-02-13T13:27:24.000Z</time>
      </trkpt>
      <trkpt lat="47.10051" lon="-1.47154">
        <ele>83</ele>
        <time>2021-02-13T13:27:26.000Z</time>
      </trkpt>
      <trkpt lat="47.10058" lon="-1.4714">
        <ele>83</ele>
        <time>2021-02-13T13:27:28.000Z</time>
      </trkpt>
      <trkpt lat="47.10064" lon="-1.47124">
        <ele>83</ele>
        <time>2021-02-13T13:27:30.000Z</time>
      </trkpt>
      <trkpt lat="47.1007" lon="-1.47107">
        <ele>83</ele>
        <time>2021-02-13T13:27:32.000Z</time>
      </trkpt>
      <trkpt lat="47.10076" lon="-1.4709">
        <ele>82</ele>
        <time>2021-02-13T13:27:34.000Z</time>
      </trkpt>
      <trkpt lat="47.10081" lon="-1.47073">
        <ele>82</ele>
        <time>2021-02-13T13:27:36.000Z</time>
      </trkpt>
      <trkpt lat="47.10086" lon="-1.47056">
        <ele>82</ele>
        <time>2021-02-13T13:27:38.000Z</time>
      </trkpt>
      <trkpt lat="47.10091" lon="-1.4704">
        <ele>82</ele>
        <time>2021-02-13T13:27:40.000Z</time>
      </trkpt>
      <trkpt lat="47.10096" lon="-1.47024">
        <ele>81</ele>
        <time>2021-02-13T13:27:42.000Z</time>
      </trkpt>
      <trkpt lat="47.101" lon="-1.47008">
        <ele>81</ele>
        <time>2021-02-13T13:27:44.000Z</time>
      </trkpt>
      <trkpt lat="47.10103" lon="-1.46993">
        <ele>81</ele>
        <time>2021-02-13T13:27:46.000Z</time>
      </trkpt>
      <trkpt lat="47.10107" lon="-1.46979">
        <ele>82</ele>
        <time>2021-02-13T13:27:48.000Z</time>
      </trkpt>
      <trkpt lat="47.10111" lon="-1.46965">
        <ele>82</ele>
        <time>2021-02-13T13:27:50.000Z</time>
      </trkpt>
      <trkpt lat="47.10115" lon="-1.46951">
        <ele>82</ele>
        <time>2021-02-13T13:27:52.000Z</time>
      </trkpt>
      <trkpt lat="47.1012" lon="-1.46931">
        <ele>83</ele>
        <time>2021-02-13T13:27:55.000Z</time>
      </trkpt>
      <trkpt lat="47.10123" lon="-1.46917">
        <ele>83</ele>
        <time>2021-02-13T13:27:57.000Z</time>
      </trkpt>
      <trkpt lat="47.10127" lon="-1.46904">
        <ele>83</ele>
        <time>2021-02-13T13:27:59.000Z</time>
      </trkpt>
      <trkpt lat="47.10131" lon="-1.4689">
        <ele>84</ele>
        <time>2021-02-13T13:28:01.000Z</time>
      </trkpt>
      <trkpt lat="47.10134" lon="-1.46876">
        <ele>84</ele>
        <time>2021-02-13T13:28:03.000Z</time>
      </trkpt>
      <trkpt lat="47.10137" lon="-1.46863">
        <ele>84</ele>
        <time>2021-02-13T13:28:05.000Z</time>
      </trkpt>
      <trkpt lat="47.10141" lon="-1.4685">
        <ele>84</ele>
        <time>2021-02-13T13:28:07.000Z</time>
      </trkpt>
      <trkpt lat="47.10144" lon="-1.46836">
        <ele>84</ele>
        <time>2021-02-13T13:28:09.000Z</time>
      </trkpt>
      <trkpt lat="47.10148" lon="-1.46823">
        <ele>85</ele>
        <time>2021-02-13T13:28:11.000Z</time>
      </trkpt>
      <trkpt lat="47.10151" lon="-1.46809">
        <ele>85</ele>
        <time>2021-02-13T13:28:13.000Z</time>
      </trkpt>
      <trkpt lat="47.10154" lon="-1.46796">
        <ele>86</ele>
        <time>2021-02-13T13:28:15.000Z</time>
      </trkpt>
      <trkpt lat="47.10157" lon="-1.46783">
        <ele>86</ele>
        <time>2021-02-13T13:28:17.000Z</time>
      </trkpt>
      <trkpt lat="47.10161" lon="-1.46764">
        <ele>87</ele>
        <time>2021-02-13T13:28:20.000Z</time>
      </trkpt>
      <trkpt lat="47.10163" lon="-1.4675">
        <ele>87</ele>
        <time>2021-02-13T13:28:22.000Z</time>
      </trkpt>
      <trkpt lat="47.10166" lon="-1.46729">
        <ele>88</ele>
        <time>2021-02-13T13:28:25.000Z</time>
      </trkpt>
      <trkpt lat="47.10167" lon="-1.46716">
        <ele>88</ele>
        <time>2021-02-13T13:28:27.000Z</time>
      </trkpt>
      <trkpt lat="47.10169" lon="-1.46702">
        <ele>88</ele>
        <time>2021-02-13T13:28:29.000Z</time>
      </trkpt>
      <trkpt lat="47.10171" lon="-1.46688">
        <ele>88</ele>
        <time>2021-02-13T13:28:31.000Z</time>
      </trkpt>
      <trkpt lat="47.10173" lon="-1.46675">
        <ele>89</ele>
        <time>2021-02-13T13:28:33.000Z</time>
      </trkpt>
      <trkpt lat="47.10175" lon="-1.46654">
        <ele>89</ele>
        <time>2021-02-13T13:28:36.000Z</time>
      </trkpt>
      <trkpt lat="47.10177" lon="-1.46641">
        <ele>90</ele>
        <time>2021-02-13T13:28:38.000Z</time>
      </trkpt>
      <trkpt lat="47.10178" lon="-1.46628">
        <ele>90</ele>
        <time>2021-02-13T13:28:40.000Z</time>
      </trkpt>
      <trkpt lat="47.10183" lon="-1.46603">
        <ele>90</ele>
        <time>2021-02-13T13:28:44.000Z</time>
      </trkpt>
      <trkpt lat="47.10185" lon="-1.46583">
        <ele>91</ele>
        <time>2021-02-13T13:28:47.000Z</time>
      </trkpt>
      <trkpt lat="47.10187" lon="-1.4657">
        <ele>91</ele>
        <time>2021-02-13T13:28:49.000Z</time>
      </trkpt>
      <trkpt lat="47.10188" lon="-1.46557">
        <ele>92</ele>
        <time>2021-02-13T13:28:51.000Z</time>
      </trkpt>
      <trkpt lat="47.10188" lon="-1.46542">
        <ele>92</ele>
        <time>2021-02-13T13:28:53.000Z</time>
      </trkpt>
      <trkpt lat="47.1019" lon="-1.46529">
        <ele>92</ele>
        <time>2021-02-13T13:28:55.000Z</time>
      </trkpt>
      <trkpt lat="47.10191" lon="-1.46515">
        <ele>92</ele>
        <time>2021-02-13T13:28:57.000Z</time>
      </trkpt>
      <trkpt lat="47.10192" lon="-1.46502">
        <ele>92</ele>
        <time>2021-02-13T13:28:59.000Z</time>
      </trkpt>
      <trkpt lat="47.10193" lon="-1.46489">
        <ele>92</ele>
        <time>2021-02-13T13:29:01.000Z</time>
      </trkpt>
      <trkpt lat="47.10194" lon="-1.46469">
        <ele>93</ele>
        <time>2021-02-13T13:29:04.000Z</time>
      </trkpt>
      <trkpt lat="47.10195" lon="-1.46455">
        <ele>93</ele>
        <time>2021-02-13T13:29:06.000Z</time>
      </trkpt>
      <trkpt lat="47.10196" lon="-1.46442">
        <ele>94</ele>
        <time>2021-02-13T13:29:08.000Z</time>
      </trkpt>
      <trkpt lat="47.10197" lon="-1.46423">
        <ele>94</ele>
        <time>2021-02-13T13:29:11.000Z</time>
      </trkpt>
      <trkpt lat="47.10199" lon="-1.46403">
        <ele>95</ele>
        <time>2021-02-13T13:29:14.000Z</time>
      </trkpt>
      <trkpt lat="47.10202" lon="-1.46378">
        <ele>96</ele>
        <time>2021-02-13T13:29:18.000Z</time>
      </trkpt>
      <trkpt lat="47.10205" lon="-1.46366">
        <ele>96</ele>
        <time>2021-02-13T13:29:20.000Z</time>
      </trkpt>
      <trkpt lat="47.10211" lon="-1.46348">
        <ele>97</ele>
        <time>2021-02-13T13:29:23.000Z</time>
      </trkpt>
      <trkpt lat="47.10219" lon="-1.46332">
        <ele>97</ele>
        <time>2021-02-13T13:29:26.000Z</time>
      </trkpt>
      <trkpt lat="47.10228" lon="-1.46317">
        <ele>98</ele>
        <time>2021-02-13T13:29:29.000Z</time>
      </trkpt>
      <trkpt lat="47.10234" lon="-1.46307">
        <ele>97</ele>
        <time>2021-02-13T13:29:31.000Z</time>
      </trkpt>
      <trkpt lat="47.10241" lon="-1.46297">
        <ele>97</ele>
        <time>2021-02-13T13:29:33.000Z</time>
      </trkpt>
      <trkpt lat="47.10248" lon="-1.46287">
        <ele>98</ele>
        <time>2021-02-13T13:29:35.000Z</time>
      </trkpt>
      <trkpt lat="47.10257" lon="-1.46272">
        <ele>97</ele>
        <time>2021-02-13T13:29:38.000Z</time>
      </trkpt>
      <trkpt lat="47.10266" lon="-1.46259">
        <ele>98</ele>
        <time>2021-02-13T13:29:41.000Z</time>
      </trkpt>
      <trkpt lat="47.10275" lon="-1.46243">
        <ele>98</ele>
        <time>2021-02-13T13:29:44.000Z</time>
      </trkpt>
      <trkpt lat="47.10284" lon="-1.46229">
        <ele>98</ele>
        <time>2021-02-13T13:29:47.000Z</time>
      </trkpt>
      <trkpt lat="47.10287" lon="-1.46213">
        <ele>98</ele>
        <time>2021-02-13T13:29:50.000Z</time>
      </trkpt>
      <trkpt lat="47.10279" lon="-1.46198">
        <ele>98</ele>
        <time>2021-02-13T13:29:53.000Z</time>
      </trkpt>
      <trkpt lat="47.10273" lon="-1.46186">
        <ele>99</ele>
        <time>2021-02-13T13:29:55.000Z</time>
      </trkpt>
      <trkpt lat="47.10267" lon="-1.46174">
        <ele>99</ele>
        <time>2021-02-13T13:29:57.000Z</time>
      </trkpt>
      <trkpt lat="47.1026" lon="-1.46163">
        <ele>99</ele>
        <time>2021-02-13T13:29:59.000Z</time>
      </trkpt>
      <trkpt lat="47.10254" lon="-1.46151">
        <ele>100</ele>
        <time>2021-02-13T13:30:01.000Z</time>
      </trkpt>
      <trkpt lat="47.10247" lon="-1.4614">
        <ele>99</ele>
        <time>2021-02-13T13:30:03.000Z</time>
      </trkpt>
      <trkpt lat="47.1024" lon="-1.46128">
        <ele>100</ele>
        <time>2021-02-13T13:30:05.000Z</time>
      </trkpt>
      <trkpt lat="47.10234" lon="-1.46117">
        <ele>100</ele>
        <time>2021-02-13T13:30:07.000Z</time>
      </trkpt>
      <trkpt lat="47.10227" lon="-1.46105">
        <ele>100</ele>
        <time>2021-02-13T13:30:09.000Z</time>
      </trkpt>
      <trkpt lat="47.10217" lon="-1.46087">
        <ele>100</ele>
        <time>2021-02-13T13:30:12.000Z</time>
      </trkpt>
      <trkpt lat="47.1021" lon="-1.46074">
        <ele>100</ele>
        <time>2021-02-13T13:30:14.000Z</time>
      </trkpt>
      <trkpt lat="47.10202" lon="-1.46061">
        <ele>100</ele>
        <time>2021-02-13T13:30:16.000Z</time>
      </trkpt>
      <trkpt lat="47.10195" lon="-1.46049">
        <ele>100</ele>
        <time>2021-02-13T13:30:18.000Z</time>
      </trkpt>
      <trkpt lat="47.10188" lon="-1.46037">
        <ele>99</ele>
        <time>2021-02-13T13:30:20.000Z</time>
      </trkpt>
      <trkpt lat="47.10181" lon="-1.46024">
        <ele>100</ele>
        <time>2021-02-13T13:30:22.000Z</time>
      </trkpt>
      <trkpt lat="47.10174" lon="-1.4601">
        <ele>100</ele>
        <time>2021-02-13T13:30:24.000Z</time>
      </trkpt>
      <trkpt lat="47.10167" lon="-1.45996">
        <ele>101</ele>
        <time>2021-02-13T13:30:26.000Z</time>
      </trkpt>
      <trkpt lat="47.10159" lon="-1.45982">
        <ele>102</ele>
        <time>2021-02-13T13:30:28.000Z</time>
      </trkpt>
      <trkpt lat="47.10152" lon="-1.45968">
        <ele>102</ele>
        <time>2021-02-13T13:30:30.000Z</time>
      </trkpt>
      <trkpt lat="47.10144" lon="-1.45955">
        <ele>103</ele>
        <time>2021-02-13T13:30:32.000Z</time>
      </trkpt>
      <trkpt lat="47.10137" lon="-1.45941">
        <ele>102</ele>
        <time>2021-02-13T13:30:34.000Z</time>
      </trkpt>
      <trkpt lat="47.1013" lon="-1.45927">
        <ele>102</ele>
        <time>2021-02-13T13:30:36.000Z</time>
      </trkpt>
      <trkpt lat="47.10122" lon="-1.45913">
        <ele>102</ele>
        <time>2021-02-13T13:30:38.000Z</time>
      </trkpt>
      <trkpt lat="47.10115" lon="-1.459">
        <ele>102</ele>
        <time>2021-02-13T13:30:40.000Z</time>
      </trkpt>
      <trkpt lat="47.10107" lon="-1.45885">
        <ele>102</ele>
        <time>2021-02-13T13:30:42.000Z</time>
      </trkpt>
      <trkpt lat="47.10099" lon="-1.45872">
        <ele>102</ele>
        <time>2021-02-13T13:30:44.000Z</time>
      </trkpt>
      <trkpt lat="47.10091" lon="-1.45857">
        <ele>102</ele>
        <time>2021-02-13T13:30:46.000Z</time>
      </trkpt>
      <trkpt lat="47.10084" lon="-1.45842">
        <ele>102</ele>
        <time>2021-02-13T13:30:48.000Z</time>
      </trkpt>
      <trkpt lat="47.10076" lon="-1.45828">
        <ele>101</ele>
        <time>2021-02-13T13:30:50.000Z</time>
      </trkpt>
      <trkpt lat="47.10064" lon="-1.45806">
        <ele>102</ele>
        <time>2021-02-13T13:30:53.000Z</time>
      </trkpt>
      <trkpt lat="47.10057" lon="-1.45791">
        <ele>101</ele>
        <time>2021-02-13T13:30:55.000Z</time>
      </trkpt>
      <trkpt lat="47.10049" lon="-1.45777">
        <ele>101</ele>
        <time>2021-02-13T13:30:57.000Z</time>
      </trkpt>
      <trkpt lat="47.10042" lon="-1.45762">
        <ele>101</ele>
        <time>2021-02-13T13:30:59.000Z</time>
      </trkpt>
      <trkpt lat="47.10034" lon="-1.45747">
        <ele>101</ele>
        <time>2021-02-13T13:31:01.000Z</time>
      </trkpt>
      <trkpt lat="47.10026" lon="-1.45732">
        <ele>100</ele>
        <time>2021-02-13T13:31:03.000Z</time>
      </trkpt>
      <trkpt lat="47.10018" lon="-1.45717">
        <ele>100</ele>
        <time>2021-02-13T13:31:05.000Z</time>
      </trkpt>
      <trkpt lat="47.10011" lon="-1.45701">
        <ele>100</ele>
        <time>2021-02-13T13:31:07.000Z</time>
      </trkpt>
      <trkpt lat="47.10003" lon="-1.45687">
        <ele>101</ele>
        <time>2021-02-13T13:31:09.000Z</time>
      </trkpt>
      <trkpt lat="47.09995" lon="-1.45672">
        <ele>101</ele>
        <time>2021-02-13T13:31:11.000Z</time>
      </trkpt>
      <trkpt lat="47.09987" lon="-1.45657">
        <ele>101</ele>
        <time>2021-02-13T13:31:13.000Z</time>
      </trkpt>
      <trkpt lat="47.09979" lon="-1.45643">
        <ele>101</ele>
        <time>2021-02-13T13:31:15.000Z</time>
      </trkpt>
      <trkpt lat="47.09972" lon="-1.45627">
        <ele>102</ele>
        <time>2021-02-13T13:31:17.000Z</time>
      </trkpt>
      <trkpt lat="47.09964" lon="-1.45613">
        <ele>102</ele>
        <time>2021-02-13T13:31:19.000Z</time>
      </trkpt>
      <trkpt lat="47.09954" lon="-1.4559">
        <ele>102</ele>
        <time>2021-02-13T13:31:22.000Z</time>
      </trkpt>
      <trkpt lat="47.09946" lon="-1.45575">
        <ele>101</ele>
        <time>2021-02-13T13:31:24.000Z</time>
      </trkpt>
      <trkpt lat="47.09939" lon="-1.4556">
        <ele>101</ele>
        <time>2021-02-13T13:31:26.000Z</time>
      </trkpt>
      <trkpt lat="47.09931" lon="-1.45545">
        <ele>101</ele>
        <time>2021-02-13T13:31:28.000Z</time>
      </trkpt>
      <trkpt lat="47.09924" lon="-1.4553">
        <ele>101</ele>
        <time>2021-02-13T13:31:30.000Z</time>
      </trkpt>
      <trkpt lat="47.09917" lon="-1.45515">
        <ele>101</ele>
        <time>2021-02-13T13:31:32.000Z</time>
      </trkpt>
      <trkpt lat="47.0991" lon="-1.45499">
        <ele>101</ele>
        <time>2021-02-13T13:31:34.000Z</time>
      </trkpt>
      <trkpt lat="47.09903" lon="-1.45483">
        <ele>100</ele>
        <time>2021-02-13T13:31:36.000Z</time>
      </trkpt>
      <trkpt lat="47.09893" lon="-1.45459">
        <ele>100</ele>
        <time>2021-02-13T13:31:39.000Z</time>
      </trkpt>
      <trkpt lat="47.09886" lon="-1.45443">
        <ele>99</ele>
        <time>2021-02-13T13:31:41.000Z</time>
      </trkpt>
      <trkpt lat="47.09879" lon="-1.45428">
        <ele>99</ele>
        <time>2021-02-13T13:31:43.000Z</time>
      </trkpt>
      <trkpt lat="47.09872" lon="-1.45413">
        <ele>99</ele>
        <time>2021-02-13T13:31:45.000Z</time>
      </trkpt>
      <trkpt lat="47.09865" lon="-1.45398">
        <ele>99</ele>
        <time>2021-02-13T13:31:47.000Z</time>
      </trkpt>
      <trkpt lat="47.09859" lon="-1.45383">
        <ele>99</ele>
        <time>2021-02-13T13:31:49.000Z</time>
      </trkpt>
      <trkpt lat="47.09852" lon="-1.45368">
        <ele>99</ele>
        <time>2021-02-13T13:31:51.000Z</time>
      </trkpt>
      <trkpt lat="47.09845" lon="-1.45352">
        <ele>99</ele>
        <time>2021-02-13T13:31:53.000Z</time>
      </trkpt>
      <trkpt lat="47.09838" lon="-1.45336">
        <ele>99</ele>
        <time>2021-02-13T13:31:55.000Z</time>
      </trkpt>
      <trkpt lat="47.09832" lon="-1.45321">
        <ele>98</ele>
        <time>2021-02-13T13:31:57.000Z</time>
      </trkpt>
      <trkpt lat="47.09825" lon="-1.45306">
        <ele>98</ele>
        <time>2021-02-13T13:31:59.000Z</time>
      </trkpt>
      <trkpt lat="47.09818" lon="-1.4529">
        <ele>98</ele>
        <time>2021-02-13T13:32:01.000Z</time>
      </trkpt>
      <trkpt lat="47.09812" lon="-1.45275">
        <ele>98</ele>
        <time>2021-02-13T13:32:03.000Z</time>
      </trkpt>
      <trkpt lat="47.09805" lon="-1.45259">
        <ele>97</ele>
        <time>2021-02-13T13:32:05.000Z</time>
      </trkpt>
      <trkpt lat="47.09798" lon="-1.45245">
        <ele>97</ele>
        <time>2021-02-13T13:32:07.000Z</time>
      </trkpt>
      <trkpt lat="47.09792" lon="-1.4523">
        <ele>97</ele>
        <time>2021-02-13T13:32:09.000Z</time>
      </trkpt>
      <trkpt lat="47.09785" lon="-1.45214">
        <ele>97</ele>
        <time>2021-02-13T13:32:11.000Z</time>
      </trkpt>
      <trkpt lat="47.09778" lon="-1.45199">
        <ele>97</ele>
        <time>2021-02-13T13:32:13.000Z</time>
      </trkpt>
      <trkpt lat="47.09771" lon="-1.45185">
        <ele>97</ele>
        <time>2021-02-13T13:32:15.000Z</time>
      </trkpt>
      <trkpt lat="47.09764" lon="-1.4517">
        <ele>97</ele>
        <time>2021-02-13T13:32:17.000Z</time>
      </trkpt>
      <trkpt lat="47.09757" lon="-1.45155">
        <ele>97</ele>
        <time>2021-02-13T13:32:19.000Z</time>
      </trkpt>
      <trkpt lat="47.0975" lon="-1.4514">
        <ele>97</ele>
        <time>2021-02-13T13:32:21.000Z</time>
      </trkpt>
      <trkpt lat="47.09743" lon="-1.45126">
        <ele>97</ele>
        <time>2021-02-13T13:32:23.000Z</time>
      </trkpt>
      <trkpt lat="47.09736" lon="-1.45111">
        <ele>97</ele>
        <time>2021-02-13T13:32:25.000Z</time>
      </trkpt>
      <trkpt lat="47.09729" lon="-1.45095">
        <ele>97</ele>
        <time>2021-02-13T13:32:27.000Z</time>
      </trkpt>
      <trkpt lat="47.09722" lon="-1.45081">
        <ele>96</ele>
        <time>2021-02-13T13:32:29.000Z</time>
      </trkpt>
      <trkpt lat="47.09715" lon="-1.45067">
        <ele>96</ele>
        <time>2021-02-13T13:32:31.000Z</time>
      </trkpt>
      <trkpt lat="47.09708" lon="-1.45052">
        <ele>96</ele>
        <time>2021-02-13T13:32:33.000Z</time>
      </trkpt>
      <trkpt lat="47.09702" lon="-1.45037">
        <ele>97</ele>
        <time>2021-02-13T13:32:35.000Z</time>
      </trkpt>
      <trkpt lat="47.09695" lon="-1.45023">
        <ele>97</ele>
        <time>2021-02-13T13:32:37.000Z</time>
      </trkpt>
      <trkpt lat="47.09689" lon="-1.4501">
        <ele>97</ele>
        <time>2021-02-13T13:32:39.000Z</time>
      </trkpt>
      <trkpt lat="47.09682" lon="-1.44997">
        <ele>97</ele>
        <time>2021-02-13T13:32:41.000Z</time>
      </trkpt>
      <trkpt lat="47.09674" lon="-1.44985">
        <ele>97</ele>
        <time>2021-02-13T13:32:43.000Z</time>
      </trkpt>
      <trkpt lat="47.09666" lon="-1.44973">
        <ele>97</ele>
        <time>2021-02-13T13:32:45.000Z</time>
      </trkpt>
      <trkpt lat="47.09657" lon="-1.44964">
        <ele>97</ele>
        <time>2021-02-13T13:32:47.000Z</time>
      </trkpt>
      <trkpt lat="47.09646" lon="-1.4496">
        <ele>98</ele>
        <time>2021-02-13T13:32:49.000Z</time>
      </trkpt>
      <trkpt lat="47.09636" lon="-1.44953">
        <ele>98</ele>
        <time>2021-02-13T13:32:51.000Z</time>
      </trkpt>
      <trkpt lat="47.09628" lon="-1.44938">
        <ele>98</ele>
        <time>2021-02-13T13:32:53.000Z</time>
      </trkpt>
      <trkpt lat="47.09627" lon="-1.4492">
        <ele>98</ele>
        <time>2021-02-13T13:32:55.000Z</time>
      </trkpt>
      <trkpt lat="47.09631" lon="-1.44902">
        <ele>97</ele>
        <time>2021-02-13T13:32:57.000Z</time>
      </trkpt>
      <trkpt lat="47.0964" lon="-1.44888">
        <ele>97</ele>
        <time>2021-02-13T13:32:59.000Z</time>
      </trkpt>
      <trkpt lat="47.09652" lon="-1.4488">
        <ele>96</ele>
        <time>2021-02-13T13:33:01.000Z</time>
      </trkpt>
      <trkpt lat="47.09666" lon="-1.44872">
        <ele>95</ele>
        <time>2021-02-13T13:33:03.000Z</time>
      </trkpt>
      <trkpt lat="47.09674" lon="-1.44856">
        <ele>95</ele>
        <time>2021-02-13T13:33:05.000Z</time>
      </trkpt>
      <trkpt lat="47.09681" lon="-1.44839">
        <ele>95</ele>
        <time>2021-02-13T13:33:07.000Z</time>
      </trkpt>
      <trkpt lat="47.09685" lon="-1.44822">
        <ele>95</ele>
        <time>2021-02-13T13:33:09.000Z</time>
      </trkpt>
      <trkpt lat="47.09685" lon="-1.44805">
        <ele>95</ele>
        <time>2021-02-13T13:33:11.000Z</time>
      </trkpt>
      <trkpt lat="47.09683" lon="-1.44789">
        <ele>95</ele>
        <time>2021-02-13T13:33:13.000Z</time>
      </trkpt>
      <trkpt lat="47.09678" lon="-1.44774">
        <ele>96</ele>
        <time>2021-02-13T13:33:15.000Z</time>
      </trkpt>
      <trkpt lat="47.09671" lon="-1.4476">
        <ele>96</ele>
        <time>2021-02-13T13:33:17.000Z</time>
      </trkpt>
      <trkpt lat="47.09663" lon="-1.44747">
        <ele>96</ele>
        <time>2021-02-13T13:33:19.000Z</time>
      </trkpt>
      <trkpt lat="47.09656" lon="-1.44734">
        <ele>96</ele>
        <time>2021-02-13T13:33:21.000Z</time>
      </trkpt>
      <trkpt lat="47.0965" lon="-1.4472">
        <ele>97</ele>
        <time>2021-02-13T13:33:23.000Z</time>
      </trkpt>
      <trkpt lat="47.09646" lon="-1.44705">
        <ele>97</ele>
        <time>2021-02-13T13:33:25.000Z</time>
      </trkpt>
      <trkpt lat="47.09644" lon="-1.44688">
        <ele>97</ele>
        <time>2021-02-13T13:33:27.000Z</time>
      </trkpt>
      <trkpt lat="47.09645" lon="-1.44672">
        <ele>97</ele>
        <time>2021-02-13T13:33:29.000Z</time>
      </trkpt>
      <trkpt lat="47.09647" lon="-1.44657">
        <ele>98</ele>
        <time>2021-02-13T13:33:31.000Z</time>
      </trkpt>
      <trkpt lat="47.09652" lon="-1.44643">
        <ele>98</ele>
        <time>2021-02-13T13:33:33.000Z</time>
      </trkpt>
      <trkpt lat="47.09658" lon="-1.44631">
        <ele>97</ele>
        <time>2021-02-13T13:33:35.000Z</time>
      </trkpt>
      <trkpt lat="47.09665" lon="-1.4462">
        <ele>97</ele>
        <time>2021-02-13T13:33:37.000Z</time>
      </trkpt>
      <trkpt lat="47.09674" lon="-1.4461">
        <ele>97</ele>
        <time>2021-02-13T13:33:39.000Z</time>
      </trkpt>
      <trkpt lat="47.09684" lon="-1.44601">
        <ele>96</ele>
        <time>2021-02-13T13:33:41.000Z</time>
      </trkpt>
      <trkpt lat="47.09695" lon="-1.44593">
        <ele>96</ele>
        <time>2021-02-13T13:33:43.000Z</time>
      </trkpt>
      <trkpt lat="47.09706" lon="-1.44585">
        <ele>96</ele>
        <time>2021-02-13T13:33:45.000Z</time>
      </trkpt>
      <trkpt lat="47.09717" lon="-1.44579">
        <ele>95</ele>
        <time>2021-02-13T13:33:47.000Z</time>
      </trkpt>
      <trkpt lat="47.09729" lon="-1.44572">
        <ele>95</ele>
        <time>2021-02-13T13:33:49.000Z</time>
      </trkpt>
      <trkpt lat="47.09742" lon="-1.44565">
        <ele>94</ele>
        <time>2021-02-13T13:33:51.000Z</time>
      </trkpt>
      <trkpt lat="47.09754" lon="-1.44559">
        <ele>94</ele>
        <time>2021-02-13T13:33:53.000Z</time>
      </trkpt>
      <trkpt lat="47.09767" lon="-1.44554">
        <ele>93</ele>
        <time>2021-02-13T13:33:55.000Z</time>
      </trkpt>
      <trkpt lat="47.0978" lon="-1.44547">
        <ele>93</ele>
        <time>2021-02-13T13:33:57.000Z</time>
      </trkpt>
      <trkpt lat="47.09794" lon="-1.44542">
        <ele>93</ele>
        <time>2021-02-13T13:33:59.000Z</time>
      </trkpt>
      <trkpt lat="47.09807" lon="-1.44537">
        <ele>92</ele>
        <time>2021-02-13T13:34:01.000Z</time>
      </trkpt>
      <trkpt lat="47.09822" lon="-1.44533">
        <ele>91</ele>
        <time>2021-02-13T13:34:03.000Z</time>
      </trkpt>
      <trkpt lat="47.09836" lon="-1.44527">
        <ele>90</ele>
        <time>2021-02-13T13:34:05.000Z</time>
      </trkpt>
      <trkpt lat="47.09851" lon="-1.44521">
        <ele>89</ele>
        <time>2021-02-13T13:34:07.000Z</time>
      </trkpt>
      <trkpt lat="47.09866" lon="-1.44515">
        <ele>89</ele>
        <time>2021-02-13T13:34:09.000Z</time>
      </trkpt>
      <trkpt lat="47.09882" lon="-1.44509">
        <ele>88</ele>
        <time>2021-02-13T13:34:11.000Z</time>
      </trkpt>
      <trkpt lat="47.09898" lon="-1.44504">
        <ele>87</ele>
        <time>2021-02-13T13:34:13.000Z</time>
      </trkpt>
      <trkpt lat="47.09914" lon="-1.44497">
        <ele>86</ele>
        <time>2021-02-13T13:34:15.000Z</time>
      </trkpt>
      <trkpt lat="47.09931" lon="-1.44491">
        <ele>86</ele>
        <time>2021-02-13T13:34:17.000Z</time>
      </trkpt>
      <trkpt lat="47.09948" lon="-1.44484">
        <ele>85</ele>
        <time>2021-02-13T13:34:19.000Z</time>
      </trkpt>
      <trkpt lat="47.09965" lon="-1.44478">
        <ele>84</ele>
        <time>2021-02-13T13:34:21.000Z</time>
      </trkpt>
      <trkpt lat="47.09974" lon="-1.44474">
        <ele>83</ele>
        <time>2021-02-13T13:34:22.000Z</time>
      </trkpt>
      <trkpt lat="47.09983" lon="-1.4447">
        <ele>82</ele>
        <time>2021-02-13T13:34:23.000Z</time>
      </trkpt>
      <trkpt lat="47.09992" lon="-1.44467">
        <ele>82</ele>
        <time>2021-02-13T13:34:24.000Z</time>
      </trkpt>
      <trkpt lat="47.1001" lon="-1.4446">
        <ele>80</ele>
        <time>2021-02-13T13:34:26.000Z</time>
      </trkpt>
      <trkpt lat="47.10019" lon="-1.44457">
        <ele>80</ele>
        <time>2021-02-13T13:34:27.000Z</time>
      </trkpt>
      <trkpt lat="47.10036" lon="-1.4445">
        <ele>80</ele>
        <time>2021-02-13T13:34:29.000Z</time>
      </trkpt>
      <trkpt lat="47.10053" lon="-1.44444">
        <ele>79</ele>
        <time>2021-02-13T13:34:31.000Z</time>
      </trkpt>
      <trkpt lat="47.1007" lon="-1.44437">
        <ele>78</ele>
        <time>2021-02-13T13:34:33.000Z</time>
      </trkpt>
      <trkpt lat="47.10086" lon="-1.44431">
        <ele>78</ele>
        <time>2021-02-13T13:34:35.000Z</time>
      </trkpt>
      <trkpt lat="47.10102" lon="-1.44425">
        <ele>77</ele>
        <time>2021-02-13T13:34:37.000Z</time>
      </trkpt>
      <trkpt lat="47.10118" lon="-1.44418">
        <ele>76</ele>
        <time>2021-02-13T13:34:39.000Z</time>
      </trkpt>
      <trkpt lat="47.10132" lon="-1.44407">
        <ele>75</ele>
        <time>2021-02-13T13:34:41.000Z</time>
      </trkpt>
      <trkpt lat="47.10145" lon="-1.44394">
        <ele>75</ele>
        <time>2021-02-13T13:34:43.000Z</time>
      </trkpt>
      <trkpt lat="47.10158" lon="-1.44381">
        <ele>75</ele>
        <time>2021-02-13T13:34:45.000Z</time>
      </trkpt>
      <trkpt lat="47.1017" lon="-1.44367">
        <ele>75</ele>
        <time>2021-02-13T13:34:47.000Z</time>
      </trkpt>
      <trkpt lat="47.10182" lon="-1.44353">
        <ele>75</ele>
        <time>2021-02-13T13:34:49.000Z</time>
      </trkpt>
      <trkpt lat="47.10193" lon="-1.4434">
        <ele>75</ele>
        <time>2021-02-13T13:34:51.000Z</time>
      </trkpt>
      <trkpt lat="47.10203" lon="-1.44326">
        <ele>75</ele>
        <time>2021-02-13T13:34:53.000Z</time>
      </trkpt>
      <trkpt lat="47.10214" lon="-1.44313">
        <ele>75</ele>
        <time>2021-02-13T13:34:55.000Z</time>
      </trkpt>
      <trkpt lat="47.10225" lon="-1.44302">
        <ele>74</ele>
        <time>2021-02-13T13:34:57.000Z</time>
      </trkpt>
      <trkpt lat="47.10235" lon="-1.44289">
        <ele>74</ele>
        <time>2021-02-13T13:34:59.000Z</time>
      </trkpt>
      <trkpt lat="47.10245" lon="-1.44277">
        <ele>74</ele>
        <time>2021-02-13T13:35:01.000Z</time>
      </trkpt>
      <trkpt lat="47.10256" lon="-1.44266">
        <ele>74</ele>
        <time>2021-02-13T13:35:03.000Z</time>
      </trkpt>
      <trkpt lat="47.10267" lon="-1.44254">
        <ele>74</ele>
        <time>2021-02-13T13:35:05.000Z</time>
      </trkpt>
      <trkpt lat="47.10278" lon="-1.44243">
        <ele>74</ele>
        <time>2021-02-13T13:35:07.000Z</time>
      </trkpt>
      <trkpt lat="47.1029" lon="-1.44233">
        <ele>74</ele>
        <time>2021-02-13T13:35:09.000Z</time>
      </trkpt>
      <trkpt lat="47.10303" lon="-1.44225">
        <ele>74</ele>
        <time>2021-02-13T13:35:11.000Z</time>
      </trkpt>
      <trkpt lat="47.10316" lon="-1.44218">
        <ele>74</ele>
        <time>2021-02-13T13:35:13.000Z</time>
      </trkpt>
      <trkpt lat="47.10329" lon="-1.44212">
        <ele>74</ele>
        <time>2021-02-13T13:35:15.000Z</time>
      </trkpt>
      <trkpt lat="47.10342" lon="-1.44206">
        <ele>74</ele>
        <time>2021-02-13T13:35:17.000Z</time>
      </trkpt>
      <trkpt lat="47.10355" lon="-1.442">
        <ele>74</ele>
        <time>2021-02-13T13:35:19.000Z</time>
      </trkpt>
      <trkpt lat="47.10368" lon="-1.44194">
        <ele>74</ele>
        <time>2021-02-13T13:35:21.000Z</time>
      </trkpt>
      <trkpt lat="47.1038" lon="-1.44188">
        <ele>74</ele>
        <time>2021-02-13T13:35:23.000Z</time>
      </trkpt>
      <trkpt lat="47.10392" lon="-1.44183">
        <ele>73</ele>
        <time>2021-02-13T13:35:25.000Z</time>
      </trkpt>
      <trkpt lat="47.10405" lon="-1.44178">
        <ele>73</ele>
        <time>2021-02-13T13:35:27.000Z</time>
      </trkpt>
      <trkpt lat="47.10417" lon="-1.44172">
        <ele>73</ele>
        <time>2021-02-13T13:35:29.000Z</time>
      </trkpt>
      <trkpt lat="47.10429" lon="-1.44167">
        <ele>74</ele>
        <time>2021-02-13T13:35:31.000Z</time>
      </trkpt>
      <trkpt lat="47.10441" lon="-1.44161">
        <ele>74</ele>
        <time>2021-02-13T13:35:33.000Z</time>
      </trkpt>
      <trkpt lat="47.10452" lon="-1.44155">
        <ele>74</ele>
        <time>2021-02-13T13:35:35.000Z</time>
      </trkpt>
      <trkpt lat="47.10464" lon="-1.4415">
        <ele>75</ele>
        <time>2021-02-13T13:35:37.000Z</time>
      </trkpt>
      <trkpt lat="47.10475" lon="-1.44145">
        <ele>75</ele>
        <time>2021-02-13T13:35:39.000Z</time>
      </trkpt>
      <trkpt lat="47.10486" lon="-1.44138">
        <ele>76</ele>
        <time>2021-02-13T13:35:41.000Z</time>
      </trkpt>
      <trkpt lat="47.10496" lon="-1.44132">
        <ele>76</ele>
        <time>2021-02-13T13:35:43.000Z</time>
      </trkpt>
      <trkpt lat="47.10507" lon="-1.44125">
        <ele>76</ele>
        <time>2021-02-13T13:35:45.000Z</time>
      </trkpt>
      <trkpt lat="47.10517" lon="-1.44117">
        <ele>76</ele>
        <time>2021-02-13T13:35:47.000Z</time>
      </trkpt>
      <trkpt lat="47.10527" lon="-1.44109">
        <ele>77</ele>
        <time>2021-02-13T13:35:49.000Z</time>
      </trkpt>
      <trkpt lat="47.10537" lon="-1.441">
        <ele>77</ele>
        <time>2021-02-13T13:35:51.000Z</time>
      </trkpt>
      <trkpt lat="47.10547" lon="-1.44091">
        <ele>78</ele>
        <time>2021-02-13T13:35:53.000Z</time>
      </trkpt>
      <trkpt lat="47.10557" lon="-1.44083">
        <ele>78</ele>
        <time>2021-02-13T13:35:55.000Z</time>
      </trkpt>
      <trkpt lat="47.10566" lon="-1.44073">
        <ele>78</ele>
        <time>2021-02-13T13:35:57.000Z</time>
      </trkpt>
      <trkpt lat="47.10575" lon="-1.44064">
        <ele>78</ele>
        <time>2021-02-13T13:35:59.000Z</time>
      </trkpt>
      <trkpt lat="47.10585" lon="-1.44055">
        <ele>78</ele>
        <time>2021-02-13T13:36:01.000Z</time>
      </trkpt>
      <trkpt lat="47.10595" lon="-1.44047">
        <ele>78</ele>
        <time>2021-02-13T13:36:03.000Z</time>
      </trkpt>
      <trkpt lat="47.10605" lon="-1.44039">
        <ele>78</ele>
        <time>2021-02-13T13:36:05.000Z</time>
      </trkpt>
      <trkpt lat="47.10615" lon="-1.44033">
        <ele>78</ele>
        <time>2021-02-13T13:36:07.000Z</time>
      </trkpt>
      <trkpt lat="47.10626" lon="-1.44026">
        <ele>78</ele>
        <time>2021-02-13T13:36:09.000Z</time>
      </trkpt>
      <trkpt lat="47.10636" lon="-1.4402">
        <ele>79</ele>
        <time>2021-02-13T13:36:11.000Z</time>
      </trkpt>
      <trkpt lat="47.10646" lon="-1.44013">
        <ele>79</ele>
        <time>2021-02-13T13:36:13.000Z</time>
      </trkpt>
      <trkpt lat="47.10656" lon="-1.44007">
        <ele>80</ele>
        <time>2021-02-13T13:36:15.000Z</time>
      </trkpt>
      <trkpt lat="47.10666" lon="-1.44001">
        <ele>80</ele>
        <time>2021-02-13T13:36:17.000Z</time>
      </trkpt>
      <trkpt lat="47.10676" lon="-1.43996">
        <ele>81</ele>
        <time>2021-02-13T13:36:19.000Z</time>
      </trkpt>
      <trkpt lat="47.10686" lon="-1.43991">
        <ele>81</ele>
        <time>2021-02-13T13:36:21.000Z</time>
      </trkpt>
      <trkpt lat="47.10696" lon="-1.43986">
        <ele>82</ele>
        <time>2021-02-13T13:36:23.000Z</time>
      </trkpt>
      <trkpt lat="47.10705" lon="-1.43979">
        <ele>82</ele>
        <time>2021-02-13T13:36:25.000Z</time>
      </trkpt>
      <trkpt lat="47.10715" lon="-1.43971">
        <ele>82</ele>
        <time>2021-02-13T13:36:27.000Z</time>
      </trkpt>
      <trkpt lat="47.10725" lon="-1.43962">
        <ele>83</ele>
        <time>2021-02-13T13:36:29.000Z</time>
      </trkpt>
      <trkpt lat="47.10734" lon="-1.43953">
        <ele>82</ele>
        <time>2021-02-13T13:36:31.000Z</time>
      </trkpt>
      <trkpt lat="47.10743" lon="-1.43943">
        <ele>83</ele>
        <time>2021-02-13T13:36:33.000Z</time>
      </trkpt>
      <trkpt lat="47.10757" lon="-1.43929">
        <ele>82</ele>
        <time>2021-02-13T13:36:36.000Z</time>
      </trkpt>
      <trkpt lat="47.10766" lon="-1.43921">
        <ele>83</ele>
        <time>2021-02-13T13:36:38.000Z</time>
      </trkpt>
      <trkpt lat="47.10776" lon="-1.43913">
        <ele>83</ele>
        <time>2021-02-13T13:36:40.000Z</time>
      </trkpt>
      <trkpt lat="47.10785" lon="-1.43903">
        <ele>83</ele>
        <time>2021-02-13T13:36:42.000Z</time>
      </trkpt>
      <trkpt lat="47.10794" lon="-1.43894">
        <ele>83</ele>
        <time>2021-02-13T13:36:44.000Z</time>
      </trkpt>
      <trkpt lat="47.10804" lon="-1.43887">
        <ele>83</ele>
        <time>2021-02-13T13:36:46.000Z</time>
      </trkpt>
      <trkpt lat="47.10813" lon="-1.4388">
        <ele>83</ele>
        <time>2021-02-13T13:36:48.000Z</time>
      </trkpt>
      <trkpt lat="47.10822" lon="-1.43873">
        <ele>84</ele>
        <time>2021-02-13T13:36:50.000Z</time>
      </trkpt>
      <trkpt lat="47.10831" lon="-1.43866">
        <ele>84</ele>
        <time>2021-02-13T13:36:52.000Z</time>
      </trkpt>
      <trkpt lat="47.10839" lon="-1.43856">
        <ele>84</ele>
        <time>2021-02-13T13:36:54.000Z</time>
      </trkpt>
      <trkpt lat="47.10848" lon="-1.43847">
        <ele>84</ele>
        <time>2021-02-13T13:36:56.000Z</time>
      </trkpt>
      <trkpt lat="47.10857" lon="-1.43839">
        <ele>85</ele>
        <time>2021-02-13T13:36:58.000Z</time>
      </trkpt>
      <trkpt lat="47.10866" lon="-1.4383">
        <ele>85</ele>
        <time>2021-02-13T13:37:00.000Z</time>
      </trkpt>
      <trkpt lat="47.10875" lon="-1.43823">
        <ele>85</ele>
        <time>2021-02-13T13:37:02.000Z</time>
      </trkpt>
      <trkpt lat="47.10884" lon="-1.43815">
        <ele>86</ele>
        <time>2021-02-13T13:37:04.000Z</time>
      </trkpt>
      <trkpt lat="47.10892" lon="-1.43806">
        <ele>86</ele>
        <time>2021-02-13T13:37:06.000Z</time>
      </trkpt>
      <trkpt lat="47.10902" lon="-1.43797">
        <ele>86</ele>
        <time>2021-02-13T13:37:08.000Z</time>
      </trkpt>
      <trkpt lat="47.1091" lon="-1.43787">
        <ele>87</ele>
        <time>2021-02-13T13:37:10.000Z</time>
      </trkpt>
      <trkpt lat="47.10919" lon="-1.43778">
        <ele>87</ele>
        <time>2021-02-13T13:37:12.000Z</time>
      </trkpt>
      <trkpt lat="47.10928" lon="-1.43769">
        <ele>87</ele>
        <time>2021-02-13T13:37:14.000Z</time>
      </trkpt>
      <trkpt lat="47.10937" lon="-1.4376">
        <ele>87</ele>
        <time>2021-02-13T13:37:16.000Z</time>
      </trkpt>
      <trkpt lat="47.10946" lon="-1.43752">
        <ele>88</ele>
        <time>2021-02-13T13:37:18.000Z</time>
      </trkpt>
      <trkpt lat="47.10954" lon="-1.43743">
        <ele>88</ele>
        <time>2021-02-13T13:37:20.000Z</time>
      </trkpt>
      <trkpt lat="47.10963" lon="-1.43735">
        <ele>88</ele>
        <time>2021-02-13T13:37:22.000Z</time>
      </trkpt>
      <trkpt lat="47.10971" lon="-1.43726">
        <ele>89</ele>
        <time>2021-02-13T13:37:24.000Z</time>
      </trkpt>
      <trkpt lat="47.1098" lon="-1.43717">
        <ele>90</ele>
        <time>2021-02-13T13:37:26.000Z</time>
      </trkpt>
      <trkpt lat="47.10988" lon="-1.43708">
        <ele>90</ele>
        <time>2021-02-13T13:37:28.000Z</time>
      </trkpt>
      <trkpt lat="47.10997" lon="-1.43699">
        <ele>89</ele>
        <time>2021-02-13T13:37:30.000Z</time>
      </trkpt>
      <trkpt lat="47.11005" lon="-1.43689">
        <ele>89</ele>
        <time>2021-02-13T13:37:32.000Z</time>
      </trkpt>
      <trkpt lat="47.11014" lon="-1.43677">
        <ele>90</ele>
        <time>2021-02-13T13:37:34.000Z</time>
      </trkpt>
      <trkpt lat="47.11022" lon="-1.43668">
        <ele>91</ele>
        <time>2021-02-13T13:37:36.000Z</time>
      </trkpt>
      <trkpt lat="47.1103" lon="-1.43658">
        <ele>91</ele>
        <time>2021-02-13T13:37:38.000Z</time>
      </trkpt>
      <trkpt lat="47.11038" lon="-1.43647">
        <ele>91</ele>
        <time>2021-02-13T13:37:40.000Z</time>
      </trkpt>
      <trkpt lat="47.11045" lon="-1.43636">
        <ele>91</ele>
        <time>2021-02-13T13:37:42.000Z</time>
      </trkpt>
      <trkpt lat="47.11054" lon="-1.43625">
        <ele>91</ele>
        <time>2021-02-13T13:37:44.000Z</time>
      </trkpt>
      <trkpt lat="47.11062" lon="-1.43616">
        <ele>91</ele>
        <time>2021-02-13T13:37:46.000Z</time>
      </trkpt>
      <trkpt lat="47.11071" lon="-1.43606">
        <ele>91</ele>
        <time>2021-02-13T13:37:48.000Z</time>
      </trkpt>
      <trkpt lat="47.1108" lon="-1.43596">
        <ele>91</ele>
        <time>2021-02-13T13:37:50.000Z</time>
      </trkpt>
      <trkpt lat="47.11089" lon="-1.43589">
        <ele>92</ele>
        <time>2021-02-13T13:37:52.000Z</time>
      </trkpt>
      <trkpt lat="47.11098" lon="-1.4358">
        <ele>92</ele>
        <time>2021-02-13T13:37:54.000Z</time>
      </trkpt>
      <trkpt lat="47.11106" lon="-1.43569">
        <ele>92</ele>
        <time>2021-02-13T13:37:56.000Z</time>
      </trkpt>
      <trkpt lat="47.11113" lon="-1.43557">
        <ele>92</ele>
        <time>2021-02-13T13:37:58.000Z</time>
      </trkpt>
      <trkpt lat="47.11121" lon="-1.43545">
        <ele>93</ele>
        <time>2021-02-13T13:38:00.000Z</time>
      </trkpt>
      <trkpt lat="47.11128" lon="-1.43533">
        <ele>93</ele>
        <time>2021-02-13T13:38:02.000Z</time>
      </trkpt>
      <trkpt lat="47.11136" lon="-1.4352">
        <ele>93</ele>
        <time>2021-02-13T13:38:04.000Z</time>
      </trkpt>
      <trkpt lat="47.11143" lon="-1.43508">
        <ele>93</ele>
        <time>2021-02-13T13:38:06.000Z</time>
      </trkpt>
      <trkpt lat="47.1115" lon="-1.43496">
        <ele>94</ele>
        <time>2021-02-13T13:38:08.000Z</time>
      </trkpt>
      <trkpt lat="47.11157" lon="-1.43484">
        <ele>94</ele>
        <time>2021-02-13T13:38:10.000Z</time>
      </trkpt>
      <trkpt lat="47.11163" lon="-1.43472">
        <ele>94</ele>
        <time>2021-02-13T13:38:12.000Z</time>
      </trkpt>
      <trkpt lat="47.1117" lon="-1.43461">
        <ele>93</ele>
        <time>2021-02-13T13:38:14.000Z</time>
      </trkpt>
      <trkpt lat="47.11177" lon="-1.43449">
        <ele>94</ele>
        <time>2021-02-13T13:38:16.000Z</time>
      </trkpt>
      <trkpt lat="47.11183" lon="-1.43437">
        <ele>94</ele>
        <time>2021-02-13T13:38:18.000Z</time>
      </trkpt>
      <trkpt lat="47.11189" lon="-1.43426">
        <ele>94</ele>
        <time>2021-02-13T13:38:20.000Z</time>
      </trkpt>
      <trkpt lat="47.11196" lon="-1.43414">
        <ele>94</ele>
        <time>2021-02-13T13:38:22.000Z</time>
      </trkpt>
      <trkpt lat="47.11204" lon="-1.43402">
        <ele>94</ele>
        <time>2021-02-13T13:38:24.000Z</time>
      </trkpt>
      <trkpt lat="47.11211" lon="-1.43389">
        <ele>94</ele>
        <time>2021-02-13T13:38:26.000Z</time>
      </trkpt>
      <trkpt lat="47.11218" lon="-1.43377">
        <ele>94</ele>
        <time>2021-02-13T13:38:28.000Z</time>
      </trkpt>
      <trkpt lat="47.11225" lon="-1.43365">
        <ele>94</ele>
        <time>2021-02-13T13:38:30.000Z</time>
      </trkpt>
      <trkpt lat="47.11232" lon="-1.43353">
        <ele>94</ele>
        <time>2021-02-13T13:38:32.000Z</time>
      </trkpt>
      <trkpt lat="47.11239" lon="-1.43341">
        <ele>94</ele>
        <time>2021-02-13T13:38:34.000Z</time>
      </trkpt>
      <trkpt lat="47.11247" lon="-1.43329">
        <ele>93</ele>
        <time>2021-02-13T13:38:36.000Z</time>
      </trkpt>
      <trkpt lat="47.11255" lon="-1.43318">
        <ele>93</ele>
        <time>2021-02-13T13:38:38.000Z</time>
      </trkpt>
      <trkpt lat="47.11264" lon="-1.43306">
        <ele>92</ele>
        <time>2021-02-13T13:38:40.000Z</time>
      </trkpt>
      <trkpt lat="47.11273" lon="-1.43295">
        <ele>92</ele>
        <time>2021-02-13T13:38:42.000Z</time>
      </trkpt>
      <trkpt lat="47.11282" lon="-1.43284">
        <ele>91</ele>
        <time>2021-02-13T13:38:44.000Z</time>
      </trkpt>
      <trkpt lat="47.11291" lon="-1.43273">
        <ele>91</ele>
        <time>2021-02-13T13:38:46.000Z</time>
      </trkpt>
      <trkpt lat="47.113" lon="-1.43262">
        <ele>91</ele>
        <time>2021-02-13T13:38:48.000Z</time>
      </trkpt>
      <trkpt lat="47.11309" lon="-1.43251">
        <ele>91</ele>
        <time>2021-02-13T13:38:50.000Z</time>
      </trkpt>
      <trkpt lat="47.11319" lon="-1.4324">
        <ele>91</ele>
        <time>2021-02-13T13:38:52.000Z</time>
      </trkpt>
      <trkpt lat="47.11328" lon="-1.43229">
        <ele>90</ele>
        <time>2021-02-13T13:38:54.000Z</time>
      </trkpt>
      <trkpt lat="47.11338" lon="-1.43217">
        <ele>90</ele>
        <time>2021-02-13T13:38:56.000Z</time>
      </trkpt>
      <trkpt lat="47.11347" lon="-1.43206">
        <ele>90</ele>
        <time>2021-02-13T13:38:58.000Z</time>
      </trkpt>
      <trkpt lat="47.11357" lon="-1.43194">
        <ele>90</ele>
        <time>2021-02-13T13:39:00.000Z</time>
      </trkpt>
      <trkpt lat="47.11367" lon="-1.43182">
        <ele>90</ele>
        <time>2021-02-13T13:39:02.000Z</time>
      </trkpt>
      <trkpt lat="47.11376" lon="-1.4317">
        <ele>90</ele>
        <time>2021-02-13T13:39:04.000Z</time>
      </trkpt>
      <trkpt lat="47.11386" lon="-1.43158">
        <ele>90</ele>
        <time>2021-02-13T13:39:06.000Z</time>
      </trkpt>
      <trkpt lat="47.11395" lon="-1.43146">
        <ele>89</ele>
        <time>2021-02-13T13:39:08.000Z</time>
      </trkpt>
      <trkpt lat="47.11404" lon="-1.43134">
        <ele>89</ele>
        <time>2021-02-13T13:39:10.000Z</time>
      </trkpt>
      <trkpt lat="47.11413" lon="-1.43121">
        <ele>89</ele>
        <time>2021-02-13T13:39:12.000Z</time>
      </trkpt>
      <trkpt lat="47.11423" lon="-1.43109">
        <ele>89</ele>
        <time>2021-02-13T13:39:14.000Z</time>
      </trkpt>
      <trkpt lat="47.11433" lon="-1.43097">
        <ele>88</ele>
        <time>2021-02-13T13:39:16.000Z</time>
      </trkpt>
      <trkpt lat="47.11444" lon="-1.43086">
        <ele>88</ele>
        <time>2021-02-13T13:39:18.000Z</time>
      </trkpt>
      <trkpt lat="47.11455" lon="-1.43077">
        <ele>87</ele>
        <time>2021-02-13T13:39:20.000Z</time>
      </trkpt>
      <trkpt lat="47.11467" lon="-1.43066">
        <ele>87</ele>
        <time>2021-02-13T13:39:22.000Z</time>
      </trkpt>
      <trkpt lat="47.11479" lon="-1.43054">
        <ele>86</ele>
        <time>2021-02-13T13:39:24.000Z</time>
      </trkpt>
      <trkpt lat="47.11491" lon="-1.43043">
        <ele>85</ele>
        <time>2021-02-13T13:39:26.000Z</time>
      </trkpt>
      <trkpt lat="47.11502" lon="-1.43032">
        <ele>85</ele>
        <time>2021-02-13T13:39:28.000Z</time>
      </trkpt>
      <trkpt lat="47.11515" lon="-1.43021">
        <ele>84</ele>
        <time>2021-02-13T13:39:30.000Z</time>
      </trkpt>
      <trkpt lat="47.11527" lon="-1.4301">
        <ele>83</ele>
        <time>2021-02-13T13:39:32.000Z</time>
      </trkpt>
      <trkpt lat="47.11541" lon="-1.42998">
        <ele>83</ele>
        <time>2021-02-13T13:39:34.000Z</time>
      </trkpt>
      <trkpt lat="47.11553" lon="-1.42986">
        <ele>83</ele>
        <time>2021-02-13T13:39:36.000Z</time>
      </trkpt>
      <trkpt lat="47.11565" lon="-1.42974">
        <ele>82</ele>
        <time>2021-02-13T13:39:38.000Z</time>
      </trkpt>
      <trkpt lat="47.11578" lon="-1.42962">
        <ele>81</ele>
        <time>2021-02-13T13:39:40.000Z</time>
      </trkpt>
      <trkpt lat="47.11591" lon="-1.4295">
        <ele>81</ele>
        <time>2021-02-13T13:39:42.000Z</time>
      </trkpt>
      <trkpt lat="47.11604" lon="-1.42937">
        <ele>80</ele>
        <time>2021-02-13T13:39:44.000Z</time>
      </trkpt>
      <trkpt lat="47.11616" lon="-1.42923">
        <ele>79</ele>
        <time>2021-02-13T13:39:46.000Z</time>
      </trkpt>
      <trkpt lat="47.11627" lon="-1.42907">
        <ele>79</ele>
        <time>2021-02-13T13:39:48.000Z</time>
      </trkpt>
      <trkpt lat="47.11635" lon="-1.42889">
        <ele>79</ele>
        <time>2021-02-13T13:39:50.000Z</time>
      </trkpt>
      <trkpt lat="47.11643" lon="-1.4287">
        <ele>79</ele>
        <time>2021-02-13T13:39:52.000Z</time>
      </trkpt>
      <trkpt lat="47.1165" lon="-1.42853">
        <ele>78</ele>
        <time>2021-02-13T13:39:54.000Z</time>
      </trkpt>
      <trkpt lat="47.11657" lon="-1.42837">
        <ele>79</ele>
        <time>2021-02-13T13:39:56.000Z</time>
      </trkpt>
      <trkpt lat="47.11663" lon="-1.4282">
        <ele>79</ele>
        <time>2021-02-13T13:39:58.000Z</time>
      </trkpt>
      <trkpt lat="47.11668" lon="-1.42805">
        <ele>80</ele>
        <time>2021-02-13T13:40:00.000Z</time>
      </trkpt>
      <trkpt lat="47.11672" lon="-1.42792">
        <ele>80</ele>
        <time>2021-02-13T13:40:02.000Z</time>
      </trkpt>
      <trkpt lat="47.11675" lon="-1.42779">
        <ele>80</ele>
        <time>2021-02-13T13:40:04.000Z</time>
      </trkpt>
      <trkpt lat="47.11679" lon="-1.42765">
        <ele>81</ele>
        <time>2021-02-13T13:40:06.000Z</time>
      </trkpt>
      <trkpt lat="47.11681" lon="-1.42752">
        <ele>82</ele>
        <time>2021-02-13T13:40:08.000Z</time>
      </trkpt>
      <trkpt lat="47.11685" lon="-1.42733">
        <ele>84</ele>
        <time>2021-02-13T13:40:11.000Z</time>
      </trkpt>
      <trkpt lat="47.11692" lon="-1.42717">
        <ele>85</ele>
        <time>2021-02-13T13:40:14.000Z</time>
      </trkpt>
      <trkpt lat="47.117" lon="-1.42702">
        <ele>85</ele>
        <time>2021-02-13T13:40:17.000Z</time>
      </trkpt>
      <trkpt lat="47.11708" lon="-1.42694">
        <ele>86</ele>
        <time>2021-02-13T13:40:19.000Z</time>
      </trkpt>
      <trkpt lat="47.11717" lon="-1.42688">
        <ele>86</ele>
        <time>2021-02-13T13:40:21.000Z</time>
      </trkpt>
      <trkpt lat="47.11725" lon="-1.42684">
        <ele>86</ele>
        <time>2021-02-13T13:40:23.000Z</time>
      </trkpt>
      <trkpt lat="47.11733" lon="-1.42679">
        <ele>86</ele>
        <time>2021-02-13T13:40:25.000Z</time>
      </trkpt>
      <trkpt lat="47.11742" lon="-1.42674">
        <ele>86</ele>
        <time>2021-02-13T13:40:27.000Z</time>
      </trkpt>
      <trkpt lat="47.11754" lon="-1.42667">
        <ele>86</ele>
        <time>2021-02-13T13:40:30.000Z</time>
      </trkpt>
      <trkpt lat="47.11766" lon="-1.4266">
        <ele>87</ele>
        <time>2021-02-13T13:40:33.000Z</time>
      </trkpt>
      <trkpt lat="47.11778" lon="-1.42653">
        <ele>88</ele>
        <time>2021-02-13T13:40:36.000Z</time>
      </trkpt>
      <trkpt lat="47.1179" lon="-1.42646">
        <ele>89</ele>
        <time>2021-02-13T13:40:39.000Z</time>
      </trkpt>
      <trkpt lat="47.11801" lon="-1.42639">
        <ele>91</ele>
        <time>2021-02-13T13:40:42.000Z</time>
      </trkpt>
      <trkpt lat="47.11812" lon="-1.42632">
        <ele>92</ele>
        <time>2021-02-13T13:40:45.000Z</time>
      </trkpt>
      <trkpt lat="47.11823" lon="-1.42625">
        <ele>94</ele>
        <time>2021-02-13T13:40:48.000Z</time>
      </trkpt>
      <trkpt lat="47.11834" lon="-1.42617">
        <ele>94</ele>
        <time>2021-02-13T13:40:51.000Z</time>
      </trkpt>
      <trkpt lat="47.11845" lon="-1.42609">
        <ele>94</ele>
        <time>2021-02-13T13:40:54.000Z</time>
      </trkpt>
      <trkpt lat="47.11857" lon="-1.42602">
        <ele>95</ele>
        <time>2021-02-13T13:40:57.000Z</time>
      </trkpt>
      <trkpt lat="47.11868" lon="-1.42592">
        <ele>96</ele>
        <time>2021-02-13T13:41:00.000Z</time>
      </trkpt>
      <trkpt lat="47.11879" lon="-1.42583">
        <ele>97</ele>
        <time>2021-02-13T13:41:03.000Z</time>
      </trkpt>
      <trkpt lat="47.1189" lon="-1.42573">
        <ele>97</ele>
        <time>2021-02-13T13:41:06.000Z</time>
      </trkpt>
      <trkpt lat="47.119" lon="-1.42563">
        <ele>97</ele>
        <time>2021-02-13T13:41:09.000Z</time>
      </trkpt>
      <trkpt lat="47.11911" lon="-1.42552">
        <ele>98</ele>
        <time>2021-02-13T13:41:12.000Z</time>
      </trkpt>
      <trkpt lat="47.11921" lon="-1.42543">
        <ele>99</ele>
        <time>2021-02-13T13:41:15.000Z</time>
      </trkpt>
      <trkpt lat="47.11931" lon="-1.42532">
        <ele>99</ele>
        <time>2021-02-13T13:41:18.000Z</time>
      </trkpt>
      <trkpt lat="47.11942" lon="-1.42521">
        <ele>100</ele>
        <time>2021-02-13T13:41:21.000Z</time>
      </trkpt>
      <trkpt lat="47.11953" lon="-1.42511">
        <ele>100</ele>
        <time>2021-02-13T13:41:24.000Z</time>
      </trkpt>
      <trkpt lat="47.11964" lon="-1.42501">
        <ele>100</ele>
        <time>2021-02-13T13:41:27.000Z</time>
      </trkpt>
      <trkpt lat="47.11974" lon="-1.42491">
        <ele>100</ele>
        <time>2021-02-13T13:41:30.000Z</time>
      </trkpt>
      <trkpt lat="47.11984" lon="-1.4248">
        <ele>101</ele>
        <time>2021-02-13T13:41:33.000Z</time>
      </trkpt>
      <trkpt lat="47.11995" lon="-1.4247">
        <ele>101</ele>
        <time>2021-02-13T13:41:36.000Z</time>
      </trkpt>
      <trkpt lat="47.12003" lon="-1.42462">
        <ele>101</ele>
        <time>2021-02-13T13:41:38.000Z</time>
      </trkpt>
      <trkpt lat="47.12014" lon="-1.42451">
        <ele>102</ele>
        <time>2021-02-13T13:41:41.000Z</time>
      </trkpt>
      <trkpt lat="47.12022" lon="-1.42444">
        <ele>102</ele>
        <time>2021-02-13T13:41:43.000Z</time>
      </trkpt>
      <trkpt lat="47.12033" lon="-1.42433">
        <ele>103</ele>
        <time>2021-02-13T13:41:46.000Z</time>
      </trkpt>
      <trkpt lat="47.12043" lon="-1.42421">
        <ele>103</ele>
        <time>2021-02-13T13:41:49.000Z</time>
      </trkpt>
      <trkpt lat="47.12052" lon="-1.42407">
        <ele>103</ele>
        <time>2021-02-13T13:41:52.000Z</time>
      </trkpt>
      <trkpt lat="47.12058" lon="-1.42396">
        <ele>103</ele>
        <time>2021-02-13T13:41:54.000Z</time>
      </trkpt>
      <trkpt lat="47.12063" lon="-1.42383">
        <ele>103</ele>
        <time>2021-02-13T13:41:56.000Z</time>
      </trkpt>
      <trkpt lat="47.12068" lon="-1.4237">
        <ele>103</ele>
        <time>2021-02-13T13:41:58.000Z</time>
      </trkpt>
      <trkpt lat="47.12072" lon="-1.42355">
        <ele>102</ele>
        <time>2021-02-13T13:42:00.000Z</time>
      </trkpt>
      <trkpt lat="47.12076" lon="-1.4234">
        <ele>103</ele>
        <time>2021-02-13T13:42:02.000Z</time>
      </trkpt>
      <trkpt lat="47.12081" lon="-1.42325">
        <ele>103</ele>
        <time>2021-02-13T13:42:04.000Z</time>
      </trkpt>
      <trkpt lat="47.12086" lon="-1.42309">
        <ele>103</ele>
        <time>2021-02-13T13:42:06.000Z</time>
      </trkpt>
      <trkpt lat="47.1209" lon="-1.42293">
        <ele>103</ele>
        <time>2021-02-13T13:42:08.000Z</time>
      </trkpt>
      <trkpt lat="47.12094" lon="-1.42279">
        <ele>102</ele>
        <time>2021-02-13T13:42:10.000Z</time>
      </trkpt>
      <trkpt lat="47.12099" lon="-1.42264">
        <ele>103</ele>
        <time>2021-02-13T13:42:12.000Z</time>
      </trkpt>
      <trkpt lat="47.12103" lon="-1.42249">
        <ele>102</ele>
        <time>2021-02-13T13:42:14.000Z</time>
      </trkpt>
      <trkpt lat="47.12108" lon="-1.42233">
        <ele>102</ele>
        <time>2021-02-13T13:42:16.000Z</time>
      </trkpt>
      <trkpt lat="47.12113" lon="-1.42218">
        <ele>102</ele>
        <time>2021-02-13T13:42:18.000Z</time>
      </trkpt>
      <trkpt lat="47.12118" lon="-1.42204">
        <ele>103</ele>
        <time>2021-02-13T13:42:20.000Z</time>
      </trkpt>
      <trkpt lat="47.12125" lon="-1.42191">
        <ele>103</ele>
        <time>2021-02-13T13:42:22.000Z</time>
      </trkpt>
      <trkpt lat="47.12133" lon="-1.4218">
        <ele>103</ele>
        <time>2021-02-13T13:42:24.000Z</time>
      </trkpt>
      <trkpt lat="47.12142" lon="-1.4217">
        <ele>102</ele>
        <time>2021-02-13T13:42:26.000Z</time>
      </trkpt>
      <trkpt lat="47.12152" lon="-1.42162">
        <ele>102</ele>
        <time>2021-02-13T13:42:28.000Z</time>
      </trkpt>
      <trkpt lat="47.12162" lon="-1.42156">
        <ele>101</ele>
        <time>2021-02-13T13:42:30.000Z</time>
      </trkpt>
      <trkpt lat="47.12173" lon="-1.4215">
        <ele>101</ele>
        <time>2021-02-13T13:42:32.000Z</time>
      </trkpt>
      <trkpt lat="47.12184" lon="-1.42143">
        <ele>101</ele>
        <time>2021-02-13T13:42:34.000Z</time>
      </trkpt>
      <trkpt lat="47.12195" lon="-1.42137">
        <ele>101</ele>
        <time>2021-02-13T13:42:36.000Z</time>
      </trkpt>
      <trkpt lat="47.12205" lon="-1.42131">
        <ele>101</ele>
        <time>2021-02-13T13:42:38.000Z</time>
      </trkpt>
      <trkpt lat="47.12215" lon="-1.42126">
        <ele>101</ele>
        <time>2021-02-13T13:42:40.000Z</time>
      </trkpt>
      <trkpt lat="47.12225" lon="-1.42118">
        <ele>102</ele>
        <time>2021-02-13T13:42:42.000Z</time>
      </trkpt>
      <trkpt lat="47.12234" lon="-1.4211">
        <ele>101</ele>
        <time>2021-02-13T13:42:44.000Z</time>
      </trkpt>
      <trkpt lat="47.12243" lon="-1.42101">
        <ele>102</ele>
        <time>2021-02-13T13:42:46.000Z</time>
      </trkpt>
      <trkpt lat="47.12253" lon="-1.42093">
        <ele>102</ele>
        <time>2021-02-13T13:42:48.000Z</time>
      </trkpt>
      <trkpt lat="47.12262" lon="-1.42085">
        <ele>102</ele>
        <time>2021-02-13T13:42:50.000Z</time>
      </trkpt>
      <trkpt lat="47.12272" lon="-1.42077">
        <ele>102</ele>
        <time>2021-02-13T13:42:52.000Z</time>
      </trkpt>
      <trkpt lat="47.12282" lon="-1.42069">
        <ele>102</ele>
        <time>2021-02-13T13:42:54.000Z</time>
      </trkpt>
      <trkpt lat="47.12292" lon="-1.42061">
        <ele>102</ele>
        <time>2021-02-13T13:42:56.000Z</time>
      </trkpt>
      <trkpt lat="47.12301" lon="-1.42052">
        <ele>102</ele>
        <time>2021-02-13T13:42:58.000Z</time>
      </trkpt>
      <trkpt lat="47.12311" lon="-1.42044">
        <ele>102</ele>
        <time>2021-02-13T13:43:00.000Z</time>
      </trkpt>
      <trkpt lat="47.1232" lon="-1.42037">
        <ele>102</ele>
        <time>2021-02-13T13:43:02.000Z</time>
      </trkpt>
      <trkpt lat="47.12331" lon="-1.42047">
        <ele>102</ele>
        <time>2021-02-13T13:43:05.000Z</time>
      </trkpt>
      <trkpt lat="47.1234" lon="-1.42062">
        <ele>102</ele>
        <time>2021-02-13T13:43:08.000Z</time>
      </trkpt>
      <trkpt lat="47.12348" lon="-1.42075">
        <ele>101</ele>
        <time>2021-02-13T13:43:10.000Z</time>
      </trkpt>
      <trkpt lat="47.12355" lon="-1.42089">
        <ele>101</ele>
        <time>2021-02-13T13:43:12.000Z</time>
      </trkpt>
      <trkpt lat="47.12363" lon="-1.42102">
        <ele>101</ele>
        <time>2021-02-13T13:43:14.000Z</time>
      </trkpt>
      <trkpt lat="47.1237" lon="-1.42115">
        <ele>101</ele>
        <time>2021-02-13T13:43:16.000Z</time>
      </trkpt>
      <trkpt lat="47.12377" lon="-1.42129">
        <ele>100</ele>
        <time>2021-02-13T13:43:18.000Z</time>
      </trkpt>
      <trkpt lat="47.12383" lon="-1.42144">
        <ele>100</ele>
        <time>2021-02-13T13:43:20.000Z</time>
      </trkpt>
      <trkpt lat="47.12388" lon="-1.4216">
        <ele>101</ele>
        <time>2021-02-13T13:43:22.000Z</time>
      </trkpt>
      <trkpt lat="47.12392" lon="-1.42177">
        <ele>101</ele>
        <time>2021-02-13T13:43:24.000Z</time>
      </trkpt>
      <trkpt lat="47.12395" lon="-1.42193">
        <ele>101</ele>
        <time>2021-02-13T13:43:26.000Z</time>
      </trkpt>
      <trkpt lat="47.12399" lon="-1.42209">
        <ele>101</ele>
        <time>2021-02-13T13:43:28.000Z</time>
      </trkpt>
      <trkpt lat="47.12403" lon="-1.42225">
        <ele>101</ele>
        <time>2021-02-13T13:43:30.000Z</time>
      </trkpt>
      <trkpt lat="47.12408" lon="-1.42242">
        <ele>102</ele>
        <time>2021-02-13T13:43:32.000Z</time>
      </trkpt>
      <trkpt lat="47.12412" lon="-1.42258">
        <ele>103</ele>
        <time>2021-02-13T13:43:34.000Z</time>
      </trkpt>
      <trkpt lat="47.12416" lon="-1.42273">
        <ele>104</ele>
        <time>2021-02-13T13:43:36.000Z</time>
      </trkpt>
      <trkpt lat="47.1242" lon="-1.4229">
        <ele>104</ele>
        <time>2021-02-13T13:43:38.000Z</time>
      </trkpt>
      <trkpt lat="47.12423" lon="-1.42307">
        <ele>104</ele>
        <time>2021-02-13T13:43:40.000Z</time>
      </trkpt>
      <trkpt lat="47.12427" lon="-1.42324">
        <ele>104</ele>
        <time>2021-02-13T13:43:42.000Z</time>
      </trkpt>
      <trkpt lat="47.12429" lon="-1.42341">
        <ele>105</ele>
        <time>2021-02-13T13:43:44.000Z</time>
      </trkpt>
      <trkpt lat="47.12433" lon="-1.42357">
        <ele>105</ele>
        <time>2021-02-13T13:43:46.000Z</time>
      </trkpt>
      <trkpt lat="47.12437" lon="-1.42372">
        <ele>105</ele>
        <time>2021-02-13T13:43:48.000Z</time>
      </trkpt>
      <trkpt lat="47.12442" lon="-1.42387">
        <ele>106</ele>
        <time>2021-02-13T13:43:50.000Z</time>
      </trkpt>
      <trkpt lat="47.12443" lon="-1.42406">
        <ele>105</ele>
        <time>2021-02-13T13:43:52.000Z</time>
      </trkpt>
      <trkpt lat="47.12443" lon="-1.42424">
        <ele>105</ele>
        <time>2021-02-13T13:43:54.000Z</time>
      </trkpt>
      <trkpt lat="47.12445" lon="-1.42442">
        <ele>104</ele>
        <time>2021-02-13T13:43:56.000Z</time>
      </trkpt>
      <trkpt lat="47.12448" lon="-1.42459">
        <ele>105</ele>
        <time>2021-02-13T13:43:58.000Z</time>
      </trkpt>
      <trkpt lat="47.12451" lon="-1.42477">
        <ele>105</ele>
        <time>2021-02-13T13:44:00.000Z</time>
      </trkpt>
      <trkpt lat="47.12452" lon="-1.42495">
        <ele>105</ele>
        <time>2021-02-13T13:44:02.000Z</time>
      </trkpt>
      <trkpt lat="47.12452" lon="-1.42513">
        <ele>105</ele>
        <time>2021-02-13T13:44:04.000Z</time>
      </trkpt>
      <trkpt lat="47.12453" lon="-1.42532">
        <ele>105</ele>
        <time>2021-02-13T13:44:06.000Z</time>
      </trkpt>
      <trkpt lat="47.12454" lon="-1.42551">
        <ele>106</ele>
        <time>2021-02-13T13:44:08.000Z</time>
      </trkpt>
      <trkpt lat="47.12454" lon="-1.4257">
        <ele>106</ele>
        <time>2021-02-13T13:44:10.000Z</time>
      </trkpt>
      <trkpt lat="47.12456" lon="-1.42588">
        <ele>106</ele>
        <time>2021-02-13T13:44:12.000Z</time>
      </trkpt>
      <trkpt lat="47.12456" lon="-1.42607">
        <ele>106</ele>
        <time>2021-02-13T13:44:14.000Z</time>
      </trkpt>
      <trkpt lat="47.12456" lon="-1.42626">
        <ele>106</ele>
        <time>2021-02-13T13:44:16.000Z</time>
      </trkpt>
      <trkpt lat="47.12455" lon="-1.42645">
        <ele>106</ele>
        <time>2021-02-13T13:44:18.000Z</time>
      </trkpt>
      <trkpt lat="47.12454" lon="-1.42663">
        <ele>106</ele>
        <time>2021-02-13T13:44:20.000Z</time>
      </trkpt>
      <trkpt lat="47.12453" lon="-1.42681">
        <ele>106</ele>
        <time>2021-02-13T13:44:22.000Z</time>
      </trkpt>
      <trkpt lat="47.12451" lon="-1.427">
        <ele>106</ele>
        <time>2021-02-13T13:44:24.000Z</time>
      </trkpt>
      <trkpt lat="47.12452" lon="-1.42718">
        <ele>105</ele>
        <time>2021-02-13T13:44:26.000Z</time>
      </trkpt>
      <trkpt lat="47.12455" lon="-1.42737">
        <ele>106</ele>
        <time>2021-02-13T13:44:28.000Z</time>
      </trkpt>
      <trkpt lat="47.1246" lon="-1.42754">
        <ele>106</ele>
        <time>2021-02-13T13:44:30.000Z</time>
      </trkpt>
      <trkpt lat="47.12466" lon="-1.4277">
        <ele>105</ele>
        <time>2021-02-13T13:44:32.000Z</time>
      </trkpt>
      <trkpt lat="47.12472" lon="-1.42785">
        <ele>106</ele>
        <time>2021-02-13T13:44:34.000Z</time>
      </trkpt>
      <trkpt lat="47.1248" lon="-1.42799">
        <ele>106</ele>
        <time>2021-02-13T13:44:36.000Z</time>
      </trkpt>
      <trkpt lat="47.12487" lon="-1.42814">
        <ele>106</ele>
        <time>2021-02-13T13:44:38.000Z</time>
      </trkpt>
      <trkpt lat="47.12495" lon="-1.42828">
        <ele>105</ele>
        <time>2021-02-13T13:44:40.000Z</time>
      </trkpt>
      <trkpt lat="47.12502" lon="-1.42843">
        <ele>105</ele>
        <time>2021-02-13T13:44:42.000Z</time>
      </trkpt>
      <trkpt lat="47.12509" lon="-1.42857">
        <ele>106</ele>
        <time>2021-02-13T13:44:44.000Z</time>
      </trkpt>
      <trkpt lat="47.12517" lon="-1.42872">
        <ele>106</ele>
        <time>2021-02-13T13:44:46.000Z</time>
      </trkpt>
      <trkpt lat="47.12524" lon="-1.42887">
        <ele>106</ele>
        <time>2021-02-13T13:44:48.000Z</time>
      </trkpt>
      <trkpt lat="47.12531" lon="-1.42902">
        <ele>106</ele>
        <time>2021-02-13T13:44:50.000Z</time>
      </trkpt>
      <trkpt lat="47.12538" lon="-1.42917">
        <ele>106</ele>
        <time>2021-02-13T13:44:52.000Z</time>
      </trkpt>
      <trkpt lat="47.12546" lon="-1.42932">
        <ele>106</ele>
        <time>2021-02-13T13:44:54.000Z</time>
      </trkpt>
      <trkpt lat="47.12553" lon="-1.42948">
        <ele>106</ele>
        <time>2021-02-13T13:44:56.000Z</time>
      </trkpt>
      <trkpt lat="47.12561" lon="-1.42963">
        <ele>106</ele>
        <time>2021-02-13T13:44:58.000Z</time>
      </trkpt>
      <trkpt lat="47.12568" lon="-1.42979">
        <ele>107</ele>
        <time>2021-02-13T13:45:00.000Z</time>
      </trkpt>
      <trkpt lat="47.12575" lon="-1.42995">
        <ele>107</ele>
        <time>2021-02-13T13:45:02.000Z</time>
      </trkpt>
      <trkpt lat="47.12582" lon="-1.43011">
        <ele>107</ele>
        <time>2021-02-13T13:45:04.000Z</time>
      </trkpt>
      <trkpt lat="47.12589" lon="-1.43028">
        <ele>107</ele>
        <time>2021-02-13T13:45:06.000Z</time>
      </trkpt>
      <trkpt lat="47.12596" lon="-1.43045">
        <ele>107</ele>
        <time>2021-02-13T13:45:08.000Z</time>
      </trkpt>
      <trkpt lat="47.12603" lon="-1.43063">
        <ele>108</ele>
        <time>2021-02-13T13:45:10.000Z</time>
      </trkpt>
      <trkpt lat="47.12611" lon="-1.4308">
        <ele>108</ele>
        <time>2021-02-13T13:45:12.000Z</time>
      </trkpt>
      <trkpt lat="47.12618" lon="-1.43098">
        <ele>107</ele>
        <time>2021-02-13T13:45:14.000Z</time>
      </trkpt>
      <trkpt lat="47.12626" lon="-1.43115">
        <ele>107</ele>
        <time>2021-02-13T13:45:16.000Z</time>
      </trkpt>
      <trkpt lat="47.12633" lon="-1.43133">
        <ele>107</ele>
        <time>2021-02-13T13:45:18.000Z</time>
      </trkpt>
      <trkpt lat="47.12639" lon="-1.43152">
        <ele>107</ele>
        <time>2021-02-13T13:45:20.000Z</time>
      </trkpt>
      <trkpt lat="47.12645" lon="-1.43171">
        <ele>107</ele>
        <time>2021-02-13T13:45:22.000Z</time>
      </trkpt>
      <trkpt lat="47.1265" lon="-1.4319">
        <ele>107</ele>
        <time>2021-02-13T13:45:24.000Z</time>
      </trkpt>
      <trkpt lat="47.12654" lon="-1.43211">
        <ele>107</ele>
        <time>2021-02-13T13:45:26.000Z</time>
      </trkpt>
      <trkpt lat="47.12659" lon="-1.43231">
        <ele>107</ele>
        <time>2021-02-13T13:45:28.000Z</time>
      </trkpt>
      <trkpt lat="47.12664" lon="-1.4325">
        <ele>107</ele>
        <time>2021-02-13T13:45:30.000Z</time>
      </trkpt>
      <trkpt lat="47.1267" lon="-1.43269">
        <ele>107</ele>
        <time>2021-02-13T13:45:32.000Z</time>
      </trkpt>
      <trkpt lat="47.12675" lon="-1.43289">
        <ele>107</ele>
        <time>2021-02-13T13:45:34.000Z</time>
      </trkpt>
      <trkpt lat="47.12683" lon="-1.43307">
        <ele>107</ele>
        <time>2021-02-13T13:45:36.000Z</time>
      </trkpt>
      <trkpt lat="47.1269" lon="-1.43325">
        <ele>107</ele>
        <time>2021-02-13T13:45:38.000Z</time>
      </trkpt>
      <trkpt lat="47.12698" lon="-1.43344">
        <ele>107</ele>
        <time>2021-02-13T13:45:40.000Z</time>
      </trkpt>
      <trkpt lat="47.12706" lon="-1.43364">
        <ele>107</ele>
        <time>2021-02-13T13:45:42.000Z</time>
      </trkpt>
      <trkpt lat="47.12714" lon="-1.43382">
        <ele>107</ele>
        <time>2021-02-13T13:45:44.000Z</time>
      </trkpt>
      <trkpt lat="47.12723" lon="-1.43401">
        <ele>106</ele>
        <time>2021-02-13T13:45:46.000Z</time>
      </trkpt>
      <trkpt lat="47.12731" lon="-1.4342">
        <ele>106</ele>
        <time>2021-02-13T13:45:48.000Z</time>
      </trkpt>
      <trkpt lat="47.12739" lon="-1.43439">
        <ele>106</ele>
        <time>2021-02-13T13:45:50.000Z</time>
      </trkpt>
      <trkpt lat="47.12747" lon="-1.43457">
        <ele>106</ele>
        <time>2021-02-13T13:45:52.000Z</time>
      </trkpt>
      <trkpt lat="47.12755" lon="-1.43475">
        <ele>105</ele>
        <time>2021-02-13T13:45:54.000Z</time>
      </trkpt>
      <trkpt lat="47.12762" lon="-1.43494">
        <ele>105</ele>
        <time>2021-02-13T13:45:56.000Z</time>
      </trkpt>
      <trkpt lat="47.12768" lon="-1.43513">
        <ele>105</ele>
        <time>2021-02-13T13:45:58.000Z</time>
      </trkpt>
      <trkpt lat="47.12774" lon="-1.43533">
        <ele>105</ele>
        <time>2021-02-13T13:46:00.000Z</time>
      </trkpt>
      <trkpt lat="47.1278" lon="-1.43555">
        <ele>105</ele>
        <time>2021-02-13T13:46:02.000Z</time>
      </trkpt>
      <trkpt lat="47.12786" lon="-1.43576">
        <ele>104</ele>
        <time>2021-02-13T13:46:04.000Z</time>
      </trkpt>
      <trkpt lat="47.12792" lon="-1.43598">
        <ele>104</ele>
        <time>2021-02-13T13:46:06.000Z</time>
      </trkpt>
      <trkpt lat="47.12799" lon="-1.43619">
        <ele>104</ele>
        <time>2021-02-13T13:46:08.000Z</time>
      </trkpt>
      <trkpt lat="47.12806" lon="-1.43639">
        <ele>104</ele>
        <time>2021-02-13T13:46:10.000Z</time>
      </trkpt>
      <trkpt lat="47.12813" lon="-1.43658">
        <ele>103</ele>
        <time>2021-02-13T13:46:12.000Z</time>
      </trkpt>
      <trkpt lat="47.12821" lon="-1.43678">
        <ele>103</ele>
        <time>2021-02-13T13:46:14.000Z</time>
      </trkpt>
      <trkpt lat="47.12828" lon="-1.43697">
        <ele>103</ele>
        <time>2021-02-13T13:46:16.000Z</time>
      </trkpt>
      <trkpt lat="47.12835" lon="-1.43716">
        <ele>103</ele>
        <time>2021-02-13T13:46:18.000Z</time>
      </trkpt>
      <trkpt lat="47.12843" lon="-1.43735">
        <ele>103</ele>
        <time>2021-02-13T13:46:20.000Z</time>
      </trkpt>
      <trkpt lat="47.1285" lon="-1.43754">
        <ele>103</ele>
        <time>2021-02-13T13:46:22.000Z</time>
      </trkpt>
      <trkpt lat="47.12855" lon="-1.43774">
        <ele>102</ele>
        <time>2021-02-13T13:46:24.000Z</time>
      </trkpt>
      <trkpt lat="47.12861" lon="-1.43794">
        <ele>103</ele>
        <time>2021-02-13T13:46:26.000Z</time>
      </trkpt>
      <trkpt lat="47.12867" lon="-1.43813">
        <ele>103</ele>
        <time>2021-02-13T13:46:28.000Z</time>
      </trkpt>
      <trkpt lat="47.12872" lon="-1.43832">
        <ele>103</ele>
        <time>2021-02-13T13:46:30.000Z</time>
      </trkpt>
      <trkpt lat="47.12878" lon="-1.43852">
        <ele>102</ele>
        <time>2021-02-13T13:46:32.000Z</time>
      </trkpt>
      <trkpt lat="47.12884" lon="-1.43871">
        <ele>103</ele>
        <time>2021-02-13T13:46:34.000Z</time>
      </trkpt>
      <trkpt lat="47.12891" lon="-1.4389">
        <ele>103</ele>
        <time>2021-02-13T13:46:36.000Z</time>
      </trkpt>
      <trkpt lat="47.12897" lon="-1.43908">
        <ele>102</ele>
        <time>2021-02-13T13:46:38.000Z</time>
      </trkpt>
      <trkpt lat="47.12904" lon="-1.43926">
        <ele>103</ele>
        <time>2021-02-13T13:46:40.000Z</time>
      </trkpt>
      <trkpt lat="47.12912" lon="-1.43944">
        <ele>102</ele>
        <time>2021-02-13T13:46:42.000Z</time>
      </trkpt>
      <trkpt lat="47.1292" lon="-1.43962">
        <ele>102</ele>
        <time>2021-02-13T13:46:44.000Z</time>
      </trkpt>
      <trkpt lat="47.12927" lon="-1.4398">
        <ele>102</ele>
        <time>2021-02-13T13:46:46.000Z</time>
      </trkpt>
      <trkpt lat="47.12935" lon="-1.43998">
        <ele>102</ele>
        <time>2021-02-13T13:46:48.000Z</time>
      </trkpt>
      <trkpt lat="47.12943" lon="-1.44016">
        <ele>102</ele>
        <time>2021-02-13T13:46:50.000Z</time>
      </trkpt>
      <trkpt lat="47.12951" lon="-1.44035">
        <ele>102</ele>
        <time>2021-02-13T13:46:52.000Z</time>
      </trkpt>
      <trkpt lat="47.12958" lon="-1.44053">
        <ele>102</ele>
        <time>2021-02-13T13:46:54.000Z</time>
      </trkpt>
      <trkpt lat="47.12965" lon="-1.44071">
        <ele>102</ele>
        <time>2021-02-13T13:46:56.000Z</time>
      </trkpt>
      <trkpt lat="47.12972" lon="-1.44089">
        <ele>102</ele>
        <time>2021-02-13T13:46:58.000Z</time>
      </trkpt>
      <trkpt lat="47.12978" lon="-1.44108">
        <ele>102</ele>
        <time>2021-02-13T13:47:00.000Z</time>
      </trkpt>
      <trkpt lat="47.12985" lon="-1.44126">
        <ele>102</ele>
        <time>2021-02-13T13:47:02.000Z</time>
      </trkpt>
      <trkpt lat="47.12993" lon="-1.44144">
        <ele>102</ele>
        <time>2021-02-13T13:47:04.000Z</time>
      </trkpt>
      <trkpt lat="47.12999" lon="-1.44163">
        <ele>102</ele>
        <time>2021-02-13T13:47:06.000Z</time>
      </trkpt>
      <trkpt lat="47.13006" lon="-1.44181">
        <ele>102</ele>
        <time>2021-02-13T13:47:08.000Z</time>
      </trkpt>
      <trkpt lat="47.13012" lon="-1.442">
        <ele>102</ele>
        <time>2021-02-13T13:47:10.000Z</time>
      </trkpt>
      <trkpt lat="47.13017" lon="-1.44219">
        <ele>101</ele>
        <time>2021-02-13T13:47:12.000Z</time>
      </trkpt>
      <trkpt lat="47.13021" lon="-1.44238">
        <ele>101</ele>
        <time>2021-02-13T13:47:14.000Z</time>
      </trkpt>
      <trkpt lat="47.13025" lon="-1.44257">
        <ele>101</ele>
        <time>2021-02-13T13:47:16.000Z</time>
      </trkpt>
      <trkpt lat="47.13029" lon="-1.44275">
        <ele>101</ele>
        <time>2021-02-13T13:47:18.000Z</time>
      </trkpt>
      <trkpt lat="47.13033" lon="-1.4429">
        <ele>100</ele>
        <time>2021-02-13T13:47:20.000Z</time>
      </trkpt>
      <trkpt lat="47.13038" lon="-1.44307">
        <ele>100</ele>
        <time>2021-02-13T13:47:22.000Z</time>
      </trkpt>
      <trkpt lat="47.1304" lon="-1.44327">
        <ele>100</ele>
        <time>2021-02-13T13:47:24.000Z</time>
      </trkpt>
      <trkpt lat="47.13043" lon="-1.44348">
        <ele>100</ele>
        <time>2021-02-13T13:47:26.000Z</time>
      </trkpt>
      <trkpt lat="47.13045" lon="-1.44369">
        <ele>100</ele>
        <time>2021-02-13T13:47:28.000Z</time>
      </trkpt>
      <trkpt lat="47.13048" lon="-1.4439">
        <ele>100</ele>
        <time>2021-02-13T13:47:30.000Z</time>
      </trkpt>
      <trkpt lat="47.13052" lon="-1.4441">
        <ele>100</ele>
        <time>2021-02-13T13:47:32.000Z</time>
      </trkpt>
      <trkpt lat="47.13058" lon="-1.44429">
        <ele>100</ele>
        <time>2021-02-13T13:47:34.000Z</time>
      </trkpt>
      <trkpt lat="47.13064" lon="-1.44447">
        <ele>100</ele>
        <time>2021-02-13T13:47:36.000Z</time>
      </trkpt>
      <trkpt lat="47.1307" lon="-1.44466">
        <ele>99</ele>
        <time>2021-02-13T13:47:38.000Z</time>
      </trkpt>
      <trkpt lat="47.13076" lon="-1.44484">
        <ele>100</ele>
        <time>2021-02-13T13:47:40.000Z</time>
      </trkpt>
      <trkpt lat="47.13083" lon="-1.44503">
        <ele>100</ele>
        <time>2021-02-13T13:47:42.000Z</time>
      </trkpt>
      <trkpt lat="47.13089" lon="-1.44522">
        <ele>100</ele>
        <time>2021-02-13T13:47:44.000Z</time>
      </trkpt>
      <trkpt lat="47.13094" lon="-1.44541">
        <ele>100</ele>
        <time>2021-02-13T13:47:46.000Z</time>
      </trkpt>
      <trkpt lat="47.13097" lon="-1.44561">
        <ele>100</ele>
        <time>2021-02-13T13:47:48.000Z</time>
      </trkpt>
      <trkpt lat="47.13099" lon="-1.44582">
        <ele>99</ele>
        <time>2021-02-13T13:47:50.000Z</time>
      </trkpt>
      <trkpt lat="47.13101" lon="-1.44603">
        <ele>99</ele>
        <time>2021-02-13T13:47:52.000Z</time>
      </trkpt>
      <trkpt lat="47.13102" lon="-1.44625">
        <ele>99</ele>
        <time>2021-02-13T13:47:54.000Z</time>
      </trkpt>
      <trkpt lat="47.13103" lon="-1.44647">
        <ele>98</ele>
        <time>2021-02-13T13:47:56.000Z</time>
      </trkpt>
      <trkpt lat="47.13104" lon="-1.44668">
        <ele>99</ele>
        <time>2021-02-13T13:47:58.000Z</time>
      </trkpt>
      <trkpt lat="47.13105" lon="-1.44689">
        <ele>99</ele>
        <time>2021-02-13T13:48:00.000Z</time>
      </trkpt>
      <trkpt lat="47.13108" lon="-1.44709">
        <ele>99</ele>
        <time>2021-02-13T13:48:02.000Z</time>
      </trkpt>
      <trkpt lat="47.13112" lon="-1.44729">
        <ele>99</ele>
        <time>2021-02-13T13:48:04.000Z</time>
      </trkpt>
      <trkpt lat="47.13117" lon="-1.44749">
        <ele>99</ele>
        <time>2021-02-13T13:48:06.000Z</time>
      </trkpt>
      <trkpt lat="47.13121" lon="-1.44768">
        <ele>98</ele>
        <time>2021-02-13T13:48:08.000Z</time>
      </trkpt>
      <trkpt lat="47.13126" lon="-1.44787">
        <ele>99</ele>
        <time>2021-02-13T13:48:10.000Z</time>
      </trkpt>
      <trkpt lat="47.1313" lon="-1.44807">
        <ele>99</ele>
        <time>2021-02-13T13:48:12.000Z</time>
      </trkpt>
      <trkpt lat="47.13131" lon="-1.44828">
        <ele>98</ele>
        <time>2021-02-13T13:48:14.000Z</time>
      </trkpt>
      <trkpt lat="47.1313" lon="-1.44848">
        <ele>99</ele>
        <time>2021-02-13T13:48:16.000Z</time>
      </trkpt>
      <trkpt lat="47.13128" lon="-1.44868">
        <ele>99</ele>
        <time>2021-02-13T13:48:18.000Z</time>
      </trkpt>
      <trkpt lat="47.13126" lon="-1.44889">
        <ele>99</ele>
        <time>2021-02-13T13:48:20.000Z</time>
      </trkpt>
      <trkpt lat="47.13123" lon="-1.44909">
        <ele>99</ele>
        <time>2021-02-13T13:48:22.000Z</time>
      </trkpt>
      <trkpt lat="47.13121" lon="-1.44929">
        <ele>99</ele>
        <time>2021-02-13T13:48:24.000Z</time>
      </trkpt>
      <trkpt lat="47.13118" lon="-1.44949">
        <ele>99</ele>
        <time>2021-02-13T13:48:26.000Z</time>
      </trkpt>
      <trkpt lat="47.13116" lon="-1.44969">
        <ele>99</ele>
        <time>2021-02-13T13:48:28.000Z</time>
      </trkpt>
      <trkpt lat="47.13113" lon="-1.44988">
        <ele>99</ele>
        <time>2021-02-13T13:48:30.000Z</time>
      </trkpt>
      <trkpt lat="47.13111" lon="-1.45006">
        <ele>99</ele>
        <time>2021-02-13T13:48:32.000Z</time>
      </trkpt>
      <trkpt lat="47.13109" lon="-1.45025">
        <ele>99</ele>
        <time>2021-02-13T13:48:34.000Z</time>
      </trkpt>
      <trkpt lat="47.13107" lon="-1.45045">
        <ele>99</ele>
        <time>2021-02-13T13:48:36.000Z</time>
      </trkpt>
      <trkpt lat="47.13106" lon="-1.45065">
        <ele>99</ele>
        <time>2021-02-13T13:48:38.000Z</time>
      </trkpt>
      <trkpt lat="47.13104" lon="-1.45084">
        <ele>99</ele>
        <time>2021-02-13T13:48:40.000Z</time>
      </trkpt>
      <trkpt lat="47.13101" lon="-1.45103">
        <ele>100</ele>
        <time>2021-02-13T13:48:42.000Z</time>
      </trkpt>
      <trkpt lat="47.13098" lon="-1.45122">
        <ele>99</ele>
        <time>2021-02-13T13:48:44.000Z</time>
      </trkpt>
      <trkpt lat="47.13094" lon="-1.45139">
        <ele>100</ele>
        <time>2021-02-13T13:48:46.000Z</time>
      </trkpt>
      <trkpt lat="47.1309" lon="-1.45157">
        <ele>100</ele>
        <time>2021-02-13T13:48:48.000Z</time>
      </trkpt>
      <trkpt lat="47.13086" lon="-1.45175">
        <ele>100</ele>
        <time>2021-02-13T13:48:50.000Z</time>
      </trkpt>
      <trkpt lat="47.13083" lon="-1.45193">
        <ele>100</ele>
        <time>2021-02-13T13:48:52.000Z</time>
      </trkpt>
      <trkpt lat="47.13081" lon="-1.45212">
        <ele>101</ele>
        <time>2021-02-13T13:48:54.000Z</time>
      </trkpt>
      <trkpt lat="47.13078" lon="-1.45231">
        <ele>101</ele>
        <time>2021-02-13T13:48:56.000Z</time>
      </trkpt>
      <trkpt lat="47.13077" lon="-1.45248">
        <ele>100</ele>
        <time>2021-02-13T13:48:58.000Z</time>
      </trkpt>
      <trkpt lat="47.13076" lon="-1.45266">
        <ele>100</ele>
        <time>2021-02-13T13:49:00.000Z</time>
      </trkpt>
      <trkpt lat="47.1308" lon="-1.45282">
        <ele>100</ele>
        <time>2021-02-13T13:49:02.000Z</time>
      </trkpt>
      <trkpt lat="47.13091" lon="-1.45291">
        <ele>101</ele>
        <time>2021-02-13T13:49:04.000Z</time>
      </trkpt>
      <trkpt lat="47.13102" lon="-1.45299">
        <ele>102</ele>
        <time>2021-02-13T13:49:06.000Z</time>
      </trkpt>
      <trkpt lat="47.13113" lon="-1.45307">
        <ele>102</ele>
        <time>2021-02-13T13:49:08.000Z</time>
      </trkpt>
      <trkpt lat="47.13123" lon="-1.45315">
        <ele>102</ele>
        <time>2021-02-13T13:49:10.000Z</time>
      </trkpt>
      <trkpt lat="47.13135" lon="-1.45324">
        <ele>102</ele>
        <time>2021-02-13T13:49:12.000Z</time>
      </trkpt>
      <trkpt lat="47.13147" lon="-1.45335">
        <ele>103</ele>
        <time>2021-02-13T13:49:14.000Z</time>
      </trkpt>
      <trkpt lat="47.13159" lon="-1.45346">
        <ele>104</ele>
        <time>2021-02-13T13:49:16.000Z</time>
      </trkpt>
      <trkpt lat="47.1317" lon="-1.4536">
        <ele>104</ele>
        <time>2021-02-13T13:49:18.000Z</time>
      </trkpt>
      <trkpt lat="47.13183" lon="-1.45375">
        <ele>104</ele>
        <time>2021-02-13T13:49:20.000Z</time>
      </trkpt>
      <trkpt lat="47.13194" lon="-1.45389">
        <ele>103</ele>
        <time>2021-02-13T13:49:22.000Z</time>
      </trkpt>
      <trkpt lat="47.13205" lon="-1.45404">
        <ele>103</ele>
        <time>2021-02-13T13:49:24.000Z</time>
      </trkpt>
      <trkpt lat="47.13215" lon="-1.45419">
        <ele>103</ele>
        <time>2021-02-13T13:49:26.000Z</time>
      </trkpt>
      <trkpt lat="47.13225" lon="-1.45434">
        <ele>103</ele>
        <time>2021-02-13T13:49:28.000Z</time>
      </trkpt>
      <trkpt lat="47.13235" lon="-1.4545">
        <ele>102</ele>
        <time>2021-02-13T13:49:30.000Z</time>
      </trkpt>
      <trkpt lat="47.13245" lon="-1.45466">
        <ele>102</ele>
        <time>2021-02-13T13:49:32.000Z</time>
      </trkpt>
      <trkpt lat="47.13255" lon="-1.45481">
        <ele>102</ele>
        <time>2021-02-13T13:49:34.000Z</time>
      </trkpt>
      <trkpt lat="47.13265" lon="-1.45497">
        <ele>102</ele>
        <time>2021-02-13T13:49:36.000Z</time>
      </trkpt>
      <trkpt lat="47.13274" lon="-1.45512">
        <ele>101</ele>
        <time>2021-02-13T13:49:38.000Z</time>
      </trkpt>
      <trkpt lat="47.13284" lon="-1.45528">
        <ele>101</ele>
        <time>2021-02-13T13:49:40.000Z</time>
      </trkpt>
      <trkpt lat="47.13295" lon="-1.45544">
        <ele>101</ele>
        <time>2021-02-13T13:49:42.000Z</time>
      </trkpt>
      <trkpt lat="47.13305" lon="-1.45561">
        <ele>101</ele>
        <time>2021-02-13T13:49:44.000Z</time>
      </trkpt>
      <trkpt lat="47.13315" lon="-1.45577">
        <ele>100</ele>
        <time>2021-02-13T13:49:46.000Z</time>
      </trkpt>
      <trkpt lat="47.13326" lon="-1.45595">
        <ele>100</ele>
        <time>2021-02-13T13:49:48.000Z</time>
      </trkpt>
      <trkpt lat="47.13337" lon="-1.45611">
        <ele>100</ele>
        <time>2021-02-13T13:49:50.000Z</time>
      </trkpt>
      <trkpt lat="47.13347" lon="-1.45629">
        <ele>99</ele>
        <time>2021-02-13T13:49:52.000Z</time>
      </trkpt>
      <trkpt lat="47.13358" lon="-1.45646">
        <ele>99</ele>
        <time>2021-02-13T13:49:54.000Z</time>
      </trkpt>
      <trkpt lat="47.13368" lon="-1.45661">
        <ele>100</ele>
        <time>2021-02-13T13:49:56.000Z</time>
      </trkpt>
      <trkpt lat="47.13378" lon="-1.45676">
        <ele>99</ele>
        <time>2021-02-13T13:49:58.000Z</time>
      </trkpt>
      <trkpt lat="47.13388" lon="-1.45691">
        <ele>99</ele>
        <time>2021-02-13T13:50:00.000Z</time>
      </trkpt>
      <trkpt lat="47.13398" lon="-1.45705">
        <ele>100</ele>
        <time>2021-02-13T13:50:02.000Z</time>
      </trkpt>
      <trkpt lat="47.13408" lon="-1.45719">
        <ele>100</ele>
        <time>2021-02-13T13:50:04.000Z</time>
      </trkpt>
      <trkpt lat="47.13417" lon="-1.45734">
        <ele>101</ele>
        <time>2021-02-13T13:50:06.000Z</time>
      </trkpt>
      <trkpt lat="47.13427" lon="-1.45748">
        <ele>101</ele>
        <time>2021-02-13T13:50:08.000Z</time>
      </trkpt>
      <trkpt lat="47.13437" lon="-1.45763">
        <ele>101</ele>
        <time>2021-02-13T13:50:10.000Z</time>
      </trkpt>
      <trkpt lat="47.13446" lon="-1.45777">
        <ele>101</ele>
        <time>2021-02-13T13:50:12.000Z</time>
      </trkpt>
      <trkpt lat="47.13456" lon="-1.45792">
        <ele>102</ele>
        <time>2021-02-13T13:50:14.000Z</time>
      </trkpt>
      <trkpt lat="47.13466" lon="-1.45807">
        <ele>102</ele>
        <time>2021-02-13T13:50:16.000Z</time>
      </trkpt>
      <trkpt lat="47.13476" lon="-1.45822">
        <ele>102</ele>
        <time>2021-02-13T13:50:18.000Z</time>
      </trkpt>
      <trkpt lat="47.13487" lon="-1.45838">
        <ele>102</ele>
        <time>2021-02-13T13:50:20.000Z</time>
      </trkpt>
      <trkpt lat="47.13496" lon="-1.45852">
        <ele>101</ele>
        <time>2021-02-13T13:50:22.000Z</time>
      </trkpt>
      <trkpt lat="47.13506" lon="-1.45867">
        <ele>102</ele>
        <time>2021-02-13T13:50:24.000Z</time>
      </trkpt>
      <trkpt lat="47.13517" lon="-1.45882">
        <ele>102</ele>
        <time>2021-02-13T13:50:26.000Z</time>
      </trkpt>
      <trkpt lat="47.13526" lon="-1.45896">
        <ele>102</ele>
        <time>2021-02-13T13:50:28.000Z</time>
      </trkpt>
      <trkpt lat="47.13536" lon="-1.45911">
        <ele>102</ele>
        <time>2021-02-13T13:50:30.000Z</time>
      </trkpt>
      <trkpt lat="47.13544" lon="-1.45926">
        <ele>103</ele>
        <time>2021-02-13T13:50:32.000Z</time>
      </trkpt>
      <trkpt lat="47.13553" lon="-1.45942">
        <ele>102</ele>
        <time>2021-02-13T13:50:34.000Z</time>
      </trkpt>
      <trkpt lat="47.13561" lon="-1.45958">
        <ele>103</ele>
        <time>2021-02-13T13:50:36.000Z</time>
      </trkpt>
      <trkpt lat="47.13568" lon="-1.45976">
        <ele>103</ele>
        <time>2021-02-13T13:50:38.000Z</time>
      </trkpt>
      <trkpt lat="47.13574" lon="-1.45995">
        <ele>104</ele>
        <time>2021-02-13T13:50:40.000Z</time>
      </trkpt>
      <trkpt lat="47.1358" lon="-1.46013">
        <ele>104</ele>
        <time>2021-02-13T13:50:42.000Z</time>
      </trkpt>
      <trkpt lat="47.13586" lon="-1.46032">
        <ele>104</ele>
        <time>2021-02-13T13:50:44.000Z</time>
      </trkpt>
      <trkpt lat="47.13592" lon="-1.46051">
        <ele>104</ele>
        <time>2021-02-13T13:50:46.000Z</time>
      </trkpt>
      <trkpt lat="47.13597" lon="-1.46069">
        <ele>104</ele>
        <time>2021-02-13T13:50:48.000Z</time>
      </trkpt>
      <trkpt lat="47.13603" lon="-1.46088">
        <ele>104</ele>
        <time>2021-02-13T13:50:50.000Z</time>
      </trkpt>
      <trkpt lat="47.13609" lon="-1.46106">
        <ele>104</ele>
        <time>2021-02-13T13:50:52.000Z</time>
      </trkpt>
      <trkpt lat="47.13615" lon="-1.46125">
        <ele>104</ele>
        <time>2021-02-13T13:50:54.000Z</time>
      </trkpt>
      <trkpt lat="47.1362" lon="-1.46143">
        <ele>103</ele>
        <time>2021-02-13T13:50:56.000Z</time>
      </trkpt>
      <trkpt lat="47.13625" lon="-1.46161">
        <ele>104</ele>
        <time>2021-02-13T13:50:58.000Z</time>
      </trkpt>
      <trkpt lat="47.13631" lon="-1.4618">
        <ele>104</ele>
        <time>2021-02-13T13:51:00.000Z</time>
      </trkpt>
      <trkpt lat="47.13636" lon="-1.46198">
        <ele>104</ele>
        <time>2021-02-13T13:51:02.000Z</time>
      </trkpt>
      <trkpt lat="47.13642" lon="-1.46216">
        <ele>103</ele>
        <time>2021-02-13T13:51:04.000Z</time>
      </trkpt>
      <trkpt lat="47.13648" lon="-1.46234">
        <ele>103</ele>
        <time>2021-02-13T13:51:06.000Z</time>
      </trkpt>
      <trkpt lat="47.13654" lon="-1.46252">
        <ele>103</ele>
        <time>2021-02-13T13:51:08.000Z</time>
      </trkpt>
      <trkpt lat="47.1366" lon="-1.46271">
        <ele>103</ele>
        <time>2021-02-13T13:51:10.000Z</time>
      </trkpt>
      <trkpt lat="47.13666" lon="-1.46289">
        <ele>103</ele>
        <time>2021-02-13T13:51:12.000Z</time>
      </trkpt>
      <trkpt lat="47.1367" lon="-1.46309">
        <ele>103</ele>
        <time>2021-02-13T13:51:14.000Z</time>
      </trkpt>
      <trkpt lat="47.13674" lon="-1.46328">
        <ele>102</ele>
        <time>2021-02-13T13:51:16.000Z</time>
      </trkpt>
      <trkpt lat="47.13677" lon="-1.46348">
        <ele>103</ele>
        <time>2021-02-13T13:51:18.000Z</time>
      </trkpt>
      <trkpt lat="47.13677" lon="-1.4637">
        <ele>103</ele>
        <time>2021-02-13T13:51:20.000Z</time>
      </trkpt>
      <trkpt lat="47.13675" lon="-1.46391">
        <ele>103</ele>
        <time>2021-02-13T13:51:22.000Z</time>
      </trkpt>
      <trkpt lat="47.13673" lon="-1.46411">
        <ele>102</ele>
        <time>2021-02-13T13:51:24.000Z</time>
      </trkpt>
      <trkpt lat="47.13671" lon="-1.46432">
        <ele>102</ele>
        <time>2021-02-13T13:51:26.000Z</time>
      </trkpt>
      <trkpt lat="47.13671" lon="-1.46452">
        <ele>102</ele>
        <time>2021-02-13T13:51:28.000Z</time>
      </trkpt>
      <trkpt lat="47.13674" lon="-1.46472">
        <ele>102</ele>
        <time>2021-02-13T13:51:30.000Z</time>
      </trkpt>
      <trkpt lat="47.13678" lon="-1.46492">
        <ele>103</ele>
        <time>2021-02-13T13:51:32.000Z</time>
      </trkpt>
      <trkpt lat="47.13684" lon="-1.46511">
        <ele>103</ele>
        <time>2021-02-13T13:51:34.000Z</time>
      </trkpt>
      <trkpt lat="47.13691" lon="-1.4653">
        <ele>103</ele>
        <time>2021-02-13T13:51:36.000Z</time>
      </trkpt>
      <trkpt lat="47.137" lon="-1.46547">
        <ele>102</ele>
        <time>2021-02-13T13:51:38.000Z</time>
      </trkpt>
      <trkpt lat="47.13708" lon="-1.46565">
        <ele>101</ele>
        <time>2021-02-13T13:51:40.000Z</time>
      </trkpt>
      <trkpt lat="47.13714" lon="-1.46584">
        <ele>101</ele>
        <time>2021-02-13T13:51:42.000Z</time>
      </trkpt>
      <trkpt lat="47.13719" lon="-1.46604">
        <ele>101</ele>
        <time>2021-02-13T13:51:44.000Z</time>
      </trkpt>
      <trkpt lat="47.13723" lon="-1.46624">
        <ele>100</ele>
        <time>2021-02-13T13:51:46.000Z</time>
      </trkpt>
      <trkpt lat="47.13727" lon="-1.46646">
        <ele>100</ele>
        <time>2021-02-13T13:51:48.000Z</time>
      </trkpt>
      <trkpt lat="47.13731" lon="-1.46666">
        <ele>100</ele>
        <time>2021-02-13T13:51:50.000Z</time>
      </trkpt>
      <trkpt lat="47.13735" lon="-1.46687">
        <ele>100</ele>
        <time>2021-02-13T13:51:52.000Z</time>
      </trkpt>
      <trkpt lat="47.13738" lon="-1.46707">
        <ele>99</ele>
        <time>2021-02-13T13:51:54.000Z</time>
      </trkpt>
      <trkpt lat="47.13742" lon="-1.46726">
        <ele>99</ele>
        <time>2021-02-13T13:51:56.000Z</time>
      </trkpt>
      <trkpt lat="47.13745" lon="-1.46745">
        <ele>99</ele>
        <time>2021-02-13T13:51:58.000Z</time>
      </trkpt>
      <trkpt lat="47.13749" lon="-1.46759">
        <ele>99</ele>
        <time>2021-02-13T13:52:00.000Z</time>
      </trkpt>
      <trkpt lat="47.13761" lon="-1.46762">
        <ele>100</ele>
        <time>2021-02-13T13:52:02.000Z</time>
      </trkpt>
      <trkpt lat="47.13777" lon="-1.46758">
        <ele>100</ele>
        <time>2021-02-13T13:52:04.000Z</time>
      </trkpt>
      <trkpt lat="47.13792" lon="-1.46753">
        <ele>99</ele>
        <time>2021-02-13T13:52:06.000Z</time>
      </trkpt>
      <trkpt lat="47.13807" lon="-1.46749">
        <ele>99</ele>
        <time>2021-02-13T13:52:08.000Z</time>
      </trkpt>
      <trkpt lat="47.13822" lon="-1.46745">
        <ele>99</ele>
        <time>2021-02-13T13:52:10.000Z</time>
      </trkpt>
      <trkpt lat="47.13837" lon="-1.46742">
        <ele>99</ele>
        <time>2021-02-13T13:52:12.000Z</time>
      </trkpt>
      <trkpt lat="47.13852" lon="-1.46738">
        <ele>98</ele>
        <time>2021-02-13T13:52:14.000Z</time>
      </trkpt>
      <trkpt lat="47.13867" lon="-1.46735">
        <ele>98</ele>
        <time>2021-02-13T13:52:16.000Z</time>
      </trkpt>
      <trkpt lat="47.13882" lon="-1.46731">
        <ele>98</ele>
        <time>2021-02-13T13:52:18.000Z</time>
      </trkpt>
      <trkpt lat="47.13897" lon="-1.46727">
        <ele>98</ele>
        <time>2021-02-13T13:52:20.000Z</time>
      </trkpt>
      <trkpt lat="47.13912" lon="-1.46724">
        <ele>98</ele>
        <time>2021-02-13T13:52:22.000Z</time>
      </trkpt>
      <trkpt lat="47.13928" lon="-1.46721">
        <ele>97</ele>
        <time>2021-02-13T13:52:24.000Z</time>
      </trkpt>
      <trkpt lat="47.13944" lon="-1.46718">
        <ele>98</ele>
        <time>2021-02-13T13:52:26.000Z</time>
      </trkpt>
      <trkpt lat="47.1396" lon="-1.46719">
        <ele>97</ele>
        <time>2021-02-13T13:52:28.000Z</time>
      </trkpt>
      <trkpt lat="47.13976" lon="-1.4672">
        <ele>97</ele>
        <time>2021-02-13T13:52:30.000Z</time>
      </trkpt>
      <trkpt lat="47.13993" lon="-1.46721">
        <ele>96</ele>
        <time>2021-02-13T13:52:32.000Z</time>
      </trkpt>
      <trkpt lat="47.1401" lon="-1.46724">
        <ele>95</ele>
        <time>2021-02-13T13:52:34.000Z</time>
      </trkpt>
      <trkpt lat="47.14027" lon="-1.46727">
        <ele>94</ele>
        <time>2021-02-13T13:52:36.000Z</time>
      </trkpt>
      <trkpt lat="47.14043" lon="-1.46729">
        <ele>93</ele>
        <time>2021-02-13T13:52:38.000Z</time>
      </trkpt>
      <trkpt lat="47.1406" lon="-1.46732">
        <ele>93</ele>
        <time>2021-02-13T13:52:40.000Z</time>
      </trkpt>
      <trkpt lat="47.14077" lon="-1.46736">
        <ele>93</ele>
        <time>2021-02-13T13:52:42.000Z</time>
      </trkpt>
      <trkpt lat="47.14094" lon="-1.46739">
        <ele>92</ele>
        <time>2021-02-13T13:52:44.000Z</time>
      </trkpt>
      <trkpt lat="47.14111" lon="-1.46742">
        <ele>92</ele>
        <time>2021-02-13T13:52:46.000Z</time>
      </trkpt>
      <trkpt lat="47.14127" lon="-1.46745">
        <ele>91</ele>
        <time>2021-02-13T13:52:48.000Z</time>
      </trkpt>
      <trkpt lat="47.14144" lon="-1.46748">
        <ele>90</ele>
        <time>2021-02-13T13:52:50.000Z</time>
      </trkpt>
      <trkpt lat="47.1416" lon="-1.4675">
        <ele>89</ele>
        <time>2021-02-13T13:52:52.000Z</time>
      </trkpt>
      <trkpt lat="47.14177" lon="-1.46754">
        <ele>89</ele>
        <time>2021-02-13T13:52:54.000Z</time>
      </trkpt>
      <trkpt lat="47.14195" lon="-1.46758">
        <ele>88</ele>
        <time>2021-02-13T13:52:56.000Z</time>
      </trkpt>
      <trkpt lat="47.14212" lon="-1.46762">
        <ele>86</ele>
        <time>2021-02-13T13:52:58.000Z</time>
      </trkpt>
      <trkpt lat="47.14229" lon="-1.46765">
        <ele>86</ele>
        <time>2021-02-13T13:53:00.000Z</time>
      </trkpt>
      <trkpt lat="47.14246" lon="-1.46767">
        <ele>86</ele>
        <time>2021-02-13T13:53:02.000Z</time>
      </trkpt>
      <trkpt lat="47.14256" lon="-1.46768">
        <ele>85</ele>
        <time>2021-02-13T13:53:03.000Z</time>
      </trkpt>
      <trkpt lat="47.14265" lon="-1.46769">
        <ele>85</ele>
        <time>2021-02-13T13:53:04.000Z</time>
      </trkpt>
      <trkpt lat="47.14274" lon="-1.46771">
        <ele>85</ele>
        <time>2021-02-13T13:53:05.000Z</time>
      </trkpt>
      <trkpt lat="47.14291" lon="-1.46774">
        <ele>85</ele>
        <time>2021-02-13T13:53:07.000Z</time>
      </trkpt>
      <trkpt lat="47.14309" lon="-1.46776">
        <ele>84</ele>
        <time>2021-02-13T13:53:09.000Z</time>
      </trkpt>
      <trkpt lat="47.14326" lon="-1.46779">
        <ele>84</ele>
        <time>2021-02-13T13:53:11.000Z</time>
      </trkpt>
      <trkpt lat="47.14336" lon="-1.46781">
        <ele>84</ele>
        <time>2021-02-13T13:53:12.000Z</time>
      </trkpt>
      <trkpt lat="47.14345" lon="-1.46782">
        <ele>84</ele>
        <time>2021-02-13T13:53:13.000Z</time>
      </trkpt>
      <trkpt lat="47.14362" lon="-1.46785">
        <ele>84</ele>
        <time>2021-02-13T13:53:15.000Z</time>
      </trkpt>
      <trkpt lat="47.1438" lon="-1.46787">
        <ele>84</ele>
        <time>2021-02-13T13:53:17.000Z</time>
      </trkpt>
      <trkpt lat="47.14389" lon="-1.46787">
        <ele>83</ele>
        <time>2021-02-13T13:53:18.000Z</time>
      </trkpt>
      <trkpt lat="47.14406" lon="-1.4679">
        <ele>83</ele>
        <time>2021-02-13T13:53:20.000Z</time>
      </trkpt>
      <trkpt lat="47.14422" lon="-1.46794">
        <ele>83</ele>
        <time>2021-02-13T13:53:22.000Z</time>
      </trkpt>
      <trkpt lat="47.14439" lon="-1.46801">
        <ele>83</ele>
        <time>2021-02-13T13:53:24.000Z</time>
      </trkpt>
      <trkpt lat="47.14456" lon="-1.4681">
        <ele>82</ele>
        <time>2021-02-13T13:53:26.000Z</time>
      </trkpt>
      <trkpt lat="47.14465" lon="-1.46815">
        <ele>82</ele>
        <time>2021-02-13T13:53:27.000Z</time>
      </trkpt>
      <trkpt lat="47.14474" lon="-1.46819">
        <ele>81</ele>
        <time>2021-02-13T13:53:28.000Z</time>
      </trkpt>
      <trkpt lat="47.14491" lon="-1.46827">
        <ele>80</ele>
        <time>2021-02-13T13:53:30.000Z</time>
      </trkpt>
      <trkpt lat="47.14499" lon="-1.46833">
        <ele>79</ele>
        <time>2021-02-13T13:53:31.000Z</time>
      </trkpt>
      <trkpt lat="47.14508" lon="-1.46838">
        <ele>78</ele>
        <time>2021-02-13T13:53:32.000Z</time>
      </trkpt>
      <trkpt lat="47.14517" lon="-1.46843">
        <ele>77</ele>
        <time>2021-02-13T13:53:33.000Z</time>
      </trkpt>
      <trkpt lat="47.14526" lon="-1.46848">
        <ele>76</ele>
        <time>2021-02-13T13:53:34.000Z</time>
      </trkpt>
      <trkpt lat="47.14535" lon="-1.46854">
        <ele>76</ele>
        <time>2021-02-13T13:53:35.000Z</time>
      </trkpt>
      <trkpt lat="47.14551" lon="-1.46863">
        <ele>75</ele>
        <time>2021-02-13T13:53:37.000Z</time>
      </trkpt>
      <trkpt lat="47.14568" lon="-1.4687">
        <ele>75</ele>
        <time>2021-02-13T13:53:39.000Z</time>
      </trkpt>
      <trkpt lat="47.14586" lon="-1.46873">
        <ele>75</ele>
        <time>2021-02-13T13:53:41.000Z</time>
      </trkpt>
      <trkpt lat="47.14595" lon="-1.46873">
        <ele>75</ele>
        <time>2021-02-13T13:53:42.000Z</time>
      </trkpt>
      <trkpt lat="47.14605" lon="-1.46871">
        <ele>74</ele>
        <time>2021-02-13T13:53:43.000Z</time>
      </trkpt>
      <trkpt lat="47.14616" lon="-1.4687">
        <ele>74</ele>
        <time>2021-02-13T13:53:44.000Z</time>
      </trkpt>
      <trkpt lat="47.14626" lon="-1.46869">
        <ele>74</ele>
        <time>2021-02-13T13:53:45.000Z</time>
      </trkpt>
      <trkpt lat="47.14636" lon="-1.46867">
        <ele>74</ele>
        <time>2021-02-13T13:53:46.000Z</time>
      </trkpt>
      <trkpt lat="47.14647" lon="-1.46865">
        <ele>74</ele>
        <time>2021-02-13T13:53:47.000Z</time>
      </trkpt>
      <trkpt lat="47.14657" lon="-1.46864">
        <ele>75</ele>
        <time>2021-02-13T13:53:48.000Z</time>
      </trkpt>
      <trkpt lat="47.14666" lon="-1.46863">
        <ele>74</ele>
        <time>2021-02-13T13:53:49.000Z</time>
      </trkpt>
      <trkpt lat="47.14676" lon="-1.46862">
        <ele>74</ele>
        <time>2021-02-13T13:53:50.000Z</time>
      </trkpt>
      <trkpt lat="47.14686" lon="-1.46861">
        <ele>74</ele>
        <time>2021-02-13T13:53:51.000Z</time>
      </trkpt>
      <trkpt lat="47.14695" lon="-1.4686">
        <ele>74</ele>
        <time>2021-02-13T13:53:52.000Z</time>
      </trkpt>
      <trkpt lat="47.14705" lon="-1.4686">
        <ele>73</ele>
        <time>2021-02-13T13:53:53.000Z</time>
      </trkpt>
      <trkpt lat="47.14714" lon="-1.46859">
        <ele>73</ele>
        <time>2021-02-13T13:53:54.000Z</time>
      </trkpt>
      <trkpt lat="47.14731" lon="-1.46858">
        <ele>73</ele>
        <time>2021-02-13T13:53:56.000Z</time>
      </trkpt>
      <trkpt lat="47.14748" lon="-1.46858">
        <ele>72</ele>
        <time>2021-02-13T13:53:58.000Z</time>
      </trkpt>
      <trkpt lat="47.14766" lon="-1.46859">
        <ele>70</ele>
        <time>2021-02-13T13:54:00.000Z</time>
      </trkpt>
      <trkpt lat="47.14775" lon="-1.4686">
        <ele>70</ele>
        <time>2021-02-13T13:54:01.000Z</time>
      </trkpt>
      <trkpt lat="47.14785" lon="-1.46861">
        <ele>69</ele>
        <time>2021-02-13T13:54:02.000Z</time>
      </trkpt>
      <trkpt lat="47.14803" lon="-1.46861">
        <ele>68</ele>
        <time>2021-02-13T13:54:04.000Z</time>
      </trkpt>
      <trkpt lat="47.14812" lon="-1.46862">
        <ele>68</ele>
        <time>2021-02-13T13:54:05.000Z</time>
      </trkpt>
      <trkpt lat="47.14829" lon="-1.46862">
        <ele>67</ele>
        <time>2021-02-13T13:54:07.000Z</time>
      </trkpt>
      <trkpt lat="47.14845" lon="-1.46862">
        <ele>66</ele>
        <time>2021-02-13T13:54:09.000Z</time>
      </trkpt>
      <trkpt lat="47.14862" lon="-1.46862">
        <ele>66</ele>
        <time>2021-02-13T13:54:11.000Z</time>
      </trkpt>
      <trkpt lat="47.14878" lon="-1.46862">
        <ele>66</ele>
        <time>2021-02-13T13:54:13.000Z</time>
      </trkpt>
      <trkpt lat="47.14893" lon="-1.46862">
        <ele>65</ele>
        <time>2021-02-13T13:54:15.000Z</time>
      </trkpt>
      <trkpt lat="47.14908" lon="-1.46862">
        <ele>64</ele>
        <time>2021-02-13T13:54:17.000Z</time>
      </trkpt>
      <trkpt lat="47.14922" lon="-1.46857">
        <ele>63</ele>
        <time>2021-02-13T13:54:19.000Z</time>
      </trkpt>
      <trkpt lat="47.14937" lon="-1.4686">
        <ele>62</ele>
        <time>2021-02-13T13:54:21.000Z</time>
      </trkpt>
      <trkpt lat="47.14952" lon="-1.46859">
        <ele>61</ele>
        <time>2021-02-13T13:54:23.000Z</time>
      </trkpt>
      <trkpt lat="47.14967" lon="-1.46857">
        <ele>59</ele>
        <time>2021-02-13T13:54:25.000Z</time>
      </trkpt>
      <trkpt lat="47.14982" lon="-1.46855">
        <ele>59</ele>
        <time>2021-02-13T13:54:27.000Z</time>
      </trkpt>
      <trkpt lat="47.14998" lon="-1.46853">
        <ele>57</ele>
        <time>2021-02-13T13:54:29.000Z</time>
      </trkpt>
      <trkpt lat="47.15012" lon="-1.46853">
        <ele>57</ele>
        <time>2021-02-13T13:54:31.000Z</time>
      </trkpt>
      <trkpt lat="47.15026" lon="-1.46853">
        <ele>58</ele>
        <time>2021-02-13T13:54:33.000Z</time>
      </trkpt>
      <trkpt lat="47.15038" lon="-1.46854">
        <ele>59</ele>
        <time>2021-02-13T13:54:35.000Z</time>
      </trkpt>
      <trkpt lat="47.1505" lon="-1.46854">
        <ele>59</ele>
        <time>2021-02-13T13:54:37.000Z</time>
      </trkpt>
      <trkpt lat="47.15063" lon="-1.46854">
        <ele>59</ele>
        <time>2021-02-13T13:54:39.000Z</time>
      </trkpt>
      <trkpt lat="47.15076" lon="-1.46854">
        <ele>59</ele>
        <time>2021-02-13T13:54:41.000Z</time>
      </trkpt>
      <trkpt lat="47.1509" lon="-1.46854">
        <ele>59</ele>
        <time>2021-02-13T13:54:43.000Z</time>
      </trkpt>
      <trkpt lat="47.15104" lon="-1.46853">
        <ele>59</ele>
        <time>2021-02-13T13:54:45.000Z</time>
      </trkpt>
      <trkpt lat="47.15117" lon="-1.46853">
        <ele>59</ele>
        <time>2021-02-13T13:54:47.000Z</time>
      </trkpt>
      <trkpt lat="47.1513" lon="-1.46851">
        <ele>59</ele>
        <time>2021-02-13T13:54:49.000Z</time>
      </trkpt>
      <trkpt lat="47.15144" lon="-1.46849">
        <ele>58</ele>
        <time>2021-02-13T13:54:51.000Z</time>
      </trkpt>
      <trkpt lat="47.15158" lon="-1.46847">
        <ele>58</ele>
        <time>2021-02-13T13:54:53.000Z</time>
      </trkpt>
      <trkpt lat="47.15172" lon="-1.46846">
        <ele>57</ele>
        <time>2021-02-13T13:54:55.000Z</time>
      </trkpt>
      <trkpt lat="47.15187" lon="-1.46846">
        <ele>57</ele>
        <time>2021-02-13T13:54:57.000Z</time>
      </trkpt>
      <trkpt lat="47.15201" lon="-1.46845">
        <ele>56</ele>
        <time>2021-02-13T13:54:59.000Z</time>
      </trkpt>
      <trkpt lat="47.15215" lon="-1.46843">
        <ele>56</ele>
        <time>2021-02-13T13:55:01.000Z</time>
      </trkpt>
      <trkpt lat="47.15229" lon="-1.46842">
        <ele>56</ele>
        <time>2021-02-13T13:55:03.000Z</time>
      </trkpt>
      <trkpt lat="47.15243" lon="-1.46838">
        <ele>56</ele>
        <time>2021-02-13T13:55:05.000Z</time>
      </trkpt>
      <trkpt lat="47.15256" lon="-1.46835">
        <ele>56</ele>
        <time>2021-02-13T13:55:07.000Z</time>
      </trkpt>
      <trkpt lat="47.1527" lon="-1.46831">
        <ele>56</ele>
        <time>2021-02-13T13:55:09.000Z</time>
      </trkpt>
      <trkpt lat="47.15284" lon="-1.46826">
        <ele>56</ele>
        <time>2021-02-13T13:55:11.000Z</time>
      </trkpt>
      <trkpt lat="47.15297" lon="-1.46821">
        <ele>56</ele>
        <time>2021-02-13T13:55:13.000Z</time>
      </trkpt>
      <trkpt lat="47.15309" lon="-1.46815">
        <ele>56</ele>
        <time>2021-02-13T13:55:15.000Z</time>
      </trkpt>
      <trkpt lat="47.15322" lon="-1.46809">
        <ele>57</ele>
        <time>2021-02-13T13:55:17.000Z</time>
      </trkpt>
      <trkpt lat="47.15335" lon="-1.46803">
        <ele>57</ele>
        <time>2021-02-13T13:55:19.000Z</time>
      </trkpt>
      <trkpt lat="47.15348" lon="-1.46796">
        <ele>57</ele>
        <time>2021-02-13T13:55:21.000Z</time>
      </trkpt>
      <trkpt lat="47.15361" lon="-1.4679">
        <ele>57</ele>
        <time>2021-02-13T13:55:23.000Z</time>
      </trkpt>
      <trkpt lat="47.15374" lon="-1.46782">
        <ele>57</ele>
        <time>2021-02-13T13:55:25.000Z</time>
      </trkpt>
      <trkpt lat="47.15386" lon="-1.46774">
        <ele>57</ele>
        <time>2021-02-13T13:55:27.000Z</time>
      </trkpt>
      <trkpt lat="47.15398" lon="-1.46766">
        <ele>57</ele>
        <time>2021-02-13T13:55:29.000Z</time>
      </trkpt>
      <trkpt lat="47.1541" lon="-1.46758">
        <ele>58</ele>
        <time>2021-02-13T13:55:31.000Z</time>
      </trkpt>
      <trkpt lat="47.15422" lon="-1.4675">
        <ele>58</ele>
        <time>2021-02-13T13:55:33.000Z</time>
      </trkpt>
      <trkpt lat="47.15433" lon="-1.46741">
        <ele>58</ele>
        <time>2021-02-13T13:55:35.000Z</time>
      </trkpt>
      <trkpt lat="47.15444" lon="-1.46732">
        <ele>59</ele>
        <time>2021-02-13T13:55:37.000Z</time>
      </trkpt>
      <trkpt lat="47.15455" lon="-1.46724">
        <ele>59</ele>
        <time>2021-02-13T13:55:39.000Z</time>
      </trkpt>
      <trkpt lat="47.15466" lon="-1.46716">
        <ele>60</ele>
        <time>2021-02-13T13:55:41.000Z</time>
      </trkpt>
      <trkpt lat="47.15477" lon="-1.46708">
        <ele>61</ele>
        <time>2021-02-13T13:55:43.000Z</time>
      </trkpt>
      <trkpt lat="47.15487" lon="-1.467">
        <ele>62</ele>
        <time>2021-02-13T13:55:45.000Z</time>
      </trkpt>
      <trkpt lat="47.15498" lon="-1.46693">
        <ele>63</ele>
        <time>2021-02-13T13:55:47.000Z</time>
      </trkpt>
      <trkpt lat="47.15509" lon="-1.46685">
        <ele>64</ele>
        <time>2021-02-13T13:55:49.000Z</time>
      </trkpt>
      <trkpt lat="47.1552" lon="-1.46678">
        <ele>65</ele>
        <time>2021-02-13T13:55:51.000Z</time>
      </trkpt>
      <trkpt lat="47.15531" lon="-1.46671">
        <ele>66</ele>
        <time>2021-02-13T13:55:53.000Z</time>
      </trkpt>
      <trkpt lat="47.15542" lon="-1.46665">
        <ele>67</ele>
        <time>2021-02-13T13:55:55.000Z</time>
      </trkpt>
      <trkpt lat="47.15554" lon="-1.46659">
        <ele>68</ele>
        <time>2021-02-13T13:55:57.000Z</time>
      </trkpt>
      <trkpt lat="47.15565" lon="-1.46653">
        <ele>68</ele>
        <time>2021-02-13T13:55:59.000Z</time>
      </trkpt>
      <trkpt lat="47.15577" lon="-1.46648">
        <ele>69</ele>
        <time>2021-02-13T13:56:01.000Z</time>
      </trkpt>
      <trkpt lat="47.15587" lon="-1.46643">
        <ele>69</ele>
        <time>2021-02-13T13:56:03.000Z</time>
      </trkpt>
      <trkpt lat="47.15598" lon="-1.46639">
        <ele>70</ele>
        <time>2021-02-13T13:56:05.000Z</time>
      </trkpt>
      <trkpt lat="47.15609" lon="-1.46636">
        <ele>70</ele>
        <time>2021-02-13T13:56:07.000Z</time>
      </trkpt>
      <trkpt lat="47.15619" lon="-1.46633">
        <ele>70</ele>
        <time>2021-02-13T13:56:09.000Z</time>
      </trkpt>
      <trkpt lat="47.1563" lon="-1.4663">
        <ele>70</ele>
        <time>2021-02-13T13:56:11.000Z</time>
      </trkpt>
      <trkpt lat="47.15641" lon="-1.46628">
        <ele>70</ele>
        <time>2021-02-13T13:56:13.000Z</time>
      </trkpt>
      <trkpt lat="47.15652" lon="-1.46627">
        <ele>71</ele>
        <time>2021-02-13T13:56:15.000Z</time>
      </trkpt>
      <trkpt lat="47.15663" lon="-1.46626">
        <ele>71</ele>
        <time>2021-02-13T13:56:17.000Z</time>
      </trkpt>
      <trkpt lat="47.15674" lon="-1.46625">
        <ele>71</ele>
        <time>2021-02-13T13:56:19.000Z</time>
      </trkpt>
      <trkpt lat="47.15685" lon="-1.46624">
        <ele>70</ele>
        <time>2021-02-13T13:56:21.000Z</time>
      </trkpt>
      <trkpt lat="47.15696" lon="-1.46623">
        <ele>71</ele>
        <time>2021-02-13T13:56:23.000Z</time>
      </trkpt>
      <trkpt lat="47.15707" lon="-1.46622">
        <ele>71</ele>
        <time>2021-02-13T13:56:25.000Z</time>
      </trkpt>
      <trkpt lat="47.15718" lon="-1.46622">
        <ele>71</ele>
        <time>2021-02-13T13:56:27.000Z</time>
      </trkpt>
      <trkpt lat="47.15729" lon="-1.46622">
        <ele>71</ele>
        <time>2021-02-13T13:56:29.000Z</time>
      </trkpt>
      <trkpt lat="47.1574" lon="-1.46621">
        <ele>72</ele>
        <time>2021-02-13T13:56:31.000Z</time>
      </trkpt>
      <trkpt lat="47.15751" lon="-1.46621">
        <ele>72</ele>
        <time>2021-02-13T13:56:33.000Z</time>
      </trkpt>
      <trkpt lat="47.15761" lon="-1.4662">
        <ele>73</ele>
        <time>2021-02-13T13:56:35.000Z</time>
      </trkpt>
      <trkpt lat="47.15772" lon="-1.4662">
        <ele>73</ele>
        <time>2021-02-13T13:56:37.000Z</time>
      </trkpt>
      <trkpt lat="47.15783" lon="-1.46619">
        <ele>74</ele>
        <time>2021-02-13T13:56:39.000Z</time>
      </trkpt>
      <trkpt lat="47.15793" lon="-1.46619">
        <ele>74</ele>
        <time>2021-02-13T13:56:41.000Z</time>
      </trkpt>
      <trkpt lat="47.15804" lon="-1.46619">
        <ele>74</ele>
        <time>2021-02-13T13:56:43.000Z</time>
      </trkpt>
      <trkpt lat="47.15815" lon="-1.46619">
        <ele>74</ele>
        <time>2021-02-13T13:56:45.000Z</time>
      </trkpt>
      <trkpt lat="47.15826" lon="-1.46618">
        <ele>75</ele>
        <time>2021-02-13T13:56:47.000Z</time>
      </trkpt>
      <trkpt lat="47.15836" lon="-1.46618">
        <ele>75</ele>
        <time>2021-02-13T13:56:49.000Z</time>
      </trkpt>
      <trkpt lat="47.15847" lon="-1.46617">
        <ele>75</ele>
        <time>2021-02-13T13:56:51.000Z</time>
      </trkpt>
      <trkpt lat="47.15859" lon="-1.46617">
        <ele>75</ele>
        <time>2021-02-13T13:56:53.000Z</time>
      </trkpt>
      <trkpt lat="47.1587" lon="-1.46616">
        <ele>76</ele>
        <time>2021-02-13T13:56:55.000Z</time>
      </trkpt>
      <trkpt lat="47.15881" lon="-1.46616">
        <ele>76</ele>
        <time>2021-02-13T13:56:57.000Z</time>
      </trkpt>
      <trkpt lat="47.15892" lon="-1.46616">
        <ele>76</ele>
        <time>2021-02-13T13:56:59.000Z</time>
      </trkpt>
      <trkpt lat="47.15903" lon="-1.46616">
        <ele>76</ele>
        <time>2021-02-13T13:57:01.000Z</time>
      </trkpt>
      <trkpt lat="47.15914" lon="-1.46616">
        <ele>76</ele>
        <time>2021-02-13T13:57:03.000Z</time>
      </trkpt>
      <trkpt lat="47.15925" lon="-1.46617">
        <ele>77</ele>
        <time>2021-02-13T13:57:05.000Z</time>
      </trkpt>
      <trkpt lat="47.15937" lon="-1.46618">
        <ele>78</ele>
        <time>2021-02-13T13:57:07.000Z</time>
      </trkpt>
      <trkpt lat="47.15948" lon="-1.4662">
        <ele>78</ele>
        <time>2021-02-13T13:57:09.000Z</time>
      </trkpt>
      <trkpt lat="47.15959" lon="-1.46622">
        <ele>78</ele>
        <time>2021-02-13T13:57:11.000Z</time>
      </trkpt>
      <trkpt lat="47.1597" lon="-1.46625">
        <ele>79</ele>
        <time>2021-02-13T13:57:13.000Z</time>
      </trkpt>
      <trkpt lat="47.1598" lon="-1.46628">
        <ele>79</ele>
        <time>2021-02-13T13:57:15.000Z</time>
      </trkpt>
      <trkpt lat="47.15992" lon="-1.46632">
        <ele>79</ele>
        <time>2021-02-13T13:57:17.000Z</time>
      </trkpt>
      <trkpt lat="47.16002" lon="-1.46636">
        <ele>79</ele>
        <time>2021-02-13T13:57:19.000Z</time>
      </trkpt>
      <trkpt lat="47.16013" lon="-1.4664">
        <ele>80</ele>
        <time>2021-02-13T13:57:21.000Z</time>
      </trkpt>
      <trkpt lat="47.16024" lon="-1.46644">
        <ele>80</ele>
        <time>2021-02-13T13:57:23.000Z</time>
      </trkpt>
      <trkpt lat="47.16035" lon="-1.4665">
        <ele>80</ele>
        <time>2021-02-13T13:57:25.000Z</time>
      </trkpt>
      <trkpt lat="47.16045" lon="-1.46656">
        <ele>80</ele>
        <time>2021-02-13T13:57:27.000Z</time>
      </trkpt>
      <trkpt lat="47.16056" lon="-1.46661">
        <ele>80</ele>
        <time>2021-02-13T13:57:29.000Z</time>
      </trkpt>
      <trkpt lat="47.16066" lon="-1.46668">
        <ele>80</ele>
        <time>2021-02-13T13:57:31.000Z</time>
      </trkpt>
      <trkpt lat="47.16077" lon="-1.46676">
        <ele>80</ele>
        <time>2021-02-13T13:57:33.000Z</time>
      </trkpt>
      <trkpt lat="47.16088" lon="-1.46684">
        <ele>80</ele>
        <time>2021-02-13T13:57:35.000Z</time>
      </trkpt>
      <trkpt lat="47.16099" lon="-1.46692">
        <ele>79</ele>
        <time>2021-02-13T13:57:37.000Z</time>
      </trkpt>
      <trkpt lat="47.1611" lon="-1.467">
        <ele>79</ele>
        <time>2021-02-13T13:57:39.000Z</time>
      </trkpt>
      <trkpt lat="47.16121" lon="-1.46708">
        <ele>79</ele>
        <time>2021-02-13T13:57:41.000Z</time>
      </trkpt>
      <trkpt lat="47.16133" lon="-1.46718">
        <ele>78</ele>
        <time>2021-02-13T13:57:43.000Z</time>
      </trkpt>
      <trkpt lat="47.16146" lon="-1.46728">
        <ele>77</ele>
        <time>2021-02-13T13:57:45.000Z</time>
      </trkpt>
      <trkpt lat="47.16159" lon="-1.46737">
        <ele>77</ele>
        <time>2021-02-13T13:57:47.000Z</time>
      </trkpt>
      <trkpt lat="47.16172" lon="-1.46747">
        <ele>76</ele>
        <time>2021-02-13T13:57:49.000Z</time>
      </trkpt>
      <trkpt lat="47.16186" lon="-1.46757">
        <ele>76</ele>
        <time>2021-02-13T13:57:51.000Z</time>
      </trkpt>
      <trkpt lat="47.162" lon="-1.46767">
        <ele>75</ele>
        <time>2021-02-13T13:57:53.000Z</time>
      </trkpt>
      <trkpt lat="47.16214" lon="-1.46777">
        <ele>74</ele>
        <time>2021-02-13T13:57:55.000Z</time>
      </trkpt>
      <trkpt lat="47.16228" lon="-1.46788">
        <ele>74</ele>
        <time>2021-02-13T13:57:57.000Z</time>
      </trkpt>
      <trkpt lat="47.16242" lon="-1.46796">
        <ele>73</ele>
        <time>2021-02-13T13:57:59.000Z</time>
      </trkpt>
      <trkpt lat="47.16255" lon="-1.46798">
        <ele>74</ele>
        <time>2021-02-13T13:58:01.000Z</time>
      </trkpt>
      <trkpt lat="47.16267" lon="-1.46797">
        <ele>74</ele>
        <time>2021-02-13T13:58:03.000Z</time>
      </trkpt>
      <trkpt lat="47.16278" lon="-1.46804">
        <ele>74</ele>
        <time>2021-02-13T13:58:05.000Z</time>
      </trkpt>
      <trkpt lat="47.16286" lon="-1.46819">
        <ele>73</ele>
        <time>2021-02-13T13:58:07.000Z</time>
      </trkpt>
      <trkpt lat="47.16296" lon="-1.46832">
        <ele>73</ele>
        <time>2021-02-13T13:58:09.000Z</time>
      </trkpt>
      <trkpt lat="47.16308" lon="-1.46842">
        <ele>72</ele>
        <time>2021-02-13T13:58:11.000Z</time>
      </trkpt>
      <trkpt lat="47.1632" lon="-1.46852">
        <ele>71</ele>
        <time>2021-02-13T13:58:13.000Z</time>
      </trkpt>
      <trkpt lat="47.16332" lon="-1.46863">
        <ele>71</ele>
        <time>2021-02-13T13:58:15.000Z</time>
      </trkpt>
      <trkpt lat="47.16345" lon="-1.46874">
        <ele>70</ele>
        <time>2021-02-13T13:58:17.000Z</time>
      </trkpt>
      <trkpt lat="47.16359" lon="-1.46884">
        <ele>69</ele>
        <time>2021-02-13T13:58:19.000Z</time>
      </trkpt>
      <trkpt lat="47.16374" lon="-1.46896">
        <ele>69</ele>
        <time>2021-02-13T13:58:21.000Z</time>
      </trkpt>
      <trkpt lat="47.16387" lon="-1.46908">
        <ele>69</ele>
        <time>2021-02-13T13:58:23.000Z</time>
      </trkpt>
      <trkpt lat="47.16397" lon="-1.46922">
        <ele>69</ele>
        <time>2021-02-13T13:58:25.000Z</time>
      </trkpt>
      <trkpt lat="47.16404" lon="-1.46939">
        <ele>69</ele>
        <time>2021-02-13T13:58:27.000Z</time>
      </trkpt>
      <trkpt lat="47.16412" lon="-1.46958">
        <ele>69</ele>
        <time>2021-02-13T13:58:29.000Z</time>
      </trkpt>
      <trkpt lat="47.16419" lon="-1.46976">
        <ele>69</ele>
        <time>2021-02-13T13:58:31.000Z</time>
      </trkpt>
      <trkpt lat="47.16427" lon="-1.46994">
        <ele>69</ele>
        <time>2021-02-13T13:58:33.000Z</time>
      </trkpt>
      <trkpt lat="47.16437" lon="-1.47008">
        <ele>69</ele>
        <time>2021-02-13T13:58:35.000Z</time>
      </trkpt>
      <trkpt lat="47.16448" lon="-1.4702">
        <ele>70</ele>
        <time>2021-02-13T13:58:37.000Z</time>
      </trkpt>
      <trkpt lat="47.16459" lon="-1.4703">
        <ele>70</ele>
        <time>2021-02-13T13:58:39.000Z</time>
      </trkpt>
      <trkpt lat="47.1647" lon="-1.47037">
        <ele>70</ele>
        <time>2021-02-13T13:58:41.000Z</time>
      </trkpt>
      <trkpt lat="47.16483" lon="-1.47041">
        <ele>72</ele>
        <time>2021-02-13T13:58:43.000Z</time>
      </trkpt>
      <trkpt lat="47.16493" lon="-1.47048">
        <ele>72</ele>
        <time>2021-02-13T13:58:45.000Z</time>
      </trkpt>
      <trkpt lat="47.16502" lon="-1.47046">
        <ele>73</ele>
        <time>2021-02-13T13:58:47.000Z</time>
      </trkpt>
      <trkpt lat="47.16507" lon="-1.47032">
        <ele>74</ele>
        <time>2021-02-13T13:58:49.000Z</time>
      </trkpt>
      <trkpt lat="47.16512" lon="-1.47016">
        <ele>74</ele>
        <time>2021-02-13T13:58:51.000Z</time>
      </trkpt>
      <trkpt lat="47.16517" lon="-1.47002">
        <ele>74</ele>
        <time>2021-02-13T13:58:53.000Z</time>
      </trkpt>
      <trkpt lat="47.16522" lon="-1.46986">
        <ele>74</ele>
        <time>2021-02-13T13:58:55.000Z</time>
      </trkpt>
      <trkpt lat="47.16527" lon="-1.46972">
        <ele>74</ele>
        <time>2021-02-13T13:58:57.000Z</time>
      </trkpt>
      <trkpt lat="47.16532" lon="-1.46958">
        <ele>74</ele>
        <time>2021-02-13T13:58:59.000Z</time>
      </trkpt>
      <trkpt lat="47.16537" lon="-1.46944">
        <ele>74</ele>
        <time>2021-02-13T13:59:01.000Z</time>
      </trkpt>
      <trkpt lat="47.16541" lon="-1.46929">
        <ele>74</ele>
        <time>2021-02-13T13:59:03.000Z</time>
      </trkpt>
      <trkpt lat="47.16547" lon="-1.46914">
        <ele>74</ele>
        <time>2021-02-13T13:59:05.000Z</time>
      </trkpt>
      <trkpt lat="47.16551" lon="-1.469">
        <ele>74</ele>
        <time>2021-02-13T13:59:07.000Z</time>
      </trkpt>
      <trkpt lat="47.16556" lon="-1.46885">
        <ele>75</ele>
        <time>2021-02-13T13:59:09.000Z</time>
      </trkpt>
      <trkpt lat="47.16561" lon="-1.46871">
        <ele>76</ele>
        <time>2021-02-13T13:59:11.000Z</time>
      </trkpt>
      <trkpt lat="47.16565" lon="-1.46857">
        <ele>76</ele>
        <time>2021-02-13T13:59:13.000Z</time>
      </trkpt>
      <trkpt lat="47.1657" lon="-1.46845">
        <ele>76</ele>
        <time>2021-02-13T13:59:15.000Z</time>
      </trkpt>
      <trkpt lat="47.16574" lon="-1.46832">
        <ele>77</ele>
        <time>2021-02-13T13:59:17.000Z</time>
      </trkpt>
      <trkpt lat="47.16578" lon="-1.46819">
        <ele>78</ele>
        <time>2021-02-13T13:59:19.000Z</time>
      </trkpt>
      <trkpt lat="47.16583" lon="-1.46806">
        <ele>78</ele>
        <time>2021-02-13T13:59:21.000Z</time>
      </trkpt>
      <trkpt lat="47.16588" lon="-1.46794">
        <ele>78</ele>
        <time>2021-02-13T13:59:23.000Z</time>
      </trkpt>
      <trkpt lat="47.16595" lon="-1.46784">
        <ele>78</ele>
        <time>2021-02-13T13:59:25.000Z</time>
      </trkpt>
      <trkpt lat="47.16603" lon="-1.46773">
        <ele>78</ele>
        <time>2021-02-13T13:59:27.000Z</time>
      </trkpt>
      <trkpt lat="47.1661" lon="-1.46763">
        <ele>78</ele>
        <time>2021-02-13T13:59:29.000Z</time>
      </trkpt>
      <trkpt lat="47.16617" lon="-1.46752">
        <ele>79</ele>
        <time>2021-02-13T13:59:31.000Z</time>
      </trkpt>
      <trkpt lat="47.16625" lon="-1.46742">
        <ele>79</ele>
        <time>2021-02-13T13:59:33.000Z</time>
      </trkpt>
      <trkpt lat="47.16631" lon="-1.46733">
        <ele>79</ele>
        <time>2021-02-13T13:59:35.000Z</time>
      </trkpt>
      <trkpt lat="47.16642" lon="-1.4672">
        <ele>80</ele>
        <time>2021-02-13T13:59:38.000Z</time>
      </trkpt>
      <trkpt lat="47.16647" lon="-1.46709">
        <ele>80</ele>
        <time>2021-02-13T13:59:40.000Z</time>
      </trkpt>
      <trkpt lat="47.1665" lon="-1.46689">
        <ele>81</ele>
        <time>2021-02-13T13:59:43.000Z</time>
      </trkpt>
      <trkpt lat="47.1665" lon="-1.46675">
        <ele>81</ele>
        <time>2021-02-13T13:59:45.000Z</time>
      </trkpt>
      <trkpt lat="47.16648" lon="-1.46661">
        <ele>81</ele>
        <time>2021-02-13T13:59:47.000Z</time>
      </trkpt>
      <trkpt lat="47.16645" lon="-1.46647">
        <ele>81</ele>
        <time>2021-02-13T13:59:49.000Z</time>
      </trkpt>
      <trkpt lat="47.16643" lon="-1.46634">
        <ele>81</ele>
        <time>2021-02-13T13:59:51.000Z</time>
      </trkpt>
      <trkpt lat="47.1664" lon="-1.4662">
        <ele>81</ele>
        <time>2021-02-13T13:59:53.000Z</time>
      </trkpt>
      <trkpt lat="47.16638" lon="-1.46606">
        <ele>81</ele>
        <time>2021-02-13T13:59:55.000Z</time>
      </trkpt>
      <trkpt lat="47.16635" lon="-1.46592">
        <ele>81</ele>
        <time>2021-02-13T13:59:57.000Z</time>
      </trkpt>
      <trkpt lat="47.16632" lon="-1.46578">
        <ele>81</ele>
        <time>2021-02-13T13:59:59.000Z</time>
      </trkpt>
      <trkpt lat="47.1663" lon="-1.46564">
        <ele>81</ele>
        <time>2021-02-13T14:00:01.000Z</time>
      </trkpt>
      <trkpt lat="47.16628" lon="-1.46551">
        <ele>81</ele>
        <time>2021-02-13T14:00:03.000Z</time>
      </trkpt>
      <trkpt lat="47.16626" lon="-1.46537">
        <ele>82</ele>
        <time>2021-02-13T14:00:05.000Z</time>
      </trkpt>
      <trkpt lat="47.16624" lon="-1.46523">
        <ele>82</ele>
        <time>2021-02-13T14:00:07.000Z</time>
      </trkpt>
      <trkpt lat="47.16622" lon="-1.4651">
        <ele>82</ele>
        <time>2021-02-13T14:00:09.000Z</time>
      </trkpt>
      <trkpt lat="47.1662" lon="-1.46497">
        <ele>82</ele>
        <time>2021-02-13T14:00:11.000Z</time>
      </trkpt>
      <trkpt lat="47.16619" lon="-1.46483">
        <ele>83</ele>
        <time>2021-02-13T14:00:13.000Z</time>
      </trkpt>
      <trkpt lat="47.16616" lon="-1.4647">
        <ele>83</ele>
        <time>2021-02-13T14:00:15.000Z</time>
      </trkpt>
      <trkpt lat="47.16614" lon="-1.46457">
        <ele>84</ele>
        <time>2021-02-13T14:00:17.000Z</time>
      </trkpt>
      <trkpt lat="47.16611" lon="-1.46438">
        <ele>84</ele>
        <time>2021-02-13T14:00:20.000Z</time>
      </trkpt>
      <trkpt lat="47.1661" lon="-1.46425">
        <ele>85</ele>
        <time>2021-02-13T14:00:22.000Z</time>
      </trkpt>
      <trkpt lat="47.16609" lon="-1.46411">
        <ele>85</ele>
        <time>2021-02-13T14:00:24.000Z</time>
      </trkpt>
      <trkpt lat="47.16607" lon="-1.46397">
        <ele>85</ele>
        <time>2021-02-13T14:00:26.000Z</time>
      </trkpt>
      <trkpt lat="47.16606" lon="-1.46383">
        <ele>85</ele>
        <time>2021-02-13T14:00:28.000Z</time>
      </trkpt>
      <trkpt lat="47.16606" lon="-1.46369">
        <ele>85</ele>
        <time>2021-02-13T14:00:30.000Z</time>
      </trkpt>
      <trkpt lat="47.16606" lon="-1.46355">
        <ele>85</ele>
        <time>2021-02-13T14:00:32.000Z</time>
      </trkpt>
      <trkpt lat="47.16605" lon="-1.46341">
        <ele>85</ele>
        <time>2021-02-13T14:00:34.000Z</time>
      </trkpt>
      <trkpt lat="47.16605" lon="-1.46327">
        <ele>85</ele>
        <time>2021-02-13T14:00:36.000Z</time>
      </trkpt>
      <trkpt lat="47.16604" lon="-1.46312">
        <ele>86</ele>
        <time>2021-02-13T14:00:38.000Z</time>
      </trkpt>
      <trkpt lat="47.16604" lon="-1.46293">
        <ele>86</ele>
        <time>2021-02-13T14:00:41.000Z</time>
      </trkpt>
      <trkpt lat="47.16604" lon="-1.46274">
        <ele>87</ele>
        <time>2021-02-13T14:00:44.000Z</time>
      </trkpt>
      <trkpt lat="47.16615" lon="-1.46268">
        <ele>86</ele>
        <time>2021-02-13T14:00:48.000Z</time>
      </trkpt>
      <trkpt lat="47.16625" lon="-1.46267">
        <ele>86</ele>
        <time>2021-02-13T14:00:51.000Z</time>
      </trkpt>
      <trkpt lat="47.16634" lon="-1.46257">
        <ele>86</ele>
        <time>2021-02-13T14:00:54.000Z</time>
      </trkpt>
      <trkpt lat="47.16645" lon="-1.46269">
        <ele>87</ele>
        <time>2021-02-13T14:00:57.000Z</time>
      </trkpt>
      <trkpt lat="47.16652" lon="-1.4628">
        <ele>88</ele>
        <time>2021-02-13T14:00:59.000Z</time>
      </trkpt>
      <trkpt lat="47.16658" lon="-1.46291">
        <ele>87</ele>
        <time>2021-02-13T14:01:01.000Z</time>
      </trkpt>
      <trkpt lat="47.16663" lon="-1.46306">
        <ele>87</ele>
        <time>2021-02-13T14:01:03.000Z</time>
      </trkpt>
      <trkpt lat="47.16669" lon="-1.46319">
        <ele>88</ele>
        <time>2021-02-13T14:01:05.000Z</time>
      </trkpt>
      <trkpt lat="47.16677" lon="-1.46332">
        <ele>88</ele>
        <time>2021-02-13T14:01:07.000Z</time>
      </trkpt>
      <trkpt lat="47.16684" lon="-1.46346">
        <ele>88</ele>
        <time>2021-02-13T14:01:09.000Z</time>
      </trkpt>
      <trkpt lat="47.16691" lon="-1.4636">
        <ele>87</ele>
        <time>2021-02-13T14:01:11.000Z</time>
      </trkpt>
      <trkpt lat="47.16698" lon="-1.46374">
        <ele>86</ele>
        <time>2021-02-13T14:01:13.000Z</time>
      </trkpt>
      <trkpt lat="47.16706" lon="-1.46388">
        <ele>85</ele>
        <time>2021-02-13T14:01:15.000Z</time>
      </trkpt>
      <trkpt lat="47.16713" lon="-1.46401">
        <ele>85</ele>
        <time>2021-02-13T14:01:17.000Z</time>
      </trkpt>
      <trkpt lat="47.16721" lon="-1.46415">
        <ele>84</ele>
        <time>2021-02-13T14:01:19.000Z</time>
      </trkpt>
      <trkpt lat="47.16729" lon="-1.46428">
        <ele>84</ele>
        <time>2021-02-13T14:01:21.000Z</time>
      </trkpt>
      <trkpt lat="47.16738" lon="-1.46442">
        <ele>83</ele>
        <time>2021-02-13T14:01:23.000Z</time>
      </trkpt>
      <trkpt lat="47.16747" lon="-1.46456">
        <ele>84</ele>
        <time>2021-02-13T14:01:25.000Z</time>
      </trkpt>
      <trkpt lat="47.16756" lon="-1.46469">
        <ele>83</ele>
        <time>2021-02-13T14:01:27.000Z</time>
      </trkpt>
      <trkpt lat="47.16766" lon="-1.46482">
        <ele>83</ele>
        <time>2021-02-13T14:01:29.000Z</time>
      </trkpt>
      <trkpt lat="47.16776" lon="-1.46496">
        <ele>83</ele>
        <time>2021-02-13T14:01:31.000Z</time>
      </trkpt>
      <trkpt lat="47.16786" lon="-1.46508">
        <ele>83</ele>
        <time>2021-02-13T14:01:33.000Z</time>
      </trkpt>
      <trkpt lat="47.16797" lon="-1.46519">
        <ele>83</ele>
        <time>2021-02-13T14:01:35.000Z</time>
      </trkpt>
      <trkpt lat="47.16806" lon="-1.46532">
        <ele>83</ele>
        <time>2021-02-13T14:01:37.000Z</time>
      </trkpt>
      <trkpt lat="47.16817" lon="-1.46545">
        <ele>83</ele>
        <time>2021-02-13T14:01:39.000Z</time>
      </trkpt>
      <trkpt lat="47.16827" lon="-1.46557">
        <ele>83</ele>
        <time>2021-02-13T14:01:41.000Z</time>
      </trkpt>
      <trkpt lat="47.16838" lon="-1.46568">
        <ele>82</ele>
        <time>2021-02-13T14:01:43.000Z</time>
      </trkpt>
      <trkpt lat="47.16849" lon="-1.46579">
        <ele>82</ele>
        <time>2021-02-13T14:01:45.000Z</time>
      </trkpt>
      <trkpt lat="47.16861" lon="-1.46589">
        <ele>81</ele>
        <time>2021-02-13T14:01:47.000Z</time>
      </trkpt>
      <trkpt lat="47.16873" lon="-1.46599">
        <ele>81</ele>
        <time>2021-02-13T14:01:49.000Z</time>
      </trkpt>
      <trkpt lat="47.16885" lon="-1.46609">
        <ele>81</ele>
        <time>2021-02-13T14:01:51.000Z</time>
      </trkpt>
      <trkpt lat="47.16897" lon="-1.4662">
        <ele>81</ele>
        <time>2021-02-13T14:01:53.000Z</time>
      </trkpt>
      <trkpt lat="47.16909" lon="-1.46629">
        <ele>81</ele>
        <time>2021-02-13T14:01:55.000Z</time>
      </trkpt>
      <trkpt lat="47.16921" lon="-1.46638">
        <ele>81</ele>
        <time>2021-02-13T14:01:57.000Z</time>
      </trkpt>
      <trkpt lat="47.16933" lon="-1.46648">
        <ele>81</ele>
        <time>2021-02-13T14:01:59.000Z</time>
      </trkpt>
      <trkpt lat="47.16945" lon="-1.46657">
        <ele>80</ele>
        <time>2021-02-13T14:02:01.000Z</time>
      </trkpt>
      <trkpt lat="47.16957" lon="-1.46664">
        <ele>80</ele>
        <time>2021-02-13T14:02:03.000Z</time>
      </trkpt>
      <trkpt lat="47.1697" lon="-1.46669">
        <ele>79</ele>
        <time>2021-02-13T14:02:05.000Z</time>
      </trkpt>
      <trkpt lat="47.16981" lon="-1.46681">
        <ele>79</ele>
        <time>2021-02-13T14:02:07.000Z</time>
      </trkpt>
      <trkpt lat="47.16991" lon="-1.46696">
        <ele>78</ele>
        <time>2021-02-13T14:02:09.000Z</time>
      </trkpt>
      <trkpt lat="47.17003" lon="-1.46707">
        <ele>77</ele>
        <time>2021-02-13T14:02:11.000Z</time>
      </trkpt>
      <trkpt lat="47.17016" lon="-1.46715">
        <ele>76</ele>
        <time>2021-02-13T14:02:13.000Z</time>
      </trkpt>
      <trkpt lat="47.1703" lon="-1.46725">
        <ele>75</ele>
        <time>2021-02-13T14:02:15.000Z</time>
      </trkpt>
      <trkpt lat="47.17044" lon="-1.46736">
        <ele>74</ele>
        <time>2021-02-13T14:02:17.000Z</time>
      </trkpt>
      <trkpt lat="47.17058" lon="-1.46747">
        <ele>73</ele>
        <time>2021-02-13T14:02:19.000Z</time>
      </trkpt>
      <trkpt lat="47.17071" lon="-1.4676">
        <ele>72</ele>
        <time>2021-02-13T14:02:21.000Z</time>
      </trkpt>
      <trkpt lat="47.17084" lon="-1.46774">
        <ele>71</ele>
        <time>2021-02-13T14:02:23.000Z</time>
      </trkpt>
      <trkpt lat="47.17098" lon="-1.46788">
        <ele>71</ele>
        <time>2021-02-13T14:02:25.000Z</time>
      </trkpt>
      <trkpt lat="47.17112" lon="-1.46801">
        <ele>70</ele>
        <time>2021-02-13T14:02:27.000Z</time>
      </trkpt>
      <trkpt lat="47.17127" lon="-1.46809">
        <ele>71</ele>
        <time>2021-02-13T14:02:29.000Z</time>
      </trkpt>
      <trkpt lat="47.17138" lon="-1.46829">
        <ele>71</ele>
        <time>2021-02-13T14:02:31.000Z</time>
      </trkpt>
      <trkpt lat="47.17147" lon="-1.46849">
        <ele>71</ele>
        <time>2021-02-13T14:02:33.000Z</time>
      </trkpt>
      <trkpt lat="47.17159" lon="-1.46866">
        <ele>70</ele>
        <time>2021-02-13T14:02:35.000Z</time>
      </trkpt>
      <trkpt lat="47.1717" lon="-1.46884">
        <ele>70</ele>
        <time>2021-02-13T14:02:37.000Z</time>
      </trkpt>
      <trkpt lat="47.17181" lon="-1.46903">
        <ele>69</ele>
        <time>2021-02-13T14:02:39.000Z</time>
      </trkpt>
      <trkpt lat="47.17191" lon="-1.46924">
        <ele>68</ele>
        <time>2021-02-13T14:02:41.000Z</time>
      </trkpt>
      <trkpt lat="47.17201" lon="-1.46944">
        <ele>67</ele>
        <time>2021-02-13T14:02:43.000Z</time>
      </trkpt>
      <trkpt lat="47.17212" lon="-1.46965">
        <ele>67</ele>
        <time>2021-02-13T14:02:45.000Z</time>
      </trkpt>
      <trkpt lat="47.1722" lon="-1.46985">
        <ele>67</ele>
        <time>2021-02-13T14:02:47.000Z</time>
      </trkpt>
      <trkpt lat="47.17228" lon="-1.47007">
        <ele>66</ele>
        <time>2021-02-13T14:02:49.000Z</time>
      </trkpt>
      <trkpt lat="47.17234" lon="-1.47029">
        <ele>67</ele>
        <time>2021-02-13T14:02:51.000Z</time>
      </trkpt>
      <trkpt lat="47.1724" lon="-1.4705">
        <ele>66</ele>
        <time>2021-02-13T14:02:53.000Z</time>
      </trkpt>
      <trkpt lat="47.17246" lon="-1.47071">
        <ele>65</ele>
        <time>2021-02-13T14:02:55.000Z</time>
      </trkpt>
      <trkpt lat="47.17252" lon="-1.47093">
        <ele>65</ele>
        <time>2021-02-13T14:02:57.000Z</time>
      </trkpt>
      <trkpt lat="47.17258" lon="-1.47114">
        <ele>65</ele>
        <time>2021-02-13T14:02:59.000Z</time>
      </trkpt>
      <trkpt lat="47.17261" lon="-1.47136">
        <ele>65</ele>
        <time>2021-02-13T14:03:01.000Z</time>
      </trkpt>
      <trkpt lat="47.17265" lon="-1.47158">
        <ele>65</ele>
        <time>2021-02-13T14:03:03.000Z</time>
      </trkpt>
      <trkpt lat="47.17271" lon="-1.47181">
        <ele>64</ele>
        <time>2021-02-13T14:03:05.000Z</time>
      </trkpt>
      <trkpt lat="47.17276" lon="-1.47204">
        <ele>64</ele>
        <time>2021-02-13T14:03:07.000Z</time>
      </trkpt>
      <trkpt lat="47.17282" lon="-1.47227">
        <ele>62</ele>
        <time>2021-02-13T14:03:09.000Z</time>
      </trkpt>
      <trkpt lat="47.17286" lon="-1.47251">
        <ele>61</ele>
        <time>2021-02-13T14:03:11.000Z</time>
      </trkpt>
      <trkpt lat="47.1729" lon="-1.47275">
        <ele>61</ele>
        <time>2021-02-13T14:03:13.000Z</time>
      </trkpt>
      <trkpt lat="47.17293" lon="-1.47298">
        <ele>60</ele>
        <time>2021-02-13T14:03:15.000Z</time>
      </trkpt>
      <trkpt lat="47.17297" lon="-1.47321">
        <ele>59</ele>
        <time>2021-02-13T14:03:17.000Z</time>
      </trkpt>
      <trkpt lat="47.17301" lon="-1.47344">
        <ele>59</ele>
        <time>2021-02-13T14:03:19.000Z</time>
      </trkpt>
      <trkpt lat="47.17308" lon="-1.47365">
        <ele>59</ele>
        <time>2021-02-13T14:03:21.000Z</time>
      </trkpt>
      <trkpt lat="47.17326" lon="-1.47366">
        <ele>59</ele>
        <time>2021-02-13T14:03:23.000Z</time>
      </trkpt>
      <trkpt lat="47.17336" lon="-1.47362">
        <ele>60</ele>
        <time>2021-02-13T14:03:24.000Z</time>
      </trkpt>
      <trkpt lat="47.17345" lon="-1.4736">
        <ele>60</ele>
        <time>2021-02-13T14:03:25.000Z</time>
      </trkpt>
      <trkpt lat="47.17362" lon="-1.47355">
        <ele>61</ele>
        <time>2021-02-13T14:03:27.000Z</time>
      </trkpt>
      <trkpt lat="47.17379" lon="-1.47353">
        <ele>61</ele>
        <time>2021-02-13T14:03:29.000Z</time>
      </trkpt>
      <trkpt lat="47.17396" lon="-1.47351">
        <ele>61</ele>
        <time>2021-02-13T14:03:31.000Z</time>
      </trkpt>
      <trkpt lat="47.17412" lon="-1.4735">
        <ele>60</ele>
        <time>2021-02-13T14:03:33.000Z</time>
      </trkpt>
      <trkpt lat="47.17429" lon="-1.47348">
        <ele>59</ele>
        <time>2021-02-13T14:03:35.000Z</time>
      </trkpt>
      <trkpt lat="47.17446" lon="-1.47348">
        <ele>59</ele>
        <time>2021-02-13T14:03:37.000Z</time>
      </trkpt>
      <trkpt lat="47.17462" lon="-1.47349">
        <ele>58</ele>
        <time>2021-02-13T14:03:39.000Z</time>
      </trkpt>
      <trkpt lat="47.17478" lon="-1.47349">
        <ele>58</ele>
        <time>2021-02-13T14:03:41.000Z</time>
      </trkpt>
      <trkpt lat="47.17495" lon="-1.47351">
        <ele>58</ele>
        <time>2021-02-13T14:03:43.000Z</time>
      </trkpt>
      <trkpt lat="47.17504" lon="-1.47351">
        <ele>57</ele>
        <time>2021-02-13T14:03:44.000Z</time>
      </trkpt>
      <trkpt lat="47.17522" lon="-1.47351">
        <ele>57</ele>
        <time>2021-02-13T14:03:46.000Z</time>
      </trkpt>
      <trkpt lat="47.17539" lon="-1.47351">
        <ele>57</ele>
        <time>2021-02-13T14:03:48.000Z</time>
      </trkpt>
      <trkpt lat="47.17556" lon="-1.47352">
        <ele>57</ele>
        <time>2021-02-13T14:03:50.000Z</time>
      </trkpt>
      <trkpt lat="47.17572" lon="-1.47354">
        <ele>57</ele>
        <time>2021-02-13T14:03:52.000Z</time>
      </trkpt>
      <trkpt lat="47.17588" lon="-1.47358">
        <ele>57</ele>
        <time>2021-02-13T14:03:54.000Z</time>
      </trkpt>
      <trkpt lat="47.17604" lon="-1.47361">
        <ele>57</ele>
        <time>2021-02-13T14:03:56.000Z</time>
      </trkpt>
      <trkpt lat="47.1762" lon="-1.47366">
        <ele>56</ele>
        <time>2021-02-13T14:03:58.000Z</time>
      </trkpt>
      <trkpt lat="47.17634" lon="-1.4737">
        <ele>56</ele>
        <time>2021-02-13T14:04:00.000Z</time>
      </trkpt>
      <trkpt lat="47.17648" lon="-1.47376">
        <ele>56</ele>
        <time>2021-02-13T14:04:02.000Z</time>
      </trkpt>
      <trkpt lat="47.17661" lon="-1.47383">
        <ele>57</ele>
        <time>2021-02-13T14:04:04.000Z</time>
      </trkpt>
      <trkpt lat="47.17674" lon="-1.4739">
        <ele>57</ele>
        <time>2021-02-13T14:04:06.000Z</time>
      </trkpt>
      <trkpt lat="47.17687" lon="-1.47396">
        <ele>58</ele>
        <time>2021-02-13T14:04:08.000Z</time>
      </trkpt>
      <trkpt lat="47.17698" lon="-1.47403">
        <ele>58</ele>
        <time>2021-02-13T14:04:10.000Z</time>
      </trkpt>
      <trkpt lat="47.1771" lon="-1.47408">
        <ele>58</ele>
        <time>2021-02-13T14:04:12.000Z</time>
      </trkpt>
      <trkpt lat="47.17722" lon="-1.47413">
        <ele>59</ele>
        <time>2021-02-13T14:04:14.000Z</time>
      </trkpt>
      <trkpt lat="47.17736" lon="-1.47419">
        <ele>59</ele>
        <time>2021-02-13T14:04:16.000Z</time>
      </trkpt>
      <trkpt lat="47.17749" lon="-1.47426">
        <ele>59</ele>
        <time>2021-02-13T14:04:18.000Z</time>
      </trkpt>
      <trkpt lat="47.17762" lon="-1.47433">
        <ele>58</ele>
        <time>2021-02-13T14:04:20.000Z</time>
      </trkpt>
      <trkpt lat="47.17776" lon="-1.4744">
        <ele>58</ele>
        <time>2021-02-13T14:04:22.000Z</time>
      </trkpt>
      <trkpt lat="47.17789" lon="-1.47447">
        <ele>57</ele>
        <time>2021-02-13T14:04:24.000Z</time>
      </trkpt>
      <trkpt lat="47.17803" lon="-1.47452">
        <ele>58</ele>
        <time>2021-02-13T14:04:26.000Z</time>
      </trkpt>
      <trkpt lat="47.17816" lon="-1.47456">
        <ele>57</ele>
        <time>2021-02-13T14:04:28.000Z</time>
      </trkpt>
      <trkpt lat="47.1783" lon="-1.4746">
        <ele>58</ele>
        <time>2021-02-13T14:04:30.000Z</time>
      </trkpt>
      <trkpt lat="47.17843" lon="-1.47465">
        <ele>57</ele>
        <time>2021-02-13T14:04:32.000Z</time>
      </trkpt>
      <trkpt lat="47.17857" lon="-1.47468">
        <ele>57</ele>
        <time>2021-02-13T14:04:34.000Z</time>
      </trkpt>
      <trkpt lat="47.17876" lon="-1.47471">
        <ele>56</ele>
        <time>2021-02-13T14:04:37.000Z</time>
      </trkpt>
      <trkpt lat="47.17889" lon="-1.47469">
        <ele>56</ele>
        <time>2021-02-13T14:04:39.000Z</time>
      </trkpt>
      <trkpt lat="47.17901" lon="-1.47463">
        <ele>56</ele>
        <time>2021-02-13T14:04:41.000Z</time>
      </trkpt>
      <trkpt lat="47.17914" lon="-1.47465">
        <ele>57</ele>
        <time>2021-02-13T14:04:43.000Z</time>
      </trkpt>
      <trkpt lat="47.17925" lon="-1.47476">
        <ele>57</ele>
        <time>2021-02-13T14:04:45.000Z</time>
      </trkpt>
      <trkpt lat="47.17934" lon="-1.47487">
        <ele>57</ele>
        <time>2021-02-13T14:04:47.000Z</time>
      </trkpt>
      <trkpt lat="47.17947" lon="-1.4749">
        <ele>58</ele>
        <time>2021-02-13T14:04:49.000Z</time>
      </trkpt>
      <trkpt lat="47.17959" lon="-1.47493">
        <ele>58</ele>
        <time>2021-02-13T14:04:51.000Z</time>
      </trkpt>
      <trkpt lat="47.17971" lon="-1.47497">
        <ele>58</ele>
        <time>2021-02-13T14:04:53.000Z</time>
      </trkpt>
      <trkpt lat="47.17984" lon="-1.47501">
        <ele>58</ele>
        <time>2021-02-13T14:04:55.000Z</time>
      </trkpt>
      <trkpt lat="47.17997" lon="-1.47505">
        <ele>58</ele>
        <time>2021-02-13T14:04:57.000Z</time>
      </trkpt>
      <trkpt lat="47.18009" lon="-1.47509">
        <ele>58</ele>
        <time>2021-02-13T14:04:59.000Z</time>
      </trkpt>
      <trkpt lat="47.18021" lon="-1.47511">
        <ele>58</ele>
        <time>2021-02-13T14:05:01.000Z</time>
      </trkpt>
      <trkpt lat="47.18034" lon="-1.47514">
        <ele>58</ele>
        <time>2021-02-13T14:05:03.000Z</time>
      </trkpt>
      <trkpt lat="47.18046" lon="-1.47517">
        <ele>59</ele>
        <time>2021-02-13T14:05:05.000Z</time>
      </trkpt>
      <trkpt lat="47.18064" lon="-1.47522">
        <ele>59</ele>
        <time>2021-02-13T14:05:08.000Z</time>
      </trkpt>
      <trkpt lat="47.18076" lon="-1.47524">
        <ele>59</ele>
        <time>2021-02-13T14:05:10.000Z</time>
      </trkpt>
      <trkpt lat="47.18088" lon="-1.47528">
        <ele>60</ele>
        <time>2021-02-13T14:05:12.000Z</time>
      </trkpt>
      <trkpt lat="47.181" lon="-1.47531">
        <ele>60</ele>
        <time>2021-02-13T14:05:14.000Z</time>
      </trkpt>
      <trkpt lat="47.18117" lon="-1.47536">
        <ele>60</ele>
        <time>2021-02-13T14:05:17.000Z</time>
      </trkpt>
      <trkpt lat="47.18128" lon="-1.47538">
        <ele>60</ele>
        <time>2021-02-13T14:05:19.000Z</time>
      </trkpt>
      <trkpt lat="47.18139" lon="-1.4754">
        <ele>61</ele>
        <time>2021-02-13T14:05:21.000Z</time>
      </trkpt>
      <trkpt lat="47.18151" lon="-1.47542">
        <ele>61</ele>
        <time>2021-02-13T14:05:23.000Z</time>
      </trkpt>
      <trkpt lat="47.18163" lon="-1.47546">
        <ele>61</ele>
        <time>2021-02-13T14:05:25.000Z</time>
      </trkpt>
      <trkpt lat="47.18174" lon="-1.47548">
        <ele>61</ele>
        <time>2021-02-13T14:05:27.000Z</time>
      </trkpt>
      <trkpt lat="47.18185" lon="-1.4755">
        <ele>61</ele>
        <time>2021-02-13T14:05:29.000Z</time>
      </trkpt>
      <trkpt lat="47.18202" lon="-1.47554">
        <ele>62</ele>
        <time>2021-02-13T14:05:32.000Z</time>
      </trkpt>
      <trkpt lat="47.1822" lon="-1.47559">
        <ele>63</ele>
        <time>2021-02-13T14:05:35.000Z</time>
      </trkpt>
      <trkpt lat="47.18231" lon="-1.47563">
        <ele>62</ele>
        <time>2021-02-13T14:05:37.000Z</time>
      </trkpt>
      <trkpt lat="47.18242" lon="-1.47566">
        <ele>62</ele>
        <time>2021-02-13T14:05:39.000Z</time>
      </trkpt>
      <trkpt lat="47.18253" lon="-1.4757">
        <ele>63</ele>
        <time>2021-02-13T14:05:41.000Z</time>
      </trkpt>
      <trkpt lat="47.18264" lon="-1.47573">
        <ele>63</ele>
        <time>2021-02-13T14:05:43.000Z</time>
      </trkpt>
      <trkpt lat="47.1828" lon="-1.47579">
        <ele>64</ele>
        <time>2021-02-13T14:05:46.000Z</time>
      </trkpt>
      <trkpt lat="47.18291" lon="-1.47582">
        <ele>64</ele>
        <time>2021-02-13T14:05:48.000Z</time>
      </trkpt>
      <trkpt lat="47.18302" lon="-1.47585">
        <ele>64</ele>
        <time>2021-02-13T14:05:50.000Z</time>
      </trkpt>
      <trkpt lat="47.18313" lon="-1.47588">
        <ele>64</ele>
        <time>2021-02-13T14:05:52.000Z</time>
      </trkpt>
      <trkpt lat="47.18324" lon="-1.47591">
        <ele>65</ele>
        <time>2021-02-13T14:05:54.000Z</time>
      </trkpt>
      <trkpt lat="47.18335" lon="-1.47595">
        <ele>64</ele>
        <time>2021-02-13T14:05:56.000Z</time>
      </trkpt>
      <trkpt lat="47.18345" lon="-1.47598">
        <ele>64</ele>
        <time>2021-02-13T14:05:58.000Z</time>
      </trkpt>
      <trkpt lat="47.18356" lon="-1.47601">
        <ele>65</ele>
        <time>2021-02-13T14:06:00.000Z</time>
      </trkpt>
      <trkpt lat="47.18372" lon="-1.47602">
        <ele>67</ele>
        <time>2021-02-13T14:06:03.000Z</time>
      </trkpt>
      <trkpt lat="47.18382" lon="-1.47604">
        <ele>67</ele>
        <time>2021-02-13T14:06:05.000Z</time>
      </trkpt>
      <trkpt lat="47.18392" lon="-1.47606">
        <ele>67</ele>
        <time>2021-02-13T14:06:07.000Z</time>
      </trkpt>
      <trkpt lat="47.18401" lon="-1.47608">
        <ele>68</ele>
        <time>2021-02-13T14:06:09.000Z</time>
      </trkpt>
      <trkpt lat="47.18411" lon="-1.4761">
        <ele>68</ele>
        <time>2021-02-13T14:06:11.000Z</time>
      </trkpt>
      <trkpt lat="47.18421" lon="-1.47613">
        <ele>68</ele>
        <time>2021-02-13T14:06:13.000Z</time>
      </trkpt>
      <trkpt lat="47.18431" lon="-1.47616">
        <ele>69</ele>
        <time>2021-02-13T14:06:15.000Z</time>
      </trkpt>
      <trkpt lat="47.18441" lon="-1.47619">
        <ele>69</ele>
        <time>2021-02-13T14:06:17.000Z</time>
      </trkpt>
      <trkpt lat="47.1845" lon="-1.47623">
        <ele>70</ele>
        <time>2021-02-13T14:06:19.000Z</time>
      </trkpt>
      <trkpt lat="47.1846" lon="-1.47625">
        <ele>70</ele>
        <time>2021-02-13T14:06:21.000Z</time>
      </trkpt>
      <trkpt lat="47.1847" lon="-1.47629">
        <ele>71</ele>
        <time>2021-02-13T14:06:23.000Z</time>
      </trkpt>
      <trkpt lat="47.18479" lon="-1.47632">
        <ele>71</ele>
        <time>2021-02-13T14:06:25.000Z</time>
      </trkpt>
      <trkpt lat="47.18492" lon="-1.47635">
        <ele>73</ele>
        <time>2021-02-13T14:06:28.000Z</time>
      </trkpt>
      <trkpt lat="47.1851" lon="-1.4764">
        <ele>75</ele>
        <time>2021-02-13T14:06:32.000Z</time>
      </trkpt>
      <trkpt lat="47.1852" lon="-1.47642">
        <ele>75</ele>
        <time>2021-02-13T14:06:34.000Z</time>
      </trkpt>
      <trkpt lat="47.1853" lon="-1.47644">
        <ele>75</ele>
        <time>2021-02-13T14:06:36.000Z</time>
      </trkpt>
      <trkpt lat="47.18539" lon="-1.47646">
        <ele>75</ele>
        <time>2021-02-13T14:06:38.000Z</time>
      </trkpt>
      <trkpt lat="47.18552" lon="-1.47649">
        <ele>77</ele>
        <time>2021-02-13T14:06:41.000Z</time>
      </trkpt>
      <trkpt lat="47.18564" lon="-1.47654">
        <ele>78</ele>
        <time>2021-02-13T14:06:44.000Z</time>
      </trkpt>
      <trkpt lat="47.18574" lon="-1.47657">
        <ele>78</ele>
        <time>2021-02-13T14:06:46.000Z</time>
      </trkpt>
      <trkpt lat="47.18584" lon="-1.47659">
        <ele>78</ele>
        <time>2021-02-13T14:06:48.000Z</time>
      </trkpt>
      <trkpt lat="47.18595" lon="-1.47662">
        <ele>77</ele>
        <time>2021-02-13T14:06:50.000Z</time>
      </trkpt>
      <trkpt lat="47.18606" lon="-1.47665">
        <ele>78</ele>
        <time>2021-02-13T14:06:52.000Z</time>
      </trkpt>
      <trkpt lat="47.18616" lon="-1.47669">
        <ele>78</ele>
        <time>2021-02-13T14:06:54.000Z</time>
      </trkpt>
      <trkpt lat="47.18627" lon="-1.47672">
        <ele>78</ele>
        <time>2021-02-13T14:06:56.000Z</time>
      </trkpt>
      <trkpt lat="47.18638" lon="-1.47674">
        <ele>78</ele>
        <time>2021-02-13T14:06:58.000Z</time>
      </trkpt>
      <trkpt lat="47.18648" lon="-1.47676">
        <ele>79</ele>
        <time>2021-02-13T14:07:00.000Z</time>
      </trkpt>
      <trkpt lat="47.18657" lon="-1.47679">
        <ele>79</ele>
        <time>2021-02-13T14:07:02.000Z</time>
      </trkpt>
      <trkpt lat="47.18668" lon="-1.47681">
        <ele>79</ele>
        <time>2021-02-13T14:07:05.000Z</time>
      </trkpt>
      <trkpt lat="47.18677" lon="-1.47683">
        <ele>80</ele>
        <time>2021-02-13T14:07:11.000Z</time>
      </trkpt>
      <trkpt lat="47.18689" lon="-1.4768">
        <ele>80</ele>
        <time>2021-02-13T14:07:39.000Z</time>
      </trkpt>
      <trkpt lat="47.18699" lon="-1.47679">
        <ele>79</ele>
        <time>2021-02-13T14:07:41.000Z</time>
      </trkpt>
      <trkpt lat="47.18709" lon="-1.47674">
        <ele>80</ele>
        <time>2021-02-13T14:07:43.000Z</time>
      </trkpt>
      <trkpt lat="47.18715" lon="-1.47659">
        <ele>80</ele>
        <time>2021-02-13T14:07:45.000Z</time>
      </trkpt>
      <trkpt lat="47.1872" lon="-1.47644">
        <ele>79</ele>
        <time>2021-02-13T14:07:47.000Z</time>
      </trkpt>
      <trkpt lat="47.18726" lon="-1.4763">
        <ele>78</ele>
        <time>2021-02-13T14:07:49.000Z</time>
      </trkpt>
      <trkpt lat="47.18733" lon="-1.47615">
        <ele>79</ele>
        <time>2021-02-13T14:07:51.000Z</time>
      </trkpt>
      <trkpt lat="47.1874" lon="-1.47601">
        <ele>79</ele>
        <time>2021-02-13T14:07:53.000Z</time>
      </trkpt>
      <trkpt lat="47.18747" lon="-1.47587">
        <ele>79</ele>
        <time>2021-02-13T14:07:55.000Z</time>
      </trkpt>
      <trkpt lat="47.18754" lon="-1.47573">
        <ele>79</ele>
        <time>2021-02-13T14:07:57.000Z</time>
      </trkpt>
      <trkpt lat="47.18761" lon="-1.4756">
        <ele>80</ele>
        <time>2021-02-13T14:07:59.000Z</time>
      </trkpt>
      <trkpt lat="47.18767" lon="-1.47547">
        <ele>80</ele>
        <time>2021-02-13T14:08:01.000Z</time>
      </trkpt>
      <trkpt lat="47.18773" lon="-1.47533">
        <ele>80</ele>
        <time>2021-02-13T14:08:03.000Z</time>
      </trkpt>
      <trkpt lat="47.18779" lon="-1.4752">
        <ele>80</ele>
        <time>2021-02-13T14:08:05.000Z</time>
      </trkpt>
      <trkpt lat="47.18785" lon="-1.47506">
        <ele>81</ele>
        <time>2021-02-13T14:08:07.000Z</time>
      </trkpt>
      <trkpt lat="47.18791" lon="-1.47493">
        <ele>82</ele>
        <time>2021-02-13T14:08:09.000Z</time>
      </trkpt>
      <trkpt lat="47.18797" lon="-1.47479">
        <ele>83</ele>
        <time>2021-02-13T14:08:11.000Z</time>
      </trkpt>
      <trkpt lat="47.18803" lon="-1.47464">
        <ele>83</ele>
        <time>2021-02-13T14:08:13.000Z</time>
      </trkpt>
      <trkpt lat="47.18811" lon="-1.47451">
        <ele>83</ele>
        <time>2021-02-13T14:08:15.000Z</time>
      </trkpt>
      <trkpt lat="47.18818" lon="-1.47438">
        <ele>83</ele>
        <time>2021-02-13T14:08:17.000Z</time>
      </trkpt>
      <trkpt lat="47.18825" lon="-1.47426">
        <ele>83</ele>
        <time>2021-02-13T14:08:19.000Z</time>
      </trkpt>
      <trkpt lat="47.18832" lon="-1.47412">
        <ele>83</ele>
        <time>2021-02-13T14:08:21.000Z</time>
      </trkpt>
      <trkpt lat="47.18838" lon="-1.47399">
        <ele>83</ele>
        <time>2021-02-13T14:08:23.000Z</time>
      </trkpt>
      <trkpt lat="47.18844" lon="-1.47385">
        <ele>83</ele>
        <time>2021-02-13T14:08:25.000Z</time>
      </trkpt>
      <trkpt lat="47.18851" lon="-1.47371">
        <ele>83</ele>
        <time>2021-02-13T14:08:27.000Z</time>
      </trkpt>
      <trkpt lat="47.18858" lon="-1.47358">
        <ele>83</ele>
        <time>2021-02-13T14:08:29.000Z</time>
      </trkpt>
      <trkpt lat="47.18863" lon="-1.47344">
        <ele>83</ele>
        <time>2021-02-13T14:08:31.000Z</time>
      </trkpt>
      <trkpt lat="47.18869" lon="-1.47331">
        <ele>84</ele>
        <time>2021-02-13T14:08:33.000Z</time>
      </trkpt>
      <trkpt lat="47.18875" lon="-1.47319">
        <ele>85</ele>
        <time>2021-02-13T14:08:35.000Z</time>
      </trkpt>
      <trkpt lat="47.18881" lon="-1.47306">
        <ele>85</ele>
        <time>2021-02-13T14:08:37.000Z</time>
      </trkpt>
      <trkpt lat="47.18886" lon="-1.47294">
        <ele>85</ele>
        <time>2021-02-13T14:08:39.000Z</time>
      </trkpt>
      <trkpt lat="47.18892" lon="-1.47281">
        <ele>86</ele>
        <time>2021-02-13T14:08:41.000Z</time>
      </trkpt>
      <trkpt lat="47.18898" lon="-1.47269">
        <ele>87</ele>
        <time>2021-02-13T14:08:43.000Z</time>
      </trkpt>
      <trkpt lat="47.18905" lon="-1.47257">
        <ele>88</ele>
        <time>2021-02-13T14:08:45.000Z</time>
      </trkpt>
      <trkpt lat="47.18912" lon="-1.47244">
        <ele>87</ele>
        <time>2021-02-13T14:08:47.000Z</time>
      </trkpt>
      <trkpt lat="47.18919" lon="-1.4723">
        <ele>86</ele>
        <time>2021-02-13T14:08:49.000Z</time>
      </trkpt>
      <trkpt lat="47.18924" lon="-1.47216">
        <ele>86</ele>
        <time>2021-02-13T14:08:51.000Z</time>
      </trkpt>
      <trkpt lat="47.18927" lon="-1.47201">
        <ele>86</ele>
        <time>2021-02-13T14:08:53.000Z</time>
      </trkpt>
      <trkpt lat="47.1893" lon="-1.47186">
        <ele>85</ele>
        <time>2021-02-13T14:08:55.000Z</time>
      </trkpt>
      <trkpt lat="47.18938" lon="-1.47173">
        <ele>84</ele>
        <time>2021-02-13T14:08:57.000Z</time>
      </trkpt>
      <trkpt lat="47.18948" lon="-1.47162">
        <ele>84</ele>
        <time>2021-02-13T14:08:59.000Z</time>
      </trkpt>
      <trkpt lat="47.18954" lon="-1.47149">
        <ele>84</ele>
        <time>2021-02-13T14:09:01.000Z</time>
      </trkpt>
      <trkpt lat="47.1896" lon="-1.47135">
        <ele>84</ele>
        <time>2021-02-13T14:09:03.000Z</time>
      </trkpt>
      <trkpt lat="47.18966" lon="-1.4712">
        <ele>85</ele>
        <time>2021-02-13T14:09:05.000Z</time>
      </trkpt>
      <trkpt lat="47.18973" lon="-1.47107">
        <ele>85</ele>
        <time>2021-02-13T14:09:07.000Z</time>
      </trkpt>
      <trkpt lat="47.1898" lon="-1.47092">
        <ele>85</ele>
        <time>2021-02-13T14:09:09.000Z</time>
      </trkpt>
      <trkpt lat="47.18989" lon="-1.47076">
        <ele>84</ele>
        <time>2021-02-13T14:09:11.000Z</time>
      </trkpt>
      <trkpt lat="47.18997" lon="-1.47061">
        <ele>83</ele>
        <time>2021-02-13T14:09:13.000Z</time>
      </trkpt>
      <trkpt lat="47.19005" lon="-1.47046">
        <ele>82</ele>
        <time>2021-02-13T14:09:15.000Z</time>
      </trkpt>
      <trkpt lat="47.19012" lon="-1.4703">
        <ele>82</ele>
        <time>2021-02-13T14:09:17.000Z</time>
      </trkpt>
      <trkpt lat="47.1902" lon="-1.47015">
        <ele>81</ele>
        <time>2021-02-13T14:09:19.000Z</time>
      </trkpt>
      <trkpt lat="47.19027" lon="-1.47">
        <ele>81</ele>
        <time>2021-02-13T14:09:21.000Z</time>
      </trkpt>
      <trkpt lat="47.19034" lon="-1.46984">
        <ele>80</ele>
        <time>2021-02-13T14:09:23.000Z</time>
      </trkpt>
      <trkpt lat="47.19042" lon="-1.46969">
        <ele>80</ele>
        <time>2021-02-13T14:09:25.000Z</time>
      </trkpt>
      <trkpt lat="47.19048" lon="-1.46954">
        <ele>81</ele>
        <time>2021-02-13T14:09:27.000Z</time>
      </trkpt>
      <trkpt lat="47.19056" lon="-1.46939">
        <ele>81</ele>
        <time>2021-02-13T14:09:29.000Z</time>
      </trkpt>
      <trkpt lat="47.19063" lon="-1.46924">
        <ele>81</ele>
        <time>2021-02-13T14:09:31.000Z</time>
      </trkpt>
      <trkpt lat="47.19071" lon="-1.46909">
        <ele>80</ele>
        <time>2021-02-13T14:09:33.000Z</time>
      </trkpt>
      <trkpt lat="47.19078" lon="-1.46895">
        <ele>80</ele>
        <time>2021-02-13T14:09:35.000Z</time>
      </trkpt>
      <trkpt lat="47.19085" lon="-1.46881">
        <ele>80</ele>
        <time>2021-02-13T14:09:37.000Z</time>
      </trkpt>
      <trkpt lat="47.19092" lon="-1.46868">
        <ele>80</ele>
        <time>2021-02-13T14:09:39.000Z</time>
      </trkpt>
      <trkpt lat="47.19099" lon="-1.46854">
        <ele>80</ele>
        <time>2021-02-13T14:09:41.000Z</time>
      </trkpt>
      <trkpt lat="47.19105" lon="-1.4684">
        <ele>80</ele>
        <time>2021-02-13T14:09:43.000Z</time>
      </trkpt>
      <trkpt lat="47.19112" lon="-1.46827">
        <ele>81</ele>
        <time>2021-02-13T14:09:45.000Z</time>
      </trkpt>
      <trkpt lat="47.19119" lon="-1.46812">
        <ele>80</ele>
        <time>2021-02-13T14:09:47.000Z</time>
      </trkpt>
      <trkpt lat="47.19125" lon="-1.46798">
        <ele>81</ele>
        <time>2021-02-13T14:09:49.000Z</time>
      </trkpt>
      <trkpt lat="47.19131" lon="-1.46785">
        <ele>81</ele>
        <time>2021-02-13T14:09:51.000Z</time>
      </trkpt>
      <trkpt lat="47.19138" lon="-1.46772">
        <ele>81</ele>
        <time>2021-02-13T14:09:53.000Z</time>
      </trkpt>
      <trkpt lat="47.19144" lon="-1.46758">
        <ele>80</ele>
        <time>2021-02-13T14:09:55.000Z</time>
      </trkpt>
      <trkpt lat="47.19151" lon="-1.46744">
        <ele>80</ele>
        <time>2021-02-13T14:09:57.000Z</time>
      </trkpt>
      <trkpt lat="47.19157" lon="-1.4673">
        <ele>80</ele>
        <time>2021-02-13T14:09:59.000Z</time>
      </trkpt>
      <trkpt lat="47.19164" lon="-1.46717">
        <ele>80</ele>
        <time>2021-02-13T14:10:01.000Z</time>
      </trkpt>
      <trkpt lat="47.19171" lon="-1.46703">
        <ele>80</ele>
        <time>2021-02-13T14:10:03.000Z</time>
      </trkpt>
      <trkpt lat="47.19177" lon="-1.46689">
        <ele>80</ele>
        <time>2021-02-13T14:10:05.000Z</time>
      </trkpt>
      <trkpt lat="47.19183" lon="-1.46676">
        <ele>80</ele>
        <time>2021-02-13T14:10:07.000Z</time>
      </trkpt>
      <trkpt lat="47.1919" lon="-1.46662">
        <ele>80</ele>
        <time>2021-02-13T14:10:09.000Z</time>
      </trkpt>
      <trkpt lat="47.19197" lon="-1.46648">
        <ele>80</ele>
        <time>2021-02-13T14:10:11.000Z</time>
      </trkpt>
      <trkpt lat="47.19203" lon="-1.46635">
        <ele>81</ele>
        <time>2021-02-13T14:10:13.000Z</time>
      </trkpt>
      <trkpt lat="47.1921" lon="-1.46622">
        <ele>81</ele>
        <time>2021-02-13T14:10:15.000Z</time>
      </trkpt>
      <trkpt lat="47.19217" lon="-1.46608">
        <ele>81</ele>
        <time>2021-02-13T14:10:17.000Z</time>
      </trkpt>
      <trkpt lat="47.19224" lon="-1.46594">
        <ele>81</ele>
        <time>2021-02-13T14:10:19.000Z</time>
      </trkpt>
      <trkpt lat="47.19231" lon="-1.4658">
        <ele>81</ele>
        <time>2021-02-13T14:10:21.000Z</time>
      </trkpt>
      <trkpt lat="47.19237" lon="-1.46566">
        <ele>81</ele>
        <time>2021-02-13T14:10:23.000Z</time>
      </trkpt>
      <trkpt lat="47.19242" lon="-1.46551">
        <ele>82</ele>
        <time>2021-02-13T14:10:25.000Z</time>
      </trkpt>
      <trkpt lat="47.19249" lon="-1.46537">
        <ele>82</ele>
        <time>2021-02-13T14:10:27.000Z</time>
      </trkpt>
      <trkpt lat="47.19255" lon="-1.46522">
        <ele>82</ele>
        <time>2021-02-13T14:10:29.000Z</time>
      </trkpt>
      <trkpt lat="47.19262" lon="-1.46508">
        <ele>82</ele>
        <time>2021-02-13T14:10:31.000Z</time>
      </trkpt>
      <trkpt lat="47.19268" lon="-1.46495">
        <ele>81</ele>
        <time>2021-02-13T14:10:33.000Z</time>
      </trkpt>
      <trkpt lat="47.19275" lon="-1.46481">
        <ele>81</ele>
        <time>2021-02-13T14:10:35.000Z</time>
      </trkpt>
      <trkpt lat="47.19281" lon="-1.46467">
        <ele>82</ele>
        <time>2021-02-13T14:10:37.000Z</time>
      </trkpt>
      <trkpt lat="47.19288" lon="-1.46454">
        <ele>82</ele>
        <time>2021-02-13T14:10:39.000Z</time>
      </trkpt>
      <trkpt lat="47.19294" lon="-1.4644">
        <ele>81</ele>
        <time>2021-02-13T14:10:41.000Z</time>
      </trkpt>
      <trkpt lat="47.19301" lon="-1.46427">
        <ele>81</ele>
        <time>2021-02-13T14:10:43.000Z</time>
      </trkpt>
      <trkpt lat="47.19307" lon="-1.46414">
        <ele>81</ele>
        <time>2021-02-13T14:10:45.000Z</time>
      </trkpt>
      <trkpt lat="47.19314" lon="-1.464">
        <ele>81</ele>
        <time>2021-02-13T14:10:47.000Z</time>
      </trkpt>
      <trkpt lat="47.19321" lon="-1.46386">
        <ele>81</ele>
        <time>2021-02-13T14:10:49.000Z</time>
      </trkpt>
      <trkpt lat="47.19327" lon="-1.46373">
        <ele>81</ele>
        <time>2021-02-13T14:10:51.000Z</time>
      </trkpt>
      <trkpt lat="47.19333" lon="-1.46359">
        <ele>80</ele>
        <time>2021-02-13T14:10:53.000Z</time>
      </trkpt>
      <trkpt lat="47.19339" lon="-1.46346">
        <ele>80</ele>
        <time>2021-02-13T14:10:55.000Z</time>
      </trkpt>
      <trkpt lat="47.19344" lon="-1.46332">
        <ele>80</ele>
        <time>2021-02-13T14:10:57.000Z</time>
      </trkpt>
      <trkpt lat="47.19349" lon="-1.46321">
        <ele>80</ele>
        <time>2021-02-13T14:10:59.000Z</time>
      </trkpt>
      <trkpt lat="47.19352" lon="-1.46304">
        <ele>80</ele>
        <time>2021-02-13T14:11:02.000Z</time>
      </trkpt>
      <trkpt lat="47.19359" lon="-1.46292">
        <ele>81</ele>
        <time>2021-02-13T14:11:04.000Z</time>
      </trkpt>
      <trkpt lat="47.19371" lon="-1.4629">
        <ele>81</ele>
        <time>2021-02-13T14:11:06.000Z</time>
      </trkpt>
      <trkpt lat="47.19382" lon="-1.463">
        <ele>81</ele>
        <time>2021-02-13T14:11:08.000Z</time>
      </trkpt>
      <trkpt lat="47.19393" lon="-1.46312">
        <ele>81</ele>
        <time>2021-02-13T14:11:10.000Z</time>
      </trkpt>
      <trkpt lat="47.19404" lon="-1.4632">
        <ele>80</ele>
        <time>2021-02-13T14:11:12.000Z</time>
      </trkpt>
      <trkpt lat="47.19416" lon="-1.46326">
        <ele>80</ele>
        <time>2021-02-13T14:11:14.000Z</time>
      </trkpt>
      <trkpt lat="47.19428" lon="-1.46332">
        <ele>80</ele>
        <time>2021-02-13T14:11:16.000Z</time>
      </trkpt>
      <trkpt lat="47.1944" lon="-1.46337">
        <ele>80</ele>
        <time>2021-02-13T14:11:18.000Z</time>
      </trkpt>
      <trkpt lat="47.19452" lon="-1.46343">
        <ele>80</ele>
        <time>2021-02-13T14:11:20.000Z</time>
      </trkpt>
      <trkpt lat="47.19464" lon="-1.46348">
        <ele>80</ele>
        <time>2021-02-13T14:11:22.000Z</time>
      </trkpt>
      <trkpt lat="47.19476" lon="-1.46354">
        <ele>80</ele>
        <time>2021-02-13T14:11:24.000Z</time>
      </trkpt>
      <trkpt lat="47.19487" lon="-1.46359">
        <ele>80</ele>
        <time>2021-02-13T14:11:26.000Z</time>
      </trkpt>
      <trkpt lat="47.19499" lon="-1.46365">
        <ele>80</ele>
        <time>2021-02-13T14:11:28.000Z</time>
      </trkpt>
      <trkpt lat="47.19511" lon="-1.4637">
        <ele>80</ele>
        <time>2021-02-13T14:11:30.000Z</time>
      </trkpt>
      <trkpt lat="47.19522" lon="-1.46375">
        <ele>80</ele>
        <time>2021-02-13T14:11:32.000Z</time>
      </trkpt>
      <trkpt lat="47.19534" lon="-1.46381">
        <ele>80</ele>
        <time>2021-02-13T14:11:34.000Z</time>
      </trkpt>
      <trkpt lat="47.19547" lon="-1.46386">
        <ele>80</ele>
        <time>2021-02-13T14:11:36.000Z</time>
      </trkpt>
      <trkpt lat="47.19559" lon="-1.46391">
        <ele>80</ele>
        <time>2021-02-13T14:11:38.000Z</time>
      </trkpt>
      <trkpt lat="47.19571" lon="-1.46396">
        <ele>80</ele>
        <time>2021-02-13T14:11:40.000Z</time>
      </trkpt>
      <trkpt lat="47.19582" lon="-1.46403">
        <ele>80</ele>
        <time>2021-02-13T14:11:42.000Z</time>
      </trkpt>
      <trkpt lat="47.19595" lon="-1.4641">
        <ele>79</ele>
        <time>2021-02-13T14:11:44.000Z</time>
      </trkpt>
      <trkpt lat="47.19607" lon="-1.46417">
        <ele>79</ele>
        <time>2021-02-13T14:11:46.000Z</time>
      </trkpt>
      <trkpt lat="47.1962" lon="-1.46424">
        <ele>79</ele>
        <time>2021-02-13T14:11:48.000Z</time>
      </trkpt>
      <trkpt lat="47.19632" lon="-1.46429">
        <ele>78</ele>
        <time>2021-02-13T14:11:50.000Z</time>
      </trkpt>
      <trkpt lat="47.19644" lon="-1.46435">
        <ele>78</ele>
        <time>2021-02-13T14:11:52.000Z</time>
      </trkpt>
      <trkpt lat="47.19657" lon="-1.46441">
        <ele>77</ele>
        <time>2021-02-13T14:11:54.000Z</time>
      </trkpt>
      <trkpt lat="47.1967" lon="-1.46447">
        <ele>77</ele>
        <time>2021-02-13T14:11:56.000Z</time>
      </trkpt>
      <trkpt lat="47.19684" lon="-1.46454">
        <ele>76</ele>
        <time>2021-02-13T14:11:58.000Z</time>
      </trkpt>
      <trkpt lat="47.19697" lon="-1.46461">
        <ele>76</ele>
        <time>2021-02-13T14:12:00.000Z</time>
      </trkpt>
      <trkpt lat="47.19711" lon="-1.46467">
        <ele>76</ele>
        <time>2021-02-13T14:12:02.000Z</time>
      </trkpt>
      <trkpt lat="47.19723" lon="-1.46473">
        <ele>76</ele>
        <time>2021-02-13T14:12:04.000Z</time>
      </trkpt>
      <trkpt lat="47.19736" lon="-1.46479">
        <ele>76</ele>
        <time>2021-02-13T14:12:06.000Z</time>
      </trkpt>
      <trkpt lat="47.19749" lon="-1.46485">
        <ele>75</ele>
        <time>2021-02-13T14:12:08.000Z</time>
      </trkpt>
      <trkpt lat="47.19762" lon="-1.46492">
        <ele>75</ele>
        <time>2021-02-13T14:12:10.000Z</time>
      </trkpt>
      <trkpt lat="47.19775" lon="-1.46498">
        <ele>75</ele>
        <time>2021-02-13T14:12:12.000Z</time>
      </trkpt>
      <trkpt lat="47.19788" lon="-1.46504">
        <ele>75</ele>
        <time>2021-02-13T14:12:14.000Z</time>
      </trkpt>
      <trkpt lat="47.19802" lon="-1.46511">
        <ele>75</ele>
        <time>2021-02-13T14:12:16.000Z</time>
      </trkpt>
      <trkpt lat="47.19816" lon="-1.46517">
        <ele>75</ele>
        <time>2021-02-13T14:12:18.000Z</time>
      </trkpt>
      <trkpt lat="47.19829" lon="-1.46524">
        <ele>75</ele>
        <time>2021-02-13T14:12:20.000Z</time>
      </trkpt>
      <trkpt lat="47.19843" lon="-1.46531">
        <ele>75</ele>
        <time>2021-02-13T14:12:22.000Z</time>
      </trkpt>
      <trkpt lat="47.19856" lon="-1.46537">
        <ele>75</ele>
        <time>2021-02-13T14:12:24.000Z</time>
      </trkpt>
      <trkpt lat="47.19869" lon="-1.46543">
        <ele>75</ele>
        <time>2021-02-13T14:12:26.000Z</time>
      </trkpt>
      <trkpt lat="47.19883" lon="-1.4655">
        <ele>74</ele>
        <time>2021-02-13T14:12:28.000Z</time>
      </trkpt>
      <trkpt lat="47.19897" lon="-1.46556">
        <ele>73</ele>
        <time>2021-02-13T14:12:30.000Z</time>
      </trkpt>
      <trkpt lat="47.19911" lon="-1.46562">
        <ele>73</ele>
        <time>2021-02-13T14:12:32.000Z</time>
      </trkpt>
      <trkpt lat="47.19924" lon="-1.46568">
        <ele>72</ele>
        <time>2021-02-13T14:12:34.000Z</time>
      </trkpt>
      <trkpt lat="47.19938" lon="-1.46575">
        <ele>72</ele>
        <time>2021-02-13T14:12:36.000Z</time>
      </trkpt>
      <trkpt lat="47.19952" lon="-1.46581">
        <ele>71</ele>
        <time>2021-02-13T14:12:38.000Z</time>
      </trkpt>
      <trkpt lat="47.19965" lon="-1.46586">
        <ele>72</ele>
        <time>2021-02-13T14:12:40.000Z</time>
      </trkpt>
      <trkpt lat="47.19978" lon="-1.46592">
        <ele>72</ele>
        <time>2021-02-13T14:12:42.000Z</time>
      </trkpt>
      <trkpt lat="47.19991" lon="-1.46596">
        <ele>71</ele>
        <time>2021-02-13T14:12:44.000Z</time>
      </trkpt>
      <trkpt lat="47.20004" lon="-1.46601">
        <ele>72</ele>
        <time>2021-02-13T14:12:46.000Z</time>
      </trkpt>
      <trkpt lat="47.20017" lon="-1.46605">
        <ele>72</ele>
        <time>2021-02-13T14:12:48.000Z</time>
      </trkpt>
      <trkpt lat="47.2003" lon="-1.4661">
        <ele>72</ele>
        <time>2021-02-13T14:12:50.000Z</time>
      </trkpt>
      <trkpt lat="47.20043" lon="-1.46616">
        <ele>72</ele>
        <time>2021-02-13T14:12:52.000Z</time>
      </trkpt>
      <trkpt lat="47.20055" lon="-1.46621">
        <ele>71</ele>
        <time>2021-02-13T14:12:54.000Z</time>
      </trkpt>
      <trkpt lat="47.20065" lon="-1.46624">
        <ele>72</ele>
        <time>2021-02-13T14:12:56.000Z</time>
      </trkpt>
      <trkpt lat="47.20077" lon="-1.4663">
        <ele>71</ele>
        <time>2021-02-13T14:12:58.000Z</time>
      </trkpt>
      <trkpt lat="47.20089" lon="-1.46635">
        <ele>71</ele>
        <time>2021-02-13T14:13:00.000Z</time>
      </trkpt>
      <trkpt lat="47.20102" lon="-1.46643">
        <ele>70</ele>
        <time>2021-02-13T14:13:02.000Z</time>
      </trkpt>
      <trkpt lat="47.20115" lon="-1.46649">
        <ele>69</ele>
        <time>2021-02-13T14:13:04.000Z</time>
      </trkpt>
      <trkpt lat="47.20129" lon="-1.46658">
        <ele>69</ele>
        <time>2021-02-13T14:13:06.000Z</time>
      </trkpt>
      <trkpt lat="47.20143" lon="-1.46666">
        <ele>69</ele>
        <time>2021-02-13T14:13:08.000Z</time>
      </trkpt>
      <trkpt lat="47.20157" lon="-1.46667">
        <ele>69</ele>
        <time>2021-02-13T14:13:10.000Z</time>
      </trkpt>
      <trkpt lat="47.20171" lon="-1.46669">
        <ele>70</ele>
        <time>2021-02-13T14:13:12.000Z</time>
      </trkpt>
      <trkpt lat="47.20185" lon="-1.46674">
        <ele>69</ele>
        <time>2021-02-13T14:13:14.000Z</time>
      </trkpt>
      <trkpt lat="47.20199" lon="-1.46679">
        <ele>69</ele>
        <time>2021-02-13T14:13:16.000Z</time>
      </trkpt>
      <trkpt lat="47.20212" lon="-1.46683">
        <ele>68</ele>
        <time>2021-02-13T14:13:18.000Z</time>
      </trkpt>
      <trkpt lat="47.20226" lon="-1.46686">
        <ele>67</ele>
        <time>2021-02-13T14:13:20.000Z</time>
      </trkpt>
      <trkpt lat="47.20239" lon="-1.46689">
        <ele>68</ele>
        <time>2021-02-13T14:13:22.000Z</time>
      </trkpt>
      <trkpt lat="47.20252" lon="-1.46694">
        <ele>67</ele>
        <time>2021-02-13T14:13:24.000Z</time>
      </trkpt>
      <trkpt lat="47.20266" lon="-1.46696">
        <ele>68</ele>
        <time>2021-02-13T14:13:26.000Z</time>
      </trkpt>
      <trkpt lat="47.2028" lon="-1.46697">
        <ele>67</ele>
        <time>2021-02-13T14:13:28.000Z</time>
      </trkpt>
      <trkpt lat="47.20293" lon="-1.46699">
        <ele>68</ele>
        <time>2021-02-13T14:13:30.000Z</time>
      </trkpt>
      <trkpt lat="47.20306" lon="-1.46701">
        <ele>68</ele>
        <time>2021-02-13T14:13:32.000Z</time>
      </trkpt>
      <trkpt lat="47.20319" lon="-1.46703">
        <ele>68</ele>
        <time>2021-02-13T14:13:34.000Z</time>
      </trkpt>
      <trkpt lat="47.20333" lon="-1.46706">
        <ele>68</ele>
        <time>2021-02-13T14:13:36.000Z</time>
      </trkpt>
      <trkpt lat="47.20346" lon="-1.46709">
        <ele>68</ele>
        <time>2021-02-13T14:13:38.000Z</time>
      </trkpt>
      <trkpt lat="47.20358" lon="-1.46711">
        <ele>68</ele>
        <time>2021-02-13T14:13:40.000Z</time>
      </trkpt>
      <trkpt lat="47.20371" lon="-1.46713">
        <ele>68</ele>
        <time>2021-02-13T14:13:42.000Z</time>
      </trkpt>
      <trkpt lat="47.20383" lon="-1.46714">
        <ele>68</ele>
        <time>2021-02-13T14:13:44.000Z</time>
      </trkpt>
      <trkpt lat="47.20396" lon="-1.46716">
        <ele>68</ele>
        <time>2021-02-13T14:13:46.000Z</time>
      </trkpt>
      <trkpt lat="47.20408" lon="-1.46718">
        <ele>68</ele>
        <time>2021-02-13T14:13:48.000Z</time>
      </trkpt>
      <trkpt lat="47.2042" lon="-1.46719">
        <ele>68</ele>
        <time>2021-02-13T14:13:50.000Z</time>
      </trkpt>
      <trkpt lat="47.20432" lon="-1.46721">
        <ele>68</ele>
        <time>2021-02-13T14:13:52.000Z</time>
      </trkpt>
      <trkpt lat="47.20445" lon="-1.46722">
        <ele>68</ele>
        <time>2021-02-13T14:13:54.000Z</time>
      </trkpt>
      <trkpt lat="47.20456" lon="-1.46724">
        <ele>68</ele>
        <time>2021-02-13T14:13:56.000Z</time>
      </trkpt>
      <trkpt lat="47.20468" lon="-1.46725">
        <ele>69</ele>
        <time>2021-02-13T14:13:58.000Z</time>
      </trkpt>
      <trkpt lat="47.20481" lon="-1.46727">
        <ele>69</ele>
        <time>2021-02-13T14:14:00.000Z</time>
      </trkpt>
      <trkpt lat="47.20493" lon="-1.4673">
        <ele>69</ele>
        <time>2021-02-13T14:14:02.000Z</time>
      </trkpt>
      <trkpt lat="47.20505" lon="-1.46733">
        <ele>69</ele>
        <time>2021-02-13T14:14:04.000Z</time>
      </trkpt>
      <trkpt lat="47.20518" lon="-1.46734">
        <ele>69</ele>
        <time>2021-02-13T14:14:06.000Z</time>
      </trkpt>
      <trkpt lat="47.2053" lon="-1.46736">
        <ele>69</ele>
        <time>2021-02-13T14:14:08.000Z</time>
      </trkpt>
      <trkpt lat="47.20542" lon="-1.46737">
        <ele>70</ele>
        <time>2021-02-13T14:14:10.000Z</time>
      </trkpt>
      <trkpt lat="47.20554" lon="-1.46737">
        <ele>70</ele>
        <time>2021-02-13T14:14:12.000Z</time>
      </trkpt>
      <trkpt lat="47.20566" lon="-1.46736">
        <ele>70</ele>
        <time>2021-02-13T14:14:14.000Z</time>
      </trkpt>
      <trkpt lat="47.20578" lon="-1.46734">
        <ele>71</ele>
        <time>2021-02-13T14:14:16.000Z</time>
      </trkpt>
      <trkpt lat="47.20591" lon="-1.46732">
        <ele>71</ele>
        <time>2021-02-13T14:14:18.000Z</time>
      </trkpt>
      <trkpt lat="47.20603" lon="-1.46729">
        <ele>71</ele>
        <time>2021-02-13T14:14:20.000Z</time>
      </trkpt>
      <trkpt lat="47.20615" lon="-1.46726">
        <ele>71</ele>
        <time>2021-02-13T14:14:22.000Z</time>
      </trkpt>
      <trkpt lat="47.20628" lon="-1.46724">
        <ele>71</ele>
        <time>2021-02-13T14:14:24.000Z</time>
      </trkpt>
      <trkpt lat="47.2064" lon="-1.46721">
        <ele>71</ele>
        <time>2021-02-13T14:14:26.000Z</time>
      </trkpt>
      <trkpt lat="47.20653" lon="-1.46719">
        <ele>71</ele>
        <time>2021-02-13T14:14:28.000Z</time>
      </trkpt>
      <trkpt lat="47.20665" lon="-1.46716">
        <ele>71</ele>
        <time>2021-02-13T14:14:30.000Z</time>
      </trkpt>
      <trkpt lat="47.20677" lon="-1.46714">
        <ele>72</ele>
        <time>2021-02-13T14:14:32.000Z</time>
      </trkpt>
      <trkpt lat="47.2069" lon="-1.46712">
        <ele>72</ele>
        <time>2021-02-13T14:14:34.000Z</time>
      </trkpt>
      <trkpt lat="47.20702" lon="-1.4671">
        <ele>72</ele>
        <time>2021-02-13T14:14:36.000Z</time>
      </trkpt>
      <trkpt lat="47.20714" lon="-1.46708">
        <ele>72</ele>
        <time>2021-02-13T14:14:38.000Z</time>
      </trkpt>
      <trkpt lat="47.20727" lon="-1.46706">
        <ele>72</ele>
        <time>2021-02-13T14:14:40.000Z</time>
      </trkpt>
      <trkpt lat="47.20739" lon="-1.46704">
        <ele>71</ele>
        <time>2021-02-13T14:14:42.000Z</time>
      </trkpt>
      <trkpt lat="47.20752" lon="-1.46702">
        <ele>71</ele>
        <time>2021-02-13T14:14:44.000Z</time>
      </trkpt>
      <trkpt lat="47.20764" lon="-1.467">
        <ele>71</ele>
        <time>2021-02-13T14:14:46.000Z</time>
      </trkpt>
      <trkpt lat="47.20777" lon="-1.46698">
        <ele>72</ele>
        <time>2021-02-13T14:14:48.000Z</time>
      </trkpt>
      <trkpt lat="47.2079" lon="-1.46696">
        <ele>71</ele>
        <time>2021-02-13T14:14:50.000Z</time>
      </trkpt>
      <trkpt lat="47.20803" lon="-1.46696">
        <ele>72</ele>
        <time>2021-02-13T14:14:52.000Z</time>
      </trkpt>
      <trkpt lat="47.20815" lon="-1.46695">
        <ele>71</ele>
        <time>2021-02-13T14:14:54.000Z</time>
      </trkpt>
      <trkpt lat="47.20827" lon="-1.46692">
        <ele>71</ele>
        <time>2021-02-13T14:14:56.000Z</time>
      </trkpt>
      <trkpt lat="47.2084" lon="-1.4669">
        <ele>71</ele>
        <time>2021-02-13T14:14:58.000Z</time>
      </trkpt>
      <trkpt lat="47.20852" lon="-1.46684">
        <ele>71</ele>
        <time>2021-02-13T14:15:00.000Z</time>
      </trkpt>
      <trkpt lat="47.20864" lon="-1.46681">
        <ele>71</ele>
        <time>2021-02-13T14:15:02.000Z</time>
      </trkpt>
      <trkpt lat="47.20876" lon="-1.4668">
        <ele>71</ele>
        <time>2021-02-13T14:15:04.000Z</time>
      </trkpt>
      <trkpt lat="47.20888" lon="-1.46674">
        <ele>71</ele>
        <time>2021-02-13T14:15:06.000Z</time>
      </trkpt>
      <trkpt lat="47.209" lon="-1.46667">
        <ele>72</ele>
        <time>2021-02-13T14:15:08.000Z</time>
      </trkpt>
      <trkpt lat="47.20912" lon="-1.46661">
        <ele>72</ele>
        <time>2021-02-13T14:15:10.000Z</time>
      </trkpt>
      <trkpt lat="47.20923" lon="-1.46654">
        <ele>72</ele>
        <time>2021-02-13T14:15:12.000Z</time>
      </trkpt>
      <trkpt lat="47.20934" lon="-1.46646">
        <ele>72</ele>
        <time>2021-02-13T14:15:14.000Z</time>
      </trkpt>
      <trkpt lat="47.20945" lon="-1.46639">
        <ele>72</ele>
        <time>2021-02-13T14:15:16.000Z</time>
      </trkpt>
      <trkpt lat="47.20956" lon="-1.46632">
        <ele>72</ele>
        <time>2021-02-13T14:15:18.000Z</time>
      </trkpt>
      <trkpt lat="47.20968" lon="-1.46627">
        <ele>72</ele>
        <time>2021-02-13T14:15:20.000Z</time>
      </trkpt>
      <trkpt lat="47.2098" lon="-1.46623">
        <ele>72</ele>
        <time>2021-02-13T14:15:22.000Z</time>
      </trkpt>
      <trkpt lat="47.20992" lon="-1.4662">
        <ele>73</ele>
        <time>2021-02-13T14:15:24.000Z</time>
      </trkpt>
      <trkpt lat="47.21004" lon="-1.46616">
        <ele>73</ele>
        <time>2021-02-13T14:15:26.000Z</time>
      </trkpt>
      <trkpt lat="47.21016" lon="-1.46612">
        <ele>72</ele>
        <time>2021-02-13T14:15:28.000Z</time>
      </trkpt>
      <trkpt lat="47.21029" lon="-1.46608">
        <ele>72</ele>
        <time>2021-02-13T14:15:30.000Z</time>
      </trkpt>
      <trkpt lat="47.2104" lon="-1.46603">
        <ele>72</ele>
        <time>2021-02-13T14:15:32.000Z</time>
      </trkpt>
      <trkpt lat="47.2105" lon="-1.46596">
        <ele>72</ele>
        <time>2021-02-13T14:15:34.000Z</time>
      </trkpt>
      <trkpt lat="47.21055" lon="-1.46581">
        <ele>72</ele>
        <time>2021-02-13T14:15:36.000Z</time>
      </trkpt>
      <trkpt lat="47.21062" lon="-1.46566">
        <ele>72</ele>
        <time>2021-02-13T14:15:38.000Z</time>
      </trkpt>
      <trkpt lat="47.21069" lon="-1.46551">
        <ele>71</ele>
        <time>2021-02-13T14:15:40.000Z</time>
      </trkpt>
      <trkpt lat="47.21078" lon="-1.4654">
        <ele>71</ele>
        <time>2021-02-13T14:15:42.000Z</time>
      </trkpt>
      <trkpt lat="47.2109" lon="-1.46536">
        <ele>71</ele>
        <time>2021-02-13T14:15:44.000Z</time>
      </trkpt>
      <trkpt lat="47.21102" lon="-1.4654">
        <ele>71</ele>
        <time>2021-02-13T14:15:46.000Z</time>
      </trkpt>
      <trkpt lat="47.21111" lon="-1.46552">
        <ele>70</ele>
        <time>2021-02-13T14:15:48.000Z</time>
      </trkpt>
      <trkpt lat="47.21121" lon="-1.46562">
        <ele>69</ele>
        <time>2021-02-13T14:15:50.000Z</time>
      </trkpt>
      <trkpt lat="47.21131" lon="-1.46574">
        <ele>69</ele>
        <time>2021-02-13T14:15:52.000Z</time>
      </trkpt>
      <trkpt lat="47.21141" lon="-1.46585">
        <ele>69</ele>
        <time>2021-02-13T14:15:54.000Z</time>
      </trkpt>
      <trkpt lat="47.21153" lon="-1.4659">
        <ele>70</ele>
        <time>2021-02-13T14:15:56.000Z</time>
      </trkpt>
      <trkpt lat="47.21165" lon="-1.46596">
        <ele>70</ele>
        <time>2021-02-13T14:15:58.000Z</time>
      </trkpt>
      <trkpt lat="47.21176" lon="-1.46601">
        <ele>71</ele>
        <time>2021-02-13T14:16:00.000Z</time>
      </trkpt>
      <trkpt lat="47.21188" lon="-1.46608">
        <ele>71</ele>
        <time>2021-02-13T14:16:02.000Z</time>
      </trkpt>
      <trkpt lat="47.212" lon="-1.46614">
        <ele>72</ele>
        <time>2021-02-13T14:16:04.000Z</time>
      </trkpt>
      <trkpt lat="47.21213" lon="-1.4662">
        <ele>72</ele>
        <time>2021-02-13T14:16:06.000Z</time>
      </trkpt>
      <trkpt lat="47.21226" lon="-1.46625">
        <ele>71</ele>
        <time>2021-02-13T14:16:08.000Z</time>
      </trkpt>
      <trkpt lat="47.21239" lon="-1.46628">
        <ele>71</ele>
        <time>2021-02-13T14:16:10.000Z</time>
      </trkpt>
      <trkpt lat="47.21252" lon="-1.4663">
        <ele>71</ele>
        <time>2021-02-13T14:16:12.000Z</time>
      </trkpt>
      <trkpt lat="47.21264" lon="-1.46631">
        <ele>71</ele>
        <time>2021-02-13T14:16:14.000Z</time>
      </trkpt>
      <trkpt lat="47.21275" lon="-1.46631">
        <ele>72</ele>
        <time>2021-02-13T14:16:16.000Z</time>
      </trkpt>
      <trkpt lat="47.21286" lon="-1.4663">
        <ele>72</ele>
        <time>2021-02-13T14:16:18.000Z</time>
      </trkpt>
      <trkpt lat="47.21299" lon="-1.46631">
        <ele>72</ele>
        <time>2021-02-13T14:16:20.000Z</time>
      </trkpt>
      <trkpt lat="47.21312" lon="-1.46633">
        <ele>73</ele>
        <time>2021-02-13T14:16:22.000Z</time>
      </trkpt>
      <trkpt lat="47.21326" lon="-1.46634">
        <ele>73</ele>
        <time>2021-02-13T14:16:24.000Z</time>
      </trkpt>
      <trkpt lat="47.21339" lon="-1.46635">
        <ele>73</ele>
        <time>2021-02-13T14:16:26.000Z</time>
      </trkpt>
      <trkpt lat="47.21352" lon="-1.46636">
        <ele>72</ele>
        <time>2021-02-13T14:16:28.000Z</time>
      </trkpt>
      <trkpt lat="47.21364" lon="-1.46637">
        <ele>73</ele>
        <time>2021-02-13T14:16:30.000Z</time>
      </trkpt>
      <trkpt lat="47.21377" lon="-1.46637">
        <ele>73</ele>
        <time>2021-02-13T14:16:32.000Z</time>
      </trkpt>
      <trkpt lat="47.21389" lon="-1.46637">
        <ele>73</ele>
        <time>2021-02-13T14:16:34.000Z</time>
      </trkpt>
      <trkpt lat="47.21402" lon="-1.46638">
        <ele>72</ele>
        <time>2021-02-13T14:16:36.000Z</time>
      </trkpt>
      <trkpt lat="47.21415" lon="-1.46638">
        <ele>73</ele>
        <time>2021-02-13T14:16:38.000Z</time>
      </trkpt>
      <trkpt lat="47.21427" lon="-1.46638">
        <ele>73</ele>
        <time>2021-02-13T14:16:40.000Z</time>
      </trkpt>
      <trkpt lat="47.21441" lon="-1.46635">
        <ele>73</ele>
        <time>2021-02-13T14:16:42.000Z</time>
      </trkpt>
      <trkpt lat="47.21455" lon="-1.46629">
        <ele>73</ele>
        <time>2021-02-13T14:16:44.000Z</time>
      </trkpt>
      <trkpt lat="47.21467" lon="-1.46621">
        <ele>72</ele>
        <time>2021-02-13T14:16:46.000Z</time>
      </trkpt>
      <trkpt lat="47.21479" lon="-1.4661">
        <ele>72</ele>
        <time>2021-02-13T14:16:48.000Z</time>
      </trkpt>
      <trkpt lat="47.21492" lon="-1.46599">
        <ele>71</ele>
        <time>2021-02-13T14:16:50.000Z</time>
      </trkpt>
      <trkpt lat="47.21504" lon="-1.46588">
        <ele>71</ele>
        <time>2021-02-13T14:16:52.000Z</time>
      </trkpt>
      <trkpt lat="47.21514" lon="-1.46573">
        <ele>70</ele>
        <time>2021-02-13T14:16:54.000Z</time>
      </trkpt>
      <trkpt lat="47.21524" lon="-1.46559">
        <ele>69</ele>
        <time>2021-02-13T14:16:56.000Z</time>
      </trkpt>
      <trkpt lat="47.21535" lon="-1.46547">
        <ele>68</ele>
        <time>2021-02-13T14:16:58.000Z</time>
      </trkpt>
      <trkpt lat="47.21549" lon="-1.46539">
        <ele>66</ele>
        <time>2021-02-13T14:17:00.000Z</time>
      </trkpt>
      <trkpt lat="47.21563" lon="-1.46534">
        <ele>65</ele>
        <time>2021-02-13T14:17:02.000Z</time>
      </trkpt>
      <trkpt lat="47.21576" lon="-1.46531">
        <ele>65</ele>
        <time>2021-02-13T14:17:04.000Z</time>
      </trkpt>
      <trkpt lat="47.21592" lon="-1.46532">
        <ele>65</ele>
        <time>2021-02-13T14:17:06.000Z</time>
      </trkpt>
      <trkpt lat="47.21607" lon="-1.46531">
        <ele>65</ele>
        <time>2021-02-13T14:17:08.000Z</time>
      </trkpt>
      <trkpt lat="47.21624" lon="-1.4653">
        <ele>62</ele>
        <time>2021-02-13T14:17:10.000Z</time>
      </trkpt>
      <trkpt lat="47.21636" lon="-1.46529">
        <ele>61</ele>
        <time>2021-02-13T14:17:12.000Z</time>
      </trkpt>
      <trkpt lat="47.21645" lon="-1.4652">
        <ele>60</ele>
        <time>2021-02-13T14:17:14.000Z</time>
      </trkpt>
      <trkpt lat="47.21653" lon="-1.46512">
        <ele>59</ele>
        <time>2021-02-13T14:17:16.000Z</time>
      </trkpt>
      <trkpt lat="47.21664" lon="-1.4651">
        <ele>58</ele>
        <time>2021-02-13T14:17:19.000Z</time>
      </trkpt>
      <trkpt lat="47.21668" lon="-1.46523">
        <ele>56</ele>
        <time>2021-02-13T14:17:21.000Z</time>
      </trkpt>
      <trkpt lat="47.21667" lon="-1.46541">
        <ele>54</ele>
        <time>2021-02-13T14:17:23.000Z</time>
      </trkpt>
      <trkpt lat="47.21663" lon="-1.46561">
        <ele>52</ele>
        <time>2021-02-13T14:17:25.000Z</time>
      </trkpt>
      <trkpt lat="47.21661" lon="-1.46582">
        <ele>50</ele>
        <time>2021-02-13T14:17:27.000Z</time>
      </trkpt>
      <trkpt lat="47.21657" lon="-1.46604">
        <ele>48</ele>
        <time>2021-02-13T14:17:29.000Z</time>
      </trkpt>
      <trkpt lat="47.21653" lon="-1.46626">
        <ele>47</ele>
        <time>2021-02-13T14:17:31.000Z</time>
      </trkpt>
      <trkpt lat="47.21648" lon="-1.46647">
        <ele>46</ele>
        <time>2021-02-13T14:17:33.000Z</time>
      </trkpt>
      <trkpt lat="47.21643" lon="-1.46668">
        <ele>45</ele>
        <time>2021-02-13T14:17:35.000Z</time>
      </trkpt>
      <trkpt lat="47.21637" lon="-1.46689">
        <ele>45</ele>
        <time>2021-02-13T14:17:37.000Z</time>
      </trkpt>
      <trkpt lat="47.21632" lon="-1.4671">
        <ele>45</ele>
        <time>2021-02-13T14:17:39.000Z</time>
      </trkpt>
      <trkpt lat="47.21629" lon="-1.46731">
        <ele>45</ele>
        <time>2021-02-13T14:17:41.000Z</time>
      </trkpt>
      <trkpt lat="47.21628" lon="-1.46753">
        <ele>44</ele>
        <time>2021-02-13T14:17:43.000Z</time>
      </trkpt>
      <trkpt lat="47.21628" lon="-1.46774">
        <ele>43</ele>
        <time>2021-02-13T14:17:45.000Z</time>
      </trkpt>
      <trkpt lat="47.21629" lon="-1.46795">
        <ele>42</ele>
        <time>2021-02-13T14:17:47.000Z</time>
      </trkpt>
      <trkpt lat="47.21631" lon="-1.46815">
        <ele>43</ele>
        <time>2021-02-13T14:17:49.000Z</time>
      </trkpt>
      <trkpt lat="47.21637" lon="-1.46835">
        <ele>43</ele>
        <time>2021-02-13T14:17:51.000Z</time>
      </trkpt>
      <trkpt lat="47.21641" lon="-1.46855">
        <ele>43</ele>
        <time>2021-02-13T14:17:53.000Z</time>
      </trkpt>
      <trkpt lat="47.21645" lon="-1.46873">
        <ele>43</ele>
        <time>2021-02-13T14:17:55.000Z</time>
      </trkpt>
      <trkpt lat="47.21648" lon="-1.46895">
        <ele>43</ele>
        <time>2021-02-13T14:17:57.000Z</time>
      </trkpt>
      <trkpt lat="47.21652" lon="-1.46915">
        <ele>43</ele>
        <time>2021-02-13T14:17:59.000Z</time>
      </trkpt>
      <trkpt lat="47.21657" lon="-1.46936">
        <ele>42</ele>
        <time>2021-02-13T14:18:01.000Z</time>
      </trkpt>
      <trkpt lat="47.2166" lon="-1.46957">
        <ele>42</ele>
        <time>2021-02-13T14:18:03.000Z</time>
      </trkpt>
      <trkpt lat="47.21661" lon="-1.46979">
        <ele>42</ele>
        <time>2021-02-13T14:18:05.000Z</time>
      </trkpt>
      <trkpt lat="47.21659" lon="-1.47001">
        <ele>42</ele>
        <time>2021-02-13T14:18:07.000Z</time>
      </trkpt>
      <trkpt lat="47.21658" lon="-1.47022">
        <ele>42</ele>
        <time>2021-02-13T14:18:09.000Z</time>
      </trkpt>
      <trkpt lat="47.21656" lon="-1.47043">
        <ele>41</ele>
        <time>2021-02-13T14:18:11.000Z</time>
      </trkpt>
      <trkpt lat="47.21655" lon="-1.47063">
        <ele>40</ele>
        <time>2021-02-13T14:18:13.000Z</time>
      </trkpt>
      <trkpt lat="47.21653" lon="-1.47083">
        <ele>41</ele>
        <time>2021-02-13T14:18:15.000Z</time>
      </trkpt>
      <trkpt lat="47.21649" lon="-1.47102">
        <ele>41</ele>
        <time>2021-02-13T14:18:17.000Z</time>
      </trkpt>
      <trkpt lat="47.21646" lon="-1.47123">
        <ele>40</ele>
        <time>2021-02-13T14:18:19.000Z</time>
      </trkpt>
      <trkpt lat="47.21643" lon="-1.47145">
        <ele>39</ele>
        <time>2021-02-13T14:18:21.000Z</time>
      </trkpt>
      <trkpt lat="47.21639" lon="-1.47165">
        <ele>39</ele>
        <time>2021-02-13T14:18:23.000Z</time>
      </trkpt>
      <trkpt lat="47.21634" lon="-1.47184">
        <ele>40</ele>
        <time>2021-02-13T14:18:25.000Z</time>
      </trkpt>
      <trkpt lat="47.2163" lon="-1.47204">
        <ele>38</ele>
        <time>2021-02-13T14:18:27.000Z</time>
      </trkpt>
      <trkpt lat="47.21627" lon="-1.47224">
        <ele>37</ele>
        <time>2021-02-13T14:18:29.000Z</time>
      </trkpt>
      <trkpt lat="47.21621" lon="-1.47242">
        <ele>37</ele>
        <time>2021-02-13T14:18:31.000Z</time>
      </trkpt>
      <trkpt lat="47.21611" lon="-1.47256">
        <ele>37</ele>
        <time>2021-02-13T14:18:33.000Z</time>
      </trkpt>
      <trkpt lat="47.21603" lon="-1.47273">
        <ele>36</ele>
        <time>2021-02-13T14:18:35.000Z</time>
      </trkpt>
      <trkpt lat="47.21597" lon="-1.47293">
        <ele>36</ele>
        <time>2021-02-13T14:18:37.000Z</time>
      </trkpt>
      <trkpt lat="47.21592" lon="-1.47313">
        <ele>36</ele>
        <time>2021-02-13T14:18:39.000Z</time>
      </trkpt>
      <trkpt lat="47.21588" lon="-1.47333">
        <ele>35</ele>
        <time>2021-02-13T14:18:41.000Z</time>
      </trkpt>
      <trkpt lat="47.21586" lon="-1.47354">
        <ele>36</ele>
        <time>2021-02-13T14:18:43.000Z</time>
      </trkpt>
      <trkpt lat="47.21583" lon="-1.47374">
        <ele>35</ele>
        <time>2021-02-13T14:18:45.000Z</time>
      </trkpt>
      <trkpt lat="47.2158" lon="-1.47394">
        <ele>36</ele>
        <time>2021-02-13T14:18:47.000Z</time>
      </trkpt>
      <trkpt lat="47.21576" lon="-1.47415">
        <ele>37</ele>
        <time>2021-02-13T14:18:49.000Z</time>
      </trkpt>
      <trkpt lat="47.21573" lon="-1.47437">
        <ele>36</ele>
        <time>2021-02-13T14:18:51.000Z</time>
      </trkpt>
      <trkpt lat="47.21568" lon="-1.47457">
        <ele>35</ele>
        <time>2021-02-13T14:18:53.000Z</time>
      </trkpt>
      <trkpt lat="47.21563" lon="-1.47478">
        <ele>34</ele>
        <time>2021-02-13T14:18:55.000Z</time>
      </trkpt>
      <trkpt lat="47.21556" lon="-1.47497">
        <ele>35</ele>
        <time>2021-02-13T14:18:57.000Z</time>
      </trkpt>
      <trkpt lat="47.2155" lon="-1.47516">
        <ele>36</ele>
        <time>2021-02-13T14:18:59.000Z</time>
      </trkpt>
      <trkpt lat="47.21544" lon="-1.47534">
        <ele>37</ele>
        <time>2021-02-13T14:19:01.000Z</time>
      </trkpt>
      <trkpt lat="47.21539" lon="-1.47552">
        <ele>36</ele>
        <time>2021-02-13T14:19:03.000Z</time>
      </trkpt>
      <trkpt lat="47.21542" lon="-1.47573">
        <ele>37</ele>
        <time>2021-02-13T14:19:05.000Z</time>
      </trkpt>
      <trkpt lat="47.21542" lon="-1.47594">
        <ele>37</ele>
        <time>2021-02-13T14:19:07.000Z</time>
      </trkpt>
      <trkpt lat="47.21535" lon="-1.47614">
        <ele>37</ele>
        <time>2021-02-13T14:19:09.000Z</time>
      </trkpt>
      <trkpt lat="47.21529" lon="-1.47634">
        <ele>35</ele>
        <time>2021-02-13T14:19:11.000Z</time>
      </trkpt>
      <trkpt lat="47.2152" lon="-1.47654">
        <ele>35</ele>
        <time>2021-02-13T14:19:13.000Z</time>
      </trkpt>
      <trkpt lat="47.21512" lon="-1.47673">
        <ele>35</ele>
        <time>2021-02-13T14:19:15.000Z</time>
      </trkpt>
      <trkpt lat="47.21503" lon="-1.47691">
        <ele>36</ele>
        <time>2021-02-13T14:19:17.000Z</time>
      </trkpt>
      <trkpt lat="47.21492" lon="-1.47705">
        <ele>36</ele>
        <time>2021-02-13T14:19:19.000Z</time>
      </trkpt>
      <trkpt lat="47.2148" lon="-1.47716">
        <ele>36</ele>
        <time>2021-02-13T14:19:21.000Z</time>
      </trkpt>
      <trkpt lat="47.2147" lon="-1.4773">
        <ele>37</ele>
        <time>2021-02-13T14:19:23.000Z</time>
      </trkpt>
      <trkpt lat="47.21462" lon="-1.47745">
        <ele>37</ele>
        <time>2021-02-13T14:19:25.000Z</time>
      </trkpt>
      <trkpt lat="47.21454" lon="-1.47761">
        <ele>39</ele>
        <time>2021-02-13T14:19:27.000Z</time>
      </trkpt>
      <trkpt lat="47.21449" lon="-1.4778">
        <ele>39</ele>
        <time>2021-02-13T14:19:29.000Z</time>
      </trkpt>
      <trkpt lat="47.21446" lon="-1.47802">
        <ele>39</ele>
        <time>2021-02-13T14:19:31.000Z</time>
      </trkpt>
      <trkpt lat="47.21443" lon="-1.47822">
        <ele>39</ele>
        <time>2021-02-13T14:19:33.000Z</time>
      </trkpt>
      <trkpt lat="47.21439" lon="-1.47843">
        <ele>39</ele>
        <time>2021-02-13T14:19:35.000Z</time>
      </trkpt>
      <trkpt lat="47.21436" lon="-1.47864">
        <ele>38</ele>
        <time>2021-02-13T14:19:37.000Z</time>
      </trkpt>
      <trkpt lat="47.21433" lon="-1.47885">
        <ele>38</ele>
        <time>2021-02-13T14:19:39.000Z</time>
      </trkpt>
      <trkpt lat="47.21429" lon="-1.47907">
        <ele>37</ele>
        <time>2021-02-13T14:19:41.000Z</time>
      </trkpt>
      <trkpt lat="47.21426" lon="-1.47928">
        <ele>37</ele>
        <time>2021-02-13T14:19:43.000Z</time>
      </trkpt>
      <trkpt lat="47.21423" lon="-1.47949">
        <ele>37</ele>
        <time>2021-02-13T14:19:45.000Z</time>
      </trkpt>
      <trkpt lat="47.21421" lon="-1.4797">
        <ele>37</ele>
        <time>2021-02-13T14:19:47.000Z</time>
      </trkpt>
      <trkpt lat="47.21418" lon="-1.4799">
        <ele>38</ele>
        <time>2021-02-13T14:19:49.000Z</time>
      </trkpt>
      <trkpt lat="47.21414" lon="-1.4801">
        <ele>38</ele>
        <time>2021-02-13T14:19:51.000Z</time>
      </trkpt>
      <trkpt lat="47.21408" lon="-1.4803">
        <ele>39</ele>
        <time>2021-02-13T14:19:53.000Z</time>
      </trkpt>
      <trkpt lat="47.21402" lon="-1.48049">
        <ele>39</ele>
        <time>2021-02-13T14:19:55.000Z</time>
      </trkpt>
      <trkpt lat="47.21396" lon="-1.48067">
        <ele>38</ele>
        <time>2021-02-13T14:19:57.000Z</time>
      </trkpt>
      <trkpt lat="47.21389" lon="-1.48085">
        <ele>38</ele>
        <time>2021-02-13T14:19:59.000Z</time>
      </trkpt>
      <trkpt lat="47.2138" lon="-1.48102">
        <ele>39</ele>
        <time>2021-02-13T14:20:01.000Z</time>
      </trkpt>
      <trkpt lat="47.21372" lon="-1.48118">
        <ele>40</ele>
        <time>2021-02-13T14:20:03.000Z</time>
      </trkpt>
      <trkpt lat="47.21363" lon="-1.48133">
        <ele>40</ele>
        <time>2021-02-13T14:20:05.000Z</time>
      </trkpt>
      <trkpt lat="47.21353" lon="-1.48146">
        <ele>40</ele>
        <time>2021-02-13T14:20:07.000Z</time>
      </trkpt>
      <trkpt lat="47.21344" lon="-1.48157">
        <ele>40</ele>
        <time>2021-02-13T14:20:09.000Z</time>
      </trkpt>
      <trkpt lat="47.21333" lon="-1.48168">
        <ele>40</ele>
        <time>2021-02-13T14:20:11.000Z</time>
      </trkpt>
      <trkpt lat="47.21323" lon="-1.48178">
        <ele>40</ele>
        <time>2021-02-13T14:20:13.000Z</time>
      </trkpt>
      <trkpt lat="47.21311" lon="-1.48188">
        <ele>41</ele>
        <time>2021-02-13T14:20:15.000Z</time>
      </trkpt>
      <trkpt lat="47.21299" lon="-1.48199">
        <ele>40</ele>
        <time>2021-02-13T14:20:17.000Z</time>
      </trkpt>
      <trkpt lat="47.21287" lon="-1.48209">
        <ele>41</ele>
        <time>2021-02-13T14:20:19.000Z</time>
      </trkpt>
      <trkpt lat="47.21276" lon="-1.4822">
        <ele>42</ele>
        <time>2021-02-13T14:20:21.000Z</time>
      </trkpt>
      <trkpt lat="47.21264" lon="-1.48231">
        <ele>42</ele>
        <time>2021-02-13T14:20:23.000Z</time>
      </trkpt>
      <trkpt lat="47.21253" lon="-1.48241">
        <ele>42</ele>
        <time>2021-02-13T14:20:25.000Z</time>
      </trkpt>
      <trkpt lat="47.21242" lon="-1.48251">
        <ele>42</ele>
        <time>2021-02-13T14:20:27.000Z</time>
      </trkpt>
      <trkpt lat="47.21232" lon="-1.48262">
        <ele>43</ele>
        <time>2021-02-13T14:20:29.000Z</time>
      </trkpt>
      <trkpt lat="47.21225" lon="-1.48276">
        <ele>43</ele>
        <time>2021-02-13T14:20:31.000Z</time>
      </trkpt>
      <trkpt lat="47.21222" lon="-1.48292">
        <ele>42</ele>
        <time>2021-02-13T14:20:33.000Z</time>
      </trkpt>
      <trkpt lat="47.21225" lon="-1.48309">
        <ele>42</ele>
        <time>2021-02-13T14:20:35.000Z</time>
      </trkpt>
      <trkpt lat="47.21234" lon="-1.48321">
        <ele>42</ele>
        <time>2021-02-13T14:20:37.000Z</time>
      </trkpt>
      <trkpt lat="47.2124" lon="-1.48331">
        <ele>42</ele>
        <time>2021-02-13T14:20:39.000Z</time>
      </trkpt>
      <trkpt lat="47.21233" lon="-1.48344">
        <ele>40</ele>
        <time>2021-02-13T14:20:41.000Z</time>
      </trkpt>
      <trkpt lat="47.21225" lon="-1.48357">
        <ele>39</ele>
        <time>2021-02-13T14:20:43.000Z</time>
      </trkpt>
      <trkpt lat="47.21221" lon="-1.48377">
        <ele>38</ele>
        <time>2021-02-13T14:20:45.000Z</time>
      </trkpt>
      <trkpt lat="47.21223" lon="-1.48398">
        <ele>39</ele>
        <time>2021-02-13T14:20:47.000Z</time>
      </trkpt>
      <trkpt lat="47.21228" lon="-1.48417">
        <ele>40</ele>
        <time>2021-02-13T14:20:49.000Z</time>
      </trkpt>
      <trkpt lat="47.21235" lon="-1.48435">
        <ele>40</ele>
        <time>2021-02-13T14:20:51.000Z</time>
      </trkpt>
      <trkpt lat="47.21242" lon="-1.4845">
        <ele>41</ele>
        <time>2021-02-13T14:20:53.000Z</time>
      </trkpt>
      <trkpt lat="47.21253" lon="-1.48459">
        <ele>41</ele>
        <time>2021-02-13T14:20:55.000Z</time>
      </trkpt>
      <trkpt lat="47.21264" lon="-1.4846">
        <ele>43</ele>
        <time>2021-02-13T14:20:57.000Z</time>
      </trkpt>
      <trkpt lat="47.21273" lon="-1.48455">
        <ele>44</ele>
        <time>2021-02-13T14:21:01.000Z</time>
      </trkpt>
      <trkpt lat="47.2128" lon="-1.48469">
        <ele>45</ele>
        <time>2021-02-13T14:21:04.000Z</time>
      </trkpt>
      <trkpt lat="47.21281" lon="-1.48483">
        <ele>44</ele>
        <time>2021-02-13T14:21:06.000Z</time>
      </trkpt>
      <trkpt lat="47.21279" lon="-1.485">
        <ele>43</ele>
        <time>2021-02-13T14:21:08.000Z</time>
      </trkpt>
      <trkpt lat="47.21274" lon="-1.48518">
        <ele>42</ele>
        <time>2021-02-13T14:21:10.000Z</time>
      </trkpt>
      <trkpt lat="47.21267" lon="-1.48538">
        <ele>41</ele>
        <time>2021-02-13T14:21:12.000Z</time>
      </trkpt>
      <trkpt lat="47.21261" lon="-1.48557">
        <ele>40</ele>
        <time>2021-02-13T14:21:14.000Z</time>
      </trkpt>
      <trkpt lat="47.21255" lon="-1.48577">
        <ele>40</ele>
        <time>2021-02-13T14:21:16.000Z</time>
      </trkpt>
      <trkpt lat="47.2125" lon="-1.48597">
        <ele>39</ele>
        <time>2021-02-13T14:21:18.000Z</time>
      </trkpt>
      <trkpt lat="47.21245" lon="-1.48616">
        <ele>40</ele>
        <time>2021-02-13T14:21:20.000Z</time>
      </trkpt>
      <trkpt lat="47.21238" lon="-1.48636">
        <ele>39</ele>
        <time>2021-02-13T14:21:22.000Z</time>
      </trkpt>
      <trkpt lat="47.21233" lon="-1.48656">
        <ele>40</ele>
        <time>2021-02-13T14:21:24.000Z</time>
      </trkpt>
      <trkpt lat="47.21228" lon="-1.48676">
        <ele>40</ele>
        <time>2021-02-13T14:21:26.000Z</time>
      </trkpt>
      <trkpt lat="47.21222" lon="-1.48697">
        <ele>41</ele>
        <time>2021-02-13T14:21:28.000Z</time>
      </trkpt>
      <trkpt lat="47.21218" lon="-1.48717">
        <ele>41</ele>
        <time>2021-02-13T14:21:30.000Z</time>
      </trkpt>
      <trkpt lat="47.21213" lon="-1.48737">
        <ele>42</ele>
        <time>2021-02-13T14:21:32.000Z</time>
      </trkpt>
      <trkpt lat="47.21208" lon="-1.48758">
        <ele>43</ele>
        <time>2021-02-13T14:21:34.000Z</time>
      </trkpt>
      <trkpt lat="47.21204" lon="-1.48777">
        <ele>43</ele>
        <time>2021-02-13T14:21:36.000Z</time>
      </trkpt>
      <trkpt lat="47.21199" lon="-1.48796">
        <ele>44</ele>
        <time>2021-02-13T14:21:38.000Z</time>
      </trkpt>
      <trkpt lat="47.21195" lon="-1.48815">
        <ele>44</ele>
        <time>2021-02-13T14:21:40.000Z</time>
      </trkpt>
      <trkpt lat="47.21191" lon="-1.48834">
        <ele>44</ele>
        <time>2021-02-13T14:21:42.000Z</time>
      </trkpt>
      <trkpt lat="47.21189" lon="-1.48853">
        <ele>44</ele>
        <time>2021-02-13T14:21:44.000Z</time>
      </trkpt>
      <trkpt lat="47.21189" lon="-1.48874">
        <ele>43</ele>
        <time>2021-02-13T14:21:46.000Z</time>
      </trkpt>
      <trkpt lat="47.21186" lon="-1.48894">
        <ele>43</ele>
        <time>2021-02-13T14:21:48.000Z</time>
      </trkpt>
      <trkpt lat="47.21179" lon="-1.4891">
        <ele>42</ele>
        <time>2021-02-13T14:21:50.000Z</time>
      </trkpt>
      <trkpt lat="47.21174" lon="-1.4893">
        <ele>42</ele>
        <time>2021-02-13T14:21:52.000Z</time>
      </trkpt>
      <trkpt lat="47.21171" lon="-1.4895">
        <ele>43</ele>
        <time>2021-02-13T14:21:54.000Z</time>
      </trkpt>
      <trkpt lat="47.21168" lon="-1.4897">
        <ele>43</ele>
        <time>2021-02-13T14:21:56.000Z</time>
      </trkpt>
      <trkpt lat="47.21164" lon="-1.48989">
        <ele>43</ele>
        <time>2021-02-13T14:21:58.000Z</time>
      </trkpt>
      <trkpt lat="47.2116" lon="-1.49008">
        <ele>41</ele>
        <time>2021-02-13T14:22:00.000Z</time>
      </trkpt>
      <trkpt lat="47.21157" lon="-1.49026">
        <ele>40</ele>
        <time>2021-02-13T14:22:02.000Z</time>
      </trkpt>
      <trkpt lat="47.21154" lon="-1.49044">
        <ele>39</ele>
        <time>2021-02-13T14:22:04.000Z</time>
      </trkpt>
      <trkpt lat="47.21159" lon="-1.49061">
        <ele>38</ele>
        <time>2021-02-13T14:22:06.000Z</time>
      </trkpt>
      <trkpt lat="47.21162" lon="-1.4908">
        <ele>37</ele>
        <time>2021-02-13T14:22:08.000Z</time>
      </trkpt>
      <trkpt lat="47.21156" lon="-1.491">
        <ele>38</ele>
        <time>2021-02-13T14:22:10.000Z</time>
      </trkpt>
      <trkpt lat="47.2115" lon="-1.49117">
        <ele>39</ele>
        <time>2021-02-13T14:22:12.000Z</time>
      </trkpt>
      <trkpt lat="47.21147" lon="-1.49136">
        <ele>38</ele>
        <time>2021-02-13T14:22:14.000Z</time>
      </trkpt>
      <trkpt lat="47.21145" lon="-1.49158">
        <ele>39</ele>
        <time>2021-02-13T14:22:16.000Z</time>
      </trkpt>
      <trkpt lat="47.21144" lon="-1.49179">
        <ele>39</ele>
        <time>2021-02-13T14:22:18.000Z</time>
      </trkpt>
      <trkpt lat="47.21142" lon="-1.49201">
        <ele>40</ele>
        <time>2021-02-13T14:22:20.000Z</time>
      </trkpt>
      <trkpt lat="47.2114" lon="-1.49222">
        <ele>41</ele>
        <time>2021-02-13T14:22:22.000Z</time>
      </trkpt>
      <trkpt lat="47.21138" lon="-1.49244">
        <ele>41</ele>
        <time>2021-02-13T14:22:24.000Z</time>
      </trkpt>
      <trkpt lat="47.21137" lon="-1.49265">
        <ele>41</ele>
        <time>2021-02-13T14:22:26.000Z</time>
      </trkpt>
      <trkpt lat="47.21135" lon="-1.49285">
        <ele>40</ele>
        <time>2021-02-13T14:22:28.000Z</time>
      </trkpt>
      <trkpt lat="47.21134" lon="-1.49306">
        <ele>39</ele>
        <time>2021-02-13T14:22:30.000Z</time>
      </trkpt>
      <trkpt lat="47.21133" lon="-1.49326">
        <ele>39</ele>
        <time>2021-02-13T14:22:32.000Z</time>
      </trkpt>
      <trkpt lat="47.21132" lon="-1.49346">
        <ele>38</ele>
        <time>2021-02-13T14:22:34.000Z</time>
      </trkpt>
      <trkpt lat="47.21131" lon="-1.49366">
        <ele>37</ele>
        <time>2021-02-13T14:22:36.000Z</time>
      </trkpt>
      <trkpt lat="47.21131" lon="-1.49387">
        <ele>37</ele>
        <time>2021-02-13T14:22:38.000Z</time>
      </trkpt>
      <trkpt lat="47.2113" lon="-1.49407">
        <ele>37</ele>
        <time>2021-02-13T14:22:40.000Z</time>
      </trkpt>
      <trkpt lat="47.21129" lon="-1.49426">
        <ele>37</ele>
        <time>2021-02-13T14:22:42.000Z</time>
      </trkpt>
      <trkpt lat="47.21129" lon="-1.49447">
        <ele>37</ele>
        <time>2021-02-13T14:22:44.000Z</time>
      </trkpt>
      <trkpt lat="47.21129" lon="-1.49465">
        <ele>37</ele>
        <time>2021-02-13T14:22:46.000Z</time>
      </trkpt>
      <trkpt lat="47.21127" lon="-1.49484">
        <ele>38</ele>
        <time>2021-02-13T14:22:48.000Z</time>
      </trkpt>
      <trkpt lat="47.21128" lon="-1.49502">
        <ele>38</ele>
        <time>2021-02-13T14:22:50.000Z</time>
      </trkpt>
      <trkpt lat="47.21129" lon="-1.49521">
        <ele>38</ele>
        <time>2021-02-13T14:22:52.000Z</time>
      </trkpt>
      <trkpt lat="47.2113" lon="-1.49541">
        <ele>38</ele>
        <time>2021-02-13T14:22:54.000Z</time>
      </trkpt>
      <trkpt lat="47.21135" lon="-1.49558">
        <ele>38</ele>
        <time>2021-02-13T14:22:56.000Z</time>
      </trkpt>
      <trkpt lat="47.21139" lon="-1.49573">
        <ele>37</ele>
        <time>2021-02-13T14:22:58.000Z</time>
      </trkpt>
      <trkpt lat="47.21137" lon="-1.49588">
        <ele>37</ele>
        <time>2021-02-13T14:23:00.000Z</time>
      </trkpt>
      <trkpt lat="47.21129" lon="-1.49598">
        <ele>37</ele>
        <time>2021-02-13T14:23:02.000Z</time>
      </trkpt>
      <trkpt lat="47.21123" lon="-1.49613">
        <ele>38</ele>
        <time>2021-02-13T14:23:04.000Z</time>
      </trkpt>
      <trkpt lat="47.21123" lon="-1.49634">
        <ele>38</ele>
        <time>2021-02-13T14:23:06.000Z</time>
      </trkpt>
      <trkpt lat="47.21122" lon="-1.49656">
        <ele>37</ele>
        <time>2021-02-13T14:23:08.000Z</time>
      </trkpt>
      <trkpt lat="47.2112" lon="-1.49678">
        <ele>38</ele>
        <time>2021-02-13T14:23:10.000Z</time>
      </trkpt>
      <trkpt lat="47.21119" lon="-1.49701">
        <ele>39</ele>
        <time>2021-02-13T14:23:12.000Z</time>
      </trkpt>
      <trkpt lat="47.21117" lon="-1.49723">
        <ele>40</ele>
        <time>2021-02-13T14:23:14.000Z</time>
      </trkpt>
      <trkpt lat="47.21115" lon="-1.49745">
        <ele>40</ele>
        <time>2021-02-13T14:23:16.000Z</time>
      </trkpt>
      <trkpt lat="47.21113" lon="-1.49768">
        <ele>39</ele>
        <time>2021-02-13T14:23:18.000Z</time>
      </trkpt>
      <trkpt lat="47.2111" lon="-1.49789">
        <ele>38</ele>
        <time>2021-02-13T14:23:20.000Z</time>
      </trkpt>
      <trkpt lat="47.21108" lon="-1.4981">
        <ele>38</ele>
        <time>2021-02-13T14:23:22.000Z</time>
      </trkpt>
      <trkpt lat="47.21104" lon="-1.49831">
        <ele>38</ele>
        <time>2021-02-13T14:23:24.000Z</time>
      </trkpt>
      <trkpt lat="47.211" lon="-1.49851">
        <ele>38</ele>
        <time>2021-02-13T14:23:26.000Z</time>
      </trkpt>
      <trkpt lat="47.21099" lon="-1.49871">
        <ele>37</ele>
        <time>2021-02-13T14:23:28.000Z</time>
      </trkpt>
      <trkpt lat="47.21093" lon="-1.4989">
        <ele>38</ele>
        <time>2021-02-13T14:23:30.000Z</time>
      </trkpt>
      <trkpt lat="47.21087" lon="-1.4991">
        <ele>39</ele>
        <time>2021-02-13T14:23:32.000Z</time>
      </trkpt>
      <trkpt lat="47.21081" lon="-1.49929">
        <ele>38</ele>
        <time>2021-02-13T14:23:34.000Z</time>
      </trkpt>
      <trkpt lat="47.21075" lon="-1.49948">
        <ele>38</ele>
        <time>2021-02-13T14:23:36.000Z</time>
      </trkpt>
      <trkpt lat="47.21069" lon="-1.49968">
        <ele>38</ele>
        <time>2021-02-13T14:23:38.000Z</time>
      </trkpt>
      <trkpt lat="47.21064" lon="-1.49987">
        <ele>38</ele>
        <time>2021-02-13T14:23:40.000Z</time>
      </trkpt>
      <trkpt lat="47.21059" lon="-1.50006">
        <ele>38</ele>
        <time>2021-02-13T14:23:42.000Z</time>
      </trkpt>
      <trkpt lat="47.21055" lon="-1.50025">
        <ele>38</ele>
        <time>2021-02-13T14:23:44.000Z</time>
      </trkpt>
      <trkpt lat="47.2105" lon="-1.50044">
        <ele>38</ele>
        <time>2021-02-13T14:23:46.000Z</time>
      </trkpt>
      <trkpt lat="47.21045" lon="-1.50064">
        <ele>38</ele>
        <time>2021-02-13T14:23:48.000Z</time>
      </trkpt>
      <trkpt lat="47.2104" lon="-1.50082">
        <ele>39</ele>
        <time>2021-02-13T14:23:50.000Z</time>
      </trkpt>
      <trkpt lat="47.21036" lon="-1.50101">
        <ele>38</ele>
        <time>2021-02-13T14:23:52.000Z</time>
      </trkpt>
      <trkpt lat="47.21031" lon="-1.5012">
        <ele>38</ele>
        <time>2021-02-13T14:23:54.000Z</time>
      </trkpt>
      <trkpt lat="47.21026" lon="-1.5014">
        <ele>39</ele>
        <time>2021-02-13T14:23:56.000Z</time>
      </trkpt>
      <trkpt lat="47.21022" lon="-1.50159">
        <ele>39</ele>
        <time>2021-02-13T14:23:58.000Z</time>
      </trkpt>
      <trkpt lat="47.21018" lon="-1.50178">
        <ele>38</ele>
        <time>2021-02-13T14:24:00.000Z</time>
      </trkpt>
      <trkpt lat="47.21015" lon="-1.50197">
        <ele>38</ele>
        <time>2021-02-13T14:24:02.000Z</time>
      </trkpt>
      <trkpt lat="47.21017" lon="-1.50215">
        <ele>37</ele>
        <time>2021-02-13T14:24:04.000Z</time>
      </trkpt>
      <trkpt lat="47.21018" lon="-1.50234">
        <ele>37</ele>
        <time>2021-02-13T14:24:06.000Z</time>
      </trkpt>
      <trkpt lat="47.21009" lon="-1.50249">
        <ele>38</ele>
        <time>2021-02-13T14:24:08.000Z</time>
      </trkpt>
      <trkpt lat="47.21004" lon="-1.50266">
        <ele>39</ele>
        <time>2021-02-13T14:24:10.000Z</time>
      </trkpt>
      <trkpt lat="47.21002" lon="-1.50287">
        <ele>38</ele>
        <time>2021-02-13T14:24:12.000Z</time>
      </trkpt>
      <trkpt lat="47.21" lon="-1.50308">
        <ele>38</ele>
        <time>2021-02-13T14:24:14.000Z</time>
      </trkpt>
      <trkpt lat="47.20998" lon="-1.50329">
        <ele>37</ele>
        <time>2021-02-13T14:24:16.000Z</time>
      </trkpt>
      <trkpt lat="47.20997" lon="-1.50351">
        <ele>38</ele>
        <time>2021-02-13T14:24:18.000Z</time>
      </trkpt>
      <trkpt lat="47.20997" lon="-1.50372">
        <ele>37</ele>
        <time>2021-02-13T14:24:20.000Z</time>
      </trkpt>
      <trkpt lat="47.20997" lon="-1.50394">
        <ele>37</ele>
        <time>2021-02-13T14:24:22.000Z</time>
      </trkpt>
      <trkpt lat="47.20997" lon="-1.50415">
        <ele>37</ele>
        <time>2021-02-13T14:24:24.000Z</time>
      </trkpt>
      <trkpt lat="47.20997" lon="-1.50435">
        <ele>37</ele>
        <time>2021-02-13T14:24:26.000Z</time>
      </trkpt>
      <trkpt lat="47.20998" lon="-1.50455">
        <ele>37</ele>
        <time>2021-02-13T14:24:28.000Z</time>
      </trkpt>
      <trkpt lat="47.20998" lon="-1.50476">
        <ele>38</ele>
        <time>2021-02-13T14:24:30.000Z</time>
      </trkpt>
      <trkpt lat="47.20998" lon="-1.50497">
        <ele>37</ele>
        <time>2021-02-13T14:24:32.000Z</time>
      </trkpt>
      <trkpt lat="47.20998" lon="-1.50518">
        <ele>36</ele>
        <time>2021-02-13T14:24:34.000Z</time>
      </trkpt>
      <trkpt lat="47.20998" lon="-1.50539">
        <ele>36</ele>
        <time>2021-02-13T14:24:36.000Z</time>
      </trkpt>
      <trkpt lat="47.20998" lon="-1.50559">
        <ele>36</ele>
        <time>2021-02-13T14:24:38.000Z</time>
      </trkpt>
      <trkpt lat="47.20998" lon="-1.5058">
        <ele>36</ele>
        <time>2021-02-13T14:24:40.000Z</time>
      </trkpt>
      <trkpt lat="47.20998" lon="-1.506">
        <ele>36</ele>
        <time>2021-02-13T14:24:42.000Z</time>
      </trkpt>
      <trkpt lat="47.20998" lon="-1.50622">
        <ele>36</ele>
        <time>2021-02-13T14:24:44.000Z</time>
      </trkpt>
      <trkpt lat="47.20998" lon="-1.50642">
        <ele>35</ele>
        <time>2021-02-13T14:24:46.000Z</time>
      </trkpt>
      <trkpt lat="47.20997" lon="-1.50663">
        <ele>35</ele>
        <time>2021-02-13T14:24:48.000Z</time>
      </trkpt>
      <trkpt lat="47.20996" lon="-1.50683">
        <ele>35</ele>
        <time>2021-02-13T14:24:50.000Z</time>
      </trkpt>
      <trkpt lat="47.20995" lon="-1.50703">
        <ele>35</ele>
        <time>2021-02-13T14:24:52.000Z</time>
      </trkpt>
      <trkpt lat="47.20994" lon="-1.50723">
        <ele>35</ele>
        <time>2021-02-13T14:24:54.000Z</time>
      </trkpt>
      <trkpt lat="47.20993" lon="-1.50738">
        <ele>36</ele>
        <time>2021-02-13T14:24:56.000Z</time>
      </trkpt>
      <trkpt lat="47.20992" lon="-1.50755">
        <ele>37</ele>
        <time>2021-02-13T14:24:58.000Z</time>
      </trkpt>
      <trkpt lat="47.2099" lon="-1.50777">
        <ele>39</ele>
        <time>2021-02-13T14:25:00.000Z</time>
      </trkpt>
      <trkpt lat="47.20987" lon="-1.50801">
        <ele>39</ele>
        <time>2021-02-13T14:25:02.000Z</time>
      </trkpt>
      <trkpt lat="47.20984" lon="-1.50824">
        <ele>38</ele>
        <time>2021-02-13T14:25:04.000Z</time>
      </trkpt>
      <trkpt lat="47.20982" lon="-1.50846">
        <ele>38</ele>
        <time>2021-02-13T14:25:06.000Z</time>
      </trkpt>
      <trkpt lat="47.20978" lon="-1.50867">
        <ele>38</ele>
        <time>2021-02-13T14:25:08.000Z</time>
      </trkpt>
      <trkpt lat="47.20975" lon="-1.50889">
        <ele>38</ele>
        <time>2021-02-13T14:25:10.000Z</time>
      </trkpt>
      <trkpt lat="47.20973" lon="-1.5091">
        <ele>38</ele>
        <time>2021-02-13T14:25:12.000Z</time>
      </trkpt>
      <trkpt lat="47.20971" lon="-1.5093">
        <ele>39</ele>
        <time>2021-02-13T14:25:14.000Z</time>
      </trkpt>
      <trkpt lat="47.20968" lon="-1.5095">
        <ele>39</ele>
        <time>2021-02-13T14:25:16.000Z</time>
      </trkpt>
      <trkpt lat="47.20965" lon="-1.5097">
        <ele>38</ele>
        <time>2021-02-13T14:25:18.000Z</time>
      </trkpt>
      <trkpt lat="47.20964" lon="-1.50991">
        <ele>38</ele>
        <time>2021-02-13T14:25:20.000Z</time>
      </trkpt>
      <trkpt lat="47.20959" lon="-1.5101">
        <ele>38</ele>
        <time>2021-02-13T14:25:22.000Z</time>
      </trkpt>
      <trkpt lat="47.20954" lon="-1.51028">
        <ele>37</ele>
        <time>2021-02-13T14:25:24.000Z</time>
      </trkpt>
      <trkpt lat="47.20952" lon="-1.51048">
        <ele>36</ele>
        <time>2021-02-13T14:25:26.000Z</time>
      </trkpt>
      <trkpt lat="47.20948" lon="-1.51067">
        <ele>36</ele>
        <time>2021-02-13T14:25:28.000Z</time>
      </trkpt>
      <trkpt lat="47.20943" lon="-1.51086">
        <ele>37</ele>
        <time>2021-02-13T14:25:30.000Z</time>
      </trkpt>
      <trkpt lat="47.20938" lon="-1.51105">
        <ele>37</ele>
        <time>2021-02-13T14:25:32.000Z</time>
      </trkpt>
      <trkpt lat="47.20933" lon="-1.51123">
        <ele>37</ele>
        <time>2021-02-13T14:25:34.000Z</time>
      </trkpt>
      <trkpt lat="47.20928" lon="-1.5114">
        <ele>37</ele>
        <time>2021-02-13T14:25:36.000Z</time>
      </trkpt>
      <trkpt lat="47.20924" lon="-1.51157">
        <ele>38</ele>
        <time>2021-02-13T14:25:38.000Z</time>
      </trkpt>
      <trkpt lat="47.20918" lon="-1.51171">
        <ele>39</ele>
        <time>2021-02-13T14:25:40.000Z</time>
      </trkpt>
      <trkpt lat="47.20912" lon="-1.51183">
        <ele>39</ele>
        <time>2021-02-13T14:25:42.000Z</time>
      </trkpt>
      <trkpt lat="47.20907" lon="-1.51197">
        <ele>39</ele>
        <time>2021-02-13T14:25:44.000Z</time>
      </trkpt>
      <trkpt lat="47.20901" lon="-1.5121">
        <ele>39</ele>
        <time>2021-02-13T14:25:46.000Z</time>
      </trkpt>
      <trkpt lat="47.20897" lon="-1.51224">
        <ele>40</ele>
        <time>2021-02-13T14:25:48.000Z</time>
      </trkpt>
      <trkpt lat="47.20889" lon="-1.51239">
        <ele>42</ele>
        <time>2021-02-13T14:25:51.000Z</time>
      </trkpt>
      <trkpt lat="47.20885" lon="-1.51253">
        <ele>42</ele>
        <time>2021-02-13T14:25:53.000Z</time>
      </trkpt>
      <trkpt lat="47.20878" lon="-1.51268">
        <ele>43</ele>
        <time>2021-02-13T14:25:55.000Z</time>
      </trkpt>
      <trkpt lat="47.20869" lon="-1.51286">
        <ele>42</ele>
        <time>2021-02-13T14:25:57.000Z</time>
      </trkpt>
      <trkpt lat="47.20861" lon="-1.51306">
        <ele>41</ele>
        <time>2021-02-13T14:25:59.000Z</time>
      </trkpt>
      <trkpt lat="47.20852" lon="-1.51324">
        <ele>42</ele>
        <time>2021-02-13T14:26:01.000Z</time>
      </trkpt>
      <trkpt lat="47.20845" lon="-1.51342">
        <ele>41</ele>
        <time>2021-02-13T14:26:03.000Z</time>
      </trkpt>
      <trkpt lat="47.2084" lon="-1.51361">
        <ele>40</ele>
        <time>2021-02-13T14:26:05.000Z</time>
      </trkpt>
      <trkpt lat="47.20835" lon="-1.51382">
        <ele>40</ele>
        <time>2021-02-13T14:26:07.000Z</time>
      </trkpt>
      <trkpt lat="47.2083" lon="-1.51403">
        <ele>40</ele>
        <time>2021-02-13T14:26:09.000Z</time>
      </trkpt>
      <trkpt lat="47.20827" lon="-1.51424">
        <ele>39</ele>
        <time>2021-02-13T14:26:11.000Z</time>
      </trkpt>
      <trkpt lat="47.20823" lon="-1.51446">
        <ele>39</ele>
        <time>2021-02-13T14:26:13.000Z</time>
      </trkpt>
      <trkpt lat="47.2082" lon="-1.51468">
        <ele>38</ele>
        <time>2021-02-13T14:26:15.000Z</time>
      </trkpt>
      <trkpt lat="47.20816" lon="-1.5149">
        <ele>37</ele>
        <time>2021-02-13T14:26:17.000Z</time>
      </trkpt>
      <trkpt lat="47.20811" lon="-1.51511">
        <ele>37</ele>
        <time>2021-02-13T14:26:19.000Z</time>
      </trkpt>
      <trkpt lat="47.20807" lon="-1.51532">
        <ele>37</ele>
        <time>2021-02-13T14:26:21.000Z</time>
      </trkpt>
      <trkpt lat="47.20804" lon="-1.51554">
        <ele>37</ele>
        <time>2021-02-13T14:26:23.000Z</time>
      </trkpt>
      <trkpt lat="47.20802" lon="-1.51577">
        <ele>37</ele>
        <time>2021-02-13T14:26:25.000Z</time>
      </trkpt>
      <trkpt lat="47.20802" lon="-1.51599">
        <ele>37</ele>
        <time>2021-02-13T14:26:27.000Z</time>
      </trkpt>
      <trkpt lat="47.208" lon="-1.51619">
        <ele>37</ele>
        <time>2021-02-13T14:26:29.000Z</time>
      </trkpt>
      <trkpt lat="47.20796" lon="-1.5164">
        <ele>37</ele>
        <time>2021-02-13T14:26:31.000Z</time>
      </trkpt>
      <trkpt lat="47.20791" lon="-1.51661">
        <ele>37</ele>
        <time>2021-02-13T14:26:33.000Z</time>
      </trkpt>
      <trkpt lat="47.20787" lon="-1.51682">
        <ele>36</ele>
        <time>2021-02-13T14:26:35.000Z</time>
      </trkpt>
      <trkpt lat="47.20784" lon="-1.51703">
        <ele>36</ele>
        <time>2021-02-13T14:26:37.000Z</time>
      </trkpt>
      <trkpt lat="47.20779" lon="-1.51723">
        <ele>36</ele>
        <time>2021-02-13T14:26:39.000Z</time>
      </trkpt>
      <trkpt lat="47.20773" lon="-1.51743">
        <ele>36</ele>
        <time>2021-02-13T14:26:41.000Z</time>
      </trkpt>
      <trkpt lat="47.20767" lon="-1.51763">
        <ele>36</ele>
        <time>2021-02-13T14:26:43.000Z</time>
      </trkpt>
      <trkpt lat="47.2076" lon="-1.51782">
        <ele>36</ele>
        <time>2021-02-13T14:26:45.000Z</time>
      </trkpt>
      <trkpt lat="47.20755" lon="-1.51801">
        <ele>36</ele>
        <time>2021-02-13T14:26:47.000Z</time>
      </trkpt>
      <trkpt lat="47.20751" lon="-1.5182">
        <ele>36</ele>
        <time>2021-02-13T14:26:49.000Z</time>
      </trkpt>
      <trkpt lat="47.20747" lon="-1.51839">
        <ele>36</ele>
        <time>2021-02-13T14:26:51.000Z</time>
      </trkpt>
      <trkpt lat="47.2074" lon="-1.51858">
        <ele>36</ele>
        <time>2021-02-13T14:26:53.000Z</time>
      </trkpt>
      <trkpt lat="47.20733" lon="-1.51877">
        <ele>36</ele>
        <time>2021-02-13T14:26:55.000Z</time>
      </trkpt>
      <trkpt lat="47.20726" lon="-1.51896">
        <ele>36</ele>
        <time>2021-02-13T14:26:57.000Z</time>
      </trkpt>
      <trkpt lat="47.20718" lon="-1.51914">
        <ele>36</ele>
        <time>2021-02-13T14:26:59.000Z</time>
      </trkpt>
      <trkpt lat="47.2071" lon="-1.51932">
        <ele>36</ele>
        <time>2021-02-13T14:27:01.000Z</time>
      </trkpt>
      <trkpt lat="47.20701" lon="-1.51949">
        <ele>36</ele>
        <time>2021-02-13T14:27:03.000Z</time>
      </trkpt>
      <trkpt lat="47.20692" lon="-1.51965">
        <ele>36</ele>
        <time>2021-02-13T14:27:05.000Z</time>
      </trkpt>
      <trkpt lat="47.20682" lon="-1.51981">
        <ele>36</ele>
        <time>2021-02-13T14:27:07.000Z</time>
      </trkpt>
      <trkpt lat="47.20673" lon="-1.51997">
        <ele>36</ele>
        <time>2021-02-13T14:27:09.000Z</time>
      </trkpt>
      <trkpt lat="47.20664" lon="-1.52014">
        <ele>36</ele>
        <time>2021-02-13T14:27:11.000Z</time>
      </trkpt>
      <trkpt lat="47.20656" lon="-1.52031">
        <ele>36</ele>
        <time>2021-02-13T14:27:13.000Z</time>
      </trkpt>
      <trkpt lat="47.20645" lon="-1.52045">
        <ele>36</ele>
        <time>2021-02-13T14:27:15.000Z</time>
      </trkpt>
      <trkpt lat="47.20635" lon="-1.52059">
        <ele>36</ele>
        <time>2021-02-13T14:27:17.000Z</time>
      </trkpt>
      <trkpt lat="47.20626" lon="-1.52074">
        <ele>36</ele>
        <time>2021-02-13T14:27:19.000Z</time>
      </trkpt>
      <trkpt lat="47.20617" lon="-1.52091">
        <ele>36</ele>
        <time>2021-02-13T14:27:21.000Z</time>
      </trkpt>
      <trkpt lat="47.20608" lon="-1.52108">
        <ele>36</ele>
        <time>2021-02-13T14:27:23.000Z</time>
      </trkpt>
      <trkpt lat="47.20599" lon="-1.52125">
        <ele>37</ele>
        <time>2021-02-13T14:27:25.000Z</time>
      </trkpt>
      <trkpt lat="47.20589" lon="-1.52142">
        <ele>37</ele>
        <time>2021-02-13T14:27:27.000Z</time>
      </trkpt>
      <trkpt lat="47.2058" lon="-1.52159">
        <ele>37</ele>
        <time>2021-02-13T14:27:29.000Z</time>
      </trkpt>
      <trkpt lat="47.20571" lon="-1.52176">
        <ele>38</ele>
        <time>2021-02-13T14:27:31.000Z</time>
      </trkpt>
      <trkpt lat="47.20561" lon="-1.52192">
        <ele>38</ele>
        <time>2021-02-13T14:27:33.000Z</time>
      </trkpt>
      <trkpt lat="47.20552" lon="-1.52208">
        <ele>38</ele>
        <time>2021-02-13T14:27:35.000Z</time>
      </trkpt>
      <trkpt lat="47.20542" lon="-1.52225">
        <ele>38</ele>
        <time>2021-02-13T14:27:37.000Z</time>
      </trkpt>
      <trkpt lat="47.20532" lon="-1.52242">
        <ele>38</ele>
        <time>2021-02-13T14:27:39.000Z</time>
      </trkpt>
      <trkpt lat="47.20523" lon="-1.52259">
        <ele>38</ele>
        <time>2021-02-13T14:27:41.000Z</time>
      </trkpt>
      <trkpt lat="47.20514" lon="-1.52276">
        <ele>38</ele>
        <time>2021-02-13T14:27:43.000Z</time>
      </trkpt>
      <trkpt lat="47.20507" lon="-1.52293">
        <ele>37</ele>
        <time>2021-02-13T14:27:45.000Z</time>
      </trkpt>
      <trkpt lat="47.20501" lon="-1.52312">
        <ele>37</ele>
        <time>2021-02-13T14:27:47.000Z</time>
      </trkpt>
      <trkpt lat="47.20497" lon="-1.52331">
        <ele>37</ele>
        <time>2021-02-13T14:27:49.000Z</time>
      </trkpt>
      <trkpt lat="47.20495" lon="-1.52348">
        <ele>38</ele>
        <time>2021-02-13T14:27:51.000Z</time>
      </trkpt>
      <trkpt lat="47.20489" lon="-1.52367">
        <ele>38</ele>
        <time>2021-02-13T14:27:53.000Z</time>
      </trkpt>
      <trkpt lat="47.20481" lon="-1.52384">
        <ele>38</ele>
        <time>2021-02-13T14:27:55.000Z</time>
      </trkpt>
      <trkpt lat="47.20473" lon="-1.52404">
        <ele>38</ele>
        <time>2021-02-13T14:27:57.000Z</time>
      </trkpt>
      <trkpt lat="47.20467" lon="-1.52426">
        <ele>37</ele>
        <time>2021-02-13T14:27:59.000Z</time>
      </trkpt>
      <trkpt lat="47.20462" lon="-1.52448">
        <ele>37</ele>
        <time>2021-02-13T14:28:01.000Z</time>
      </trkpt>
      <trkpt lat="47.20457" lon="-1.5247">
        <ele>36</ele>
        <time>2021-02-13T14:28:03.000Z</time>
      </trkpt>
      <trkpt lat="47.2045" lon="-1.5249">
        <ele>37</ele>
        <time>2021-02-13T14:28:05.000Z</time>
      </trkpt>
      <trkpt lat="47.20443" lon="-1.5251">
        <ele>37</ele>
        <time>2021-02-13T14:28:07.000Z</time>
      </trkpt>
      <trkpt lat="47.20435" lon="-1.52529">
        <ele>37</ele>
        <time>2021-02-13T14:28:09.000Z</time>
      </trkpt>
      <trkpt lat="47.20428" lon="-1.52549">
        <ele>36</ele>
        <time>2021-02-13T14:28:11.000Z</time>
      </trkpt>
      <trkpt lat="47.20421" lon="-1.52569">
        <ele>36</ele>
        <time>2021-02-13T14:28:13.000Z</time>
      </trkpt>
      <trkpt lat="47.20415" lon="-1.5259">
        <ele>36</ele>
        <time>2021-02-13T14:28:15.000Z</time>
      </trkpt>
      <trkpt lat="47.20409" lon="-1.52611">
        <ele>36</ele>
        <time>2021-02-13T14:28:17.000Z</time>
      </trkpt>
      <trkpt lat="47.20403" lon="-1.52631">
        <ele>36</ele>
        <time>2021-02-13T14:28:19.000Z</time>
      </trkpt>
      <trkpt lat="47.20396" lon="-1.5265">
        <ele>36</ele>
        <time>2021-02-13T14:28:21.000Z</time>
      </trkpt>
      <trkpt lat="47.20387" lon="-1.52669">
        <ele>35</ele>
        <time>2021-02-13T14:28:23.000Z</time>
      </trkpt>
      <trkpt lat="47.20379" lon="-1.52687">
        <ele>36</ele>
        <time>2021-02-13T14:28:25.000Z</time>
      </trkpt>
      <trkpt lat="47.2037" lon="-1.52703">
        <ele>36</ele>
        <time>2021-02-13T14:28:27.000Z</time>
      </trkpt>
      <trkpt lat="47.20361" lon="-1.52719">
        <ele>36</ele>
        <time>2021-02-13T14:28:29.000Z</time>
      </trkpt>
      <trkpt lat="47.20352" lon="-1.52736">
        <ele>36</ele>
        <time>2021-02-13T14:28:31.000Z</time>
      </trkpt>
      <trkpt lat="47.20344" lon="-1.52755">
        <ele>36</ele>
        <time>2021-02-13T14:28:33.000Z</time>
      </trkpt>
      <trkpt lat="47.20335" lon="-1.52773">
        <ele>37</ele>
        <time>2021-02-13T14:28:35.000Z</time>
      </trkpt>
      <trkpt lat="47.20326" lon="-1.52792">
        <ele>36</ele>
        <time>2021-02-13T14:28:37.000Z</time>
      </trkpt>
      <trkpt lat="47.20317" lon="-1.5281">
        <ele>36</ele>
        <time>2021-02-13T14:28:39.000Z</time>
      </trkpt>
      <trkpt lat="47.20308" lon="-1.52827">
        <ele>35</ele>
        <time>2021-02-13T14:28:41.000Z</time>
      </trkpt>
      <trkpt lat="47.203" lon="-1.52842">
        <ele>35</ele>
        <time>2021-02-13T14:28:43.000Z</time>
      </trkpt>
      <trkpt lat="47.20293" lon="-1.52857">
        <ele>35</ele>
        <time>2021-02-13T14:28:45.000Z</time>
      </trkpt>
      <trkpt lat="47.20287" lon="-1.52871">
        <ele>35</ele>
        <time>2021-02-13T14:28:47.000Z</time>
      </trkpt>
      <trkpt lat="47.20282" lon="-1.52884">
        <ele>35</ele>
        <time>2021-02-13T14:28:51.000Z</time>
      </trkpt>
      <trkpt lat="47.20278" lon="-1.52897">
        <ele>33</ele>
        <time>2021-02-13T14:28:57.000Z</time>
      </trkpt>
      <trkpt lat="47.20273" lon="-1.52909">
        <ele>34</ele>
        <time>2021-02-13T14:28:59.000Z</time>
      </trkpt>
      <trkpt lat="47.20266" lon="-1.52925">
        <ele>34</ele>
        <time>2021-02-13T14:29:01.000Z</time>
      </trkpt>
      <trkpt lat="47.20259" lon="-1.52941">
        <ele>34</ele>
        <time>2021-02-13T14:29:03.000Z</time>
      </trkpt>
      <trkpt lat="47.20249" lon="-1.52956">
        <ele>35</ele>
        <time>2021-02-13T14:29:05.000Z</time>
      </trkpt>
      <trkpt lat="47.20239" lon="-1.5297">
        <ele>35</ele>
        <time>2021-02-13T14:29:07.000Z</time>
      </trkpt>
      <trkpt lat="47.20229" lon="-1.52984">
        <ele>35</ele>
        <time>2021-02-13T14:29:09.000Z</time>
      </trkpt>
      <trkpt lat="47.20219" lon="-1.52999">
        <ele>35</ele>
        <time>2021-02-13T14:29:11.000Z</time>
      </trkpt>
      <trkpt lat="47.20208" lon="-1.53014">
        <ele>37</ele>
        <time>2021-02-13T14:29:13.000Z</time>
      </trkpt>
      <trkpt lat="47.20198" lon="-1.53029">
        <ele>38</ele>
        <time>2021-02-13T14:29:15.000Z</time>
      </trkpt>
      <trkpt lat="47.20187" lon="-1.53044">
        <ele>39</ele>
        <time>2021-02-13T14:29:17.000Z</time>
      </trkpt>
      <trkpt lat="47.20177" lon="-1.5306">
        <ele>38</ele>
        <time>2021-02-13T14:29:19.000Z</time>
      </trkpt>
      <trkpt lat="47.20168" lon="-1.53077">
        <ele>38</ele>
        <time>2021-02-13T14:29:21.000Z</time>
      </trkpt>
      <trkpt lat="47.20157" lon="-1.53092">
        <ele>37</ele>
        <time>2021-02-13T14:29:23.000Z</time>
      </trkpt>
      <trkpt lat="47.20148" lon="-1.53108">
        <ele>37</ele>
        <time>2021-02-13T14:29:25.000Z</time>
      </trkpt>
      <trkpt lat="47.2014" lon="-1.53126">
        <ele>37</ele>
        <time>2021-02-13T14:29:27.000Z</time>
      </trkpt>
      <trkpt lat="47.20132" lon="-1.53144">
        <ele>37</ele>
        <time>2021-02-13T14:29:29.000Z</time>
      </trkpt>
      <trkpt lat="47.20126" lon="-1.53164">
        <ele>37</ele>
        <time>2021-02-13T14:29:31.000Z</time>
      </trkpt>
      <trkpt lat="47.20119" lon="-1.53184">
        <ele>36</ele>
        <time>2021-02-13T14:29:33.000Z</time>
      </trkpt>
      <trkpt lat="47.20113" lon="-1.53205">
        <ele>36</ele>
        <time>2021-02-13T14:29:35.000Z</time>
      </trkpt>
      <trkpt lat="47.20109" lon="-1.53226">
        <ele>35</ele>
        <time>2021-02-13T14:29:37.000Z</time>
      </trkpt>
      <trkpt lat="47.20106" lon="-1.53248">
        <ele>35</ele>
        <time>2021-02-13T14:29:39.000Z</time>
      </trkpt>
      <trkpt lat="47.20101" lon="-1.53268">
        <ele>35</ele>
        <time>2021-02-13T14:29:41.000Z</time>
      </trkpt>
      <trkpt lat="47.20095" lon="-1.53288">
        <ele>35</ele>
        <time>2021-02-13T14:29:43.000Z</time>
      </trkpt>
      <trkpt lat="47.20088" lon="-1.53307">
        <ele>36</ele>
        <time>2021-02-13T14:29:45.000Z</time>
      </trkpt>
      <trkpt lat="47.20081" lon="-1.53324">
        <ele>35</ele>
        <time>2021-02-13T14:29:47.000Z</time>
      </trkpt>
      <trkpt lat="47.20073" lon="-1.53341">
        <ele>36</ele>
        <time>2021-02-13T14:29:49.000Z</time>
      </trkpt>
      <trkpt lat="47.20067" lon="-1.53358">
        <ele>36</ele>
        <time>2021-02-13T14:29:51.000Z</time>
      </trkpt>
      <trkpt lat="47.20059" lon="-1.53377">
        <ele>36</ele>
        <time>2021-02-13T14:29:53.000Z</time>
      </trkpt>
      <trkpt lat="47.20051" lon="-1.53396">
        <ele>37</ele>
        <time>2021-02-13T14:29:55.000Z</time>
      </trkpt>
      <trkpt lat="47.20044" lon="-1.53416">
        <ele>37</ele>
        <time>2021-02-13T14:29:57.000Z</time>
      </trkpt>
      <trkpt lat="47.20037" lon="-1.53436">
        <ele>38</ele>
        <time>2021-02-13T14:29:59.000Z</time>
      </trkpt>
      <trkpt lat="47.20031" lon="-1.53455">
        <ele>39</ele>
        <time>2021-02-13T14:30:01.000Z</time>
      </trkpt>
      <trkpt lat="47.20022" lon="-1.53474">
        <ele>39</ele>
        <time>2021-02-13T14:30:03.000Z</time>
      </trkpt>
      <trkpt lat="47.20012" lon="-1.53489">
        <ele>39</ele>
        <time>2021-02-13T14:30:05.000Z</time>
      </trkpt>
      <trkpt lat="47.20001" lon="-1.53503">
        <ele>39</ele>
        <time>2021-02-13T14:30:07.000Z</time>
      </trkpt>
      <trkpt lat="47.1999" lon="-1.53519">
        <ele>39</ele>
        <time>2021-02-13T14:30:09.000Z</time>
      </trkpt>
      <trkpt lat="47.19983" lon="-1.53538">
        <ele>41</ele>
        <time>2021-02-13T14:30:11.000Z</time>
      </trkpt>
      <trkpt lat="47.19977" lon="-1.53558">
        <ele>42</ele>
        <time>2021-02-13T14:30:13.000Z</time>
      </trkpt>
      <trkpt lat="47.19972" lon="-1.53577">
        <ele>43</ele>
        <time>2021-02-13T14:30:15.000Z</time>
      </trkpt>
      <trkpt lat="47.19967" lon="-1.53598">
        <ele>45</ele>
        <time>2021-02-13T14:30:17.000Z</time>
      </trkpt>
      <trkpt lat="47.19964" lon="-1.53617">
        <ele>46</ele>
        <time>2021-02-13T14:30:19.000Z</time>
      </trkpt>
      <trkpt lat="47.1996" lon="-1.53637">
        <ele>48</ele>
        <time>2021-02-13T14:30:21.000Z</time>
      </trkpt>
      <trkpt lat="47.19956" lon="-1.53657">
        <ele>49</ele>
        <time>2021-02-13T14:30:23.000Z</time>
      </trkpt>
      <trkpt lat="47.19952" lon="-1.53677">
        <ele>49</ele>
        <time>2021-02-13T14:30:25.000Z</time>
      </trkpt>
      <trkpt lat="47.19947" lon="-1.53697">
        <ele>49</ele>
        <time>2021-02-13T14:30:27.000Z</time>
      </trkpt>
      <trkpt lat="47.19942" lon="-1.53718">
        <ele>49</ele>
        <time>2021-02-13T14:30:29.000Z</time>
      </trkpt>
      <trkpt lat="47.19937" lon="-1.53738">
        <ele>49</ele>
        <time>2021-02-13T14:30:31.000Z</time>
      </trkpt>
      <trkpt lat="47.19932" lon="-1.53756">
        <ele>49</ele>
        <time>2021-02-13T14:30:33.000Z</time>
      </trkpt>
      <trkpt lat="47.19928" lon="-1.53776">
        <ele>48</ele>
        <time>2021-02-13T14:30:35.000Z</time>
      </trkpt>
      <trkpt lat="47.19923" lon="-1.53796">
        <ele>48</ele>
        <time>2021-02-13T14:30:37.000Z</time>
      </trkpt>
      <trkpt lat="47.1992" lon="-1.53815">
        <ele>48</ele>
        <time>2021-02-13T14:30:39.000Z</time>
      </trkpt>
      <trkpt lat="47.19916" lon="-1.53835">
        <ele>47</ele>
        <time>2021-02-13T14:30:41.000Z</time>
      </trkpt>
      <trkpt lat="47.19912" lon="-1.53853">
        <ele>47</ele>
        <time>2021-02-13T14:30:43.000Z</time>
      </trkpt>
      <trkpt lat="47.19909" lon="-1.5387">
        <ele>47</ele>
        <time>2021-02-13T14:30:45.000Z</time>
      </trkpt>
      <trkpt lat="47.19906" lon="-1.53888">
        <ele>48</ele>
        <time>2021-02-13T14:30:47.000Z</time>
      </trkpt>
      <trkpt lat="47.19903" lon="-1.53905">
        <ele>47</ele>
        <time>2021-02-13T14:30:49.000Z</time>
      </trkpt>
      <trkpt lat="47.19898" lon="-1.53922">
        <ele>47</ele>
        <time>2021-02-13T14:30:51.000Z</time>
      </trkpt>
      <trkpt lat="47.19894" lon="-1.5394">
        <ele>45</ele>
        <time>2021-02-13T14:30:53.000Z</time>
      </trkpt>
      <trkpt lat="47.19889" lon="-1.53958">
        <ele>46</ele>
        <time>2021-02-13T14:30:55.000Z</time>
      </trkpt>
      <trkpt lat="47.19882" lon="-1.53977">
        <ele>47</ele>
        <time>2021-02-13T14:30:57.000Z</time>
      </trkpt>
      <trkpt lat="47.19877" lon="-1.53996">
        <ele>45</ele>
        <time>2021-02-13T14:30:59.000Z</time>
      </trkpt>
      <trkpt lat="47.19871" lon="-1.54015">
        <ele>45</ele>
        <time>2021-02-13T14:31:01.000Z</time>
      </trkpt>
      <trkpt lat="47.19864" lon="-1.54034">
        <ele>46</ele>
        <time>2021-02-13T14:31:03.000Z</time>
      </trkpt>
      <trkpt lat="47.19859" lon="-1.54052">
        <ele>47</ele>
        <time>2021-02-13T14:31:05.000Z</time>
      </trkpt>
      <trkpt lat="47.19855" lon="-1.5407">
        <ele>47</ele>
        <time>2021-02-13T14:31:07.000Z</time>
      </trkpt>
      <trkpt lat="47.19849" lon="-1.54088">
        <ele>46</ele>
        <time>2021-02-13T14:31:09.000Z</time>
      </trkpt>
      <trkpt lat="47.19842" lon="-1.54104">
        <ele>43</ele>
        <time>2021-02-13T14:31:11.000Z</time>
      </trkpt>
      <trkpt lat="47.19835" lon="-1.54117">
        <ele>42</ele>
        <time>2021-02-13T14:31:13.000Z</time>
      </trkpt>
      <trkpt lat="47.19829" lon="-1.5413">
        <ele>42</ele>
        <time>2021-02-13T14:31:15.000Z</time>
      </trkpt>
      <trkpt lat="47.19827" lon="-1.54142">
        <ele>42</ele>
        <time>2021-02-13T14:31:17.000Z</time>
      </trkpt>
      <trkpt lat="47.1982" lon="-1.54153">
        <ele>43</ele>
        <time>2021-02-13T14:31:19.000Z</time>
      </trkpt>
      <trkpt lat="47.19812" lon="-1.54163">
        <ele>43</ele>
        <time>2021-02-13T14:31:21.000Z</time>
      </trkpt>
      <trkpt lat="47.19805" lon="-1.54177">
        <ele>42</ele>
        <time>2021-02-13T14:31:23.000Z</time>
      </trkpt>
      <trkpt lat="47.19799" lon="-1.54194">
        <ele>41</ele>
        <time>2021-02-13T14:31:25.000Z</time>
      </trkpt>
      <trkpt lat="47.19793" lon="-1.54213">
        <ele>41</ele>
        <time>2021-02-13T14:31:27.000Z</time>
      </trkpt>
      <trkpt lat="47.19786" lon="-1.54232">
        <ele>41</ele>
        <time>2021-02-13T14:31:29.000Z</time>
      </trkpt>
      <trkpt lat="47.19777" lon="-1.54248">
        <ele>40</ele>
        <time>2021-02-13T14:31:31.000Z</time>
      </trkpt>
      <trkpt lat="47.19767" lon="-1.54263">
        <ele>40</ele>
        <time>2021-02-13T14:31:33.000Z</time>
      </trkpt>
      <trkpt lat="47.19757" lon="-1.54277">
        <ele>40</ele>
        <time>2021-02-13T14:31:35.000Z</time>
      </trkpt>
      <trkpt lat="47.19746" lon="-1.5429">
        <ele>39</ele>
        <time>2021-02-13T14:31:37.000Z</time>
      </trkpt>
      <trkpt lat="47.19733" lon="-1.54302">
        <ele>40</ele>
        <time>2021-02-13T14:31:39.000Z</time>
      </trkpt>
      <trkpt lat="47.1972" lon="-1.54314">
        <ele>40</ele>
        <time>2021-02-13T14:31:41.000Z</time>
      </trkpt>
      <trkpt lat="47.19706" lon="-1.54324">
        <ele>39</ele>
        <time>2021-02-13T14:31:43.000Z</time>
      </trkpt>
      <trkpt lat="47.19692" lon="-1.54333">
        <ele>40</ele>
        <time>2021-02-13T14:31:45.000Z</time>
      </trkpt>
      <trkpt lat="47.19679" lon="-1.54344">
        <ele>41</ele>
        <time>2021-02-13T14:31:47.000Z</time>
      </trkpt>
      <trkpt lat="47.19666" lon="-1.54353">
        <ele>41</ele>
        <time>2021-02-13T14:31:49.000Z</time>
      </trkpt>
      <trkpt lat="47.19654" lon="-1.54362">
        <ele>40</ele>
        <time>2021-02-13T14:31:51.000Z</time>
      </trkpt>
      <trkpt lat="47.19643" lon="-1.54372">
        <ele>40</ele>
        <time>2021-02-13T14:31:53.000Z</time>
      </trkpt>
      <trkpt lat="47.19631" lon="-1.54381">
        <ele>40</ele>
        <time>2021-02-13T14:31:55.000Z</time>
      </trkpt>
      <trkpt lat="47.19621" lon="-1.54392">
        <ele>40</ele>
        <time>2021-02-13T14:31:57.000Z</time>
      </trkpt>
      <trkpt lat="47.1961" lon="-1.54403">
        <ele>41</ele>
        <time>2021-02-13T14:31:59.000Z</time>
      </trkpt>
      <trkpt lat="47.19599" lon="-1.54415">
        <ele>42</ele>
        <time>2021-02-13T14:32:01.000Z</time>
      </trkpt>
      <trkpt lat="47.19587" lon="-1.54426">
        <ele>42</ele>
        <time>2021-02-13T14:32:03.000Z</time>
      </trkpt>
      <trkpt lat="47.19576" lon="-1.54438">
        <ele>43</ele>
        <time>2021-02-13T14:32:05.000Z</time>
      </trkpt>
      <trkpt lat="47.19564" lon="-1.54449">
        <ele>43</ele>
        <time>2021-02-13T14:32:07.000Z</time>
      </trkpt>
      <trkpt lat="47.19553" lon="-1.5446">
        <ele>42</ele>
        <time>2021-02-13T14:32:09.000Z</time>
      </trkpt>
      <trkpt lat="47.19542" lon="-1.54472">
        <ele>43</ele>
        <time>2021-02-13T14:32:11.000Z</time>
      </trkpt>
      <trkpt lat="47.19531" lon="-1.54482">
        <ele>42</ele>
        <time>2021-02-13T14:32:13.000Z</time>
      </trkpt>
      <trkpt lat="47.1952" lon="-1.54492">
        <ele>41</ele>
        <time>2021-02-13T14:32:15.000Z</time>
      </trkpt>
      <trkpt lat="47.19509" lon="-1.54501">
        <ele>41</ele>
        <time>2021-02-13T14:32:17.000Z</time>
      </trkpt>
      <trkpt lat="47.19498" lon="-1.5451">
        <ele>40</ele>
        <time>2021-02-13T14:32:19.000Z</time>
      </trkpt>
      <trkpt lat="47.19486" lon="-1.54519">
        <ele>40</ele>
        <time>2021-02-13T14:32:21.000Z</time>
      </trkpt>
      <trkpt lat="47.19476" lon="-1.54534">
        <ele>39</ele>
        <time>2021-02-13T14:32:23.000Z</time>
      </trkpt>
      <trkpt lat="47.1947" lon="-1.54552">
        <ele>38</ele>
        <time>2021-02-13T14:32:25.000Z</time>
      </trkpt>
      <trkpt lat="47.19468" lon="-1.54572">
        <ele>37</ele>
        <time>2021-02-13T14:32:27.000Z</time>
      </trkpt>
      <trkpt lat="47.19472" lon="-1.54591">
        <ele>37</ele>
        <time>2021-02-13T14:32:29.000Z</time>
      </trkpt>
      <trkpt lat="47.19467" lon="-1.54611">
        <ele>36</ele>
        <time>2021-02-13T14:32:31.000Z</time>
      </trkpt>
      <trkpt lat="47.19459" lon="-1.54625">
        <ele>35</ele>
        <time>2021-02-13T14:32:33.000Z</time>
      </trkpt>
      <trkpt lat="47.19447" lon="-1.54633">
        <ele>34</ele>
        <time>2021-02-13T14:32:35.000Z</time>
      </trkpt>
      <trkpt lat="47.19441" lon="-1.54645">
        <ele>34</ele>
        <time>2021-02-13T14:32:37.000Z</time>
      </trkpt>
      <trkpt lat="47.19439" lon="-1.54664">
        <ele>35</ele>
        <time>2021-02-13T14:32:39.000Z</time>
      </trkpt>
      <trkpt lat="47.19436" lon="-1.54684">
        <ele>35</ele>
        <time>2021-02-13T14:32:41.000Z</time>
      </trkpt>
      <trkpt lat="47.19429" lon="-1.54703">
        <ele>36</ele>
        <time>2021-02-13T14:32:43.000Z</time>
      </trkpt>
      <trkpt lat="47.19423" lon="-1.54722">
        <ele>37</ele>
        <time>2021-02-13T14:32:45.000Z</time>
      </trkpt>
      <trkpt lat="47.19419" lon="-1.54743">
        <ele>36</ele>
        <time>2021-02-13T14:32:47.000Z</time>
      </trkpt>
      <trkpt lat="47.19414" lon="-1.54762">
        <ele>36</ele>
        <time>2021-02-13T14:32:49.000Z</time>
      </trkpt>
      <trkpt lat="47.19409" lon="-1.54779">
        <ele>36</ele>
        <time>2021-02-13T14:32:51.000Z</time>
      </trkpt>
      <trkpt lat="47.19404" lon="-1.54796">
        <ele>37</ele>
        <time>2021-02-13T14:32:53.000Z</time>
      </trkpt>
      <trkpt lat="47.19399" lon="-1.54814">
        <ele>38</ele>
        <time>2021-02-13T14:32:55.000Z</time>
      </trkpt>
      <trkpt lat="47.19394" lon="-1.5483">
        <ele>40</ele>
        <time>2021-02-13T14:32:57.000Z</time>
      </trkpt>
      <trkpt lat="47.19389" lon="-1.54848">
        <ele>41</ele>
        <time>2021-02-13T14:32:59.000Z</time>
      </trkpt>
      <trkpt lat="47.19384" lon="-1.54865">
        <ele>42</ele>
        <time>2021-02-13T14:33:01.000Z</time>
      </trkpt>
      <trkpt lat="47.19381" lon="-1.54884">
        <ele>42</ele>
        <time>2021-02-13T14:33:03.000Z</time>
      </trkpt>
      <trkpt lat="47.19377" lon="-1.54903">
        <ele>42</ele>
        <time>2021-02-13T14:33:05.000Z</time>
      </trkpt>
      <trkpt lat="47.19374" lon="-1.5492">
        <ele>42</ele>
        <time>2021-02-13T14:33:07.000Z</time>
      </trkpt>
      <trkpt lat="47.19371" lon="-1.54937">
        <ele>43</ele>
        <time>2021-02-13T14:33:09.000Z</time>
      </trkpt>
      <trkpt lat="47.19366" lon="-1.54954">
        <ele>43</ele>
        <time>2021-02-13T14:33:11.000Z</time>
      </trkpt>
      <trkpt lat="47.19361" lon="-1.54971">
        <ele>42</ele>
        <time>2021-02-13T14:33:13.000Z</time>
      </trkpt>
      <trkpt lat="47.19356" lon="-1.54989">
        <ele>42</ele>
        <time>2021-02-13T14:33:15.000Z</time>
      </trkpt>
      <trkpt lat="47.19351" lon="-1.55007">
        <ele>41</ele>
        <time>2021-02-13T14:33:17.000Z</time>
      </trkpt>
      <trkpt lat="47.19346" lon="-1.55026">
        <ele>40</ele>
        <time>2021-02-13T14:33:19.000Z</time>
      </trkpt>
      <trkpt lat="47.19342" lon="-1.55045">
        <ele>40</ele>
        <time>2021-02-13T14:33:21.000Z</time>
      </trkpt>
      <trkpt lat="47.19338" lon="-1.55064">
        <ele>39</ele>
        <time>2021-02-13T14:33:23.000Z</time>
      </trkpt>
      <trkpt lat="47.19333" lon="-1.55083">
        <ele>38</ele>
        <time>2021-02-13T14:33:25.000Z</time>
      </trkpt>
      <trkpt lat="47.19328" lon="-1.55102">
        <ele>37</ele>
        <time>2021-02-13T14:33:27.000Z</time>
      </trkpt>
      <trkpt lat="47.19323" lon="-1.55123">
        <ele>37</ele>
        <time>2021-02-13T14:33:29.000Z</time>
      </trkpt>
      <trkpt lat="47.19317" lon="-1.55143">
        <ele>36</ele>
        <time>2021-02-13T14:33:31.000Z</time>
      </trkpt>
      <trkpt lat="47.19313" lon="-1.55164">
        <ele>36</ele>
        <time>2021-02-13T14:33:33.000Z</time>
      </trkpt>
      <trkpt lat="47.19308" lon="-1.55185">
        <ele>36</ele>
        <time>2021-02-13T14:33:35.000Z</time>
      </trkpt>
      <trkpt lat="47.19302" lon="-1.55206">
        <ele>35</ele>
        <time>2021-02-13T14:33:37.000Z</time>
      </trkpt>
      <trkpt lat="47.19297" lon="-1.55227">
        <ele>35</ele>
        <time>2021-02-13T14:33:39.000Z</time>
      </trkpt>
      <trkpt lat="47.19291" lon="-1.55248">
        <ele>35</ele>
        <time>2021-02-13T14:33:41.000Z</time>
      </trkpt>
      <trkpt lat="47.19286" lon="-1.55268">
        <ele>35</ele>
        <time>2021-02-13T14:33:43.000Z</time>
      </trkpt>
      <trkpt lat="47.19282" lon="-1.55288">
        <ele>35</ele>
        <time>2021-02-13T14:33:45.000Z</time>
      </trkpt>
      <trkpt lat="47.19278" lon="-1.55308">
        <ele>35</ele>
        <time>2021-02-13T14:33:47.000Z</time>
      </trkpt>
      <trkpt lat="47.19275" lon="-1.55328">
        <ele>35</ele>
        <time>2021-02-13T14:33:49.000Z</time>
      </trkpt>
      <trkpt lat="47.1927" lon="-1.55348">
        <ele>35</ele>
        <time>2021-02-13T14:33:51.000Z</time>
      </trkpt>
      <trkpt lat="47.19265" lon="-1.55366">
        <ele>35</ele>
        <time>2021-02-13T14:33:53.000Z</time>
      </trkpt>
      <trkpt lat="47.19259" lon="-1.55383">
        <ele>35</ele>
        <time>2021-02-13T14:33:55.000Z</time>
      </trkpt>
      <trkpt lat="47.19254" lon="-1.554">
        <ele>36</ele>
        <time>2021-02-13T14:33:57.000Z</time>
      </trkpt>
      <trkpt lat="47.19256" lon="-1.55418">
        <ele>36</ele>
        <time>2021-02-13T14:33:59.000Z</time>
      </trkpt>
      <trkpt lat="47.19256" lon="-1.55441">
        <ele>35</ele>
        <time>2021-02-13T14:34:01.000Z</time>
      </trkpt>
      <trkpt lat="47.19247" lon="-1.55462">
        <ele>35</ele>
        <time>2021-02-13T14:34:03.000Z</time>
      </trkpt>
      <trkpt lat="47.19242" lon="-1.55483">
        <ele>34</ele>
        <time>2021-02-13T14:34:05.000Z</time>
      </trkpt>
      <trkpt lat="47.19243" lon="-1.55507">
        <ele>34</ele>
        <time>2021-02-13T14:34:07.000Z</time>
      </trkpt>
      <trkpt lat="47.19243" lon="-1.5553">
        <ele>35</ele>
        <time>2021-02-13T14:34:09.000Z</time>
      </trkpt>
      <trkpt lat="47.19243" lon="-1.55552">
        <ele>35</ele>
        <time>2021-02-13T14:34:11.000Z</time>
      </trkpt>
      <trkpt lat="47.19242" lon="-1.55574">
        <ele>35</ele>
        <time>2021-02-13T14:34:13.000Z</time>
      </trkpt>
      <trkpt lat="47.19241" lon="-1.55596">
        <ele>35</ele>
        <time>2021-02-13T14:34:15.000Z</time>
      </trkpt>
      <trkpt lat="47.19241" lon="-1.55617">
        <ele>34</ele>
        <time>2021-02-13T14:34:17.000Z</time>
      </trkpt>
      <trkpt lat="47.1924" lon="-1.55639">
        <ele>34</ele>
        <time>2021-02-13T14:34:19.000Z</time>
      </trkpt>
      <trkpt lat="47.19239" lon="-1.5566">
        <ele>34</ele>
        <time>2021-02-13T14:34:21.000Z</time>
      </trkpt>
      <trkpt lat="47.19239" lon="-1.55682">
        <ele>33</ele>
        <time>2021-02-13T14:34:23.000Z</time>
      </trkpt>
      <trkpt lat="47.19239" lon="-1.55703">
        <ele>33</ele>
        <time>2021-02-13T14:34:25.000Z</time>
      </trkpt>
      <trkpt lat="47.19239" lon="-1.55725">
        <ele>33</ele>
        <time>2021-02-13T14:34:27.000Z</time>
      </trkpt>
      <trkpt lat="47.19238" lon="-1.55746">
        <ele>33</ele>
        <time>2021-02-13T14:34:29.000Z</time>
      </trkpt>
      <trkpt lat="47.19238" lon="-1.55768">
        <ele>32</ele>
        <time>2021-02-13T14:34:31.000Z</time>
      </trkpt>
      <trkpt lat="47.19238" lon="-1.5579">
        <ele>32</ele>
        <time>2021-02-13T14:34:33.000Z</time>
      </trkpt>
      <trkpt lat="47.19238" lon="-1.55811">
        <ele>32</ele>
        <time>2021-02-13T14:34:35.000Z</time>
      </trkpt>
      <trkpt lat="47.19238" lon="-1.55833">
        <ele>32</ele>
        <time>2021-02-13T14:34:37.000Z</time>
      </trkpt>
      <trkpt lat="47.19238" lon="-1.55855">
        <ele>32</ele>
        <time>2021-02-13T14:34:39.000Z</time>
      </trkpt>
      <trkpt lat="47.19239" lon="-1.55876">
        <ele>32</ele>
        <time>2021-02-13T14:34:41.000Z</time>
      </trkpt>
      <trkpt lat="47.1924" lon="-1.55898">
        <ele>31</ele>
        <time>2021-02-13T14:34:43.000Z</time>
      </trkpt>
      <trkpt lat="47.19241" lon="-1.55919">
        <ele>31</ele>
        <time>2021-02-13T14:34:45.000Z</time>
      </trkpt>
      <trkpt lat="47.19242" lon="-1.5594">
        <ele>30</ele>
        <time>2021-02-13T14:34:47.000Z</time>
      </trkpt>
      <trkpt lat="47.19244" lon="-1.55961">
        <ele>30</ele>
        <time>2021-02-13T14:34:49.000Z</time>
      </trkpt>
      <trkpt lat="47.19245" lon="-1.55982">
        <ele>30</ele>
        <time>2021-02-13T14:34:51.000Z</time>
      </trkpt>
      <trkpt lat="47.19247" lon="-1.56003">
        <ele>30</ele>
        <time>2021-02-13T14:34:53.000Z</time>
      </trkpt>
      <trkpt lat="47.19249" lon="-1.56024">
        <ele>30</ele>
        <time>2021-02-13T14:34:55.000Z</time>
      </trkpt>
      <trkpt lat="47.19252" lon="-1.56045">
        <ele>29</ele>
        <time>2021-02-13T14:34:57.000Z</time>
      </trkpt>
      <trkpt lat="47.19253" lon="-1.56066">
        <ele>29</ele>
        <time>2021-02-13T14:34:59.000Z</time>
      </trkpt>
      <trkpt lat="47.19255" lon="-1.56086">
        <ele>29</ele>
        <time>2021-02-13T14:35:01.000Z</time>
      </trkpt>
      <trkpt lat="47.19257" lon="-1.56107">
        <ele>29</ele>
        <time>2021-02-13T14:35:03.000Z</time>
      </trkpt>
      <trkpt lat="47.19258" lon="-1.56127">
        <ele>29</ele>
        <time>2021-02-13T14:35:05.000Z</time>
      </trkpt>
      <trkpt lat="47.1926" lon="-1.56147">
        <ele>29</ele>
        <time>2021-02-13T14:35:07.000Z</time>
      </trkpt>
      <trkpt lat="47.19261" lon="-1.56167">
        <ele>29</ele>
        <time>2021-02-13T14:35:09.000Z</time>
      </trkpt>
      <trkpt lat="47.1926" lon="-1.56188">
        <ele>29</ele>
        <time>2021-02-13T14:35:11.000Z</time>
      </trkpt>
      <trkpt lat="47.19261" lon="-1.56208">
        <ele>30</ele>
        <time>2021-02-13T14:35:13.000Z</time>
      </trkpt>
      <trkpt lat="47.19263" lon="-1.56227">
        <ele>30</ele>
        <time>2021-02-13T14:35:15.000Z</time>
      </trkpt>
      <trkpt lat="47.19268" lon="-1.56246">
        <ele>29</ele>
        <time>2021-02-13T14:35:17.000Z</time>
      </trkpt>
      <trkpt lat="47.19279" lon="-1.5626">
        <ele>30</ele>
        <time>2021-02-13T14:35:19.000Z</time>
      </trkpt>
      <trkpt lat="47.19285" lon="-1.56279">
        <ele>31</ele>
        <time>2021-02-13T14:35:21.000Z</time>
      </trkpt>
      <trkpt lat="47.19284" lon="-1.56301">
        <ele>32</ele>
        <time>2021-02-13T14:35:23.000Z</time>
      </trkpt>
      <trkpt lat="47.19279" lon="-1.56321">
        <ele>33</ele>
        <time>2021-02-13T14:35:25.000Z</time>
      </trkpt>
      <trkpt lat="47.19276" lon="-1.56342">
        <ele>33</ele>
        <time>2021-02-13T14:35:27.000Z</time>
      </trkpt>
      <trkpt lat="47.19279" lon="-1.56365">
        <ele>33</ele>
        <time>2021-02-13T14:35:29.000Z</time>
      </trkpt>
      <trkpt lat="47.19282" lon="-1.56387">
        <ele>32</ele>
        <time>2021-02-13T14:35:31.000Z</time>
      </trkpt>
      <trkpt lat="47.19284" lon="-1.5641">
        <ele>32</ele>
        <time>2021-02-13T14:35:33.000Z</time>
      </trkpt>
      <trkpt lat="47.19285" lon="-1.56432">
        <ele>32</ele>
        <time>2021-02-13T14:35:35.000Z</time>
      </trkpt>
      <trkpt lat="47.19287" lon="-1.56454">
        <ele>32</ele>
        <time>2021-02-13T14:35:37.000Z</time>
      </trkpt>
      <trkpt lat="47.19289" lon="-1.56475">
        <ele>32</ele>
        <time>2021-02-13T14:35:39.000Z</time>
      </trkpt>
      <trkpt lat="47.19291" lon="-1.56497">
        <ele>31</ele>
        <time>2021-02-13T14:35:41.000Z</time>
      </trkpt>
      <trkpt lat="47.19293" lon="-1.56518">
        <ele>31</ele>
        <time>2021-02-13T14:35:43.000Z</time>
      </trkpt>
      <trkpt lat="47.19295" lon="-1.5654">
        <ele>31</ele>
        <time>2021-02-13T14:35:45.000Z</time>
      </trkpt>
      <trkpt lat="47.19297" lon="-1.56561">
        <ele>30</ele>
        <time>2021-02-13T14:35:47.000Z</time>
      </trkpt>
      <trkpt lat="47.19299" lon="-1.56583">
        <ele>30</ele>
        <time>2021-02-13T14:35:49.000Z</time>
      </trkpt>
      <trkpt lat="47.19301" lon="-1.56603">
        <ele>30</ele>
        <time>2021-02-13T14:35:51.000Z</time>
      </trkpt>
      <trkpt lat="47.19303" lon="-1.56624">
        <ele>30</ele>
        <time>2021-02-13T14:35:53.000Z</time>
      </trkpt>
      <trkpt lat="47.19305" lon="-1.56645">
        <ele>30</ele>
        <time>2021-02-13T14:35:55.000Z</time>
      </trkpt>
      <trkpt lat="47.19307" lon="-1.56667">
        <ele>30</ele>
        <time>2021-02-13T14:35:57.000Z</time>
      </trkpt>
      <trkpt lat="47.19309" lon="-1.56688">
        <ele>31</ele>
        <time>2021-02-13T14:35:59.000Z</time>
      </trkpt>
      <trkpt lat="47.19311" lon="-1.56709">
        <ele>31</ele>
        <time>2021-02-13T14:36:01.000Z</time>
      </trkpt>
      <trkpt lat="47.19313" lon="-1.5673">
        <ele>31</ele>
        <time>2021-02-13T14:36:03.000Z</time>
      </trkpt>
      <trkpt lat="47.19315" lon="-1.56751">
        <ele>30</ele>
        <time>2021-02-13T14:36:05.000Z</time>
      </trkpt>
      <trkpt lat="47.19317" lon="-1.56771">
        <ele>31</ele>
        <time>2021-02-13T14:36:07.000Z</time>
      </trkpt>
      <trkpt lat="47.19319" lon="-1.56792">
        <ele>31</ele>
        <time>2021-02-13T14:36:09.000Z</time>
      </trkpt>
      <trkpt lat="47.19321" lon="-1.56813">
        <ele>30</ele>
        <time>2021-02-13T14:36:11.000Z</time>
      </trkpt>
      <trkpt lat="47.19322" lon="-1.56833">
        <ele>31</ele>
        <time>2021-02-13T14:36:13.000Z</time>
      </trkpt>
      <trkpt lat="47.19323" lon="-1.56855">
        <ele>31</ele>
        <time>2021-02-13T14:36:15.000Z</time>
      </trkpt>
      <trkpt lat="47.19324" lon="-1.56875">
        <ele>31</ele>
        <time>2021-02-13T14:36:17.000Z</time>
      </trkpt>
      <trkpt lat="47.19325" lon="-1.56895">
        <ele>31</ele>
        <time>2021-02-13T14:36:19.000Z</time>
      </trkpt>
      <trkpt lat="47.19325" lon="-1.56916">
        <ele>31</ele>
        <time>2021-02-13T14:36:21.000Z</time>
      </trkpt>
      <trkpt lat="47.19325" lon="-1.56936">
        <ele>31</ele>
        <time>2021-02-13T14:36:23.000Z</time>
      </trkpt>
      <trkpt lat="47.19325" lon="-1.56956">
        <ele>31</ele>
        <time>2021-02-13T14:36:25.000Z</time>
      </trkpt>
      <trkpt lat="47.19324" lon="-1.56976">
        <ele>31</ele>
        <time>2021-02-13T14:36:27.000Z</time>
      </trkpt>
      <trkpt lat="47.19322" lon="-1.56994">
        <ele>30</ele>
        <time>2021-02-13T14:36:29.000Z</time>
      </trkpt>
      <trkpt lat="47.1932" lon="-1.57011">
        <ele>31</ele>
        <time>2021-02-13T14:36:31.000Z</time>
      </trkpt>
      <trkpt lat="47.19318" lon="-1.57027">
        <ele>31</ele>
        <time>2021-02-13T14:36:34.000Z</time>
      </trkpt>
      <trkpt lat="47.19327" lon="-1.57038">
        <ele>29</ele>
        <time>2021-02-13T14:36:39.000Z</time>
      </trkpt>
      <trkpt lat="47.19336" lon="-1.5705">
        <ele>31</ele>
        <time>2021-02-13T14:36:41.000Z</time>
      </trkpt>
      <trkpt lat="47.19335" lon="-1.57068">
        <ele>30</ele>
        <time>2021-02-13T14:36:43.000Z</time>
      </trkpt>
      <trkpt lat="47.19322" lon="-1.57081">
        <ele>31</ele>
        <time>2021-02-13T14:36:45.000Z</time>
      </trkpt>
      <trkpt lat="47.1931" lon="-1.57095">
        <ele>32</ele>
        <time>2021-02-13T14:36:47.000Z</time>
      </trkpt>
      <trkpt lat="47.19308" lon="-1.57119">
        <ele>32</ele>
        <time>2021-02-13T14:36:49.000Z</time>
      </trkpt>
      <trkpt lat="47.19305" lon="-1.57141">
        <ele>33</ele>
        <time>2021-02-13T14:36:51.000Z</time>
      </trkpt>
      <trkpt lat="47.19302" lon="-1.57164">
        <ele>33</ele>
        <time>2021-02-13T14:36:53.000Z</time>
      </trkpt>
      <trkpt lat="47.193" lon="-1.57186">
        <ele>34</ele>
        <time>2021-02-13T14:36:55.000Z</time>
      </trkpt>
      <trkpt lat="47.19297" lon="-1.57209">
        <ele>35</ele>
        <time>2021-02-13T14:36:57.000Z</time>
      </trkpt>
      <trkpt lat="47.19292" lon="-1.57231">
        <ele>35</ele>
        <time>2021-02-13T14:36:59.000Z</time>
      </trkpt>
      <trkpt lat="47.19287" lon="-1.57254">
        <ele>35</ele>
        <time>2021-02-13T14:37:01.000Z</time>
      </trkpt>
      <trkpt lat="47.19282" lon="-1.57276">
        <ele>35</ele>
        <time>2021-02-13T14:37:03.000Z</time>
      </trkpt>
      <trkpt lat="47.19276" lon="-1.57297">
        <ele>35</ele>
        <time>2021-02-13T14:37:05.000Z</time>
      </trkpt>
      <trkpt lat="47.19271" lon="-1.57318">
        <ele>36</ele>
        <time>2021-02-13T14:37:07.000Z</time>
      </trkpt>
      <trkpt lat="47.19265" lon="-1.5734">
        <ele>36</ele>
        <time>2021-02-13T14:37:09.000Z</time>
      </trkpt>
      <trkpt lat="47.19258" lon="-1.57361">
        <ele>36</ele>
        <time>2021-02-13T14:37:11.000Z</time>
      </trkpt>
      <trkpt lat="47.19252" lon="-1.57382">
        <ele>36</ele>
        <time>2021-02-13T14:37:13.000Z</time>
      </trkpt>
      <trkpt lat="47.19244" lon="-1.57403">
        <ele>36</ele>
        <time>2021-02-13T14:37:15.000Z</time>
      </trkpt>
      <trkpt lat="47.19236" lon="-1.57425">
        <ele>36</ele>
        <time>2021-02-13T14:37:17.000Z</time>
      </trkpt>
      <trkpt lat="47.19228" lon="-1.57447">
        <ele>35</ele>
        <time>2021-02-13T14:37:19.000Z</time>
      </trkpt>
      <trkpt lat="47.1922" lon="-1.57469">
        <ele>35</ele>
        <time>2021-02-13T14:37:21.000Z</time>
      </trkpt>
      <trkpt lat="47.19212" lon="-1.57491">
        <ele>34</ele>
        <time>2021-02-13T14:37:23.000Z</time>
      </trkpt>
      <trkpt lat="47.19204" lon="-1.57512">
        <ele>34</ele>
        <time>2021-02-13T14:37:25.000Z</time>
      </trkpt>
      <trkpt lat="47.19195" lon="-1.57533">
        <ele>34</ele>
        <time>2021-02-13T14:37:27.000Z</time>
      </trkpt>
      <trkpt lat="47.19187" lon="-1.57554">
        <ele>33</ele>
        <time>2021-02-13T14:37:29.000Z</time>
      </trkpt>
      <trkpt lat="47.19178" lon="-1.57576">
        <ele>33</ele>
        <time>2021-02-13T14:37:31.000Z</time>
      </trkpt>
      <trkpt lat="47.19171" lon="-1.57597">
        <ele>33</ele>
        <time>2021-02-13T14:37:33.000Z</time>
      </trkpt>
      <trkpt lat="47.19163" lon="-1.57619">
        <ele>33</ele>
        <time>2021-02-13T14:37:35.000Z</time>
      </trkpt>
      <trkpt lat="47.19156" lon="-1.5764">
        <ele>32</ele>
        <time>2021-02-13T14:37:37.000Z</time>
      </trkpt>
      <trkpt lat="47.19149" lon="-1.57661">
        <ele>32</ele>
        <time>2021-02-13T14:37:39.000Z</time>
      </trkpt>
      <trkpt lat="47.19141" lon="-1.57683">
        <ele>32</ele>
        <time>2021-02-13T14:37:41.000Z</time>
      </trkpt>
      <trkpt lat="47.19134" lon="-1.57704">
        <ele>31</ele>
        <time>2021-02-13T14:37:43.000Z</time>
      </trkpt>
      <trkpt lat="47.19126" lon="-1.57726">
        <ele>31</ele>
        <time>2021-02-13T14:37:45.000Z</time>
      </trkpt>
      <trkpt lat="47.19118" lon="-1.57748">
        <ele>31</ele>
        <time>2021-02-13T14:37:47.000Z</time>
      </trkpt>
      <trkpt lat="47.1911" lon="-1.5777">
        <ele>30</ele>
        <time>2021-02-13T14:37:49.000Z</time>
      </trkpt>
      <trkpt lat="47.19102" lon="-1.57791">
        <ele>30</ele>
        <time>2021-02-13T14:37:51.000Z</time>
      </trkpt>
      <trkpt lat="47.19095" lon="-1.57812">
        <ele>30</ele>
        <time>2021-02-13T14:37:53.000Z</time>
      </trkpt>
      <trkpt lat="47.19087" lon="-1.57833">
        <ele>30</ele>
        <time>2021-02-13T14:37:55.000Z</time>
      </trkpt>
      <trkpt lat="47.1908" lon="-1.57854">
        <ele>30</ele>
        <time>2021-02-13T14:37:57.000Z</time>
      </trkpt>
      <trkpt lat="47.19073" lon="-1.57874">
        <ele>30</ele>
        <time>2021-02-13T14:37:59.000Z</time>
      </trkpt>
      <trkpt lat="47.19065" lon="-1.57895">
        <ele>30</ele>
        <time>2021-02-13T14:38:01.000Z</time>
      </trkpt>
      <trkpt lat="47.19058" lon="-1.57914">
        <ele>30</ele>
        <time>2021-02-13T14:38:03.000Z</time>
      </trkpt>
      <trkpt lat="47.19051" lon="-1.57935">
        <ele>30</ele>
        <time>2021-02-13T14:38:05.000Z</time>
      </trkpt>
      <trkpt lat="47.19043" lon="-1.57955">
        <ele>30</ele>
        <time>2021-02-13T14:38:07.000Z</time>
      </trkpt>
      <trkpt lat="47.19036" lon="-1.57975">
        <ele>31</ele>
        <time>2021-02-13T14:38:09.000Z</time>
      </trkpt>
      <trkpt lat="47.19029" lon="-1.57995">
        <ele>31</ele>
        <time>2021-02-13T14:38:11.000Z</time>
      </trkpt>
      <trkpt lat="47.19021" lon="-1.58015">
        <ele>30</ele>
        <time>2021-02-13T14:38:13.000Z</time>
      </trkpt>
      <trkpt lat="47.19014" lon="-1.58036">
        <ele>31</ele>
        <time>2021-02-13T14:38:15.000Z</time>
      </trkpt>
      <trkpt lat="47.19006" lon="-1.58057">
        <ele>31</ele>
        <time>2021-02-13T14:38:17.000Z</time>
      </trkpt>
      <trkpt lat="47.18999" lon="-1.58077">
        <ele>30</ele>
        <time>2021-02-13T14:38:19.000Z</time>
      </trkpt>
      <trkpt lat="47.18992" lon="-1.58097">
        <ele>30</ele>
        <time>2021-02-13T14:38:21.000Z</time>
      </trkpt>
      <trkpt lat="47.18984" lon="-1.58118">
        <ele>30</ele>
        <time>2021-02-13T14:38:23.000Z</time>
      </trkpt>
      <trkpt lat="47.18977" lon="-1.58139">
        <ele>31</ele>
        <time>2021-02-13T14:38:25.000Z</time>
      </trkpt>
      <trkpt lat="47.18969" lon="-1.5816">
        <ele>31</ele>
        <time>2021-02-13T14:38:27.000Z</time>
      </trkpt>
      <trkpt lat="47.18962" lon="-1.58181">
        <ele>30</ele>
        <time>2021-02-13T14:38:29.000Z</time>
      </trkpt>
      <trkpt lat="47.18955" lon="-1.58202">
        <ele>31</ele>
        <time>2021-02-13T14:38:31.000Z</time>
      </trkpt>
      <trkpt lat="47.18947" lon="-1.58224">
        <ele>31</ele>
        <time>2021-02-13T14:38:33.000Z</time>
      </trkpt>
      <trkpt lat="47.1894" lon="-1.58245">
        <ele>31</ele>
        <time>2021-02-13T14:38:35.000Z</time>
      </trkpt>
      <trkpt lat="47.18932" lon="-1.58265">
        <ele>31</ele>
        <time>2021-02-13T14:38:37.000Z</time>
      </trkpt>
      <trkpt lat="47.18924" lon="-1.58287">
        <ele>31</ele>
        <time>2021-02-13T14:38:39.000Z</time>
      </trkpt>
      <trkpt lat="47.18917" lon="-1.58308">
        <ele>31</ele>
        <time>2021-02-13T14:38:41.000Z</time>
      </trkpt>
      <trkpt lat="47.18909" lon="-1.5833">
        <ele>31</ele>
        <time>2021-02-13T14:38:43.000Z</time>
      </trkpt>
      <trkpt lat="47.18902" lon="-1.58352">
        <ele>31</ele>
        <time>2021-02-13T14:38:45.000Z</time>
      </trkpt>
      <trkpt lat="47.18894" lon="-1.58375">
        <ele>31</ele>
        <time>2021-02-13T14:38:47.000Z</time>
      </trkpt>
      <trkpt lat="47.18887" lon="-1.58397">
        <ele>32</ele>
        <time>2021-02-13T14:38:49.000Z</time>
      </trkpt>
      <trkpt lat="47.18879" lon="-1.58419">
        <ele>32</ele>
        <time>2021-02-13T14:38:51.000Z</time>
      </trkpt>
      <trkpt lat="47.18872" lon="-1.58441">
        <ele>32</ele>
        <time>2021-02-13T14:38:53.000Z</time>
      </trkpt>
      <trkpt lat="47.18865" lon="-1.58463">
        <ele>32</ele>
        <time>2021-02-13T14:38:55.000Z</time>
      </trkpt>
      <trkpt lat="47.18858" lon="-1.58485">
        <ele>32</ele>
        <time>2021-02-13T14:38:57.000Z</time>
      </trkpt>
      <trkpt lat="47.18852" lon="-1.58507">
        <ele>33</ele>
        <time>2021-02-13T14:38:59.000Z</time>
      </trkpt>
      <trkpt lat="47.18845" lon="-1.58529">
        <ele>33</ele>
        <time>2021-02-13T14:39:01.000Z</time>
      </trkpt>
      <trkpt lat="47.1884" lon="-1.58551">
        <ele>33</ele>
        <time>2021-02-13T14:39:03.000Z</time>
      </trkpt>
      <trkpt lat="47.18834" lon="-1.58573">
        <ele>33</ele>
        <time>2021-02-13T14:39:05.000Z</time>
      </trkpt>
      <trkpt lat="47.18829" lon="-1.58595">
        <ele>32</ele>
        <time>2021-02-13T14:39:07.000Z</time>
      </trkpt>
      <trkpt lat="47.18824" lon="-1.58618">
        <ele>33</ele>
        <time>2021-02-13T14:39:09.000Z</time>
      </trkpt>
      <trkpt lat="47.1882" lon="-1.5864">
        <ele>33</ele>
        <time>2021-02-13T14:39:11.000Z</time>
      </trkpt>
      <trkpt lat="47.18816" lon="-1.58662">
        <ele>33</ele>
        <time>2021-02-13T14:39:13.000Z</time>
      </trkpt>
      <trkpt lat="47.18813" lon="-1.58683">
        <ele>33</ele>
        <time>2021-02-13T14:39:15.000Z</time>
      </trkpt>
      <trkpt lat="47.18812" lon="-1.58699">
        <ele>32</ele>
        <time>2021-02-13T14:39:17.000Z</time>
      </trkpt>
      <trkpt lat="47.18815" lon="-1.58714">
        <ele>32</ele>
        <time>2021-02-13T14:39:19.000Z</time>
      </trkpt>
      <trkpt lat="47.18822" lon="-1.58729">
        <ele>33</ele>
        <time>2021-02-13T14:39:21.000Z</time>
      </trkpt>
      <trkpt lat="47.18826" lon="-1.58751">
        <ele>32</ele>
        <time>2021-02-13T14:39:23.000Z</time>
      </trkpt>
      <trkpt lat="47.18822" lon="-1.58775">
        <ele>33</ele>
        <time>2021-02-13T14:39:25.000Z</time>
      </trkpt>
      <trkpt lat="47.1881" lon="-1.58793">
        <ele>33</ele>
        <time>2021-02-13T14:39:27.000Z</time>
      </trkpt>
      <trkpt lat="47.18795" lon="-1.58805">
        <ele>33</ele>
        <time>2021-02-13T14:39:29.000Z</time>
      </trkpt>
      <trkpt lat="47.18785" lon="-1.58824">
        <ele>36</ele>
        <time>2021-02-13T14:39:31.000Z</time>
      </trkpt>
      <trkpt lat="47.18781" lon="-1.5885">
        <ele>37</ele>
        <time>2021-02-13T14:39:33.000Z</time>
      </trkpt>
      <trkpt lat="47.18778" lon="-1.58875">
        <ele>36</ele>
        <time>2021-02-13T14:39:35.000Z</time>
      </trkpt>
      <trkpt lat="47.18774" lon="-1.589">
        <ele>36</ele>
        <time>2021-02-13T14:39:37.000Z</time>
      </trkpt>
      <trkpt lat="47.18771" lon="-1.58926">
        <ele>36</ele>
        <time>2021-02-13T14:39:39.000Z</time>
      </trkpt>
      <trkpt lat="47.18768" lon="-1.58951">
        <ele>36</ele>
        <time>2021-02-13T14:39:41.000Z</time>
      </trkpt>
      <trkpt lat="47.18766" lon="-1.58976">
        <ele>36</ele>
        <time>2021-02-13T14:39:43.000Z</time>
      </trkpt>
      <trkpt lat="47.18763" lon="-1.59">
        <ele>35</ele>
        <time>2021-02-13T14:39:45.000Z</time>
      </trkpt>
      <trkpt lat="47.18761" lon="-1.59025">
        <ele>34</ele>
        <time>2021-02-13T14:39:47.000Z</time>
      </trkpt>
      <trkpt lat="47.18758" lon="-1.59049">
        <ele>34</ele>
        <time>2021-02-13T14:39:49.000Z</time>
      </trkpt>
      <trkpt lat="47.18756" lon="-1.59074">
        <ele>34</ele>
        <time>2021-02-13T14:39:51.000Z</time>
      </trkpt>
      <trkpt lat="47.18754" lon="-1.59097">
        <ele>34</ele>
        <time>2021-02-13T14:39:53.000Z</time>
      </trkpt>
      <trkpt lat="47.18751" lon="-1.59121">
        <ele>34</ele>
        <time>2021-02-13T14:39:55.000Z</time>
      </trkpt>
      <trkpt lat="47.18749" lon="-1.59145">
        <ele>33</ele>
        <time>2021-02-13T14:39:57.000Z</time>
      </trkpt>
      <trkpt lat="47.18746" lon="-1.59168">
        <ele>33</ele>
        <time>2021-02-13T14:39:59.000Z</time>
      </trkpt>
      <trkpt lat="47.18744" lon="-1.59192">
        <ele>33</ele>
        <time>2021-02-13T14:40:01.000Z</time>
      </trkpt>
      <trkpt lat="47.18741" lon="-1.59216">
        <ele>32</ele>
        <time>2021-02-13T14:40:03.000Z</time>
      </trkpt>
      <trkpt lat="47.18738" lon="-1.59239">
        <ele>32</ele>
        <time>2021-02-13T14:40:05.000Z</time>
      </trkpt>
      <trkpt lat="47.18736" lon="-1.59262">
        <ele>32</ele>
        <time>2021-02-13T14:40:07.000Z</time>
      </trkpt>
      <trkpt lat="47.18734" lon="-1.59285">
        <ele>32</ele>
        <time>2021-02-13T14:40:09.000Z</time>
      </trkpt>
      <trkpt lat="47.18731" lon="-1.59308">
        <ele>32</ele>
        <time>2021-02-13T14:40:11.000Z</time>
      </trkpt>
      <trkpt lat="47.18729" lon="-1.59331">
        <ele>31</ele>
        <time>2021-02-13T14:40:13.000Z</time>
      </trkpt>
      <trkpt lat="47.18726" lon="-1.59355">
        <ele>31</ele>
        <time>2021-02-13T14:40:15.000Z</time>
      </trkpt>
      <trkpt lat="47.18723" lon="-1.59378">
        <ele>31</ele>
        <time>2021-02-13T14:40:17.000Z</time>
      </trkpt>
      <trkpt lat="47.1872" lon="-1.59402">
        <ele>31</ele>
        <time>2021-02-13T14:40:19.000Z</time>
      </trkpt>
      <trkpt lat="47.18718" lon="-1.59425">
        <ele>31</ele>
        <time>2021-02-13T14:40:21.000Z</time>
      </trkpt>
      <trkpt lat="47.18715" lon="-1.59448">
        <ele>31</ele>
        <time>2021-02-13T14:40:23.000Z</time>
      </trkpt>
      <trkpt lat="47.18712" lon="-1.59471">
        <ele>31</ele>
        <time>2021-02-13T14:40:25.000Z</time>
      </trkpt>
      <trkpt lat="47.1871" lon="-1.59495">
        <ele>31</ele>
        <time>2021-02-13T14:40:27.000Z</time>
      </trkpt>
      <trkpt lat="47.18708" lon="-1.59517">
        <ele>32</ele>
        <time>2021-02-13T14:40:29.000Z</time>
      </trkpt>
      <trkpt lat="47.18705" lon="-1.59541">
        <ele>32</ele>
        <time>2021-02-13T14:40:31.000Z</time>
      </trkpt>
      <trkpt lat="47.18702" lon="-1.59564">
        <ele>32</ele>
        <time>2021-02-13T14:40:33.000Z</time>
      </trkpt>
      <trkpt lat="47.18699" lon="-1.59587">
        <ele>31</ele>
        <time>2021-02-13T14:40:35.000Z</time>
      </trkpt>
      <trkpt lat="47.18697" lon="-1.5961">
        <ele>31</ele>
        <time>2021-02-13T14:40:37.000Z</time>
      </trkpt>
      <trkpt lat="47.18694" lon="-1.59632">
        <ele>30</ele>
        <time>2021-02-13T14:40:39.000Z</time>
      </trkpt>
      <trkpt lat="47.18691" lon="-1.59655">
        <ele>30</ele>
        <time>2021-02-13T14:40:41.000Z</time>
      </trkpt>
      <trkpt lat="47.18688" lon="-1.59678">
        <ele>31</ele>
        <time>2021-02-13T14:40:43.000Z</time>
      </trkpt>
      <trkpt lat="47.18685" lon="-1.59701">
        <ele>30</ele>
        <time>2021-02-13T14:40:45.000Z</time>
      </trkpt>
      <trkpt lat="47.18684" lon="-1.59724">
        <ele>31</ele>
        <time>2021-02-13T14:40:47.000Z</time>
      </trkpt>
      <trkpt lat="47.18684" lon="-1.59749">
        <ele>31</ele>
        <time>2021-02-13T14:40:49.000Z</time>
      </trkpt>
      <trkpt lat="47.18684" lon="-1.59762">
        <ele>31</ele>
        <time>2021-02-13T14:40:50.000Z</time>
      </trkpt>
      <trkpt lat="47.18684" lon="-1.59777">
        <ele>31</ele>
        <time>2021-02-13T14:40:51.000Z</time>
      </trkpt>
      <trkpt lat="47.18685" lon="-1.59792">
        <ele>31</ele>
        <time>2021-02-13T14:40:52.000Z</time>
      </trkpt>
      <trkpt lat="47.18685" lon="-1.59806">
        <ele>31</ele>
        <time>2021-02-13T14:40:53.000Z</time>
      </trkpt>
      <trkpt lat="47.18681" lon="-1.59821">
        <ele>31</ele>
        <time>2021-02-13T14:40:54.000Z</time>
      </trkpt>
      <trkpt lat="47.18673" lon="-1.59832">
        <ele>30</ele>
        <time>2021-02-13T14:40:55.000Z</time>
      </trkpt>
      <trkpt lat="47.18664" lon="-1.5984">
        <ele>30</ele>
        <time>2021-02-13T14:40:56.000Z</time>
      </trkpt>
      <trkpt lat="47.18653" lon="-1.59843">
        <ele>30</ele>
        <time>2021-02-13T14:40:57.000Z</time>
      </trkpt>
      <trkpt lat="47.18644" lon="-1.59841">
        <ele>30</ele>
        <time>2021-02-13T14:40:58.000Z</time>
      </trkpt>
      <trkpt lat="47.1863" lon="-1.59829">
        <ele>31</ele>
        <time>2021-02-13T14:41:00.000Z</time>
      </trkpt>
      <trkpt lat="47.18617" lon="-1.59828">
        <ele>34</ele>
        <time>2021-02-13T14:41:02.000Z</time>
      </trkpt>
      <trkpt lat="47.18615" lon="-1.59846">
        <ele>37</ele>
        <time>2021-02-13T14:41:04.000Z</time>
      </trkpt>
      <trkpt lat="47.18622" lon="-1.59864">
        <ele>36</ele>
        <time>2021-02-13T14:41:06.000Z</time>
      </trkpt>
      <trkpt lat="47.1862" lon="-1.59884">
        <ele>34</ele>
        <time>2021-02-13T14:41:08.000Z</time>
      </trkpt>
      <trkpt lat="47.18614" lon="-1.59905">
        <ele>32</ele>
        <time>2021-02-13T14:41:10.000Z</time>
      </trkpt>
      <trkpt lat="47.18607" lon="-1.59926">
        <ele>31</ele>
        <time>2021-02-13T14:41:12.000Z</time>
      </trkpt>
      <trkpt lat="47.18601" lon="-1.59948">
        <ele>30</ele>
        <time>2021-02-13T14:41:14.000Z</time>
      </trkpt>
      <trkpt lat="47.18594" lon="-1.59969">
        <ele>29</ele>
        <time>2021-02-13T14:41:16.000Z</time>
      </trkpt>
      <trkpt lat="47.18587" lon="-1.5999">
        <ele>29</ele>
        <time>2021-02-13T14:41:18.000Z</time>
      </trkpt>
      <trkpt lat="47.18581" lon="-1.6001">
        <ele>29</ele>
        <time>2021-02-13T14:41:20.000Z</time>
      </trkpt>
      <trkpt lat="47.18574" lon="-1.6003">
        <ele>28</ele>
        <time>2021-02-13T14:41:22.000Z</time>
      </trkpt>
      <trkpt lat="47.18567" lon="-1.60049">
        <ele>28</ele>
        <time>2021-02-13T14:41:24.000Z</time>
      </trkpt>
      <trkpt lat="47.1856" lon="-1.60067">
        <ele>28</ele>
        <time>2021-02-13T14:41:26.000Z</time>
      </trkpt>
      <trkpt lat="47.1855" lon="-1.60095">
        <ele>29</ele>
        <time>2021-02-13T14:41:29.000Z</time>
      </trkpt>
      <trkpt lat="47.18542" lon="-1.60113">
        <ele>29</ele>
        <time>2021-02-13T14:41:31.000Z</time>
      </trkpt>
      <trkpt lat="47.18535" lon="-1.6013">
        <ele>28</ele>
        <time>2021-02-13T14:41:33.000Z</time>
      </trkpt>
      <trkpt lat="47.18527" lon="-1.60148">
        <ele>28</ele>
        <time>2021-02-13T14:41:35.000Z</time>
      </trkpt>
      <trkpt lat="47.18518" lon="-1.60165">
        <ele>28</ele>
        <time>2021-02-13T14:41:37.000Z</time>
      </trkpt>
      <trkpt lat="47.18509" lon="-1.60182">
        <ele>28</ele>
        <time>2021-02-13T14:41:39.000Z</time>
      </trkpt>
      <trkpt lat="47.18501" lon="-1.60198">
        <ele>28</ele>
        <time>2021-02-13T14:41:41.000Z</time>
      </trkpt>
      <trkpt lat="47.18493" lon="-1.60215">
        <ele>28</ele>
        <time>2021-02-13T14:41:43.000Z</time>
      </trkpt>
      <trkpt lat="47.18484" lon="-1.60231">
        <ele>28</ele>
        <time>2021-02-13T14:41:45.000Z</time>
      </trkpt>
      <trkpt lat="47.18471" lon="-1.60255">
        <ele>28</ele>
        <time>2021-02-13T14:41:48.000Z</time>
      </trkpt>
      <trkpt lat="47.18462" lon="-1.60272">
        <ele>28</ele>
        <time>2021-02-13T14:41:50.000Z</time>
      </trkpt>
      <trkpt lat="47.18453" lon="-1.60288">
        <ele>28</ele>
        <time>2021-02-13T14:41:52.000Z</time>
      </trkpt>
      <trkpt lat="47.18444" lon="-1.60303">
        <ele>28</ele>
        <time>2021-02-13T14:41:54.000Z</time>
      </trkpt>
      <trkpt lat="47.18435" lon="-1.60319">
        <ele>28</ele>
        <time>2021-02-13T14:41:56.000Z</time>
      </trkpt>
      <trkpt lat="47.18425" lon="-1.60334">
        <ele>29</ele>
        <time>2021-02-13T14:41:58.000Z</time>
      </trkpt>
      <trkpt lat="47.18415" lon="-1.60349">
        <ele>28</ele>
        <time>2021-02-13T14:42:00.000Z</time>
      </trkpt>
      <trkpt lat="47.18405" lon="-1.60363">
        <ele>28</ele>
        <time>2021-02-13T14:42:02.000Z</time>
      </trkpt>
      <trkpt lat="47.18394" lon="-1.60377">
        <ele>28</ele>
        <time>2021-02-13T14:42:04.000Z</time>
      </trkpt>
      <trkpt lat="47.18384" lon="-1.6039">
        <ele>28</ele>
        <time>2021-02-13T14:42:06.000Z</time>
      </trkpt>
      <trkpt lat="47.18368" lon="-1.6041">
        <ele>28</ele>
        <time>2021-02-13T14:42:09.000Z</time>
      </trkpt>
      <trkpt lat="47.18359" lon="-1.60424">
        <ele>27</ele>
        <time>2021-02-13T14:42:11.000Z</time>
      </trkpt>
      <trkpt lat="47.18349" lon="-1.60436">
        <ele>27</ele>
        <time>2021-02-13T14:42:13.000Z</time>
      </trkpt>
      <trkpt lat="47.18339" lon="-1.60449">
        <ele>27</ele>
        <time>2021-02-13T14:42:15.000Z</time>
      </trkpt>
      <trkpt lat="47.1833" lon="-1.60461">
        <ele>28</ele>
        <time>2021-02-13T14:42:17.000Z</time>
      </trkpt>
      <trkpt lat="47.1832" lon="-1.60473">
        <ele>28</ele>
        <time>2021-02-13T14:42:19.000Z</time>
      </trkpt>
      <trkpt lat="47.18309" lon="-1.60485">
        <ele>29</ele>
        <time>2021-02-13T14:42:21.000Z</time>
      </trkpt>
      <trkpt lat="47.18298" lon="-1.60497">
        <ele>30</ele>
        <time>2021-02-13T14:42:23.000Z</time>
      </trkpt>
      <trkpt lat="47.18288" lon="-1.60508">
        <ele>30</ele>
        <time>2021-02-13T14:42:25.000Z</time>
      </trkpt>
      <trkpt lat="47.18277" lon="-1.60519">
        <ele>30</ele>
        <time>2021-02-13T14:42:27.000Z</time>
      </trkpt>
      <trkpt lat="47.18266" lon="-1.6053">
        <ele>30</ele>
        <time>2021-02-13T14:42:29.000Z</time>
      </trkpt>
      <trkpt lat="47.18254" lon="-1.60541">
        <ele>31</ele>
        <time>2021-02-13T14:42:31.000Z</time>
      </trkpt>
      <trkpt lat="47.18243" lon="-1.60549">
        <ele>32</ele>
        <time>2021-02-13T14:42:33.000Z</time>
      </trkpt>
      <trkpt lat="47.18232" lon="-1.60558">
        <ele>31</ele>
        <time>2021-02-13T14:42:35.000Z</time>
      </trkpt>
      <trkpt lat="47.18221" lon="-1.60564">
        <ele>31</ele>
        <time>2021-02-13T14:42:37.000Z</time>
      </trkpt>
      <trkpt lat="47.1821" lon="-1.6057">
        <ele>31</ele>
        <time>2021-02-13T14:42:39.000Z</time>
      </trkpt>
      <trkpt lat="47.18195" lon="-1.60575">
        <ele>30</ele>
        <time>2021-02-13T14:42:42.000Z</time>
      </trkpt>
      <trkpt lat="47.18188" lon="-1.60589">
        <ele>29</ele>
        <time>2021-02-13T14:42:45.000Z</time>
      </trkpt>
      <trkpt lat="47.18175" lon="-1.606">
        <ele>31</ele>
        <time>2021-02-13T14:42:48.000Z</time>
      </trkpt>
      <trkpt lat="47.18163" lon="-1.60602">
        <ele>32</ele>
        <time>2021-02-13T14:42:50.000Z</time>
      </trkpt>
      <trkpt lat="47.1815" lon="-1.60603">
        <ele>33</ele>
        <time>2021-02-13T14:42:52.000Z</time>
      </trkpt>
      <trkpt lat="47.18137" lon="-1.60602">
        <ele>34</ele>
        <time>2021-02-13T14:42:54.000Z</time>
      </trkpt>
      <trkpt lat="47.18125" lon="-1.606">
        <ele>35</ele>
        <time>2021-02-13T14:42:56.000Z</time>
      </trkpt>
      <trkpt lat="47.18113" lon="-1.60597">
        <ele>37</ele>
        <time>2021-02-13T14:42:58.000Z</time>
      </trkpt>
      <trkpt lat="47.18093" lon="-1.60587">
        <ele>39</ele>
        <time>2021-02-13T14:43:01.000Z</time>
      </trkpt>
      <trkpt lat="47.1808" lon="-1.6058">
        <ele>41</ele>
        <time>2021-02-13T14:43:03.000Z</time>
      </trkpt>
      <trkpt lat="47.18067" lon="-1.60573">
        <ele>42</ele>
        <time>2021-02-13T14:43:05.000Z</time>
      </trkpt>
      <trkpt lat="47.18055" lon="-1.60567">
        <ele>44</ele>
        <time>2021-02-13T14:43:07.000Z</time>
      </trkpt>
      <trkpt lat="47.18037" lon="-1.60559">
        <ele>45</ele>
        <time>2021-02-13T14:43:10.000Z</time>
      </trkpt>
      <trkpt lat="47.18025" lon="-1.60554">
        <ele>46</ele>
        <time>2021-02-13T14:43:12.000Z</time>
      </trkpt>
      <trkpt lat="47.18012" lon="-1.60555">
        <ele>46</ele>
        <time>2021-02-13T14:43:14.000Z</time>
      </trkpt>
      <trkpt lat="47.17993" lon="-1.60559">
        <ele>48</ele>
        <time>2021-02-13T14:43:17.000Z</time>
      </trkpt>
      <trkpt lat="47.17981" lon="-1.60563">
        <ele>49</ele>
        <time>2021-02-13T14:43:19.000Z</time>
      </trkpt>
      <trkpt lat="47.17969" lon="-1.60568">
        <ele>48</ele>
        <time>2021-02-13T14:43:21.000Z</time>
      </trkpt>
      <trkpt lat="47.17957" lon="-1.60574">
        <ele>48</ele>
        <time>2021-02-13T14:43:23.000Z</time>
      </trkpt>
      <trkpt lat="47.17946" lon="-1.6058">
        <ele>48</ele>
        <time>2021-02-13T14:43:25.000Z</time>
      </trkpt>
      <trkpt lat="47.17931" lon="-1.60587">
        <ele>50</ele>
        <time>2021-02-13T14:43:28.000Z</time>
      </trkpt>
      <trkpt lat="47.17921" lon="-1.60588">
        <ele>50</ele>
        <time>2021-02-13T14:43:30.000Z</time>
      </trkpt>
      <trkpt lat="47.17911" lon="-1.6059">
        <ele>48</ele>
        <time>2021-02-13T14:43:32.000Z</time>
      </trkpt>
      <trkpt lat="47.17904" lon="-1.60601">
        <ele>48</ele>
        <time>2021-02-13T14:43:34.000Z</time>
      </trkpt>
      <trkpt lat="47.17897" lon="-1.60627">
        <ele>47</ele>
        <time>2021-02-13T14:43:37.000Z</time>
      </trkpt>
      <trkpt lat="47.17891" lon="-1.60646">
        <ele>48</ele>
        <time>2021-02-13T14:43:39.000Z</time>
      </trkpt>
      <trkpt lat="47.17885" lon="-1.60665">
        <ele>48</ele>
        <time>2021-02-13T14:43:41.000Z</time>
      </trkpt>
      <trkpt lat="47.17879" lon="-1.60684">
        <ele>47</ele>
        <time>2021-02-13T14:43:43.000Z</time>
      </trkpt>
      <trkpt lat="47.17873" lon="-1.60703">
        <ele>47</ele>
        <time>2021-02-13T14:43:45.000Z</time>
      </trkpt>
      <trkpt lat="47.17869" lon="-1.60722">
        <ele>47</ele>
        <time>2021-02-13T14:43:47.000Z</time>
      </trkpt>
      <trkpt lat="47.17864" lon="-1.6074">
        <ele>47</ele>
        <time>2021-02-13T14:43:49.000Z</time>
      </trkpt>
      <trkpt lat="47.17859" lon="-1.6076">
        <ele>47</ele>
        <time>2021-02-13T14:43:51.000Z</time>
      </trkpt>
      <trkpt lat="47.17855" lon="-1.60779">
        <ele>48</ele>
        <time>2021-02-13T14:43:53.000Z</time>
      </trkpt>
      <trkpt lat="47.17851" lon="-1.60798">
        <ele>48</ele>
        <time>2021-02-13T14:43:55.000Z</time>
      </trkpt>
      <trkpt lat="47.17847" lon="-1.60816">
        <ele>49</ele>
        <time>2021-02-13T14:43:57.000Z</time>
      </trkpt>
      <trkpt lat="47.17842" lon="-1.60834">
        <ele>50</ele>
        <time>2021-02-13T14:43:59.000Z</time>
      </trkpt>
      <trkpt lat="47.17836" lon="-1.60851">
        <ele>50</ele>
        <time>2021-02-13T14:44:01.000Z</time>
      </trkpt>
      <trkpt lat="47.17827" lon="-1.60866">
        <ele>50</ele>
        <time>2021-02-13T14:44:03.000Z</time>
      </trkpt>
      <trkpt lat="47.17818" lon="-1.6088">
        <ele>50</ele>
        <time>2021-02-13T14:44:05.000Z</time>
      </trkpt>
      <trkpt lat="47.17807" lon="-1.60892">
        <ele>50</ele>
        <time>2021-02-13T14:44:07.000Z</time>
      </trkpt>
      <trkpt lat="47.17795" lon="-1.60902">
        <ele>50</ele>
        <time>2021-02-13T14:44:09.000Z</time>
      </trkpt>
      <trkpt lat="47.17783" lon="-1.60911">
        <ele>50</ele>
        <time>2021-02-13T14:44:11.000Z</time>
      </trkpt>
      <trkpt lat="47.17771" lon="-1.60921">
        <ele>50</ele>
        <time>2021-02-13T14:44:13.000Z</time>
      </trkpt>
      <trkpt lat="47.1776" lon="-1.6093">
        <ele>50</ele>
        <time>2021-02-13T14:44:15.000Z</time>
      </trkpt>
      <trkpt lat="47.17749" lon="-1.60939">
        <ele>50</ele>
        <time>2021-02-13T14:44:17.000Z</time>
      </trkpt>
      <trkpt lat="47.17737" lon="-1.60948">
        <ele>50</ele>
        <time>2021-02-13T14:44:19.000Z</time>
      </trkpt>
      <trkpt lat="47.17726" lon="-1.60957">
        <ele>50</ele>
        <time>2021-02-13T14:44:21.000Z</time>
      </trkpt>
      <trkpt lat="47.17713" lon="-1.60966">
        <ele>50</ele>
        <time>2021-02-13T14:44:23.000Z</time>
      </trkpt>
      <trkpt lat="47.17701" lon="-1.60973">
        <ele>50</ele>
        <time>2021-02-13T14:44:25.000Z</time>
      </trkpt>
      <trkpt lat="47.17689" lon="-1.60978">
        <ele>50</ele>
        <time>2021-02-13T14:44:27.000Z</time>
      </trkpt>
      <trkpt lat="47.17674" lon="-1.60977">
        <ele>50</ele>
        <time>2021-02-13T14:44:29.000Z</time>
      </trkpt>
      <trkpt lat="47.1766" lon="-1.60976">
        <ele>49</ele>
        <time>2021-02-13T14:44:31.000Z</time>
      </trkpt>
      <trkpt lat="47.17647" lon="-1.60984">
        <ele>49</ele>
        <time>2021-02-13T14:44:33.000Z</time>
      </trkpt>
      <trkpt lat="47.17635" lon="-1.60994">
        <ele>49</ele>
        <time>2021-02-13T14:44:35.000Z</time>
      </trkpt>
      <trkpt lat="47.17624" lon="-1.61004">
        <ele>48</ele>
        <time>2021-02-13T14:44:37.000Z</time>
      </trkpt>
      <trkpt lat="47.17612" lon="-1.61014">
        <ele>49</ele>
        <time>2021-02-13T14:44:39.000Z</time>
      </trkpt>
      <trkpt lat="47.17601" lon="-1.61023">
        <ele>49</ele>
        <time>2021-02-13T14:44:41.000Z</time>
      </trkpt>
      <trkpt lat="47.1759" lon="-1.61033">
        <ele>49</ele>
        <time>2021-02-13T14:44:43.000Z</time>
      </trkpt>
      <trkpt lat="47.17579" lon="-1.61043">
        <ele>48</ele>
        <time>2021-02-13T14:44:45.000Z</time>
      </trkpt>
      <trkpt lat="47.17567" lon="-1.61053">
        <ele>49</ele>
        <time>2021-02-13T14:44:47.000Z</time>
      </trkpt>
      <trkpt lat="47.17556" lon="-1.61063">
        <ele>49</ele>
        <time>2021-02-13T14:44:49.000Z</time>
      </trkpt>
      <trkpt lat="47.17545" lon="-1.61073">
        <ele>49</ele>
        <time>2021-02-13T14:44:51.000Z</time>
      </trkpt>
      <trkpt lat="47.17533" lon="-1.61083">
        <ele>49</ele>
        <time>2021-02-13T14:44:53.000Z</time>
      </trkpt>
      <trkpt lat="47.17522" lon="-1.61093">
        <ele>50</ele>
        <time>2021-02-13T14:44:55.000Z</time>
      </trkpt>
      <trkpt lat="47.17511" lon="-1.61102">
        <ele>50</ele>
        <time>2021-02-13T14:44:57.000Z</time>
      </trkpt>
      <trkpt lat="47.17499" lon="-1.61105">
        <ele>50</ele>
        <time>2021-02-13T14:44:59.000Z</time>
      </trkpt>
      <trkpt lat="47.17487" lon="-1.61106">
        <ele>50</ele>
        <time>2021-02-13T14:45:01.000Z</time>
      </trkpt>
      <trkpt lat="47.17474" lon="-1.61102">
        <ele>50</ele>
        <time>2021-02-13T14:45:03.000Z</time>
      </trkpt>
      <trkpt lat="47.17459" lon="-1.61089">
        <ele>51</ele>
        <time>2021-02-13T14:45:06.000Z</time>
      </trkpt>
      <trkpt lat="47.1745" lon="-1.61079">
        <ele>52</ele>
        <time>2021-02-13T14:45:08.000Z</time>
      </trkpt>
      <trkpt lat="47.17443" lon="-1.61067">
        <ele>53</ele>
        <time>2021-02-13T14:45:10.000Z</time>
      </trkpt>
      <trkpt lat="47.17437" lon="-1.61053">
        <ele>54</ele>
        <time>2021-02-13T14:45:12.000Z</time>
      </trkpt>
      <trkpt lat="47.17431" lon="-1.61038">
        <ele>53</ele>
        <time>2021-02-13T14:45:14.000Z</time>
      </trkpt>
      <trkpt lat="47.17429" lon="-1.61025">
        <ele>53</ele>
        <time>2021-02-13T14:45:16.000Z</time>
      </trkpt>
      <trkpt lat="47.17422" lon="-1.61036">
        <ele>54</ele>
        <time>2021-02-13T14:45:21.000Z</time>
      </trkpt>
      <trkpt lat="47.17425" lon="-1.61049">
        <ele>54</ele>
        <time>2021-02-13T14:45:23.000Z</time>
      </trkpt>
      <trkpt lat="47.1743" lon="-1.61063">
        <ele>53</ele>
        <time>2021-02-13T14:45:25.000Z</time>
      </trkpt>
      <trkpt lat="47.17436" lon="-1.61079">
        <ele>53</ele>
        <time>2021-02-13T14:45:27.000Z</time>
      </trkpt>
      <trkpt lat="47.17443" lon="-1.61095">
        <ele>53</ele>
        <time>2021-02-13T14:45:29.000Z</time>
      </trkpt>
      <trkpt lat="47.1745" lon="-1.6111">
        <ele>53</ele>
        <time>2021-02-13T14:45:31.000Z</time>
      </trkpt>
      <trkpt lat="47.17456" lon="-1.61126">
        <ele>50</ele>
        <time>2021-02-13T14:45:33.000Z</time>
      </trkpt>
      <trkpt lat="47.17462" lon="-1.61141">
        <ele>51</ele>
        <time>2021-02-13T14:45:35.000Z</time>
      </trkpt>
      <trkpt lat="47.17469" lon="-1.61156">
        <ele>51</ele>
        <time>2021-02-13T14:45:37.000Z</time>
      </trkpt>
      <trkpt lat="47.17475" lon="-1.61171">
        <ele>53</ele>
        <time>2021-02-13T14:45:39.000Z</time>
      </trkpt>
      <trkpt lat="47.17481" lon="-1.61185">
        <ele>55</ele>
        <time>2021-02-13T14:45:41.000Z</time>
      </trkpt>
      <trkpt lat="47.17487" lon="-1.61199">
        <ele>55</ele>
        <time>2021-02-13T14:45:43.000Z</time>
      </trkpt>
      <trkpt lat="47.17492" lon="-1.61214">
        <ele>56</ele>
        <time>2021-02-13T14:45:45.000Z</time>
      </trkpt>
      <trkpt lat="47.17501" lon="-1.61235">
        <ele>55</ele>
        <time>2021-02-13T14:45:48.000Z</time>
      </trkpt>
      <trkpt lat="47.17508" lon="-1.61249">
        <ele>55</ele>
        <time>2021-02-13T14:45:50.000Z</time>
      </trkpt>
      <trkpt lat="47.17516" lon="-1.61262">
        <ele>55</ele>
        <time>2021-02-13T14:45:52.000Z</time>
      </trkpt>
      <trkpt lat="47.17524" lon="-1.61273">
        <ele>55</ele>
        <time>2021-02-13T14:45:54.000Z</time>
      </trkpt>
      <trkpt lat="47.17533" lon="-1.61282">
        <ele>55</ele>
        <time>2021-02-13T14:45:56.000Z</time>
      </trkpt>
      <trkpt lat="47.17543" lon="-1.6129">
        <ele>55</ele>
        <time>2021-02-13T14:45:58.000Z</time>
      </trkpt>
      <trkpt lat="47.17553" lon="-1.61297">
        <ele>55</ele>
        <time>2021-02-13T14:46:00.000Z</time>
      </trkpt>
      <trkpt lat="47.17561" lon="-1.61313">
        <ele>55</ele>
        <time>2021-02-13T14:46:02.000Z</time>
      </trkpt>
      <trkpt lat="47.1756" lon="-1.61333">
        <ele>56</ele>
        <time>2021-02-13T14:46:04.000Z</time>
      </trkpt>
      <trkpt lat="47.17553" lon="-1.61348">
        <ele>56</ele>
        <time>2021-02-13T14:46:06.000Z</time>
      </trkpt>
      <trkpt lat="47.17542" lon="-1.61357">
        <ele>56</ele>
        <time>2021-02-13T14:46:08.000Z</time>
      </trkpt>
      <trkpt lat="47.17532" lon="-1.6137">
        <ele>56</ele>
        <time>2021-02-13T14:46:10.000Z</time>
      </trkpt>
      <trkpt lat="47.17526" lon="-1.61387">
        <ele>57</ele>
        <time>2021-02-13T14:46:12.000Z</time>
      </trkpt>
      <trkpt lat="47.17521" lon="-1.61403">
        <ele>58</ele>
        <time>2021-02-13T14:46:14.000Z</time>
      </trkpt>
      <trkpt lat="47.17518" lon="-1.6142">
        <ele>60</ele>
        <time>2021-02-13T14:46:16.000Z</time>
      </trkpt>
      <trkpt lat="47.17516" lon="-1.61435">
        <ele>61</ele>
        <time>2021-02-13T14:46:18.000Z</time>
      </trkpt>
      <trkpt lat="47.17514" lon="-1.61449">
        <ele>62</ele>
        <time>2021-02-13T14:46:20.000Z</time>
      </trkpt>
      <trkpt lat="47.17507" lon="-1.61459">
        <ele>62</ele>
        <time>2021-02-13T14:46:22.000Z</time>
      </trkpt>
      <trkpt lat="47.17497" lon="-1.61465">
        <ele>62</ele>
        <time>2021-02-13T14:46:24.000Z</time>
      </trkpt>
      <trkpt lat="47.17485" lon="-1.6147">
        <ele>62</ele>
        <time>2021-02-13T14:46:26.000Z</time>
      </trkpt>
      <trkpt lat="47.17475" lon="-1.61474">
        <ele>62</ele>
        <time>2021-02-13T14:46:28.000Z</time>
      </trkpt>
      <trkpt lat="47.17464" lon="-1.61479">
        <ele>62</ele>
        <time>2021-02-13T14:46:30.000Z</time>
      </trkpt>
      <trkpt lat="47.17453" lon="-1.61485">
        <ele>62</ele>
        <time>2021-02-13T14:46:32.000Z</time>
      </trkpt>
      <trkpt lat="47.17442" lon="-1.61491">
        <ele>62</ele>
        <time>2021-02-13T14:46:34.000Z</time>
      </trkpt>
      <trkpt lat="47.17432" lon="-1.61497">
        <ele>63</ele>
        <time>2021-02-13T14:46:36.000Z</time>
      </trkpt>
      <trkpt lat="47.17421" lon="-1.61504">
        <ele>63</ele>
        <time>2021-02-13T14:46:38.000Z</time>
      </trkpt>
      <trkpt lat="47.17412" lon="-1.61511">
        <ele>64</ele>
        <time>2021-02-13T14:46:40.000Z</time>
      </trkpt>
      <trkpt lat="47.17402" lon="-1.61518">
        <ele>64</ele>
        <time>2021-02-13T14:46:42.000Z</time>
      </trkpt>
      <trkpt lat="47.17393" lon="-1.61526">
        <ele>65</ele>
        <time>2021-02-13T14:46:44.000Z</time>
      </trkpt>
      <trkpt lat="47.17384" lon="-1.61535">
        <ele>65</ele>
        <time>2021-02-13T14:46:46.000Z</time>
      </trkpt>
      <trkpt lat="47.17376" lon="-1.61544">
        <ele>67</ele>
        <time>2021-02-13T14:46:48.000Z</time>
      </trkpt>
      <trkpt lat="47.17368" lon="-1.61553">
        <ele>68</ele>
        <time>2021-02-13T14:46:50.000Z</time>
      </trkpt>
      <trkpt lat="47.17359" lon="-1.61562">
        <ele>69</ele>
        <time>2021-02-13T14:46:52.000Z</time>
      </trkpt>
      <trkpt lat="47.17351" lon="-1.61571">
        <ele>69</ele>
        <time>2021-02-13T14:46:54.000Z</time>
      </trkpt>
      <trkpt lat="47.17342" lon="-1.61581">
        <ele>69</ele>
        <time>2021-02-13T14:46:56.000Z</time>
      </trkpt>
      <trkpt lat="47.17333" lon="-1.61591">
        <ele>69</ele>
        <time>2021-02-13T14:46:58.000Z</time>
      </trkpt>
      <trkpt lat="47.17324" lon="-1.61602">
        <ele>69</ele>
        <time>2021-02-13T14:47:00.000Z</time>
      </trkpt>
      <trkpt lat="47.17316" lon="-1.61613">
        <ele>69</ele>
        <time>2021-02-13T14:47:02.000Z</time>
      </trkpt>
      <trkpt lat="47.17308" lon="-1.61625">
        <ele>69</ele>
        <time>2021-02-13T14:47:04.000Z</time>
      </trkpt>
      <trkpt lat="47.173" lon="-1.61637">
        <ele>68</ele>
        <time>2021-02-13T14:47:06.000Z</time>
      </trkpt>
      <trkpt lat="47.17293" lon="-1.61651">
        <ele>69</ele>
        <time>2021-02-13T14:47:08.000Z</time>
      </trkpt>
      <trkpt lat="47.17286" lon="-1.61664">
        <ele>70</ele>
        <time>2021-02-13T14:47:10.000Z</time>
      </trkpt>
      <trkpt lat="47.17278" lon="-1.61678">
        <ele>70</ele>
        <time>2021-02-13T14:47:12.000Z</time>
      </trkpt>
      <trkpt lat="47.17271" lon="-1.61693">
        <ele>70</ele>
        <time>2021-02-13T14:47:14.000Z</time>
      </trkpt>
      <trkpt lat="47.17263" lon="-1.61706">
        <ele>69</ele>
        <time>2021-02-13T14:47:16.000Z</time>
      </trkpt>
      <trkpt lat="47.17256" lon="-1.61721">
        <ele>69</ele>
        <time>2021-02-13T14:47:18.000Z</time>
      </trkpt>
      <trkpt lat="47.1725" lon="-1.61735">
        <ele>69</ele>
        <time>2021-02-13T14:47:20.000Z</time>
      </trkpt>
      <trkpt lat="47.17245" lon="-1.61751">
        <ele>69</ele>
        <time>2021-02-13T14:47:22.000Z</time>
      </trkpt>
      <trkpt lat="47.17243" lon="-1.61768">
        <ele>68</ele>
        <time>2021-02-13T14:47:24.000Z</time>
      </trkpt>
      <trkpt lat="47.17235" lon="-1.61782">
        <ele>68</ele>
        <time>2021-02-13T14:47:26.000Z</time>
      </trkpt>
      <trkpt lat="47.17225" lon="-1.61791">
        <ele>67</ele>
        <time>2021-02-13T14:47:28.000Z</time>
      </trkpt>
      <trkpt lat="47.17215" lon="-1.61802">
        <ele>67</ele>
        <time>2021-02-13T14:47:30.000Z</time>
      </trkpt>
      <trkpt lat="47.17205" lon="-1.6181">
        <ele>67</ele>
        <time>2021-02-13T14:47:32.000Z</time>
      </trkpt>
      <trkpt lat="47.17195" lon="-1.61819">
        <ele>67</ele>
        <time>2021-02-13T14:47:34.000Z</time>
      </trkpt>
      <trkpt lat="47.17185" lon="-1.61828">
        <ele>67</ele>
        <time>2021-02-13T14:47:36.000Z</time>
      </trkpt>
      <trkpt lat="47.17175" lon="-1.61838">
        <ele>67</ele>
        <time>2021-02-13T14:47:38.000Z</time>
      </trkpt>
      <trkpt lat="47.17165" lon="-1.61847">
        <ele>67</ele>
        <time>2021-02-13T14:47:40.000Z</time>
      </trkpt>
      <trkpt lat="47.17155" lon="-1.61856">
        <ele>67</ele>
        <time>2021-02-13T14:47:42.000Z</time>
      </trkpt>
      <trkpt lat="47.17146" lon="-1.61866">
        <ele>67</ele>
        <time>2021-02-13T14:47:44.000Z</time>
      </trkpt>
      <trkpt lat="47.17136" lon="-1.61875">
        <ele>67</ele>
        <time>2021-02-13T14:47:46.000Z</time>
      </trkpt>
      <trkpt lat="47.17126" lon="-1.61885">
        <ele>67</ele>
        <time>2021-02-13T14:47:48.000Z</time>
      </trkpt>
      <trkpt lat="47.17116" lon="-1.61893">
        <ele>67</ele>
        <time>2021-02-13T14:47:50.000Z</time>
      </trkpt>
      <trkpt lat="47.17106" lon="-1.61903">
        <ele>66</ele>
        <time>2021-02-13T14:47:52.000Z</time>
      </trkpt>
      <trkpt lat="47.17097" lon="-1.61912">
        <ele>66</ele>
        <time>2021-02-13T14:47:54.000Z</time>
      </trkpt>
      <trkpt lat="47.17087" lon="-1.61922">
        <ele>66</ele>
        <time>2021-02-13T14:47:56.000Z</time>
      </trkpt>
      <trkpt lat="47.17078" lon="-1.61931">
        <ele>66</ele>
        <time>2021-02-13T14:47:58.000Z</time>
      </trkpt>
      <trkpt lat="47.17069" lon="-1.61941">
        <ele>67</ele>
        <time>2021-02-13T14:48:00.000Z</time>
      </trkpt>
      <trkpt lat="47.17059" lon="-1.61952">
        <ele>67</ele>
        <time>2021-02-13T14:48:02.000Z</time>
      </trkpt>
      <trkpt lat="47.1705" lon="-1.61964">
        <ele>67</ele>
        <time>2021-02-13T14:48:04.000Z</time>
      </trkpt>
      <trkpt lat="47.17042" lon="-1.61977">
        <ele>66</ele>
        <time>2021-02-13T14:48:06.000Z</time>
      </trkpt>
      <trkpt lat="47.17034" lon="-1.6199">
        <ele>66</ele>
        <time>2021-02-13T14:48:08.000Z</time>
      </trkpt>
      <trkpt lat="47.17024" lon="-1.62003">
        <ele>66</ele>
        <time>2021-02-13T14:48:10.000Z</time>
      </trkpt>
      <trkpt lat="47.17016" lon="-1.62016">
        <ele>67</ele>
        <time>2021-02-13T14:48:12.000Z</time>
      </trkpt>
      <trkpt lat="47.17007" lon="-1.62028">
        <ele>67</ele>
        <time>2021-02-13T14:48:14.000Z</time>
      </trkpt>
      <trkpt lat="47.16999" lon="-1.62042">
        <ele>66</ele>
        <time>2021-02-13T14:48:16.000Z</time>
      </trkpt>
      <trkpt lat="47.1699" lon="-1.62057">
        <ele>67</ele>
        <time>2021-02-13T14:48:18.000Z</time>
      </trkpt>
      <trkpt lat="47.16982" lon="-1.62072">
        <ele>67</ele>
        <time>2021-02-13T14:48:20.000Z</time>
      </trkpt>
      <trkpt lat="47.16974" lon="-1.62087">
        <ele>67</ele>
        <time>2021-02-13T14:48:22.000Z</time>
      </trkpt>
      <trkpt lat="47.16966" lon="-1.62102">
        <ele>67</ele>
        <time>2021-02-13T14:48:24.000Z</time>
      </trkpt>
      <trkpt lat="47.16958" lon="-1.62117">
        <ele>67</ele>
        <time>2021-02-13T14:48:26.000Z</time>
      </trkpt>
      <trkpt lat="47.1695" lon="-1.62132">
        <ele>67</ele>
        <time>2021-02-13T14:48:28.000Z</time>
      </trkpt>
      <trkpt lat="47.16942" lon="-1.62147">
        <ele>66</ele>
        <time>2021-02-13T14:48:30.000Z</time>
      </trkpt>
      <trkpt lat="47.16935" lon="-1.62162">
        <ele>66</ele>
        <time>2021-02-13T14:48:32.000Z</time>
      </trkpt>
      <trkpt lat="47.16929" lon="-1.62177">
        <ele>66</ele>
        <time>2021-02-13T14:48:34.000Z</time>
      </trkpt>
      <trkpt lat="47.16922" lon="-1.62192">
        <ele>66</ele>
        <time>2021-02-13T14:48:36.000Z</time>
      </trkpt>
      <trkpt lat="47.16913" lon="-1.62206">
        <ele>66</ele>
        <time>2021-02-13T14:48:38.000Z</time>
      </trkpt>
      <trkpt lat="47.16904" lon="-1.62219">
        <ele>66</ele>
        <time>2021-02-13T14:48:40.000Z</time>
      </trkpt>
      <trkpt lat="47.16894" lon="-1.62231">
        <ele>67</ele>
        <time>2021-02-13T14:48:42.000Z</time>
      </trkpt>
      <trkpt lat="47.16885" lon="-1.62243">
        <ele>67</ele>
        <time>2021-02-13T14:48:44.000Z</time>
      </trkpt>
      <trkpt lat="47.16875" lon="-1.62255">
        <ele>67</ele>
        <time>2021-02-13T14:48:46.000Z</time>
      </trkpt>
      <trkpt lat="47.16865" lon="-1.62267">
        <ele>67</ele>
        <time>2021-02-13T14:48:48.000Z</time>
      </trkpt>
      <trkpt lat="47.16856" lon="-1.62279">
        <ele>67</ele>
        <time>2021-02-13T14:48:50.000Z</time>
      </trkpt>
      <trkpt lat="47.16846" lon="-1.62291">
        <ele>68</ele>
        <time>2021-02-13T14:48:52.000Z</time>
      </trkpt>
      <trkpt lat="47.16836" lon="-1.62302">
        <ele>68</ele>
        <time>2021-02-13T14:48:54.000Z</time>
      </trkpt>
      <trkpt lat="47.16826" lon="-1.62312">
        <ele>67</ele>
        <time>2021-02-13T14:48:56.000Z</time>
      </trkpt>
      <trkpt lat="47.16815" lon="-1.62321">
        <ele>68</ele>
        <time>2021-02-13T14:48:58.000Z</time>
      </trkpt>
      <trkpt lat="47.16804" lon="-1.62328">
        <ele>67</ele>
        <time>2021-02-13T14:49:00.000Z</time>
      </trkpt>
      <trkpt lat="47.16792" lon="-1.62335">
        <ele>67</ele>
        <time>2021-02-13T14:49:02.000Z</time>
      </trkpt>
      <trkpt lat="47.1678" lon="-1.62341">
        <ele>66</ele>
        <time>2021-02-13T14:49:04.000Z</time>
      </trkpt>
      <trkpt lat="47.16769" lon="-1.62347">
        <ele>66</ele>
        <time>2021-02-13T14:49:06.000Z</time>
      </trkpt>
      <trkpt lat="47.16758" lon="-1.62355">
        <ele>66</ele>
        <time>2021-02-13T14:49:08.000Z</time>
      </trkpt>
      <trkpt lat="47.16747" lon="-1.62365">
        <ele>65</ele>
        <time>2021-02-13T14:49:10.000Z</time>
      </trkpt>
      <trkpt lat="47.16738" lon="-1.62379">
        <ele>64</ele>
        <time>2021-02-13T14:49:12.000Z</time>
      </trkpt>
      <trkpt lat="47.16732" lon="-1.62395">
        <ele>64</ele>
        <time>2021-02-13T14:49:14.000Z</time>
      </trkpt>
      <trkpt lat="47.16729" lon="-1.62412">
        <ele>65</ele>
        <time>2021-02-13T14:49:16.000Z</time>
      </trkpt>
      <trkpt lat="47.16727" lon="-1.62428">
        <ele>65</ele>
        <time>2021-02-13T14:49:18.000Z</time>
      </trkpt>
      <trkpt lat="47.16725" lon="-1.62444">
        <ele>65</ele>
        <time>2021-02-13T14:49:20.000Z</time>
      </trkpt>
      <trkpt lat="47.1672" lon="-1.6246">
        <ele>66</ele>
        <time>2021-02-13T14:49:22.000Z</time>
      </trkpt>
      <trkpt lat="47.16716" lon="-1.62476">
        <ele>66</ele>
        <time>2021-02-13T14:49:24.000Z</time>
      </trkpt>
      <trkpt lat="47.16715" lon="-1.62491">
        <ele>66</ele>
        <time>2021-02-13T14:49:26.000Z</time>
      </trkpt>
      <trkpt lat="47.16726" lon="-1.62497">
        <ele>65</ele>
        <time>2021-02-13T14:49:28.000Z</time>
      </trkpt>
      <trkpt lat="47.16738" lon="-1.62501">
        <ele>65</ele>
        <time>2021-02-13T14:49:30.000Z</time>
      </trkpt>
      <trkpt lat="47.16749" lon="-1.62506">
        <ele>65</ele>
        <time>2021-02-13T14:49:32.000Z</time>
      </trkpt>
      <trkpt lat="47.16761" lon="-1.62512">
        <ele>65</ele>
        <time>2021-02-13T14:49:34.000Z</time>
      </trkpt>
      <trkpt lat="47.16772" lon="-1.62519">
        <ele>65</ele>
        <time>2021-02-13T14:49:36.000Z</time>
      </trkpt>
      <trkpt lat="47.16783" lon="-1.62526">
        <ele>65</ele>
        <time>2021-02-13T14:49:38.000Z</time>
      </trkpt>
      <trkpt lat="47.16794" lon="-1.62533">
        <ele>65</ele>
        <time>2021-02-13T14:49:40.000Z</time>
      </trkpt>
      <trkpt lat="47.16804" lon="-1.62539">
        <ele>66</ele>
        <time>2021-02-13T14:49:42.000Z</time>
      </trkpt>
      <trkpt lat="47.16814" lon="-1.62548">
        <ele>66</ele>
        <time>2021-02-13T14:49:44.000Z</time>
      </trkpt>
      <trkpt lat="47.16823" lon="-1.62558">
        <ele>65</ele>
        <time>2021-02-13T14:49:46.000Z</time>
      </trkpt>
      <trkpt lat="47.16831" lon="-1.62572">
        <ele>64</ele>
        <time>2021-02-13T14:49:48.000Z</time>
      </trkpt>
      <trkpt lat="47.16829" lon="-1.62591">
        <ele>65</ele>
        <time>2021-02-13T14:49:50.000Z</time>
      </trkpt>
      <trkpt lat="47.1682" lon="-1.62604">
        <ele>65</ele>
        <time>2021-02-13T14:49:52.000Z</time>
      </trkpt>
      <trkpt lat="47.16813" lon="-1.62617">
        <ele>66</ele>
        <time>2021-02-13T14:49:54.000Z</time>
      </trkpt>
      <trkpt lat="47.16805" lon="-1.62629">
        <ele>66</ele>
        <time>2021-02-13T14:49:56.000Z</time>
      </trkpt>
      <trkpt lat="47.16798" lon="-1.62641">
        <ele>66</ele>
        <time>2021-02-13T14:49:58.000Z</time>
      </trkpt>
      <trkpt lat="47.16791" lon="-1.62652">
        <ele>67</ele>
        <time>2021-02-13T14:50:00.000Z</time>
      </trkpt>
      <trkpt lat="47.16783" lon="-1.62664">
        <ele>67</ele>
        <time>2021-02-13T14:50:03.000Z</time>
      </trkpt>
      <trkpt lat="47.16775" lon="-1.62657">
        <ele>66</ele>
        <time>2021-02-13T14:50:08.000Z</time>
      </trkpt>
    </trkseg>
  </trk>
</gpx>